<?xml version="1.0" encoding="UTF-8" standalone="no" ?>
<gpx xmlns="http://www.topografix.com/GPX/1/1" xmlns:xsi="http://www.w3.org/2001/XMLSchema-instance" xsi:schemaLocation="http://www.topografix.com/GPX/1/1 http://www.topografix.com/GPX/1/1/gpx.xsd" version="1.1" creator="VisuGPX - https://www.visugpx.com">
  <metadata>
    <name>Genas vers Mont verdun</name>
  </metadata>
  <trk>
    <name><![CDATA[Vélo de route à Mont verdun]]></name>
    <trkseg>
      <trkpt lat="45.72803" lon="5.00599">
        <ele>233.450933</ele>
        <time>2021-07-10T19:49:47.501Z</time>
      </trkpt>
      <trkpt lat="45.72804" lon="5.006">
        <ele>233.450933</ele>
        <time>2021-07-10T19:49:47.943Z</time>
      </trkpt>
      <trkpt lat="45.72806" lon="5.00617">
        <ele>233.450933</ele>
        <time>2021-07-10T19:49:51.017Z</time>
      </trkpt>
      <trkpt lat="45.72811" lon="5.00623">
        <ele>233.450933</ele>
        <time>2021-07-10T19:49:53.088Z</time>
      </trkpt>
      <trkpt lat="45.72815" lon="5.00616">
        <ele>233.450933</ele>
        <time>2021-07-10T19:49:54.510Z</time>
      </trkpt>
      <trkpt lat="45.72816" lon="5.00613">
        <ele>233.450933</ele>
        <time>2021-07-10T19:49:54.995Z</time>
      </trkpt>
      <trkpt lat="45.72819" lon="5.00616">
        <ele>233.450933</ele>
        <time>2021-07-10T19:49:55.719Z</time>
      </trkpt>
      <trkpt lat="45.72822" lon="5.00617">
        <ele>233.450933</ele>
        <time>2021-07-10T19:49:56.348Z</time>
      </trkpt>
      <trkpt lat="45.72828" lon="5.00624">
        <ele>233.450933</ele>
        <time>2021-07-10T19:49:57.972Z</time>
      </trkpt>
      <trkpt lat="45.72841" lon="5.00639">
        <ele>233.450933</ele>
        <time>2021-07-10T19:50:01.776Z</time>
      </trkpt>
      <trkpt lat="45.72872" lon="5.00686">
        <ele>233.762001</ele>
        <time>2021-07-10T19:50:11.894Z</time>
      </trkpt>
      <trkpt lat="45.72918" lon="5.00752">
        <ele>235.090318</ele>
        <time>2021-07-10T19:50:27.628Z</time>
      </trkpt>
      <trkpt lat="45.72987" lon="5.00793">
        <ele>236.615918</ele>
        <time>2021-07-10T19:50:44.788Z</time>
      </trkpt>
      <trkpt lat="45.72995" lon="5.00798">
        <ele>236.789569</ele>
        <time>2021-07-10T19:50:47.379Z</time>
      </trkpt>
      <trkpt lat="45.72997" lon="5.0079">
        <ele>236.907793</ele>
        <time>2021-07-10T19:50:48.536Z</time>
      </trkpt>
      <trkpt lat="45.72998" lon="5.00787">
        <ele>236.959795</ele>
        <time>2021-07-10T19:50:49.074Z</time>
      </trkpt>
      <trkpt lat="45.73005" lon="5.00752">
        <ele>237.231155</ele>
        <time>2021-07-10T19:50:54.809Z</time>
      </trkpt>
      <trkpt lat="45.73008" lon="5.00742">
        <ele>237.272832</ele>
        <time>2021-07-10T19:50:56.379Z</time>
      </trkpt>
      <trkpt lat="45.73011" lon="5.00728">
        <ele>237.335058</ele>
        <time>2021-07-10T19:50:58.403Z</time>
      </trkpt>
      <trkpt lat="45.73022" lon="5.00688">
        <ele>237.506202</ele>
        <time>2021-07-10T19:51:04.260Z</time>
      </trkpt>
      <trkpt lat="45.73029" lon="5.00662">
        <ele>237.615279</ele>
        <time>2021-07-10T19:51:07.506Z</time>
      </trkpt>
      <trkpt lat="45.73052" lon="5.00584">
        <ele>237.952695</ele>
        <time>2021-07-10T19:51:17.200Z</time>
      </trkpt>
      <trkpt lat="45.73071" lon="5.00526">
        <ele>238.055882</ele>
        <time>2021-07-10T19:51:23.028Z</time>
      </trkpt>
      <trkpt lat="45.73075" lon="5.00514">
        <ele>237.915515</ele>
        <time>2021-07-10T19:51:24.336Z</time>
      </trkpt>
      <trkpt lat="45.73083" lon="5.00495">
        <ele>237.705771</ele>
        <time>2021-07-10T19:51:26.036Z</time>
      </trkpt>
      <trkpt lat="45.73098" lon="5.00469">
        <ele>237.370018</ele>
        <time>2021-07-10T19:51:28.955Z</time>
      </trkpt>
      <trkpt lat="45.73109" lon="5.00457">
        <ele>237.177713</ele>
        <time>2021-07-10T19:51:30.486Z</time>
      </trkpt>
      <trkpt lat="45.73116" lon="5.00446">
        <ele>237.026595</ele>
        <time>2021-07-10T19:51:31.808Z</time>
      </trkpt>
      <trkpt lat="45.73124" lon="5.00437">
        <ele>236.889542</ele>
        <time>2021-07-10T19:51:32.984Z</time>
      </trkpt>
      <trkpt lat="45.73127" lon="5.00428">
        <ele>236.793275</ele>
        <time>2021-07-10T19:51:33.694Z</time>
      </trkpt>
      <trkpt lat="45.73148" lon="5.00329">
        <ele>235.772469</ele>
        <time>2021-07-10T19:51:41.800Z</time>
      </trkpt>
      <trkpt lat="45.73151" lon="5.00311">
        <ele>235.583985</ele>
        <time>2021-07-10T19:51:43.317Z</time>
      </trkpt>
      <trkpt lat="45.73157" lon="5.00284">
        <ele>235.289982</ele>
        <time>2021-07-10T19:51:45.515Z</time>
      </trkpt>
      <trkpt lat="45.73158" lon="5.00277">
        <ele>235.21827</ele>
        <time>2021-07-10T19:51:46.029Z</time>
      </trkpt>
      <trkpt lat="45.73159" lon="5.00271">
        <ele>235.159009</ele>
        <time>2021-07-10T19:51:46.497Z</time>
      </trkpt>
      <trkpt lat="45.73161" lon="5.00259">
        <ele>235.027998</ele>
        <time>2021-07-10T19:51:47.515Z</time>
      </trkpt>
      <trkpt lat="45.73168" lon="5.00204">
        <ele>234.445711</ele>
        <time>2021-07-10T19:51:51.907Z</time>
      </trkpt>
      <trkpt lat="45.73169" lon="5.002">
        <ele>234.40633</ele>
        <time>2021-07-10T19:51:52.210Z</time>
      </trkpt>
      <trkpt lat="45.73171" lon="5.00183">
        <ele>234.226577</ele>
        <time>2021-07-10T19:51:53.639Z</time>
      </trkpt>
      <trkpt lat="45.73171" lon="5.00179">
        <ele>234.181116</ele>
        <time>2021-07-10T19:51:54.000Z</time>
      </trkpt>
      <trkpt lat="45.73174" lon="5.00162">
        <ele>233.999555</ele>
        <time>2021-07-10T19:51:55.464Z</time>
      </trkpt>
      <trkpt lat="45.73175" lon="5.00152">
        <ele>233.902524</ele>
        <time>2021-07-10T19:51:56.177Z</time>
      </trkpt>
      <trkpt lat="45.73179" lon="5.00109">
        <ele>233.446621</ele>
        <time>2021-07-10T19:51:59.861Z</time>
      </trkpt>
      <trkpt lat="45.73179" lon="5.001">
        <ele>233.352232</ele>
        <time>2021-07-10T19:52:00.562Z</time>
      </trkpt>
      <trkpt lat="45.7318" lon="5.00054">
        <ele>232.903926</ele>
        <time>2021-07-10T19:52:04.399Z</time>
      </trkpt>
      <trkpt lat="45.73179" lon="4.99984">
        <ele>232.3907</ele>
        <time>2021-07-10T19:52:10.371Z</time>
      </trkpt>
      <trkpt lat="45.73179" lon="4.99975">
        <ele>232.326886</ele>
        <time>2021-07-10T19:52:11.113Z</time>
      </trkpt>
      <trkpt lat="45.73179" lon="4.99954">
        <ele>232.175407</ele>
        <time>2021-07-10T19:52:12.932Z</time>
      </trkpt>
      <trkpt lat="45.73179" lon="4.99937">
        <ele>232.054365</ele>
        <time>2021-07-10T19:52:14.342Z</time>
      </trkpt>
      <trkpt lat="45.7318" lon="4.9992">
        <ele>231.931522</ele>
        <time>2021-07-10T19:52:15.815Z</time>
      </trkpt>
      <trkpt lat="45.73181" lon="4.99915">
        <ele>231.890723</ele>
        <time>2021-07-10T19:52:16.310Z</time>
      </trkpt>
      <trkpt lat="45.73183" lon="4.99898">
        <ele>231.769163</ele>
        <time>2021-07-10T19:52:17.766Z</time>
      </trkpt>
      <trkpt lat="45.73185" lon="4.99885">
        <ele>231.671002</ele>
        <time>2021-07-10T19:52:18.944Z</time>
      </trkpt>
      <trkpt lat="45.73189" lon="4.99865">
        <ele>231.518326</ele>
        <time>2021-07-10T19:52:20.761Z</time>
      </trkpt>
      <trkpt lat="45.73197" lon="4.99842">
        <ele>231.332582</ele>
        <time>2021-07-10T19:52:23.040Z</time>
      </trkpt>
      <trkpt lat="45.73203" lon="4.99823">
        <ele>231.182934</ele>
        <time>2021-07-10T19:52:24.799Z</time>
      </trkpt>
      <trkpt lat="45.73228" lon="4.99758">
        <ele>230.175491</ele>
        <time>2021-07-10T19:52:31.157Z</time>
      </trkpt>
      <trkpt lat="45.73241" lon="4.99727">
        <ele>229.642983</ele>
        <time>2021-07-10T19:52:34.019Z</time>
      </trkpt>
      <trkpt lat="45.73249" lon="4.99707">
        <ele>229.296637</ele>
        <time>2021-07-10T19:52:35.856Z</time>
      </trkpt>
      <trkpt lat="45.73251" lon="4.99693">
        <ele>229.082818</ele>
        <time>2021-07-10T19:52:36.935Z</time>
      </trkpt>
      <trkpt lat="45.73252" lon="4.99687">
        <ele>228.991332</ele>
        <time>2021-07-10T19:52:37.386Z</time>
      </trkpt>
      <trkpt lat="45.73252" lon="4.99678">
        <ele>228.858008</ele>
        <time>2021-07-10T19:52:38.052Z</time>
      </trkpt>
      <trkpt lat="45.73253" lon="4.99657">
        <ele>228.543207</ele>
        <time>2021-07-10T19:52:39.602Z</time>
      </trkpt>
      <trkpt lat="45.73253" lon="4.99637">
        <ele>228.24587</ele>
        <time>2021-07-10T19:52:41.021Z</time>
      </trkpt>
      <trkpt lat="45.73251" lon="4.99583">
        <ele>227.429956</ele>
        <time>2021-07-10T19:52:44.943Z</time>
      </trkpt>
      <trkpt lat="45.73251" lon="4.99573">
        <ele>227.277635</ele>
        <time>2021-07-10T19:52:45.684Z</time>
      </trkpt>
      <trkpt lat="45.73252" lon="4.99563">
        <ele>227.041867</ele>
        <time>2021-07-10T19:52:46.389Z</time>
      </trkpt>
      <trkpt lat="45.73252" lon="4.99548">
        <ele>226.650968</ele>
        <time>2021-07-10T19:52:47.409Z</time>
      </trkpt>
      <trkpt lat="45.73254" lon="4.99521">
        <ele>225.916891</ele>
        <time>2021-07-10T19:52:49.322Z</time>
      </trkpt>
      <trkpt lat="45.73255" lon="4.9951">
        <ele>225.616294</ele>
        <time>2021-07-10T19:52:50.099Z</time>
      </trkpt>
      <trkpt lat="45.73255" lon="4.99504">
        <ele>225.464656</ele>
        <time>2021-07-10T19:52:50.488Z</time>
      </trkpt>
      <trkpt lat="45.73258" lon="4.99467">
        <ele>224.458138</ele>
        <time>2021-07-10T19:52:53.087Z</time>
      </trkpt>
      <trkpt lat="45.73262" lon="4.99434">
        <ele>223.559204</ele>
        <time>2021-07-10T19:52:55.342Z</time>
      </trkpt>
      <trkpt lat="45.73302" lon="4.99307">
        <ele>219.965409</ele>
        <time>2021-07-10T19:53:04.759Z</time>
      </trkpt>
      <trkpt lat="45.73309" lon="4.9929">
        <ele>219.597818</ele>
        <time>2021-07-10T19:53:06.146Z</time>
      </trkpt>
      <trkpt lat="45.73314" lon="4.9928">
        <ele>219.389658</ele>
        <time>2021-07-10T19:53:06.979Z</time>
      </trkpt>
      <trkpt lat="45.73317" lon="4.99272">
        <ele>219.21708</ele>
        <time>2021-07-10T19:53:07.629Z</time>
      </trkpt>
      <trkpt lat="45.73321" lon="4.99269">
        <ele>219.115415</ele>
        <time>2021-07-10T19:53:08.034Z</time>
      </trkpt>
      <trkpt lat="45.73323" lon="4.99264">
        <ele>219.010576</ele>
        <time>2021-07-10T19:53:08.436Z</time>
      </trkpt>
      <trkpt lat="45.73324" lon="4.99259">
        <ele>218.904449</ele>
        <time>2021-07-10T19:53:08.859Z</time>
      </trkpt>
      <trkpt lat="45.73324" lon="4.99256">
        <ele>218.866685</ele>
        <time>2021-07-10T19:53:09.006Z</time>
      </trkpt>
      <trkpt lat="45.73324" lon="4.99253">
        <ele>218.798302</ele>
        <time>2021-07-10T19:53:09.266Z</time>
      </trkpt>
      <trkpt lat="45.73333" lon="4.99223">
        <ele>218.222402</ele>
        <time>2021-07-10T19:53:11.639Z</time>
      </trkpt>
      <trkpt lat="45.73344" lon="4.99186">
        <ele>217.495234</ele>
        <time>2021-07-10T19:53:14.690Z</time>
      </trkpt>
      <trkpt lat="45.7335" lon="4.99167">
        <ele>217.134266</ele>
        <time>2021-07-10T19:53:16.218Z</time>
      </trkpt>
      <trkpt lat="45.73354" lon="4.99152">
        <ele>216.832617</ele>
        <time>2021-07-10T19:53:17.502Z</time>
      </trkpt>
      <trkpt lat="45.73377" lon="4.99083">
        <ele>215.602701</ele>
        <time>2021-07-10T19:53:23.551Z</time>
      </trkpt>
      <trkpt lat="45.73397" lon="4.99039">
        <ele>215.311465</ele>
        <time>2021-07-10T19:53:28.038Z</time>
      </trkpt>
      <trkpt lat="45.73411" lon="4.99008">
        <ele>215.10858</ele>
        <time>2021-07-10T19:53:31.441Z</time>
      </trkpt>
      <trkpt lat="45.73426" lon="4.98974">
        <ele>214.889034</ele>
        <time>2021-07-10T19:53:35.235Z</time>
      </trkpt>
      <trkpt lat="45.73429" lon="4.98966">
        <ele>214.839054</ele>
        <time>2021-07-10T19:53:36.130Z</time>
      </trkpt>
      <trkpt lat="45.73436" lon="4.98939">
        <ele>214.681052</ele>
        <time>2021-07-10T19:53:38.877Z</time>
      </trkpt>
      <trkpt lat="45.73442" lon="4.98918">
        <ele>214.553674</ele>
        <time>2021-07-10T19:53:41.070Z</time>
      </trkpt>
      <trkpt lat="45.73451" lon="4.98875">
        <ele>214.308771</ele>
        <time>2021-07-10T19:53:45.087Z</time>
      </trkpt>
      <trkpt lat="45.73455" lon="4.9885">
        <ele>214.169573</ele>
        <time>2021-07-10T19:53:47.338Z</time>
      </trkpt>
      <trkpt lat="45.73458" lon="4.98832">
        <ele>214.06981</ele>
        <time>2021-07-10T19:53:48.943Z</time>
      </trkpt>
      <trkpt lat="45.73462" lon="4.98809">
        <ele>213.936543</ele>
        <time>2021-07-10T19:53:51.025Z</time>
      </trkpt>
      <trkpt lat="45.73464" lon="4.98797">
        <ele>213.871327</ele>
        <time>2021-07-10T19:53:52.040Z</time>
      </trkpt>
      <trkpt lat="45.73472" lon="4.98749">
        <ele>213.604285</ele>
        <time>2021-07-10T19:53:56.279Z</time>
      </trkpt>
      <trkpt lat="45.73478" lon="4.98711">
        <ele>213.391469</ele>
        <time>2021-07-10T19:53:59.736Z</time>
      </trkpt>
      <trkpt lat="45.73482" lon="4.98689">
        <ele>213.268486</ele>
        <time>2021-07-10T19:54:01.795Z</time>
      </trkpt>
      <trkpt lat="45.73482" lon="4.98682">
        <ele>213.229994</ele>
        <time>2021-07-10T19:54:02.434Z</time>
      </trkpt>
      <trkpt lat="45.73483" lon="4.98661">
        <ele>213.114156</ele>
        <time>2021-07-10T19:54:04.332Z</time>
      </trkpt>
      <trkpt lat="45.73482" lon="4.98636">
        <ele>212.977019</ele>
        <time>2021-07-10T19:54:06.645Z</time>
      </trkpt>
      <trkpt lat="45.73481" lon="4.98607">
        <ele>212.813126</ele>
        <time>2021-07-10T19:54:09.205Z</time>
      </trkpt>
      <trkpt lat="45.73481" lon="4.98594">
        <ele>212.718209</ele>
        <time>2021-07-10T19:54:10.338Z</time>
      </trkpt>
      <trkpt lat="45.73481" lon="4.98583">
        <ele>212.631355</ele>
        <time>2021-07-10T19:54:11.400Z</time>
      </trkpt>
      <trkpt lat="45.7348" lon="4.98571">
        <ele>212.549597</ele>
        <time>2021-07-10T19:54:12.350Z</time>
      </trkpt>
      <trkpt lat="45.7348" lon="4.98563">
        <ele>212.486138</ele>
        <time>2021-07-10T19:54:13.096Z</time>
      </trkpt>
      <trkpt lat="45.73479" lon="4.98541">
        <ele>212.325668</ele>
        <time>2021-07-10T19:54:15.023Z</time>
      </trkpt>
      <trkpt lat="45.73478" lon="4.98507">
        <ele>212.079037</ele>
        <time>2021-07-10T19:54:17.896Z</time>
      </trkpt>
      <trkpt lat="45.73478" lon="4.98482">
        <ele>211.898131</ele>
        <time>2021-07-10T19:54:20.057Z</time>
      </trkpt>
      <trkpt lat="45.73476" lon="4.98415">
        <ele>211.407097</ele>
        <time>2021-07-10T19:54:25.677Z</time>
      </trkpt>
      <trkpt lat="45.73474" lon="4.9836">
        <ele>211.006556</ele>
        <time>2021-07-10T19:54:30.223Z</time>
      </trkpt>
      <trkpt lat="45.73474" lon="4.9834">
        <ele>210.861281</ele>
        <time>2021-07-10T19:54:31.911Z</time>
      </trkpt>
      <trkpt lat="45.73473" lon="4.98313">
        <ele>210.666178</ele>
        <time>2021-07-10T19:54:34.150Z</time>
      </trkpt>
      <trkpt lat="45.73474" lon="4.98287">
        <ele>210.478892</ele>
        <time>2021-07-10T19:54:36.314Z</time>
      </trkpt>
      <trkpt lat="45.73475" lon="4.9828">
        <ele>210.429373</ele>
        <time>2021-07-10T19:54:36.915Z</time>
      </trkpt>
      <trkpt lat="45.73477" lon="4.98274">
        <ele>210.386578</ele>
        <time>2021-07-10T19:54:37.388Z</time>
      </trkpt>
      <trkpt lat="45.73479" lon="4.98271">
        <ele>210.351795</ele>
        <time>2021-07-10T19:54:37.784Z</time>
      </trkpt>
      <trkpt lat="45.73481" lon="4.98268">
        <ele>210.317555</ele>
        <time>2021-07-10T19:54:38.200Z</time>
      </trkpt>
      <trkpt lat="45.73483" lon="4.98263">
        <ele>210.282224</ele>
        <time>2021-07-10T19:54:38.591Z</time>
      </trkpt>
      <trkpt lat="45.73483" lon="4.98258">
        <ele>210.246911</ele>
        <time>2021-07-10T19:54:38.988Z</time>
      </trkpt>
      <trkpt lat="45.73482" lon="4.98253">
        <ele>210.210707</ele>
        <time>2021-07-10T19:54:39.407Z</time>
      </trkpt>
      <trkpt lat="45.7348" lon="4.98249">
        <ele>210.175152</ele>
        <time>2021-07-10T19:54:39.807Z</time>
      </trkpt>
      <trkpt lat="45.73481" lon="4.98236">
        <ele>210.079266</ele>
        <time>2021-07-10T19:54:40.937Z</time>
      </trkpt>
      <trkpt lat="45.73482" lon="4.98221">
        <ele>209.973953</ele>
        <time>2021-07-10T19:54:42.131Z</time>
      </trkpt>
      <trkpt lat="45.73486" lon="4.98207">
        <ele>209.864931</ele>
        <time>2021-07-10T19:54:43.366Z</time>
      </trkpt>
      <trkpt lat="45.73492" lon="4.98175">
        <ele>209.62863</ele>
        <time>2021-07-10T19:54:46.119Z</time>
      </trkpt>
      <trkpt lat="45.73508" lon="4.98101">
        <ele>209.104248</ele>
        <time>2021-07-10T19:54:53.072Z</time>
      </trkpt>
      <trkpt lat="45.73519" lon="4.98061">
        <ele>209.06938</ele>
        <time>2021-07-10T19:54:57.213Z</time>
      </trkpt>
      <trkpt lat="45.73527" lon="4.98028">
        <ele>209.040939</ele>
        <time>2021-07-10T19:55:00.818Z</time>
      </trkpt>
      <trkpt lat="45.73536" lon="4.97996">
        <ele>209.013109</ele>
        <time>2021-07-10T19:55:04.349Z</time>
      </trkpt>
      <trkpt lat="45.73564" lon="4.97889">
        <ele>208.919341</ele>
        <time>2021-07-10T19:55:16.698Z</time>
      </trkpt>
      <trkpt lat="45.73577" lon="4.97843">
        <ele>208.836393</ele>
        <time>2021-07-10T19:55:21.533Z</time>
      </trkpt>
      <trkpt lat="45.73579" lon="4.97836">
        <ele>208.816704</ele>
        <time>2021-07-10T19:55:22.252Z</time>
      </trkpt>
      <trkpt lat="45.73584" lon="4.97812">
        <ele>208.751645</ele>
        <time>2021-07-10T19:55:24.796Z</time>
      </trkpt>
      <trkpt lat="45.73597" lon="4.97763">
        <ele>208.617614</ele>
        <time>2021-07-10T19:55:30.101Z</time>
      </trkpt>
      <trkpt lat="45.73602" lon="4.97743">
        <ele>208.56234</ele>
        <time>2021-07-10T19:55:32.297Z</time>
      </trkpt>
      <trkpt lat="45.73616" lon="4.97687">
        <ele>208.408106</ele>
        <time>2021-07-10T19:55:37.998Z</time>
      </trkpt>
      <trkpt lat="45.73625" lon="4.97652">
        <ele>208.310765</ele>
        <time>2021-07-10T19:55:41.193Z</time>
      </trkpt>
      <trkpt lat="45.73628" lon="4.97642">
        <ele>208.283123</ele>
        <time>2021-07-10T19:55:42.188Z</time>
      </trkpt>
      <trkpt lat="45.73649" lon="4.97554">
        <ele>207.907882</ele>
        <time>2021-07-10T19:55:50.206Z</time>
      </trkpt>
      <trkpt lat="45.73652" lon="4.97542">
        <ele>207.850117</ele>
        <time>2021-07-10T19:55:51.496Z</time>
      </trkpt>
      <trkpt lat="45.73657" lon="4.97523">
        <ele>207.760115</ele>
        <time>2021-07-10T19:55:53.287Z</time>
      </trkpt>
      <trkpt lat="45.73673" lon="4.97458">
        <ele>207.453068</ele>
        <time>2021-07-10T19:55:59.629Z</time>
      </trkpt>
      <trkpt lat="45.73686" lon="4.97408">
        <ele>207.217602</ele>
        <time>2021-07-10T19:56:04.655Z</time>
      </trkpt>
      <trkpt lat="45.7369" lon="4.97391">
        <ele>207.13932</ele>
        <time>2021-07-10T19:56:06.359Z</time>
      </trkpt>
      <trkpt lat="45.73698" lon="4.97359">
        <ele>207.002021</ele>
        <time>2021-07-10T19:56:09.533Z</time>
      </trkpt>
      <trkpt lat="45.73706" lon="4.97326">
        <ele>206.87167</ele>
        <time>2021-07-10T19:56:12.738Z</time>
      </trkpt>
      <trkpt lat="45.7372" lon="4.97275">
        <ele>206.669161</ele>
        <time>2021-07-10T19:56:17.623Z</time>
      </trkpt>
      <trkpt lat="45.73727" lon="4.97253">
        <ele>206.578475</ele>
        <time>2021-07-10T19:56:19.907Z</time>
      </trkpt>
      <trkpt lat="45.73728" lon="4.97251">
        <ele>206.570459</ele>
        <time>2021-07-10T19:56:20.071Z</time>
      </trkpt>
      <trkpt lat="45.7373" lon="4.97247">
        <ele>206.5496</ele>
        <time>2021-07-10T19:56:20.581Z</time>
      </trkpt>
      <trkpt lat="45.73735" lon="4.97235">
        <ele>206.499495</ele>
        <time>2021-07-10T19:56:21.870Z</time>
      </trkpt>
      <trkpt lat="45.73742" lon="4.97217">
        <ele>206.421436</ele>
        <time>2021-07-10T19:56:23.853Z</time>
      </trkpt>
      <trkpt lat="45.73762" lon="4.97167">
        <ele>206.207464</ele>
        <time>2021-07-10T19:56:29.115Z</time>
      </trkpt>
      <trkpt lat="45.73769" lon="4.97148">
        <ele>206.126931</ele>
        <time>2021-07-10T19:56:31.053Z</time>
      </trkpt>
      <trkpt lat="45.73772" lon="4.97141">
        <ele>206.095968</ele>
        <time>2021-07-10T19:56:31.832Z</time>
      </trkpt>
      <trkpt lat="45.73774" lon="4.97135">
        <ele>206.072617</ele>
        <time>2021-07-10T19:56:32.421Z</time>
      </trkpt>
      <trkpt lat="45.7379" lon="4.97089">
        <ele>205.880798</ele>
        <time>2021-07-10T19:56:37.117Z</time>
      </trkpt>
      <trkpt lat="45.73803" lon="4.97041">
        <ele>205.687694</ele>
        <time>2021-07-10T19:56:41.891Z</time>
      </trkpt>
      <trkpt lat="45.73807" lon="4.97024">
        <ele>205.624038</ele>
        <time>2021-07-10T19:56:43.468Z</time>
      </trkpt>
      <trkpt lat="45.73815" lon="4.96992">
        <ele>205.496207</ele>
        <time>2021-07-10T19:56:46.801Z</time>
      </trkpt>
      <trkpt lat="45.73818" lon="4.96974">
        <ele>205.426363</ele>
        <time>2021-07-10T19:56:48.512Z</time>
      </trkpt>
      <trkpt lat="45.73823" lon="4.96949">
        <ele>205.331054</ele>
        <time>2021-07-10T19:56:50.991Z</time>
      </trkpt>
      <trkpt lat="45.73826" lon="4.96929">
        <ele>205.252448</ele>
        <time>2021-07-10T19:56:52.915Z</time>
      </trkpt>
      <trkpt lat="45.7383" lon="4.96904">
        <ele>205.157493</ele>
        <time>2021-07-10T19:56:55.216Z</time>
      </trkpt>
      <trkpt lat="45.73834" lon="4.96867">
        <ele>204.970804</ele>
        <time>2021-07-10T19:56:58.637Z</time>
      </trkpt>
      <trkpt lat="45.73834" lon="4.96861">
        <ele>204.940567</ele>
        <time>2021-07-10T19:56:59.196Z</time>
      </trkpt>
      <trkpt lat="45.73838" lon="4.96828">
        <ele>204.776996</ele>
        <time>2021-07-10T19:57:02.153Z</time>
      </trkpt>
      <trkpt lat="45.73843" lon="4.96777">
        <ele>204.523138</ele>
        <time>2021-07-10T19:57:06.711Z</time>
      </trkpt>
      <trkpt lat="45.73847" lon="4.96725">
        <ele>204.269434</ele>
        <time>2021-07-10T19:57:11.275Z</time>
      </trkpt>
      <trkpt lat="45.7385" lon="4.9669">
        <ele>204.096433</ele>
        <time>2021-07-10T19:57:14.358Z</time>
      </trkpt>
      <trkpt lat="45.73854" lon="4.96642">
        <ele>203.868908</ele>
        <time>2021-07-10T19:57:18.552Z</time>
      </trkpt>
      <trkpt lat="45.73866" lon="4.96501">
        <ele>203.317502</ele>
        <time>2021-07-10T19:57:31.481Z</time>
      </trkpt>
      <trkpt lat="45.73867" lon="4.96489">
        <ele>203.270931</ele>
        <time>2021-07-10T19:57:32.590Z</time>
      </trkpt>
      <trkpt lat="45.7387" lon="4.9644">
        <ele>203.078441</ele>
        <time>2021-07-10T19:57:37.212Z</time>
      </trkpt>
      <trkpt lat="45.73871" lon="4.96384">
        <ele>202.893968</ele>
        <time>2021-07-10T19:57:42.645Z</time>
      </trkpt>
      <trkpt lat="45.73872" lon="4.96337">
        <ele>202.849646</ele>
        <time>2021-07-10T19:57:47.247Z</time>
      </trkpt>
      <trkpt lat="45.73873" lon="4.96329">
        <ele>202.841863</ele>
        <time>2021-07-10T19:57:48.210Z</time>
      </trkpt>
      <trkpt lat="45.73873" lon="4.96316">
        <ele>202.829245</ele>
        <time>2021-07-10T19:57:49.549Z</time>
      </trkpt>
      <trkpt lat="45.73874" lon="4.9627">
        <ele>202.785482</ele>
        <time>2021-07-10T19:57:54.381Z</time>
      </trkpt>
      <trkpt lat="45.73875" lon="4.9624">
        <ele>202.757574</ele>
        <time>2021-07-10T19:57:57.453Z</time>
      </trkpt>
      <trkpt lat="45.73875" lon="4.9622">
        <ele>202.738022</ele>
        <time>2021-07-10T19:57:59.731Z</time>
      </trkpt>
      <trkpt lat="45.73876" lon="4.96205">
        <ele>202.723968</ele>
        <time>2021-07-10T19:58:01.267Z</time>
      </trkpt>
      <trkpt lat="45.73876" lon="4.96192">
        <ele>202.711239</ele>
        <time>2021-07-10T19:58:02.643Z</time>
      </trkpt>
      <trkpt lat="45.73877" lon="4.96165">
        <ele>202.685498</ele>
        <time>2021-07-10T19:58:05.479Z</time>
      </trkpt>
      <trkpt lat="45.73882" lon="4.96083">
        <ele>202.406735</ele>
        <time>2021-07-10T19:58:13.254Z</time>
      </trkpt>
      <trkpt lat="45.73886" lon="4.96021">
        <ele>202.118569</ele>
        <time>2021-07-10T19:58:18.835Z</time>
      </trkpt>
      <trkpt lat="45.73891" lon="4.95937">
        <ele>201.732051</ele>
        <time>2021-07-10T19:58:26.261Z</time>
      </trkpt>
      <trkpt lat="45.73894" lon="4.959">
        <ele>201.5601</ele>
        <time>2021-07-10T19:58:29.502Z</time>
      </trkpt>
      <trkpt lat="45.73895" lon="4.95879">
        <ele>201.457957</ele>
        <time>2021-07-10T19:58:31.355Z</time>
      </trkpt>
      <trkpt lat="45.73897" lon="4.95845">
        <ele>201.254004</ele>
        <time>2021-07-10T19:58:34.249Z</time>
      </trkpt>
      <trkpt lat="45.73899" lon="4.95815">
        <ele>201.065841</ele>
        <time>2021-07-10T19:58:36.873Z</time>
      </trkpt>
      <trkpt lat="45.73907" lon="4.95731">
        <ele>200.551364</ele>
        <time>2021-07-10T19:58:44.016Z</time>
      </trkpt>
      <trkpt lat="45.7392" lon="4.95655">
        <ele>200.077056</ele>
        <time>2021-07-10T19:58:50.859Z</time>
      </trkpt>
      <trkpt lat="45.7392" lon="4.95653">
        <ele>200.060981</ele>
        <time>2021-07-10T19:58:51.106Z</time>
      </trkpt>
      <trkpt lat="45.73925" lon="4.9563">
        <ele>199.918633</ele>
        <time>2021-07-10T19:58:53.205Z</time>
      </trkpt>
      <trkpt lat="45.73926" lon="4.95623">
        <ele>199.889544</ele>
        <time>2021-07-10T19:58:53.890Z</time>
      </trkpt>
      <trkpt lat="45.73925" lon="4.95618">
        <ele>199.878165</ele>
        <time>2021-07-10T19:58:54.369Z</time>
      </trkpt>
      <trkpt lat="45.73924" lon="4.95608">
        <ele>199.857926</ele>
        <time>2021-07-10T19:58:55.262Z</time>
      </trkpt>
      <trkpt lat="45.7392" lon="4.95601">
        <ele>199.83792</ele>
        <time>2021-07-10T19:58:56.149Z</time>
      </trkpt>
      <trkpt lat="45.73917" lon="4.95596">
        <ele>199.821955</ele>
        <time>2021-07-10T19:58:56.831Z</time>
      </trkpt>
      <trkpt lat="45.73909" lon="4.95586">
        <ele>199.791346</ele>
        <time>2021-07-10T19:58:58.152Z</time>
      </trkpt>
      <trkpt lat="45.73902" lon="4.95575">
        <ele>199.759215</ele>
        <time>2021-07-10T19:58:59.561Z</time>
      </trkpt>
      <trkpt lat="45.73904" lon="4.95562">
        <ele>199.73121</ele>
        <time>2021-07-10T19:59:00.824Z</time>
      </trkpt>
      <trkpt lat="45.73904" lon="4.95549">
        <ele>199.703094</ele>
        <time>2021-07-10T19:59:02.023Z</time>
      </trkpt>
      <trkpt lat="45.739" lon="4.95537">
        <ele>199.675293</ele>
        <time>2021-07-10T19:59:03.221Z</time>
      </trkpt>
      <trkpt lat="45.73905" lon="4.95515">
        <ele>199.626374</ele>
        <time>2021-07-10T19:59:05.379Z</time>
      </trkpt>
      <trkpt lat="45.73928" lon="4.9548">
        <ele>199.523598</ele>
        <time>2021-07-10T19:59:09.808Z</time>
      </trkpt>
      <trkpt lat="45.73955" lon="4.95435">
        <ele>199.397106</ele>
        <time>2021-07-10T19:59:15.764Z</time>
      </trkpt>
      <trkpt lat="45.73977" lon="4.9538">
        <ele>199.37422</ele>
        <time>2021-07-10T19:59:22.998Z</time>
      </trkpt>
      <trkpt lat="45.73995" lon="4.95304">
        <ele>199.428686</ele>
        <time>2021-07-10T19:59:32.091Z</time>
      </trkpt>
      <trkpt lat="45.73997" lon="4.95295">
        <ele>199.434756</ele>
        <time>2021-07-10T19:59:32.993Z</time>
      </trkpt>
      <trkpt lat="45.7402" lon="4.95204">
        <ele>199.500081</ele>
        <time>2021-07-10T19:59:43.200Z</time>
      </trkpt>
      <trkpt lat="45.74057" lon="4.95045">
        <ele>199.163357</ele>
        <time>2021-07-10T20:00:00.017Z</time>
      </trkpt>
      <trkpt lat="45.74069" lon="4.94993">
        <ele>199.020204</ele>
        <time>2021-07-10T20:00:04.996Z</time>
      </trkpt>
      <trkpt lat="45.74113" lon="4.94809">
        <ele>198.248543</ele>
        <time>2021-07-10T20:00:22.210Z</time>
      </trkpt>
      <trkpt lat="45.74126" lon="4.94745">
        <ele>197.933412</ele>
        <time>2021-07-10T20:00:28.381Z</time>
      </trkpt>
      <trkpt lat="45.7419" lon="4.94398">
        <ele>196.286094</ele>
        <time>2021-07-10T20:01:00.991Z</time>
      </trkpt>
      <trkpt lat="45.74226" lon="4.94289">
        <ele>195.541039</ele>
        <time>2021-07-10T20:01:11.471Z</time>
      </trkpt>
      <trkpt lat="45.74251" lon="4.94252">
        <ele>195.223969</ele>
        <time>2021-07-10T20:01:15.881Z</time>
      </trkpt>
      <trkpt lat="45.74276" lon="4.94225">
        <ele>194.94844</ele>
        <time>2021-07-10T20:01:19.676Z</time>
      </trkpt>
      <trkpt lat="45.74444" lon="4.94087">
        <ele>193.256924</ele>
        <time>2021-07-10T20:01:43.705Z</time>
      </trkpt>
      <trkpt lat="45.74464" lon="4.9406">
        <ele>193.093998</ele>
        <time>2021-07-10T20:01:47.164Z</time>
      </trkpt>
      <trkpt lat="45.74493" lon="4.93992">
        <ele>192.757557</ele>
        <time>2021-07-10T20:01:54.336Z</time>
      </trkpt>
      <trkpt lat="45.745" lon="4.93949">
        <ele>192.566521</ele>
        <time>2021-07-10T20:01:58.439Z</time>
      </trkpt>
      <trkpt lat="45.74503" lon="4.93899">
        <ele>192.35698</ele>
        <time>2021-07-10T20:02:02.914Z</time>
      </trkpt>
      <trkpt lat="45.74502" lon="4.93876">
        <ele>192.259024</ele>
        <time>2021-07-10T20:02:05.146Z</time>
      </trkpt>
      <trkpt lat="45.74498" lon="4.93827">
        <ele>192.222396</ele>
        <time>2021-07-10T20:02:10.014Z</time>
      </trkpt>
      <trkpt lat="45.74495" lon="4.93796">
        <ele>192.210099</ele>
        <time>2021-07-10T20:02:13.195Z</time>
      </trkpt>
      <trkpt lat="45.74489" lon="4.93745">
        <ele>192.189767</ele>
        <time>2021-07-10T20:02:18.525Z</time>
      </trkpt>
      <trkpt lat="45.74488" lon="4.93737">
        <ele>192.186612</ele>
        <time>2021-07-10T20:02:19.304Z</time>
      </trkpt>
      <trkpt lat="45.74487" lon="4.93726">
        <ele>192.182129</ele>
        <time>2021-07-10T20:02:20.520Z</time>
      </trkpt>
      <trkpt lat="45.74486" lon="4.93707">
        <ele>192.174688</ele>
        <time>2021-07-10T20:02:22.385Z</time>
      </trkpt>
      <trkpt lat="45.74485" lon="4.93698">
        <ele>192.171208</ele>
        <time>2021-07-10T20:02:23.406Z</time>
      </trkpt>
      <trkpt lat="45.74483" lon="4.93669">
        <ele>192.159458</ele>
        <time>2021-07-10T20:02:26.596Z</time>
      </trkpt>
      <trkpt lat="45.7447" lon="4.93532">
        <ele>192.124616</ele>
        <time>2021-07-10T20:02:41.493Z</time>
      </trkpt>
      <trkpt lat="45.74452" lon="4.9337">
        <ele>192.097675</ele>
        <time>2021-07-10T20:02:58.476Z</time>
      </trkpt>
      <trkpt lat="45.7445" lon="4.93357">
        <ele>192.08237</ele>
        <time>2021-07-10T20:02:59.580Z</time>
      </trkpt>
      <trkpt lat="45.74437" lon="4.93319">
        <ele>191.940232</ele>
        <time>2021-07-10T20:03:03.883Z</time>
      </trkpt>
      <trkpt lat="45.74434" lon="4.93308">
        <ele>191.900565</ele>
        <time>2021-07-10T20:03:04.919Z</time>
      </trkpt>
      <trkpt lat="45.7443" lon="4.93296">
        <ele>191.857028</ele>
        <time>2021-07-10T20:03:06.295Z</time>
      </trkpt>
      <trkpt lat="45.74429" lon="4.93278">
        <ele>191.799455</ele>
        <time>2021-07-10T20:03:07.959Z</time>
      </trkpt>
      <trkpt lat="45.74435" lon="4.93274">
        <ele>191.769283</ele>
        <time>2021-07-10T20:03:08.738Z</time>
      </trkpt>
      <trkpt lat="45.74439" lon="4.93267">
        <ele>191.739435</ele>
        <time>2021-07-10T20:03:09.480Z</time>
      </trkpt>
      <trkpt lat="45.7444" lon="4.93263">
        <ele>191.723577</ele>
        <time>2021-07-10T20:03:09.947Z</time>
      </trkpt>
      <trkpt lat="45.74441" lon="4.93259">
        <ele>191.707744</ele>
        <time>2021-07-10T20:03:10.456Z</time>
      </trkpt>
      <trkpt lat="45.74442" lon="4.9325">
        <ele>191.680199</ele>
        <time>2021-07-10T20:03:11.250Z</time>
      </trkpt>
      <trkpt lat="45.7444" lon="4.93242">
        <ele>191.652425</ele>
        <time>2021-07-10T20:03:12.031Z</time>
      </trkpt>
      <trkpt lat="45.74438" lon="4.93238">
        <ele>191.634947</ele>
        <time>2021-07-10T20:03:12.533Z</time>
      </trkpt>
      <trkpt lat="45.74436" lon="4.93234">
        <ele>191.617714</ele>
        <time>2021-07-10T20:03:13.011Z</time>
      </trkpt>
      <trkpt lat="45.74439" lon="4.93218">
        <ele>191.563689</ele>
        <time>2021-07-10T20:03:14.359Z</time>
      </trkpt>
      <trkpt lat="45.7444" lon="4.9321">
        <ele>191.535339</ele>
        <time>2021-07-10T20:03:15.249Z</time>
      </trkpt>
      <trkpt lat="45.74454" lon="4.93168">
        <ele>191.383079</ele>
        <time>2021-07-10T20:03:19.276Z</time>
      </trkpt>
      <trkpt lat="45.74462" lon="4.93143">
        <ele>191.2913</ele>
        <time>2021-07-10T20:03:21.876Z</time>
      </trkpt>
      <trkpt lat="45.74484" lon="4.93065">
        <ele>191.090714</ele>
        <time>2021-07-10T20:03:29.592Z</time>
      </trkpt>
      <trkpt lat="45.74487" lon="4.93056">
        <ele>191.067336</ele>
        <time>2021-07-10T20:03:30.578Z</time>
      </trkpt>
      <trkpt lat="45.745" lon="4.93012">
        <ele>190.961024</ele>
        <time>2021-07-10T20:03:35.221Z</time>
      </trkpt>
      <trkpt lat="45.74502" lon="4.93005">
        <ele>190.945745</ele>
        <time>2021-07-10T20:03:35.871Z</time>
      </trkpt>
      <trkpt lat="45.74507" lon="4.92992">
        <ele>190.912517</ele>
        <time>2021-07-10T20:03:37.328Z</time>
      </trkpt>
      <trkpt lat="45.74511" lon="4.92979">
        <ele>190.881958</ele>
        <time>2021-07-10T20:03:38.661Z</time>
      </trkpt>
      <trkpt lat="45.74525" lon="4.9293">
        <ele>190.764502</ele>
        <time>2021-07-10T20:03:43.946Z</time>
      </trkpt>
      <trkpt lat="45.74565" lon="4.92794">
        <ele>190.588486</ele>
        <time>2021-07-10T20:03:58.896Z</time>
      </trkpt>
      <trkpt lat="45.74568" lon="4.92784">
        <ele>190.579369</ele>
        <time>2021-07-10T20:04:00.015Z</time>
      </trkpt>
      <trkpt lat="45.74571" lon="4.92775">
        <ele>190.571</ele>
        <time>2021-07-10T20:04:01.056Z</time>
      </trkpt>
      <trkpt lat="45.74589" lon="4.92721">
        <ele>190.523334</ele>
        <time>2021-07-10T20:04:06.766Z</time>
      </trkpt>
      <trkpt lat="45.74593" lon="4.9271">
        <ele>190.513635</ele>
        <time>2021-07-10T20:04:08.013Z</time>
      </trkpt>
      <trkpt lat="45.74598" lon="4.92696">
        <ele>190.501326</ele>
        <time>2021-07-10T20:04:09.508Z</time>
      </trkpt>
      <trkpt lat="45.74605" lon="4.92675">
        <ele>190.482605</ele>
        <time>2021-07-10T20:04:12.045Z</time>
      </trkpt>
      <trkpt lat="45.74612" lon="4.92655">
        <ele>190.462984</ele>
        <time>2021-07-10T20:04:14.399Z</time>
      </trkpt>
      <trkpt lat="45.74619" lon="4.92635">
        <ele>190.429022</ele>
        <time>2021-07-10T20:04:16.787Z</time>
      </trkpt>
      <trkpt lat="45.74619" lon="4.92634">
        <ele>190.426747</ele>
        <time>2021-07-10T20:04:16.959Z</time>
      </trkpt>
      <trkpt lat="45.74624" lon="4.92621">
        <ele>190.40423</ele>
        <time>2021-07-10T20:04:18.612Z</time>
      </trkpt>
      <trkpt lat="45.74635" lon="4.92587">
        <ele>190.346635</ele>
        <time>2021-07-10T20:04:22.494Z</time>
      </trkpt>
      <trkpt lat="45.74638" lon="4.92578">
        <ele>190.331389</ele>
        <time>2021-07-10T20:04:23.585Z</time>
      </trkpt>
      <trkpt lat="45.74643" lon="4.92565">
        <ele>190.308363</ele>
        <time>2021-07-10T20:04:25.095Z</time>
      </trkpt>
      <trkpt lat="45.74646" lon="4.92556">
        <ele>190.293254</ele>
        <time>2021-07-10T20:04:26.066Z</time>
      </trkpt>
      <trkpt lat="45.7465" lon="4.92543">
        <ele>190.270971</ele>
        <time>2021-07-10T20:04:27.531Z</time>
      </trkpt>
      <trkpt lat="45.74654" lon="4.92533">
        <ele>190.253314</ele>
        <time>2021-07-10T20:04:28.724Z</time>
      </trkpt>
      <trkpt lat="45.7466" lon="4.92515">
        <ele>190.223332</ele>
        <time>2021-07-10T20:04:30.539Z</time>
      </trkpt>
      <trkpt lat="45.74669" lon="4.92492">
        <ele>190.182999</ele>
        <time>2021-07-10T20:04:33.029Z</time>
      </trkpt>
      <trkpt lat="45.74682" lon="4.92454">
        <ele>190.117885</ele>
        <time>2021-07-10T20:04:36.949Z</time>
      </trkpt>
      <trkpt lat="45.74703" lon="4.92396">
        <ele>189.956099</ele>
        <time>2021-07-10T20:04:42.978Z</time>
      </trkpt>
      <trkpt lat="45.74716" lon="4.92361">
        <ele>189.827603</ele>
        <time>2021-07-10T20:04:46.700Z</time>
      </trkpt>
      <trkpt lat="45.74723" lon="4.92342">
        <ele>189.758863</ele>
        <time>2021-07-10T20:04:48.742Z</time>
      </trkpt>
      <trkpt lat="45.74732" lon="4.92316">
        <ele>189.663612</ele>
        <time>2021-07-10T20:04:51.598Z</time>
      </trkpt>
      <trkpt lat="45.74782" lon="4.92179">
        <ele>189.146937</ele>
        <time>2021-07-10T20:05:05.996Z</time>
      </trkpt>
      <trkpt lat="45.74786" lon="4.92165">
        <ele>189.09185</ele>
        <time>2021-07-10T20:05:07.239Z</time>
      </trkpt>
      <trkpt lat="45.74793" lon="4.92147">
        <ele>189.014747</ele>
        <time>2021-07-10T20:05:09.102Z</time>
      </trkpt>
      <trkpt lat="45.74803" lon="4.92119">
        <ele>188.897864</ele>
        <time>2021-07-10T20:05:11.952Z</time>
      </trkpt>
      <trkpt lat="45.74805" lon="4.92113">
        <ele>188.873391</ele>
        <time>2021-07-10T20:05:12.522Z</time>
      </trkpt>
      <trkpt lat="45.74808" lon="4.92103">
        <ele>188.834597</ele>
        <time>2021-07-10T20:05:13.525Z</time>
      </trkpt>
      <trkpt lat="45.7481" lon="4.92098">
        <ele>188.81078</ele>
        <time>2021-07-10T20:05:14.194Z</time>
      </trkpt>
      <trkpt lat="45.74812" lon="4.92092">
        <ele>188.786543</ele>
        <time>2021-07-10T20:05:14.921Z</time>
      </trkpt>
      <trkpt lat="45.74839" lon="4.92016">
        <ele>188.473748</ele>
        <time>2021-07-10T20:05:22.428Z</time>
      </trkpt>
      <trkpt lat="45.74845" lon="4.91996">
        <ele>188.394449</ele>
        <time>2021-07-10T20:05:24.800Z</time>
      </trkpt>
      <trkpt lat="45.74849" lon="4.91972">
        <ele>188.302305</ele>
        <time>2021-07-10T20:05:26.951Z</time>
      </trkpt>
      <trkpt lat="45.74848" lon="4.91876">
        <ele>188.241128</ele>
        <time>2021-07-10T20:05:36.611Z</time>
      </trkpt>
      <trkpt lat="45.74848" lon="4.91864">
        <ele>188.236506</ele>
        <time>2021-07-10T20:05:37.653Z</time>
      </trkpt>
      <trkpt lat="45.74848" lon="4.91843">
        <ele>188.228332</ele>
        <time>2021-07-10T20:05:39.987Z</time>
      </trkpt>
      <trkpt lat="45.74846" lon="4.91791">
        <ele>188.207556</ele>
        <time>2021-07-10T20:05:45.314Z</time>
      </trkpt>
      <trkpt lat="45.74846" lon="4.91766">
        <ele>188.197879</ele>
        <time>2021-07-10T20:05:47.657Z</time>
      </trkpt>
      <trkpt lat="45.74846" lon="4.91738">
        <ele>188.186865</ele>
        <time>2021-07-10T20:05:50.722Z</time>
      </trkpt>
      <trkpt lat="45.74851" lon="4.91682">
        <ele>188.224097</ele>
        <time>2021-07-10T20:05:57.279Z</time>
      </trkpt>
      <trkpt lat="45.74856" lon="4.91645">
        <ele>188.29506</ele>
        <time>2021-07-10T20:06:01.648Z</time>
      </trkpt>
      <trkpt lat="45.74891" lon="4.91516">
        <ele>188.556368</ele>
        <time>2021-07-10T20:06:17.068Z</time>
      </trkpt>
      <trkpt lat="45.74897" lon="4.91497">
        <ele>188.596541</ele>
        <time>2021-07-10T20:06:19.557Z</time>
      </trkpt>
      <trkpt lat="45.74912" lon="4.91465">
        <ele>188.658796</ele>
        <time>2021-07-10T20:06:23.663Z</time>
      </trkpt>
      <trkpt lat="45.74923" lon="4.91436">
        <ele>188.633075</ele>
        <time>2021-07-10T20:06:27.374Z</time>
      </trkpt>
      <trkpt lat="45.74927" lon="4.91424">
        <ele>188.622665</ele>
        <time>2021-07-10T20:06:28.650Z</time>
      </trkpt>
      <trkpt lat="45.74934" lon="4.91427">
        <ele>188.614334</ele>
        <time>2021-07-10T20:06:29.788Z</time>
      </trkpt>
      <trkpt lat="45.74949" lon="4.91433">
        <ele>188.596815</ele>
        <time>2021-07-10T20:06:32.292Z</time>
      </trkpt>
      <trkpt lat="45.74964" lon="4.91437">
        <ele>188.580091</ele>
        <time>2021-07-10T20:06:34.347Z</time>
      </trkpt>
      <trkpt lat="45.75056" lon="4.91475">
        <ele>188.472915</ele>
        <time>2021-07-10T20:06:47.954Z</time>
      </trkpt>
      <trkpt lat="45.75079" lon="4.91484">
        <ele>188.398139</ele>
        <time>2021-07-10T20:06:50.964Z</time>
      </trkpt>
      <trkpt lat="45.75112" lon="4.91469">
        <ele>188.220815</ele>
        <time>2021-07-10T20:06:55.708Z</time>
      </trkpt>
      <trkpt lat="45.75128" lon="4.91463">
        <ele>188.135328</ele>
        <time>2021-07-10T20:06:58.010Z</time>
      </trkpt>
      <trkpt lat="45.7516" lon="4.9145">
        <ele>187.970793</ele>
        <time>2021-07-10T20:07:02.357Z</time>
      </trkpt>
      <trkpt lat="45.75182" lon="4.91441">
        <ele>187.855249</ele>
        <time>2021-07-10T20:07:05.349Z</time>
      </trkpt>
      <trkpt lat="45.75214" lon="4.91428">
        <ele>187.685348</ele>
        <time>2021-07-10T20:07:09.691Z</time>
      </trkpt>
      <trkpt lat="45.75268" lon="4.91405">
        <ele>187.40952</ele>
        <time>2021-07-10T20:07:16.887Z</time>
      </trkpt>
      <trkpt lat="45.75274" lon="4.91402">
        <ele>187.379791</ele>
        <time>2021-07-10T20:07:17.691Z</time>
      </trkpt>
      <trkpt lat="45.75332" lon="4.91378">
        <ele>187.099039</ele>
        <time>2021-07-10T20:07:25.319Z</time>
      </trkpt>
      <trkpt lat="45.75384" lon="4.91355">
        <ele>186.842332</ele>
        <time>2021-07-10T20:07:32.658Z</time>
      </trkpt>
      <trkpt lat="45.75396" lon="4.91351">
        <ele>186.787724</ele>
        <time>2021-07-10T20:07:34.257Z</time>
      </trkpt>
      <trkpt lat="45.75406" lon="4.91346">
        <ele>186.738953</ele>
        <time>2021-07-10T20:07:35.798Z</time>
      </trkpt>
      <trkpt lat="45.75513" lon="4.91301">
        <ele>186.899269</ele>
        <time>2021-07-10T20:07:53.606Z</time>
      </trkpt>
      <trkpt lat="45.75521" lon="4.91298">
        <ele>186.914214</ele>
        <time>2021-07-10T20:07:54.922Z</time>
      </trkpt>
      <trkpt lat="45.7553" lon="4.91294">
        <ele>186.930211</ele>
        <time>2021-07-10T20:07:56.289Z</time>
      </trkpt>
      <trkpt lat="45.75544" lon="4.91289">
        <ele>186.956708</ele>
        <time>2021-07-10T20:07:58.687Z</time>
      </trkpt>
      <trkpt lat="45.75549" lon="4.91288">
        <ele>186.966013</ele>
        <time>2021-07-10T20:07:59.552Z</time>
      </trkpt>
      <trkpt lat="45.75569" lon="4.91279">
        <ele>187.004741</ele>
        <time>2021-07-10T20:08:02.955Z</time>
      </trkpt>
      <trkpt lat="45.75572" lon="4.91278">
        <ele>187.009599</ele>
        <time>2021-07-10T20:08:03.446Z</time>
      </trkpt>
      <trkpt lat="45.75591" lon="4.9127">
        <ele>187.017229</ele>
        <time>2021-07-10T20:08:06.453Z</time>
      </trkpt>
      <trkpt lat="45.75597" lon="4.91266">
        <ele>187.000766</ele>
        <time>2021-07-10T20:08:07.441Z</time>
      </trkpt>
      <trkpt lat="45.75602" lon="4.91262">
        <ele>186.984567</ele>
        <time>2021-07-10T20:08:08.438Z</time>
      </trkpt>
      <trkpt lat="45.75611" lon="4.91253">
        <ele>186.957374</ele>
        <time>2021-07-10T20:08:10.019Z</time>
      </trkpt>
      <trkpt lat="45.75615" lon="4.91249">
        <ele>186.945042</ele>
        <time>2021-07-10T20:08:10.729Z</time>
      </trkpt>
      <trkpt lat="45.7565" lon="4.91214">
        <ele>186.834882</ele>
        <time>2021-07-10T20:08:16.886Z</time>
      </trkpt>
      <trkpt lat="45.75663" lon="4.91204">
        <ele>186.795933</ele>
        <time>2021-07-10T20:08:19.183Z</time>
      </trkpt>
      <trkpt lat="45.75677" lon="4.91191">
        <ele>186.752296</ele>
        <time>2021-07-10T20:08:21.565Z</time>
      </trkpt>
      <trkpt lat="45.75703" lon="4.91165">
        <ele>186.671552</ele>
        <time>2021-07-10T20:08:25.700Z</time>
      </trkpt>
      <trkpt lat="45.75711" lon="4.91156">
        <ele>186.644569</ele>
        <time>2021-07-10T20:08:26.915Z</time>
      </trkpt>
      <trkpt lat="45.75719" lon="4.91145">
        <ele>186.614569</ele>
        <time>2021-07-10T20:08:28.501Z</time>
      </trkpt>
      <trkpt lat="45.75738" lon="4.91126">
        <ele>186.53752</ele>
        <time>2021-07-10T20:08:31.408Z</time>
      </trkpt>
      <trkpt lat="45.75796" lon="4.91069">
        <ele>186.079376</ele>
        <time>2021-07-10T20:08:40.258Z</time>
      </trkpt>
      <trkpt lat="45.75813" lon="4.91052">
        <ele>185.941081</ele>
        <time>2021-07-10T20:08:42.961Z</time>
      </trkpt>
      <trkpt lat="45.75822" lon="4.91043">
        <ele>185.870625</ele>
        <time>2021-07-10T20:08:44.353Z</time>
      </trkpt>
      <trkpt lat="45.75825" lon="4.91038">
        <ele>185.838431</ele>
        <time>2021-07-10T20:08:44.878Z</time>
      </trkpt>
      <trkpt lat="45.75827" lon="4.91032">
        <ele>185.80932</ele>
        <time>2021-07-10T20:08:45.426Z</time>
      </trkpt>
      <trkpt lat="45.75826" lon="4.9102">
        <ele>185.751799</ele>
        <time>2021-07-10T20:08:46.648Z</time>
      </trkpt>
      <trkpt lat="45.75825" lon="4.91013">
        <ele>185.720528</ele>
        <time>2021-07-10T20:08:47.352Z</time>
      </trkpt>
      <trkpt lat="45.75825" lon="4.91007">
        <ele>185.692648</ele>
        <time>2021-07-10T20:08:47.927Z</time>
      </trkpt>
      <trkpt lat="45.75822" lon="4.90992">
        <ele>185.621927</ele>
        <time>2021-07-10T20:08:49.353Z</time>
      </trkpt>
      <trkpt lat="45.75818" lon="4.90964">
        <ele>185.491929</ele>
        <time>2021-07-10T20:08:51.918Z</time>
      </trkpt>
      <trkpt lat="45.75817" lon="4.9095">
        <ele>185.426957</ele>
        <time>2021-07-10T20:08:53.356Z</time>
      </trkpt>
      <trkpt lat="45.75816" lon="4.90946">
        <ele>185.411098</ele>
        <time>2021-07-10T20:08:53.681Z</time>
      </trkpt>
      <trkpt lat="45.75815" lon="4.9094">
        <ele>185.390621</ele>
        <time>2021-07-10T20:08:54.270Z</time>
      </trkpt>
      <trkpt lat="45.75807" lon="4.90878">
        <ele>185.374924</ele>
        <time>2021-07-10T20:09:00.173Z</time>
      </trkpt>
      <trkpt lat="45.75805" lon="4.90861">
        <ele>185.370647</ele>
        <time>2021-07-10T20:09:02.084Z</time>
      </trkpt>
      <trkpt lat="45.75791" lon="4.90807">
        <ele>185.356364</ele>
        <time>2021-07-10T20:09:08.255Z</time>
      </trkpt>
      <trkpt lat="45.75789" lon="4.90793">
        <ele>185.352774</ele>
        <time>2021-07-10T20:09:09.911Z</time>
      </trkpt>
      <trkpt lat="45.75794" lon="4.90787">
        <ele>185.350503</ele>
        <time>2021-07-10T20:09:10.790Z</time>
      </trkpt>
      <trkpt lat="45.75798" lon="4.90783">
        <ele>185.348819</ele>
        <time>2021-07-10T20:09:11.481Z</time>
      </trkpt>
      <trkpt lat="45.75801" lon="4.90781">
        <ele>185.347531</ele>
        <time>2021-07-10T20:09:12.094Z</time>
      </trkpt>
      <trkpt lat="45.75806" lon="4.90777">
        <ele>185.345525</ele>
        <time>2021-07-10T20:09:13.095Z</time>
      </trkpt>
      <trkpt lat="45.75827" lon="4.9076">
        <ele>185.336902</ele>
        <time>2021-07-10T20:09:16.515Z</time>
      </trkpt>
      <trkpt lat="45.75837" lon="4.9075">
        <ele>185.332727</ele>
        <time>2021-07-10T20:09:18.354Z</time>
      </trkpt>
      <trkpt lat="45.75862" lon="4.90728">
        <ele>185.304144</ele>
        <time>2021-07-10T20:09:22.972Z</time>
      </trkpt>
      <trkpt lat="45.7589" lon="4.90704">
        <ele>185.251347</ele>
        <time>2021-07-10T20:09:28.415Z</time>
      </trkpt>
      <trkpt lat="45.75936" lon="4.90656">
        <ele>185.159564</ele>
        <time>2021-07-10T20:09:36.688Z</time>
      </trkpt>
      <trkpt lat="45.75982" lon="4.90609">
        <ele>185.069032</ele>
        <time>2021-07-10T20:09:44.382Z</time>
      </trkpt>
      <trkpt lat="45.76001" lon="4.90596">
        <ele>185.027377</ele>
        <time>2021-07-10T20:09:47.141Z</time>
      </trkpt>
      <trkpt lat="45.76003" lon="4.90595">
        <ele>185.010225</ele>
        <time>2021-07-10T20:09:47.417Z</time>
      </trkpt>
      <trkpt lat="45.76045" lon="4.90568">
        <ele>184.644131</ele>
        <time>2021-07-10T20:09:53.314Z</time>
      </trkpt>
      <trkpt lat="45.76055" lon="4.90562">
        <ele>184.557321</ele>
        <time>2021-07-10T20:09:54.687Z</time>
      </trkpt>
      <trkpt lat="45.76062" lon="4.90559">
        <ele>184.502023</ele>
        <time>2021-07-10T20:09:55.575Z</time>
      </trkpt>
      <trkpt lat="45.76069" lon="4.90555">
        <ele>184.443727</ele>
        <time>2021-07-10T20:09:56.446Z</time>
      </trkpt>
      <trkpt lat="45.76131" lon="4.90526">
        <ele>183.927327</ele>
        <time>2021-07-10T20:10:04.449Z</time>
      </trkpt>
      <trkpt lat="45.76234" lon="4.90492">
        <ele>183.168512</ele>
        <time>2021-07-10T20:10:17.773Z</time>
      </trkpt>
      <trkpt lat="45.76334" lon="4.9046">
        <ele>182.479118</ele>
        <time>2021-07-10T20:10:31.123Z</time>
      </trkpt>
      <trkpt lat="45.76415" lon="4.90432">
        <ele>182.10211</ele>
        <time>2021-07-10T20:10:41.917Z</time>
      </trkpt>
      <trkpt lat="45.76423" lon="4.90429">
        <ele>182.069917</ele>
        <time>2021-07-10T20:10:42.919Z</time>
      </trkpt>
      <trkpt lat="45.76455" lon="4.90318">
        <ele>181.724809</ele>
        <time>2021-07-10T20:10:54.611Z</time>
      </trkpt>
      <trkpt lat="45.76464" lon="4.90302">
        <ele>181.665918</ele>
        <time>2021-07-10T20:10:56.726Z</time>
      </trkpt>
      <trkpt lat="45.76467" lon="4.90298">
        <ele>181.640753</ele>
        <time>2021-07-10T20:10:57.517Z</time>
      </trkpt>
      <trkpt lat="45.76478" lon="4.90288">
        <ele>181.553538</ele>
        <time>2021-07-10T20:10:59.567Z</time>
      </trkpt>
      <trkpt lat="45.76491" lon="4.90283">
        <ele>181.459788</ele>
        <time>2021-07-10T20:11:01.600Z</time>
      </trkpt>
      <trkpt lat="45.76495" lon="4.90122">
        <ele>180.704572</ele>
        <time>2021-07-10T20:11:16.701Z</time>
      </trkpt>
      <trkpt lat="45.76495" lon="4.90113">
        <ele>180.662151</ele>
        <time>2021-07-10T20:11:17.507Z</time>
      </trkpt>
      <trkpt lat="45.76548" lon="4.90106">
        <ele>179.960971</ele>
        <time>2021-07-10T20:11:23.482Z</time>
      </trkpt>
      <trkpt lat="45.76555" lon="4.90106">
        <ele>179.8002</ele>
        <time>2021-07-10T20:11:24.240Z</time>
      </trkpt>
      <trkpt lat="45.76558" lon="4.9009">
        <ele>179.53444</ele>
        <time>2021-07-10T20:11:25.460Z</time>
      </trkpt>
      <trkpt lat="45.76568" lon="4.90033">
        <ele>178.562056</ele>
        <time>2021-07-10T20:11:29.872Z</time>
      </trkpt>
      <trkpt lat="45.76578" lon="4.89979">
        <ele>177.6574</ele>
        <time>2021-07-10T20:11:33.915Z</time>
      </trkpt>
      <trkpt lat="45.76595" lon="4.89884">
        <ele>176.09993</ele>
        <time>2021-07-10T20:11:40.975Z</time>
      </trkpt>
      <trkpt lat="45.76614" lon="4.89784">
        <ele>174.991927</ele>
        <time>2021-07-10T20:11:48.732Z</time>
      </trkpt>
      <trkpt lat="45.76615" lon="4.89778">
        <ele>174.919149</ele>
        <time>2021-07-10T20:11:49.270Z</time>
      </trkpt>
      <trkpt lat="45.7662" lon="4.89755">
        <ele>174.673692</ele>
        <time>2021-07-10T20:11:51.157Z</time>
      </trkpt>
      <trkpt lat="45.76656" lon="4.8956">
        <ele>173.119697</ele>
        <time>2021-07-10T20:12:09.664Z</time>
      </trkpt>
      <trkpt lat="45.76671" lon="4.89477">
        <ele>172.793543</ele>
        <time>2021-07-10T20:12:17.779Z</time>
      </trkpt>
      <trkpt lat="45.76672" lon="4.89467">
        <ele>172.757007</ele>
        <time>2021-07-10T20:12:18.632Z</time>
      </trkpt>
      <trkpt lat="45.7669" lon="4.89367">
        <ele>172.414163</ele>
        <time>2021-07-10T20:12:27.983Z</time>
      </trkpt>
      <trkpt lat="45.76692" lon="4.89356">
        <ele>172.391529</ele>
        <time>2021-07-10T20:12:28.927Z</time>
      </trkpt>
      <trkpt lat="45.76703" lon="4.89292">
        <ele>172.250593</ele>
        <time>2021-07-10T20:12:35.237Z</time>
      </trkpt>
      <trkpt lat="45.76706" lon="4.89278">
        <ele>172.218807</ele>
        <time>2021-07-10T20:12:36.698Z</time>
      </trkpt>
      <trkpt lat="45.76715" lon="4.89229">
        <ele>172.110511</ele>
        <time>2021-07-10T20:12:41.726Z</time>
      </trkpt>
      <trkpt lat="45.76724" lon="4.89181">
        <ele>172.004432</ele>
        <time>2021-07-10T20:12:46.818Z</time>
      </trkpt>
      <trkpt lat="45.76733" lon="4.89128">
        <ele>171.942627</ele>
        <time>2021-07-10T20:12:52.104Z</time>
      </trkpt>
      <trkpt lat="45.76743" lon="4.89075">
        <ele>171.987013</ele>
        <time>2021-07-10T20:12:57.531Z</time>
      </trkpt>
      <trkpt lat="45.7676" lon="4.88982">
        <ele>172.064038</ele>
        <time>2021-07-10T20:13:08.012Z</time>
      </trkpt>
      <trkpt lat="45.76761" lon="4.88978">
        <ele>172.067513</ele>
        <time>2021-07-10T20:13:08.420Z</time>
      </trkpt>
      <trkpt lat="45.76763" lon="4.88968">
        <ele>172.075435</ele>
        <time>2021-07-10T20:13:09.516Z</time>
      </trkpt>
      <trkpt lat="45.76765" lon="4.88954">
        <ele>172.087357</ele>
        <time>2021-07-10T20:13:11.174Z</time>
      </trkpt>
      <trkpt lat="45.76779" lon="4.88885">
        <ele>172.176758</ele>
        <time>2021-07-10T20:13:19.546Z</time>
      </trkpt>
      <trkpt lat="45.76781" lon="4.88874">
        <ele>172.21871</ele>
        <time>2021-07-10T20:13:20.687Z</time>
      </trkpt>
      <trkpt lat="45.76786" lon="4.8885">
        <ele>172.30443</ele>
        <time>2021-07-10T20:13:23.364Z</time>
      </trkpt>
      <trkpt lat="45.76796" lon="4.88793">
        <ele>172.511909</ele>
        <time>2021-07-10T20:13:30.103Z</time>
      </trkpt>
      <trkpt lat="45.76801" lon="4.88768">
        <ele>172.600454</ele>
        <time>2021-07-10T20:13:32.852Z</time>
      </trkpt>
      <trkpt lat="45.76807" lon="4.88733">
        <ele>172.725506</ele>
        <time>2021-07-10T20:13:37.249Z</time>
      </trkpt>
      <trkpt lat="45.76814" lon="4.88703">
        <ele>172.835565</ele>
        <time>2021-07-10T20:13:41.082Z</time>
      </trkpt>
      <trkpt lat="45.76815" lon="4.88696">
        <ele>172.862997</ele>
        <time>2021-07-10T20:13:42.287Z</time>
      </trkpt>
      <trkpt lat="45.76817" lon="4.88687">
        <ele>172.894864</ele>
        <time>2021-07-10T20:13:43.520Z</time>
      </trkpt>
      <trkpt lat="45.76821" lon="4.88662">
        <ele>172.986028</ele>
        <time>2021-07-10T20:13:46.517Z</time>
      </trkpt>
      <trkpt lat="45.76824" lon="4.88649">
        <ele>173.031274</ele>
        <time>2021-07-10T20:13:48.373Z</time>
      </trkpt>
      <trkpt lat="45.76832" lon="4.88606">
        <ele>173.213991</ele>
        <time>2021-07-10T20:13:53.745Z</time>
      </trkpt>
      <trkpt lat="45.76835" lon="4.88586">
        <ele>173.296756</ele>
        <time>2021-07-10T20:13:56.354Z</time>
      </trkpt>
      <trkpt lat="45.76851" lon="4.88507">
        <ele>173.63664</ele>
        <time>2021-07-10T20:14:05.372Z</time>
      </trkpt>
      <trkpt lat="45.76853" lon="4.88497">
        <ele>173.67569</ele>
        <time>2021-07-10T20:14:06.748Z</time>
      </trkpt>
      <trkpt lat="45.76858" lon="4.88467">
        <ele>173.804405</ele>
        <time>2021-07-10T20:14:10.575Z</time>
      </trkpt>
      <trkpt lat="45.76861" lon="4.88448">
        <ele>173.883696</ele>
        <time>2021-07-10T20:14:13.229Z</time>
      </trkpt>
      <trkpt lat="45.76864" lon="4.88434">
        <ele>173.94433</ele>
        <time>2021-07-10T20:14:15.220Z</time>
      </trkpt>
      <trkpt lat="45.76875" lon="4.88374">
        <ele>174.123228</ele>
        <time>2021-07-10T20:14:23.062Z</time>
      </trkpt>
      <trkpt lat="45.76876" lon="4.88368">
        <ele>174.130029</ele>
        <time>2021-07-10T20:14:23.572Z</time>
      </trkpt>
      <trkpt lat="45.76878" lon="4.88359">
        <ele>174.142065</ele>
        <time>2021-07-10T20:14:24.851Z</time>
      </trkpt>
      <trkpt lat="45.76883" lon="4.88331">
        <ele>174.175498</ele>
        <time>2021-07-10T20:14:27.735Z</time>
      </trkpt>
      <trkpt lat="45.76885" lon="4.88319">
        <ele>174.189867</ele>
        <time>2021-07-10T20:14:28.967Z</time>
      </trkpt>
      <trkpt lat="45.7689" lon="4.88292">
        <ele>174.222646</ele>
        <time>2021-07-10T20:14:31.831Z</time>
      </trkpt>
      <trkpt lat="45.76893" lon="4.88275">
        <ele>174.243432</ele>
        <time>2021-07-10T20:14:33.737Z</time>
      </trkpt>
      <trkpt lat="45.76906" lon="4.88205">
        <ele>174.328467</ele>
        <time>2021-07-10T20:14:40.921Z</time>
      </trkpt>
      <trkpt lat="45.7691" lon="4.88183">
        <ele>174.356253</ele>
        <time>2021-07-10T20:14:43.136Z</time>
      </trkpt>
      <trkpt lat="45.76915" lon="4.88157">
        <ele>174.387054</ele>
        <time>2021-07-10T20:14:46.207Z</time>
      </trkpt>
      <trkpt lat="45.76917" lon="4.88143">
        <ele>174.391086</ele>
        <time>2021-07-10T20:14:47.567Z</time>
      </trkpt>
      <trkpt lat="45.76921" lon="4.88124">
        <ele>174.375241</ele>
        <time>2021-07-10T20:14:49.997Z</time>
      </trkpt>
      <trkpt lat="45.76927" lon="4.88091">
        <ele>174.347054</ele>
        <time>2021-07-10T20:14:53.884Z</time>
      </trkpt>
      <trkpt lat="45.76932" lon="4.88058">
        <ele>174.319606</ele>
        <time>2021-07-10T20:14:58.088Z</time>
      </trkpt>
      <trkpt lat="45.76936" lon="4.88039">
        <ele>174.303259</ele>
        <time>2021-07-10T20:14:59.940Z</time>
      </trkpt>
      <trkpt lat="45.76937" lon="4.88032">
        <ele>174.297723</ele>
        <time>2021-07-10T20:15:00.571Z</time>
      </trkpt>
      <trkpt lat="45.76938" lon="4.88024">
        <ele>174.291152</ele>
        <time>2021-07-10T20:15:01.437Z</time>
      </trkpt>
      <trkpt lat="45.7694" lon="4.88016">
        <ele>174.283781</ele>
        <time>2021-07-10T20:15:02.500Z</time>
      </trkpt>
      <trkpt lat="45.76949" lon="4.87969">
        <ele>174.244207</ele>
        <time>2021-07-10T20:15:06.882Z</time>
      </trkpt>
      <trkpt lat="45.76952" lon="4.87955">
        <ele>174.2322</ele>
        <time>2021-07-10T20:15:08.376Z</time>
      </trkpt>
      <trkpt lat="45.76955" lon="4.87935">
        <ele>174.215989</ele>
        <time>2021-07-10T20:15:10.158Z</time>
      </trkpt>
      <trkpt lat="45.76957" lon="4.87926">
        <ele>174.207988</ele>
        <time>2021-07-10T20:15:11.021Z</time>
      </trkpt>
      <trkpt lat="45.76959" lon="4.87915">
        <ele>174.199138</ele>
        <time>2021-07-10T20:15:11.966Z</time>
      </trkpt>
      <trkpt lat="45.76965" lon="4.87881">
        <ele>174.143062</ele>
        <time>2021-07-10T20:15:15.573Z</time>
      </trkpt>
      <trkpt lat="45.76967" lon="4.87868">
        <ele>174.114378</ele>
        <time>2021-07-10T20:15:16.768Z</time>
      </trkpt>
      <trkpt lat="45.76968" lon="4.87861">
        <ele>174.097519</ele>
        <time>2021-07-10T20:15:17.507Z</time>
      </trkpt>
      <trkpt lat="45.7697" lon="4.87848">
        <ele>174.07003</ele>
        <time>2021-07-10T20:15:18.870Z</time>
      </trkpt>
      <trkpt lat="45.76975" lon="4.87818">
        <ele>174.001683</ele>
        <time>2021-07-10T20:15:21.886Z</time>
      </trkpt>
      <trkpt lat="45.76977" lon="4.8781">
        <ele>173.984259</ele>
        <time>2021-07-10T20:15:22.669Z</time>
      </trkpt>
      <trkpt lat="45.76979" lon="4.87797">
        <ele>173.955077</ele>
        <time>2021-07-10T20:15:24.143Z</time>
      </trkpt>
      <trkpt lat="45.7698" lon="4.87792">
        <ele>173.942965</ele>
        <time>2021-07-10T20:15:24.757Z</time>
      </trkpt>
      <trkpt lat="45.76983" lon="4.87771">
        <ele>173.897423</ele>
        <time>2021-07-10T20:15:26.717Z</time>
      </trkpt>
      <trkpt lat="45.76991" lon="4.87725">
        <ele>173.792882</ele>
        <time>2021-07-10T20:15:31.528Z</time>
      </trkpt>
      <trkpt lat="45.76993" lon="4.87714">
        <ele>173.767809</ele>
        <time>2021-07-10T20:15:32.537Z</time>
      </trkpt>
      <trkpt lat="45.76995" lon="4.87703">
        <ele>173.744989</ele>
        <time>2021-07-10T20:15:33.629Z</time>
      </trkpt>
      <trkpt lat="45.76997" lon="4.87693">
        <ele>173.720951</ele>
        <time>2021-07-10T20:15:34.752Z</time>
      </trkpt>
      <trkpt lat="45.77003" lon="4.87658">
        <ele>173.641146</ele>
        <time>2021-07-10T20:15:38.129Z</time>
      </trkpt>
      <trkpt lat="45.77004" lon="4.87653">
        <ele>173.631227</ele>
        <time>2021-07-10T20:15:38.573Z</time>
      </trkpt>
      <trkpt lat="45.77019" lon="4.87571">
        <ele>173.609896</ele>
        <time>2021-07-10T20:15:46.379Z</time>
      </trkpt>
      <trkpt lat="45.77021" lon="4.87559">
        <ele>173.607923</ele>
        <time>2021-07-10T20:15:47.559Z</time>
      </trkpt>
      <trkpt lat="45.77024" lon="4.87542">
        <ele>173.60485</ele>
        <time>2021-07-10T20:15:49.470Z</time>
      </trkpt>
      <trkpt lat="45.77056" lon="4.87378">
        <ele>173.635153</ele>
        <time>2021-07-10T20:16:08.048Z</time>
      </trkpt>
      <trkpt lat="45.77058" lon="4.8737">
        <ele>173.656563</ele>
        <time>2021-07-10T20:16:08.918Z</time>
      </trkpt>
      <trkpt lat="45.7706" lon="4.87354">
        <ele>173.695261</ele>
        <time>2021-07-10T20:16:10.990Z</time>
      </trkpt>
      <trkpt lat="45.77063" lon="4.87339">
        <ele>173.732577</ele>
        <time>2021-07-10T20:16:12.706Z</time>
      </trkpt>
      <trkpt lat="45.77089" lon="4.87183">
        <ele>174.111431</ele>
        <time>2021-07-10T20:16:31.291Z</time>
      </trkpt>
      <trkpt lat="45.7709" lon="4.87177">
        <ele>174.125379</ele>
        <time>2021-07-10T20:16:31.939Z</time>
      </trkpt>
      <trkpt lat="45.77091" lon="4.87172">
        <ele>174.139621</ele>
        <time>2021-07-10T20:16:32.552Z</time>
      </trkpt>
      <trkpt lat="45.77098" lon="4.871">
        <ele>174.195455</ele>
        <time>2021-07-10T20:16:40.699Z</time>
      </trkpt>
      <trkpt lat="45.771" lon="4.87091">
        <ele>174.196216</ele>
        <time>2021-07-10T20:16:41.576Z</time>
      </trkpt>
      <trkpt lat="45.77101" lon="4.87068">
        <ele>174.19819</ele>
        <time>2021-07-10T20:16:43.820Z</time>
      </trkpt>
      <trkpt lat="45.77102" lon="4.8704">
        <ele>174.20049</ele>
        <time>2021-07-10T20:16:46.484Z</time>
      </trkpt>
      <trkpt lat="45.77103" lon="4.87004">
        <ele>174.203465</ele>
        <time>2021-07-10T20:16:49.965Z</time>
      </trkpt>
      <trkpt lat="45.77103" lon="4.87002">
        <ele>174.203556</ele>
        <time>2021-07-10T20:16:50.086Z</time>
      </trkpt>
      <trkpt lat="45.77103" lon="4.8699">
        <ele>174.204562</ele>
        <time>2021-07-10T20:16:51.309Z</time>
      </trkpt>
      <trkpt lat="45.77103" lon="4.8698">
        <ele>174.205419</ele>
        <time>2021-07-10T20:16:52.173Z</time>
      </trkpt>
      <trkpt lat="45.77105" lon="4.8691">
        <ele>174.211205</ele>
        <time>2021-07-10T20:17:00.203Z</time>
      </trkpt>
      <trkpt lat="45.77103" lon="4.86885">
        <ele>174.209069</ele>
        <time>2021-07-10T20:17:02.940Z</time>
      </trkpt>
      <trkpt lat="45.77102" lon="4.86873">
        <ele>174.204277</ele>
        <time>2021-07-10T20:17:04.058Z</time>
      </trkpt>
      <trkpt lat="45.77098" lon="4.86821">
        <ele>174.18228</ele>
        <time>2021-07-10T20:17:10.042Z</time>
      </trkpt>
      <trkpt lat="45.7709" lon="4.86743">
        <ele>174.149303</ele>
        <time>2021-07-10T20:17:18.110Z</time>
      </trkpt>
      <trkpt lat="45.77086" lon="4.86706">
        <ele>174.133847</ele>
        <time>2021-07-10T20:17:21.671Z</time>
      </trkpt>
      <trkpt lat="45.77087" lon="4.86705">
        <ele>174.13336</ele>
        <time>2021-07-10T20:17:21.797Z</time>
      </trkpt>
      <trkpt lat="45.77111" lon="4.86691">
        <ele>174.117521</ele>
        <time>2021-07-10T20:17:25.125Z</time>
      </trkpt>
      <trkpt lat="45.77165" lon="4.8665">
        <ele>173.902984</ele>
        <time>2021-07-10T20:17:34.484Z</time>
      </trkpt>
      <trkpt lat="45.77169" lon="4.86647">
        <ele>173.88027</ele>
        <time>2021-07-10T20:17:35.155Z</time>
      </trkpt>
      <trkpt lat="45.77172" lon="4.86644">
        <ele>173.861356</ele>
        <time>2021-07-10T20:17:35.636Z</time>
      </trkpt>
      <trkpt lat="45.77218" lon="4.86612">
        <ele>173.604367</ele>
        <time>2021-07-10T20:17:42.624Z</time>
      </trkpt>
      <trkpt lat="45.77226" lon="4.86606">
        <ele>173.554069</ele>
        <time>2021-07-10T20:17:43.885Z</time>
      </trkpt>
      <trkpt lat="45.7723" lon="4.8661">
        <ele>173.530343</ele>
        <time>2021-07-10T20:17:44.442Z</time>
      </trkpt>
      <trkpt lat="45.77233" lon="4.86612">
        <ele>173.512322</ele>
        <time>2021-07-10T20:17:44.895Z</time>
      </trkpt>
      <trkpt lat="45.77236" lon="4.86612">
        <ele>173.497116</ele>
        <time>2021-07-10T20:17:45.229Z</time>
      </trkpt>
      <trkpt lat="45.7724" lon="4.8661">
        <ele>173.473859</ele>
        <time>2021-07-10T20:17:45.770Z</time>
      </trkpt>
      <trkpt lat="45.77242" lon="4.86608">
        <ele>173.462254</ele>
        <time>2021-07-10T20:17:46.041Z</time>
      </trkpt>
      <trkpt lat="45.77244" lon="4.86604">
        <ele>173.446297</ele>
        <time>2021-07-10T20:17:46.429Z</time>
      </trkpt>
      <trkpt lat="45.77244" lon="4.86599">
        <ele>173.428272</ele>
        <time>2021-07-10T20:17:46.860Z</time>
      </trkpt>
      <trkpt lat="45.77243" lon="4.86592">
        <ele>173.403599</ele>
        <time>2021-07-10T20:17:47.452Z</time>
      </trkpt>
      <trkpt lat="45.77241" lon="4.86588">
        <ele>173.38587</ele>
        <time>2021-07-10T20:17:47.908Z</time>
      </trkpt>
      <trkpt lat="45.77238" lon="4.86586">
        <ele>173.368902</ele>
        <time>2021-07-10T20:17:48.338Z</time>
      </trkpt>
      <trkpt lat="45.77239" lon="4.86574">
        <ele>173.326378</ele>
        <time>2021-07-10T20:17:49.348Z</time>
      </trkpt>
      <trkpt lat="45.7724" lon="4.86558">
        <ele>173.270345</ele>
        <time>2021-07-10T20:17:50.656Z</time>
      </trkpt>
      <trkpt lat="45.77249" lon="4.8645">
        <ele>173.235115</ele>
        <time>2021-07-10T20:18:00.346Z</time>
      </trkpt>
      <trkpt lat="45.77249" lon="4.86442">
        <ele>173.238722</ele>
        <time>2021-07-10T20:18:01.095Z</time>
      </trkpt>
      <trkpt lat="45.77259" lon="4.86438">
        <ele>173.245666</ele>
        <time>2021-07-10T20:18:02.666Z</time>
      </trkpt>
      <trkpt lat="45.7726" lon="4.86421">
        <ele>173.254047</ele>
        <time>2021-07-10T20:18:04.536Z</time>
      </trkpt>
      <trkpt lat="45.77264" lon="4.86341">
        <ele>173.291699</ele>
        <time>2021-07-10T20:18:14.643Z</time>
      </trkpt>
      <trkpt lat="45.77264" lon="4.86335">
        <ele>173.294636</ele>
        <time>2021-07-10T20:18:15.518Z</time>
      </trkpt>
      <trkpt lat="45.77264" lon="4.86326">
        <ele>173.298992</ele>
        <time>2021-07-10T20:18:16.641Z</time>
      </trkpt>
      <trkpt lat="45.77265" lon="4.86322">
        <ele>173.3006</ele>
        <time>2021-07-10T20:18:17.042Z</time>
      </trkpt>
      <trkpt lat="45.77265" lon="4.86317">
        <ele>173.30316</ele>
        <time>2021-07-10T20:18:17.675Z</time>
      </trkpt>
      <trkpt lat="45.77265" lon="4.8631">
        <ele>173.30671</ele>
        <time>2021-07-10T20:18:18.744Z</time>
      </trkpt>
      <trkpt lat="45.77271" lon="4.86207">
        <ele>173.226521</ele>
        <time>2021-07-10T20:18:30.899Z</time>
      </trkpt>
      <trkpt lat="45.77272" lon="4.86193">
        <ele>173.211923</ele>
        <time>2021-07-10T20:18:32.365Z</time>
      </trkpt>
      <trkpt lat="45.77273" lon="4.8618">
        <ele>173.198377</ele>
        <time>2021-07-10T20:18:33.571Z</time>
      </trkpt>
      <trkpt lat="45.77277" lon="4.86109">
        <ele>173.12316</ele>
        <time>2021-07-10T20:18:39.998Z</time>
      </trkpt>
      <trkpt lat="45.77278" lon="4.86101">
        <ele>173.114791</ele>
        <time>2021-07-10T20:18:40.980Z</time>
      </trkpt>
      <trkpt lat="45.77279" lon="4.86089">
        <ele>173.101847</ele>
        <time>2021-07-10T20:18:41.966Z</time>
      </trkpt>
      <trkpt lat="45.77286" lon="4.85983">
        <ele>172.947095</ele>
        <time>2021-07-10T20:18:51.840Z</time>
      </trkpt>
      <trkpt lat="45.77286" lon="4.85974">
        <ele>172.928616</ele>
        <time>2021-07-10T20:18:52.628Z</time>
      </trkpt>
      <trkpt lat="45.77287" lon="4.85965">
        <ele>172.911611</ele>
        <time>2021-07-10T20:18:53.568Z</time>
      </trkpt>
      <trkpt lat="45.7729" lon="4.85909">
        <ele>172.804687</ele>
        <time>2021-07-10T20:18:58.575Z</time>
      </trkpt>
      <trkpt lat="45.77287" lon="4.85893">
        <ele>172.774022</ele>
        <time>2021-07-10T20:19:00.107Z</time>
      </trkpt>
      <trkpt lat="45.77287" lon="4.8588">
        <ele>172.748342</ele>
        <time>2021-07-10T20:19:01.198Z</time>
      </trkpt>
      <trkpt lat="45.77286" lon="4.85869">
        <ele>172.728189</ele>
        <time>2021-07-10T20:19:02.022Z</time>
      </trkpt>
      <trkpt lat="45.77286" lon="4.85867">
        <ele>172.723781</ele>
        <time>2021-07-10T20:19:02.647Z</time>
      </trkpt>
      <trkpt lat="45.77268" lon="4.85669">
        <ele>173.24552</ele>
        <time>2021-07-10T20:19:25.288Z</time>
      </trkpt>
      <trkpt lat="45.77267" lon="4.85657">
        <ele>173.324859</ele>
        <time>2021-07-10T20:19:27.562Z</time>
      </trkpt>
      <trkpt lat="45.77266" lon="4.85653">
        <ele>173.345331</ele>
        <time>2021-07-10T20:19:28.052Z</time>
      </trkpt>
      <trkpt lat="45.77266" lon="4.85646">
        <ele>173.391734</ele>
        <time>2021-07-10T20:19:29.159Z</time>
      </trkpt>
      <trkpt lat="45.77264" lon="4.85631">
        <ele>173.489028</ele>
        <time>2021-07-10T20:19:31.603Z</time>
      </trkpt>
      <trkpt lat="45.77262" lon="4.85606">
        <ele>173.649445</ele>
        <time>2021-07-10T20:19:35.314Z</time>
      </trkpt>
      <trkpt lat="45.77251" lon="4.855">
        <ele>174.206729</ele>
        <time>2021-07-10T20:19:50.125Z</time>
      </trkpt>
      <trkpt lat="45.77251" lon="4.85464">
        <ele>174.252146</ele>
        <time>2021-07-10T20:19:54.368Z</time>
      </trkpt>
      <trkpt lat="45.77246" lon="4.85407">
        <ele>174.325352</ele>
        <time>2021-07-10T20:20:00.577Z</time>
      </trkpt>
      <trkpt lat="45.77242" lon="4.8537">
        <ele>174.373212</ele>
        <time>2021-07-10T20:20:04.621Z</time>
      </trkpt>
      <trkpt lat="45.7728" lon="4.85271">
        <ele>174.503568</ele>
        <time>2021-07-10T20:20:15.294Z</time>
      </trkpt>
      <trkpt lat="45.77315" lon="4.85185">
        <ele>174.476163</ele>
        <time>2021-07-10T20:20:24.646Z</time>
      </trkpt>
      <trkpt lat="45.77324" lon="4.85163">
        <ele>174.46916</ele>
        <time>2021-07-10T20:20:26.985Z</time>
      </trkpt>
      <trkpt lat="45.77327" lon="4.85156">
        <ele>174.466847</ele>
        <time>2021-07-10T20:20:27.947Z</time>
      </trkpt>
      <trkpt lat="45.77332" lon="4.85145">
        <ele>174.463342</ele>
        <time>2021-07-10T20:20:29.181Z</time>
      </trkpt>
      <trkpt lat="45.77339" lon="4.8513">
        <ele>174.458147</ele>
        <time>2021-07-10T20:20:31.047Z</time>
      </trkpt>
      <trkpt lat="45.77344" lon="4.8512">
        <ele>174.454782</ele>
        <time>2021-07-10T20:20:32.367Z</time>
      </trkpt>
      <trkpt lat="45.77349" lon="4.85111">
        <ele>174.451687</ele>
        <time>2021-07-10T20:20:33.825Z</time>
      </trkpt>
      <trkpt lat="45.77353" lon="4.851">
        <ele>174.44822</ele>
        <time>2021-07-10T20:20:35.117Z</time>
      </trkpt>
      <trkpt lat="45.77396" lon="4.8501">
        <ele>174.837857</ele>
        <time>2021-07-10T20:20:48.413Z</time>
      </trkpt>
      <trkpt lat="45.77406" lon="4.84988">
        <ele>175.018051</ele>
        <time>2021-07-10T20:20:51.842Z</time>
      </trkpt>
      <trkpt lat="45.77408" lon="4.84985">
        <ele>175.038307</ele>
        <time>2021-07-10T20:20:52.280Z</time>
      </trkpt>
      <trkpt lat="45.77415" lon="4.8497">
        <ele>175.162637</ele>
        <time>2021-07-10T20:20:54.678Z</time>
      </trkpt>
      <trkpt lat="45.77427" lon="4.84943">
        <ele>175.373563</ele>
        <time>2021-07-10T20:20:58.940Z</time>
      </trkpt>
      <trkpt lat="45.77466" lon="4.84861">
        <ele>176.040906</ele>
        <time>2021-07-10T20:21:12.626Z</time>
      </trkpt>
      <trkpt lat="45.77476" lon="4.8484">
        <ele>176.205367</ele>
        <time>2021-07-10T20:21:16.030Z</time>
      </trkpt>
      <trkpt lat="45.77486" lon="4.84817">
        <ele>176.383543</ele>
        <time>2021-07-10T20:21:19.775Z</time>
      </trkpt>
      <trkpt lat="45.7749" lon="4.8481">
        <ele>176.440989</ele>
        <time>2021-07-10T20:21:20.966Z</time>
      </trkpt>
      <trkpt lat="45.77495" lon="4.84798">
        <ele>176.530862</ele>
        <time>2021-07-10T20:21:22.921Z</time>
      </trkpt>
      <trkpt lat="45.77546" lon="4.84689">
        <ele>177.383372</ele>
        <time>2021-07-10T20:21:40.064Z</time>
      </trkpt>
      <trkpt lat="45.77584" lon="4.84601">
        <ele>177.696498</ele>
        <time>2021-07-10T20:21:53.362Z</time>
      </trkpt>
      <trkpt lat="45.77616" lon="4.84534">
        <ele>177.385173</ele>
        <time>2021-07-10T20:22:01.304Z</time>
      </trkpt>
      <trkpt lat="45.77617" lon="4.8453">
        <ele>177.368876</ele>
        <time>2021-07-10T20:22:01.682Z</time>
      </trkpt>
      <trkpt lat="45.77631" lon="4.845">
        <ele>177.230452</ele>
        <time>2021-07-10T20:22:04.917Z</time>
      </trkpt>
      <trkpt lat="45.77638" lon="4.84484">
        <ele>177.159976</ele>
        <time>2021-07-10T20:22:06.488Z</time>
      </trkpt>
      <trkpt lat="45.77641" lon="4.8448">
        <ele>177.139622</ele>
        <time>2021-07-10T20:22:07.105Z</time>
      </trkpt>
      <trkpt lat="45.77646" lon="4.84469">
        <ele>177.088856</ele>
        <time>2021-07-10T20:22:08.259Z</time>
      </trkpt>
      <trkpt lat="45.77651" lon="4.84457">
        <ele>177.037121</ele>
        <time>2021-07-10T20:22:09.348Z</time>
      </trkpt>
      <trkpt lat="45.77667" lon="4.84419">
        <ele>176.865007</ele>
        <time>2021-07-10T20:22:13.060Z</time>
      </trkpt>
      <trkpt lat="45.77661" lon="4.84412">
        <ele>176.756916</ele>
        <time>2021-07-10T20:22:13.997Z</time>
      </trkpt>
      <trkpt lat="45.77666" lon="4.84396">
        <ele>176.497335</ele>
        <time>2021-07-10T20:22:15.413Z</time>
      </trkpt>
      <trkpt lat="45.7767" lon="4.84386">
        <ele>176.33339</ele>
        <time>2021-07-10T20:22:16.339Z</time>
      </trkpt>
      <trkpt lat="45.77671" lon="4.84382">
        <ele>176.276741</ele>
        <time>2021-07-10T20:22:16.646Z</time>
      </trkpt>
      <trkpt lat="45.77684" lon="4.84389">
        <ele>175.99664</ele>
        <time>2021-07-10T20:22:18.093Z</time>
      </trkpt>
      <trkpt lat="45.7769" lon="4.84393">
        <ele>175.859255</ele>
        <time>2021-07-10T20:22:18.801Z</time>
      </trkpt>
      <trkpt lat="45.77766" lon="4.84438">
        <ele>174.190946</ele>
        <time>2021-07-10T20:22:27.304Z</time>
      </trkpt>
      <trkpt lat="45.7777" lon="4.8444">
        <ele>174.09162</ele>
        <time>2021-07-10T20:22:27.822Z</time>
      </trkpt>
      <trkpt lat="45.77775" lon="4.8444">
        <ele>173.997387</ele>
        <time>2021-07-10T20:22:28.285Z</time>
      </trkpt>
      <trkpt lat="45.77779" lon="4.84439">
        <ele>173.917367</ele>
        <time>2021-07-10T20:22:28.675Z</time>
      </trkpt>
      <trkpt lat="45.7779" lon="4.84431">
        <ele>173.662948</ele>
        <time>2021-07-10T20:22:29.968Z</time>
      </trkpt>
      <trkpt lat="45.77791" lon="4.84429">
        <ele>173.616041</ele>
        <time>2021-07-10T20:22:30.192Z</time>
      </trkpt>
      <trkpt lat="45.77798" lon="4.84414">
        <ele>173.372107</ele>
        <time>2021-07-10T20:22:31.455Z</time>
      </trkpt>
      <trkpt lat="45.77896" lon="4.84147">
        <ele>174.700799</ele>
        <time>2021-07-10T20:23:01.320Z</time>
      </trkpt>
      <trkpt lat="45.77897" lon="4.84143">
        <ele>174.935287</ele>
        <time>2021-07-10T20:23:02.026Z</time>
      </trkpt>
      <trkpt lat="45.77901" lon="4.84145">
        <ele>175.283675</ele>
        <time>2021-07-10T20:23:03.365Z</time>
      </trkpt>
      <trkpt lat="45.77912" lon="4.8415">
        <ele>176.075463</ele>
        <time>2021-07-10T20:23:08.361Z</time>
      </trkpt>
      <trkpt lat="45.77917" lon="4.84152">
        <ele>176.461104</ele>
        <time>2021-07-10T20:23:11.077Z</time>
      </trkpt>
      <trkpt lat="45.77919" lon="4.8415">
        <ele>176.639505</ele>
        <time>2021-07-10T20:23:11.785Z</time>
      </trkpt>
      <trkpt lat="45.77921" lon="4.84149">
        <ele>176.827602</ele>
        <time>2021-07-10T20:23:13.097Z</time>
      </trkpt>
      <trkpt lat="45.77925" lon="4.84148">
        <ele>177.095734</ele>
        <time>2021-07-10T20:23:15.258Z</time>
      </trkpt>
      <trkpt lat="45.77933" lon="4.84151">
        <ele>177.709498</ele>
        <time>2021-07-10T20:23:17.846Z</time>
      </trkpt>
      <trkpt lat="45.77935" lon="4.84146">
        <ele>177.981575</ele>
        <time>2021-07-10T20:23:19.140Z</time>
      </trkpt>
      <trkpt lat="45.77936" lon="4.84142">
        <ele>178.185084</ele>
        <time>2021-07-10T20:23:20.070Z</time>
      </trkpt>
      <trkpt lat="45.77939" lon="4.8414">
        <ele>178.406577</ele>
        <time>2021-07-10T20:23:21.242Z</time>
      </trkpt>
      <trkpt lat="45.77943" lon="4.8414">
        <ele>178.758655</ele>
        <time>2021-07-10T20:23:25.436Z</time>
      </trkpt>
      <trkpt lat="45.77945" lon="4.84135">
        <ele>179.048372</ele>
        <time>2021-07-10T20:23:27.109Z</time>
      </trkpt>
      <trkpt lat="45.77947" lon="4.8413">
        <ele>179.311059</ele>
        <time>2021-07-10T20:23:28.382Z</time>
      </trkpt>
      <trkpt lat="45.7795" lon="4.84124">
        <ele>179.717949</ele>
        <time>2021-07-10T20:23:32.055Z</time>
      </trkpt>
      <trkpt lat="45.77955" lon="4.84119">
        <ele>180.141278</ele>
        <time>2021-07-10T20:23:33.891Z</time>
      </trkpt>
      <trkpt lat="45.78015" lon="4.84073">
        <ele>185.068271</ele>
        <time>2021-07-10T20:24:11.008Z</time>
      </trkpt>
      <trkpt lat="45.78024" lon="4.84063">
        <ele>185.836436</ele>
        <time>2021-07-10T20:24:15.851Z</time>
      </trkpt>
      <trkpt lat="45.78025" lon="4.84059">
        <ele>186.082648</ele>
        <time>2021-07-10T20:24:17.369Z</time>
      </trkpt>
      <trkpt lat="45.78024" lon="4.84056">
        <ele>186.220653</ele>
        <time>2021-07-10T20:24:18.486Z</time>
      </trkpt>
      <trkpt lat="45.78026" lon="4.8405">
        <ele>186.718805</ele>
        <time>2021-07-10T20:24:23.575Z</time>
      </trkpt>
      <trkpt lat="45.78198" lon="4.83901">
        <ele>206.566344</ele>
        <time>2021-07-10T20:26:16.300Z</time>
      </trkpt>
      <trkpt lat="45.78199" lon="4.83899">
        <ele>206.704209</ele>
        <time>2021-07-10T20:26:18.137Z</time>
      </trkpt>
      <trkpt lat="45.78207" lon="4.8389">
        <ele>207.487861</ele>
        <time>2021-07-10T20:26:22.225Z</time>
      </trkpt>
      <trkpt lat="45.78259" lon="4.83825">
        <ele>212.922808</ele>
        <time>2021-07-10T20:26:50.946Z</time>
      </trkpt>
      <trkpt lat="45.78273" lon="4.83796">
        <ele>214.854217</ele>
        <time>2021-07-10T20:27:02.509Z</time>
      </trkpt>
      <trkpt lat="45.78285" lon="4.83744">
        <ele>217.885617</ele>
        <time>2021-07-10T20:27:20.021Z</time>
      </trkpt>
      <trkpt lat="45.78286" lon="4.83672">
        <ele>221.377667</ele>
        <time>2021-07-10T20:27:40.536Z</time>
      </trkpt>
      <trkpt lat="45.78286" lon="4.83666">
        <ele>221.634407</ele>
        <time>2021-07-10T20:27:42.619Z</time>
      </trkpt>
      <trkpt lat="45.78285" lon="4.83648">
        <ele>222.479452</ele>
        <time>2021-07-10T20:27:49.387Z</time>
      </trkpt>
      <trkpt lat="45.78289" lon="4.83613">
        <ele>224.126674</ele>
        <time>2021-07-10T20:27:57.802Z</time>
      </trkpt>
      <trkpt lat="45.78287" lon="4.8361">
        <ele>224.279779</ele>
        <time>2021-07-10T20:27:59.077Z</time>
      </trkpt>
      <trkpt lat="45.78286" lon="4.83609">
        <ele>224.381352</ele>
        <time>2021-07-10T20:28:00.815Z</time>
      </trkpt>
      <trkpt lat="45.78284" lon="4.8356">
        <ele>226.690841</ele>
        <time>2021-07-10T20:28:13.807Z</time>
      </trkpt>
      <trkpt lat="45.78288" lon="4.83526">
        <ele>228.276151</ele>
        <time>2021-07-10T20:28:23.649Z</time>
      </trkpt>
      <trkpt lat="45.78357" lon="4.8331">
        <ele>237.267815</ele>
        <time>2021-07-10T20:29:27.825Z</time>
      </trkpt>
      <trkpt lat="45.78384" lon="4.83199">
        <ele>240.559896</ele>
        <time>2021-07-10T20:29:50.480Z</time>
      </trkpt>
      <trkpt lat="45.78394" lon="4.83173">
        <ele>241.034172</ele>
        <time>2021-07-10T20:29:55.484Z</time>
      </trkpt>
      <trkpt lat="45.78413" lon="4.83154">
        <ele>241.561537</ele>
        <time>2021-07-10T20:30:00.832Z</time>
      </trkpt>
      <trkpt lat="45.78415" lon="4.83156">
        <ele>241.623438</ele>
        <time>2021-07-10T20:30:01.422Z</time>
      </trkpt>
      <trkpt lat="45.7855" lon="4.83328">
        <ele>245.115885</ele>
        <time>2021-07-10T20:30:41.647Z</time>
      </trkpt>
      <trkpt lat="45.78552" lon="4.83333">
        <ele>245.168416</ele>
        <time>2021-07-10T20:30:43.073Z</time>
      </trkpt>
      <trkpt lat="45.78556" lon="4.83344">
        <ele>245.294519</ele>
        <time>2021-07-10T20:30:45.089Z</time>
      </trkpt>
      <trkpt lat="45.78563" lon="4.83342">
        <ele>245.393149</ele>
        <time>2021-07-10T20:30:46.270Z</time>
      </trkpt>
      <trkpt lat="45.78566" lon="4.83344">
        <ele>245.447313</ele>
        <time>2021-07-10T20:30:47.022Z</time>
      </trkpt>
      <trkpt lat="45.7857" lon="4.83347">
        <ele>245.506281</ele>
        <time>2021-07-10T20:30:47.852Z</time>
      </trkpt>
      <trkpt lat="45.78587" lon="4.83358">
        <ele>245.781079</ele>
        <time>2021-07-10T20:30:52.628Z</time>
      </trkpt>
      <trkpt lat="45.78605" lon="4.83369">
        <ele>246.071206</ele>
        <time>2021-07-10T20:30:56.118Z</time>
      </trkpt>
      <trkpt lat="45.78614" lon="4.83374">
        <ele>246.200594</ele>
        <time>2021-07-10T20:30:58.273Z</time>
      </trkpt>
      <trkpt lat="45.78626" lon="4.83375">
        <ele>246.374871</ele>
        <time>2021-07-10T20:31:00.242Z</time>
      </trkpt>
      <trkpt lat="45.78633" lon="4.83378">
        <ele>246.481557</ele>
        <time>2021-07-10T20:31:01.198Z</time>
      </trkpt>
      <trkpt lat="45.78638" lon="4.8338">
        <ele>246.56088</ele>
        <time>2021-07-10T20:31:01.981Z</time>
      </trkpt>
      <trkpt lat="45.78641" lon="4.83381">
        <ele>246.571878</ele>
        <time>2021-07-10T20:31:02.440Z</time>
      </trkpt>
      <trkpt lat="45.78674" lon="4.83395">
        <ele>246.319606</ele>
        <time>2021-07-10T20:31:07.189Z</time>
      </trkpt>
      <trkpt lat="45.78691" lon="4.83403">
        <ele>246.187203</ele>
        <time>2021-07-10T20:31:10.231Z</time>
      </trkpt>
      <trkpt lat="45.78747" lon="4.8343">
        <ele>245.752326</ele>
        <time>2021-07-10T20:31:17.468Z</time>
      </trkpt>
      <trkpt lat="45.78759" lon="4.83436">
        <ele>245.654181</ele>
        <time>2021-07-10T20:31:19.079Z</time>
      </trkpt>
      <trkpt lat="45.78802" lon="4.83457">
        <ele>245.324205</ele>
        <time>2021-07-10T20:31:24.311Z</time>
      </trkpt>
      <trkpt lat="45.78809" lon="4.8346">
        <ele>245.267711</ele>
        <time>2021-07-10T20:31:25.211Z</time>
      </trkpt>
      <trkpt lat="45.7885" lon="4.83483">
        <ele>244.826391</ele>
        <time>2021-07-10T20:31:30.205Z</time>
      </trkpt>
      <trkpt lat="45.78855" lon="4.83486">
        <ele>244.774109</ele>
        <time>2021-07-10T20:31:30.759Z</time>
      </trkpt>
      <trkpt lat="45.78877" lon="4.83499">
        <ele>244.53066</ele>
        <time>2021-07-10T20:31:33.431Z</time>
      </trkpt>
      <trkpt lat="45.78882" lon="4.83501">
        <ele>244.483846</ele>
        <time>2021-07-10T20:31:34.000Z</time>
      </trkpt>
      <trkpt lat="45.78893" lon="4.83508">
        <ele>244.358609</ele>
        <time>2021-07-10T20:31:35.376Z</time>
      </trkpt>
      <trkpt lat="45.78896" lon="4.83509">
        <ele>244.330988</ele>
        <time>2021-07-10T20:31:35.690Z</time>
      </trkpt>
      <trkpt lat="45.78907" lon="4.83517">
        <ele>244.209313</ele>
        <time>2021-07-10T20:31:37.114Z</time>
      </trkpt>
      <trkpt lat="45.78914" lon="4.83522">
        <ele>244.12676</ele>
        <time>2021-07-10T20:31:38.167Z</time>
      </trkpt>
      <trkpt lat="45.78931" lon="4.83535">
        <ele>243.932792</ele>
        <time>2021-07-10T20:31:40.582Z</time>
      </trkpt>
      <trkpt lat="45.78956" lon="4.83555">
        <ele>243.642743</ele>
        <time>2021-07-10T20:31:44.881Z</time>
      </trkpt>
      <trkpt lat="45.78958" lon="4.83557">
        <ele>243.614737</ele>
        <time>2021-07-10T20:31:45.298Z</time>
      </trkpt>
      <trkpt lat="45.78968" lon="4.83565">
        <ele>243.503066</ele>
        <time>2021-07-10T20:31:47.007Z</time>
      </trkpt>
      <trkpt lat="45.78975" lon="4.8357">
        <ele>243.437707</ele>
        <time>2021-07-10T20:31:48.194Z</time>
      </trkpt>
      <trkpt lat="45.78978" lon="4.83573">
        <ele>243.426176</ele>
        <time>2021-07-10T20:31:48.807Z</time>
      </trkpt>
      <trkpt lat="45.78981" lon="4.83575">
        <ele>243.419014</ele>
        <time>2021-07-10T20:31:49.183Z</time>
      </trkpt>
      <trkpt lat="45.7901" lon="4.836">
        <ele>243.321485</ele>
        <time>2021-07-10T20:31:54.299Z</time>
      </trkpt>
      <trkpt lat="45.79022" lon="4.8361">
        <ele>243.283754</ele>
        <time>2021-07-10T20:31:56.371Z</time>
      </trkpt>
      <trkpt lat="45.79031" lon="4.83619">
        <ele>243.253517</ele>
        <time>2021-07-10T20:31:58.041Z</time>
      </trkpt>
      <trkpt lat="45.79035" lon="4.83623">
        <ele>243.239269</ele>
        <time>2021-07-10T20:31:58.824Z</time>
      </trkpt>
      <trkpt lat="45.7905" lon="4.83637">
        <ele>243.18799</ele>
        <time>2021-07-10T20:32:01.450Z</time>
      </trkpt>
      <trkpt lat="45.79085" lon="4.83673">
        <ele>243.067226</ele>
        <time>2021-07-10T20:32:07.381Z</time>
      </trkpt>
      <trkpt lat="45.79097" lon="4.83686">
        <ele>243.02446</ele>
        <time>2021-07-10T20:32:09.399Z</time>
      </trkpt>
      <trkpt lat="45.79121" lon="4.83711">
        <ele>242.940231</ele>
        <time>2021-07-10T20:32:13.289Z</time>
      </trkpt>
      <trkpt lat="45.79129" lon="4.83719">
        <ele>242.777172</ele>
        <time>2021-07-10T20:32:14.559Z</time>
      </trkpt>
      <trkpt lat="45.79132" lon="4.83722">
        <ele>242.713839</ele>
        <time>2021-07-10T20:32:14.959Z</time>
      </trkpt>
      <trkpt lat="45.79155" lon="4.83745">
        <ele>242.169644</ele>
        <time>2021-07-10T20:32:18.362Z</time>
      </trkpt>
      <trkpt lat="45.79162" lon="4.83752">
        <ele>242.012485</ele>
        <time>2021-07-10T20:32:19.340Z</time>
      </trkpt>
      <trkpt lat="45.79167" lon="4.8374">
        <ele>241.835192</ele>
        <time>2021-07-10T20:32:20.487Z</time>
      </trkpt>
      <trkpt lat="45.79175" lon="4.83721">
        <ele>241.534265</ele>
        <time>2021-07-10T20:32:22.287Z</time>
      </trkpt>
      <trkpt lat="45.79181" lon="4.83699">
        <ele>241.213122</ele>
        <time>2021-07-10T20:32:24.337Z</time>
      </trkpt>
      <trkpt lat="45.79183" lon="4.8368">
        <ele>240.960857</ele>
        <time>2021-07-10T20:32:25.706Z</time>
      </trkpt>
      <trkpt lat="45.79184" lon="4.83672">
        <ele>240.852429</ele>
        <time>2021-07-10T20:32:26.324Z</time>
      </trkpt>
      <trkpt lat="45.79188" lon="4.83636">
        <ele>240.353468</ele>
        <time>2021-07-10T20:32:29.284Z</time>
      </trkpt>
      <trkpt lat="45.79189" lon="4.83631">
        <ele>240.288831</ele>
        <time>2021-07-10T20:32:29.628Z</time>
      </trkpt>
      <trkpt lat="45.79191" lon="4.83627">
        <ele>240.223482</ele>
        <time>2021-07-10T20:32:29.980Z</time>
      </trkpt>
      <trkpt lat="45.79194" lon="4.83616">
        <ele>240.068552</ele>
        <time>2021-07-10T20:32:30.948Z</time>
      </trkpt>
      <trkpt lat="45.79198" lon="4.83605">
        <ele>239.896979</ele>
        <time>2021-07-10T20:32:32.329Z</time>
      </trkpt>
      <trkpt lat="45.79206" lon="4.83588">
        <ele>239.625122</ele>
        <time>2021-07-10T20:32:34.272Z</time>
      </trkpt>
      <trkpt lat="45.79211" lon="4.83582">
        <ele>239.503056</ele>
        <time>2021-07-10T20:32:35.218Z</time>
      </trkpt>
      <trkpt lat="45.79216" lon="4.83579">
        <ele>239.239219</ele>
        <time>2021-07-10T20:32:36.136Z</time>
      </trkpt>
      <trkpt lat="45.79257" lon="4.83547">
        <ele>236.628663</ele>
        <time>2021-07-10T20:32:42.619Z</time>
      </trkpt>
      <trkpt lat="45.79263" lon="4.83543">
        <ele>236.232985</ele>
        <time>2021-07-10T20:32:43.507Z</time>
      </trkpt>
      <trkpt lat="45.79268" lon="4.83537">
        <ele>235.907418</ele>
        <time>2021-07-10T20:32:44.243Z</time>
      </trkpt>
      <trkpt lat="45.79275" lon="4.83506">
        <ele>234.607725</ele>
        <time>2021-07-10T20:32:47.384Z</time>
      </trkpt>
      <trkpt lat="45.79275" lon="4.83458">
        <ele>232.741785</ele>
        <time>2021-07-10T20:32:51.729Z</time>
      </trkpt>
      <trkpt lat="45.79276" lon="4.8345">
        <ele>232.429843</ele>
        <time>2021-07-10T20:32:52.405Z</time>
      </trkpt>
      <trkpt lat="45.79278" lon="4.83444">
        <ele>232.135995</ele>
        <time>2021-07-10T20:32:53.054Z</time>
      </trkpt>
      <trkpt lat="45.79285" lon="4.83431">
        <ele>231.511731</ele>
        <time>2021-07-10T20:32:54.502Z</time>
      </trkpt>
      <trkpt lat="45.79308" lon="4.83408">
        <ele>229.940127</ele>
        <time>2021-07-10T20:32:58.124Z</time>
      </trkpt>
      <trkpt lat="45.79326" lon="4.83388">
        <ele>228.354518</ele>
        <time>2021-07-10T20:33:01.219Z</time>
      </trkpt>
      <trkpt lat="45.79331" lon="4.83383">
        <ele>227.920398</ele>
        <time>2021-07-10T20:33:01.891Z</time>
      </trkpt>
      <trkpt lat="45.79337" lon="4.83377">
        <ele>227.299101</ele>
        <time>2021-07-10T20:33:02.879Z</time>
      </trkpt>
      <trkpt lat="45.79354" lon="4.83361">
        <ele>225.742808</ele>
        <time>2021-07-10T20:33:05.517Z</time>
      </trkpt>
      <trkpt lat="45.79372" lon="4.83343">
        <ele>224.012002</ele>
        <time>2021-07-10T20:33:08.279Z</time>
      </trkpt>
      <trkpt lat="45.794" lon="4.83314">
        <ele>221.337408</ele>
        <time>2021-07-10T20:33:12.579Z</time>
      </trkpt>
      <trkpt lat="45.79416" lon="4.83276">
        <ele>218.924868</ele>
        <time>2021-07-10T20:33:16.517Z</time>
      </trkpt>
      <trkpt lat="45.79419" lon="4.83267">
        <ele>218.389003</ele>
        <time>2021-07-10T20:33:17.343Z</time>
      </trkpt>
      <trkpt lat="45.79421" lon="4.8326">
        <ele>217.982699</ele>
        <time>2021-07-10T20:33:18.015Z</time>
      </trkpt>
      <trkpt lat="45.79424" lon="4.83243">
        <ele>217.032522</ele>
        <time>2021-07-10T20:33:19.542Z</time>
      </trkpt>
      <trkpt lat="45.79425" lon="4.83223">
        <ele>215.910236</ele>
        <time>2021-07-10T20:33:21.333Z</time>
      </trkpt>
      <trkpt lat="45.79427" lon="4.83194">
        <ele>214.010718</ele>
        <time>2021-07-10T20:33:23.901Z</time>
      </trkpt>
      <trkpt lat="45.79429" lon="4.83176">
        <ele>212.737482</ele>
        <time>2021-07-10T20:33:25.466Z</time>
      </trkpt>
      <trkpt lat="45.79429" lon="4.83172">
        <ele>212.456318</ele>
        <time>2021-07-10T20:33:25.802Z</time>
      </trkpt>
      <trkpt lat="45.79431" lon="4.83158">
        <ele>211.402105</ele>
        <time>2021-07-10T20:33:27.106Z</time>
      </trkpt>
      <trkpt lat="45.79433" lon="4.83144">
        <ele>210.413118</ele>
        <time>2021-07-10T20:33:28.333Z</time>
      </trkpt>
      <trkpt lat="45.79443" lon="4.8308">
        <ele>205.652786</ele>
        <time>2021-07-10T20:33:34.079Z</time>
      </trkpt>
      <trkpt lat="45.79445" lon="4.83066">
        <ele>204.703098</ele>
        <time>2021-07-10T20:33:35.150Z</time>
      </trkpt>
      <trkpt lat="45.79448" lon="4.83028">
        <ele>201.917602</ele>
        <time>2021-07-10T20:33:38.459Z</time>
      </trkpt>
      <trkpt lat="45.79443" lon="4.82982">
        <ele>198.594679</ele>
        <time>2021-07-10T20:33:42.323Z</time>
      </trkpt>
      <trkpt lat="45.7944" lon="4.82974">
        <ele>197.980128</ele>
        <time>2021-07-10T20:33:43.012Z</time>
      </trkpt>
      <trkpt lat="45.79428" lon="4.82949">
        <ele>195.961366</ele>
        <time>2021-07-10T20:33:45.539Z</time>
      </trkpt>
      <trkpt lat="45.79427" lon="4.82946">
        <ele>195.766862</ele>
        <time>2021-07-10T20:33:45.830Z</time>
      </trkpt>
      <trkpt lat="45.79421" lon="4.82934">
        <ele>194.852572</ele>
        <time>2021-07-10T20:33:46.749Z</time>
      </trkpt>
      <trkpt lat="45.794" lon="4.8289">
        <ele>191.740342</ele>
        <time>2021-07-10T20:33:49.886Z</time>
      </trkpt>
      <trkpt lat="45.79398" lon="4.82879">
        <ele>191.021031</ele>
        <time>2021-07-10T20:33:50.587Z</time>
      </trkpt>
      <trkpt lat="45.79397" lon="4.8287">
        <ele>190.533094</ele>
        <time>2021-07-10T20:33:51.076Z</time>
      </trkpt>
      <trkpt lat="45.79399" lon="4.82849">
        <ele>189.276671</ele>
        <time>2021-07-10T20:33:52.473Z</time>
      </trkpt>
      <trkpt lat="45.79402" lon="4.82836">
        <ele>188.438831</ele>
        <time>2021-07-10T20:33:53.308Z</time>
      </trkpt>
      <trkpt lat="45.79406" lon="4.82829">
        <ele>187.888462</ele>
        <time>2021-07-10T20:33:53.853Z</time>
      </trkpt>
      <trkpt lat="45.7941" lon="4.82823">
        <ele>187.431134</ele>
        <time>2021-07-10T20:33:54.322Z</time>
      </trkpt>
      <trkpt lat="45.79431" lon="4.82792">
        <ele>184.817187</ele>
        <time>2021-07-10T20:33:57.115Z</time>
      </trkpt>
      <trkpt lat="45.79439" lon="4.82781">
        <ele>183.915358</ele>
        <time>2021-07-10T20:33:58.070Z</time>
      </trkpt>
      <trkpt lat="45.79447" lon="4.82792">
        <ele>182.966784</ele>
        <time>2021-07-10T20:33:59.421Z</time>
      </trkpt>
      <trkpt lat="45.79451" lon="4.82798">
        <ele>182.432149</ele>
        <time>2021-07-10T20:33:59.985Z</time>
      </trkpt>
      <trkpt lat="45.79462" lon="4.82813">
        <ele>181.652342</ele>
        <time>2021-07-10T20:34:01.284Z</time>
      </trkpt>
      <trkpt lat="45.79481" lon="4.82841">
        <ele>182.211463</ele>
        <time>2021-07-10T20:34:04.694Z</time>
      </trkpt>
      <trkpt lat="45.79511" lon="4.82893">
        <ele>183.16455</ele>
        <time>2021-07-10T20:34:13.344Z</time>
      </trkpt>
      <trkpt lat="45.79514" lon="4.82899">
        <ele>183.270555</ele>
        <time>2021-07-10T20:34:15.679Z</time>
      </trkpt>
      <trkpt lat="45.79519" lon="4.82911">
        <ele>183.468912</ele>
        <time>2021-07-10T20:34:19.737Z</time>
      </trkpt>
      <trkpt lat="45.79545" lon="4.82972">
        <ele>184.49169</ele>
        <time>2021-07-10T20:34:41.238Z</time>
      </trkpt>
      <trkpt lat="45.79557" lon="4.83001">
        <ele>184.958275</ele>
        <time>2021-07-10T20:34:50.095Z</time>
      </trkpt>
      <trkpt lat="45.7957" lon="4.83036">
        <ele>184.84726</ele>
        <time>2021-07-10T20:34:59.876Z</time>
      </trkpt>
      <trkpt lat="45.79596" lon="4.83155">
        <ele>182.674392</ele>
        <time>2021-07-10T20:35:09.091Z</time>
      </trkpt>
      <trkpt lat="45.79597" lon="4.83159">
        <ele>182.61447</ele>
        <time>2021-07-10T20:35:11.360Z</time>
      </trkpt>
      <trkpt lat="45.79601" lon="4.83179">
        <ele>182.24019</ele>
        <time>2021-07-10T20:35:12.788Z</time>
      </trkpt>
      <trkpt lat="45.79606" lon="4.83176">
        <ele>182.115681</ele>
        <time>2021-07-10T20:35:13.228Z</time>
      </trkpt>
      <trkpt lat="45.79613" lon="4.83172">
        <ele>181.935062</ele>
        <time>2021-07-10T20:35:13.876Z</time>
      </trkpt>
      <trkpt lat="45.79621" lon="4.83166">
        <ele>181.696019</ele>
        <time>2021-07-10T20:35:15.243Z</time>
      </trkpt>
      <trkpt lat="45.79695" lon="4.83117">
        <ele>177.830706</ele>
        <time>2021-07-10T20:35:22.518Z</time>
      </trkpt>
      <trkpt lat="45.79699" lon="4.83114">
        <ele>177.518964</ele>
        <time>2021-07-10T20:35:22.919Z</time>
      </trkpt>
      <trkpt lat="45.797" lon="4.83113">
        <ele>177.424914</ele>
        <time>2021-07-10T20:35:23.036Z</time>
      </trkpt>
      <trkpt lat="45.79704" lon="4.8311">
        <ele>177.163946</ele>
        <time>2021-07-10T20:35:23.366Z</time>
      </trkpt>
      <trkpt lat="45.79707" lon="4.83108">
        <ele>176.882774</ele>
        <time>2021-07-10T20:35:23.733Z</time>
      </trkpt>
      <trkpt lat="45.7978" lon="4.83058">
        <ele>171.415848</ele>
        <time>2021-07-10T20:35:30.757Z</time>
      </trkpt>
      <trkpt lat="45.79788" lon="4.83053">
        <ele>170.826669</ele>
        <time>2021-07-10T20:35:31.533Z</time>
      </trkpt>
      <trkpt lat="45.7979" lon="4.83052">
        <ele>170.700353</ele>
        <time>2021-07-10T20:35:31.712Z</time>
      </trkpt>
      <trkpt lat="45.79798" lon="4.83047">
        <ele>170.123794</ele>
        <time>2021-07-10T20:35:32.466Z</time>
      </trkpt>
      <trkpt lat="45.79799" lon="4.8305">
        <ele>169.962499</ele>
        <time>2021-07-10T20:35:32.673Z</time>
      </trkpt>
      <trkpt lat="45.798" lon="4.83053">
        <ele>169.803255</ele>
        <time>2021-07-10T20:35:32.909Z</time>
      </trkpt>
      <trkpt lat="45.79818" lon="4.83097">
        <ele>168.681274</ele>
        <time>2021-07-10T20:35:36.701Z</time>
      </trkpt>
      <trkpt lat="45.79822" lon="4.83105">
        <ele>168.725762</ele>
        <time>2021-07-10T20:35:38.397Z</time>
      </trkpt>
      <trkpt lat="45.79823" lon="4.83109">
        <ele>168.744662</ele>
        <time>2021-07-10T20:35:38.878Z</time>
      </trkpt>
      <trkpt lat="45.79826" lon="4.83115">
        <ele>168.778116</ele>
        <time>2021-07-10T20:35:39.616Z</time>
      </trkpt>
      <trkpt lat="45.79829" lon="4.83122">
        <ele>168.820563</ele>
        <time>2021-07-10T20:35:40.821Z</time>
      </trkpt>
      <trkpt lat="45.79852" lon="4.83177">
        <ele>169.128585</ele>
        <time>2021-07-10T20:35:50.211Z</time>
      </trkpt>
      <trkpt lat="45.79856" lon="4.83187">
        <ele>169.181702</ele>
        <time>2021-07-10T20:35:51.724Z</time>
      </trkpt>
      <trkpt lat="45.79859" lon="4.83184">
        <ele>169.204704</ele>
        <time>2021-07-10T20:35:52.817Z</time>
      </trkpt>
      <trkpt lat="45.79865" lon="4.83175">
        <ele>169.265917</ele>
        <time>2021-07-10T20:35:54.567Z</time>
      </trkpt>
      <trkpt lat="45.79875" lon="4.83165">
        <ele>169.347932</ele>
        <time>2021-07-10T20:35:57.638Z</time>
      </trkpt>
      <trkpt lat="45.79877" lon="4.8317">
        <ele>169.376455</ele>
        <time>2021-07-10T20:35:58.423Z</time>
      </trkpt>
      <trkpt lat="45.79879" lon="4.83178">
        <ele>169.416543</ele>
        <time>2021-07-10T20:35:59.709Z</time>
      </trkpt>
      <trkpt lat="45.79888" lon="4.83204">
        <ele>169.554742</ele>
        <time>2021-07-10T20:36:04.842Z</time>
      </trkpt>
      <trkpt lat="45.79892" lon="4.83208">
        <ele>169.586003</ele>
        <time>2021-07-10T20:36:06.050Z</time>
      </trkpt>
      <trkpt lat="45.79896" lon="4.83213">
        <ele>169.625079</ele>
        <time>2021-07-10T20:36:07.281Z</time>
      </trkpt>
      <trkpt lat="45.79906" lon="4.83223">
        <ele>169.711301</ele>
        <time>2021-07-10T20:36:10.237Z</time>
      </trkpt>
      <trkpt lat="45.79919" lon="4.83238">
        <ele>169.930185</ele>
        <time>2021-07-10T20:36:14.246Z</time>
      </trkpt>
      <trkpt lat="45.79934" lon="4.83266">
        <ele>170.686982</ele>
        <time>2021-07-10T20:36:19.478Z</time>
      </trkpt>
      <trkpt lat="45.79943" lon="4.83293">
        <ele>171.332406</ele>
        <time>2021-07-10T20:36:24.744Z</time>
      </trkpt>
      <trkpt lat="45.79944" lon="4.83296">
        <ele>171.411215</ele>
        <time>2021-07-10T20:36:25.309Z</time>
      </trkpt>
      <trkpt lat="45.7996" lon="4.83341">
        <ele>172.483845</ele>
        <time>2021-07-10T20:36:34.900Z</time>
      </trkpt>
      <trkpt lat="45.79971" lon="4.83372">
        <ele>173.242371</ele>
        <time>2021-07-10T20:36:41.281Z</time>
      </trkpt>
      <trkpt lat="45.79974" lon="4.83387">
        <ele>173.593321</ele>
        <time>2021-07-10T20:36:44.573Z</time>
      </trkpt>
      <trkpt lat="45.79976" lon="4.83393">
        <ele>173.714373</ele>
        <time>2021-07-10T20:36:45.660Z</time>
      </trkpt>
      <trkpt lat="45.79996" lon="4.83477">
        <ele>175.718735</ele>
        <time>2021-07-10T20:37:03.541Z</time>
      </trkpt>
      <trkpt lat="45.80004" lon="4.83506">
        <ele>176.59043</ele>
        <time>2021-07-10T20:37:11.778Z</time>
      </trkpt>
      <trkpt lat="45.80017" lon="4.83529">
        <ele>177.398992</ele>
        <time>2021-07-10T20:37:18.094Z</time>
      </trkpt>
      <trkpt lat="45.80043" lon="4.83556">
        <ele>178.674978</ele>
        <time>2021-07-10T20:37:28.789Z</time>
      </trkpt>
      <trkpt lat="45.80084" lon="4.83575">
        <ele>180.381712</ele>
        <time>2021-07-10T20:37:41.994Z</time>
      </trkpt>
      <trkpt lat="45.8009" lon="4.83576">
        <ele>180.617701</ele>
        <time>2021-07-10T20:37:44.471Z</time>
      </trkpt>
      <trkpt lat="45.801" lon="4.83573">
        <ele>181.012384</ele>
        <time>2021-07-10T20:37:47.411Z</time>
      </trkpt>
      <trkpt lat="45.80103" lon="4.83572">
        <ele>181.131745</ele>
        <time>2021-07-10T20:37:48.218Z</time>
      </trkpt>
      <trkpt lat="45.80104" lon="4.83571">
        <ele>181.187766</ele>
        <time>2021-07-10T20:37:48.561Z</time>
      </trkpt>
      <trkpt lat="45.80128" lon="4.8355">
        <ele>182.281329</ele>
        <time>2021-07-10T20:37:56.924Z</time>
      </trkpt>
      <trkpt lat="45.80129" lon="4.83549">
        <ele>182.355551</ele>
        <time>2021-07-10T20:37:57.506Z</time>
      </trkpt>
      <trkpt lat="45.80134" lon="4.83545">
        <ele>182.607228</ele>
        <time>2021-07-10T20:37:58.898Z</time>
      </trkpt>
      <trkpt lat="45.8013" lon="4.83529">
        <ele>183.186948</ele>
        <time>2021-07-10T20:38:01.442Z</time>
      </trkpt>
      <trkpt lat="45.80123" lon="4.83506">
        <ele>184.068731</ele>
        <time>2021-07-10T20:38:05.897Z</time>
      </trkpt>
      <trkpt lat="45.80099" lon="4.83437">
        <ele>186.773876</ele>
        <time>2021-07-10T20:38:20.838Z</time>
      </trkpt>
      <trkpt lat="45.80071" lon="4.83361">
        <ele>189.74801</ele>
        <time>2021-07-10T20:38:44.225Z</time>
      </trkpt>
      <trkpt lat="45.80069" lon="4.83355">
        <ele>189.957575</ele>
        <time>2021-07-10T20:38:45.952Z</time>
      </trkpt>
      <trkpt lat="45.80068" lon="4.8335">
        <ele>190.152381</ele>
        <time>2021-07-10T20:38:47.121Z</time>
      </trkpt>
      <trkpt lat="45.80066" lon="4.83345">
        <ele>190.350368</ele>
        <time>2021-07-10T20:38:47.948Z</time>
      </trkpt>
      <trkpt lat="45.80064" lon="4.83335">
        <ele>190.743469</ele>
        <time>2021-07-10T20:38:49.701Z</time>
      </trkpt>
      <trkpt lat="45.80061" lon="4.83315">
        <ele>191.435975</ele>
        <time>2021-07-10T20:38:56.676Z</time>
      </trkpt>
      <trkpt lat="45.80061" lon="4.83299">
        <ele>192.627579</ele>
        <time>2021-07-10T20:39:02.099Z</time>
      </trkpt>
      <trkpt lat="45.80065" lon="4.83272">
        <ele>194.646744</ele>
        <time>2021-07-10T20:39:09.976Z</time>
      </trkpt>
      <trkpt lat="45.80083" lon="4.8323">
        <ele>198.311113</ele>
        <time>2021-07-10T20:39:29.953Z</time>
      </trkpt>
      <trkpt lat="45.80085" lon="4.83224">
        <ele>198.819244</ele>
        <time>2021-07-10T20:39:34.122Z</time>
      </trkpt>
      <trkpt lat="45.80087" lon="4.83218">
        <ele>199.350048</ele>
        <time>2021-07-10T20:39:38.480Z</time>
      </trkpt>
      <trkpt lat="45.80091" lon="4.83203">
        <ele>200.530424</ele>
        <time>2021-07-10T20:39:43.806Z</time>
      </trkpt>
      <trkpt lat="45.80094" lon="4.83183">
        <ele>201.986828</ele>
        <time>2021-07-10T20:39:50.690Z</time>
      </trkpt>
      <trkpt lat="45.80096" lon="4.83166">
        <ele>203.310558</ele>
        <time>2021-07-10T20:40:01.526Z</time>
      </trkpt>
      <trkpt lat="45.80109" lon="4.83112">
        <ele>207.546141</ele>
        <time>2021-07-10T20:40:26.433Z</time>
      </trkpt>
      <trkpt lat="45.80129" lon="4.83066">
        <ele>211.305314</ele>
        <time>2021-07-10T20:40:50.159Z</time>
      </trkpt>
      <trkpt lat="45.80135" lon="4.8305">
        <ele>212.261207</ele>
        <time>2021-07-10T20:40:56.292Z</time>
      </trkpt>
      <trkpt lat="45.80136" lon="4.83047">
        <ele>212.451846</ele>
        <time>2021-07-10T20:40:58.122Z</time>
      </trkpt>
      <trkpt lat="45.80146" lon="4.82982">
        <ele>215.917344</ele>
        <time>2021-07-10T20:41:26.065Z</time>
      </trkpt>
      <trkpt lat="45.80147" lon="4.8297">
        <ele>216.564239</ele>
        <time>2021-07-10T20:41:31.189Z</time>
      </trkpt>
      <trkpt lat="45.8015" lon="4.82967">
        <ele>216.869565</ele>
        <time>2021-07-10T20:41:32.985Z</time>
      </trkpt>
      <trkpt lat="45.80155" lon="4.82964">
        <ele>217.231498</ele>
        <time>2021-07-10T20:41:34.972Z</time>
      </trkpt>
      <trkpt lat="45.80181" lon="4.82894">
        <ele>221.411505</ele>
        <time>2021-07-10T20:41:56.671Z</time>
      </trkpt>
      <trkpt lat="45.802" lon="4.82832">
        <ele>224.318743</ele>
        <time>2021-07-10T20:42:09.920Z</time>
      </trkpt>
      <trkpt lat="45.80216" lon="4.82817">
        <ele>224.586191</ele>
        <time>2021-07-10T20:42:13.438Z</time>
      </trkpt>
      <trkpt lat="45.80281" lon="4.82784">
        <ele>225.526975</ele>
        <time>2021-07-10T20:42:25.888Z</time>
      </trkpt>
      <trkpt lat="45.8034" lon="4.82738">
        <ele>226.438701</ele>
        <time>2021-07-10T20:42:37.279Z</time>
      </trkpt>
      <trkpt lat="45.80365" lon="4.82721">
        <ele>226.949829</ele>
        <time>2021-07-10T20:42:42.294Z</time>
      </trkpt>
      <trkpt lat="45.80385" lon="4.82715">
        <ele>227.445254</ele>
        <time>2021-07-10T20:42:46.877Z</time>
      </trkpt>
      <trkpt lat="45.80403" lon="4.82713">
        <ele>227.864914</ele>
        <time>2021-07-10T20:42:50.754Z</time>
      </trkpt>
      <trkpt lat="45.80452" lon="4.82713">
        <ele>229.014285</ele>
        <time>2021-07-10T20:43:03.552Z</time>
      </trkpt>
      <trkpt lat="45.80469" lon="4.82718">
        <ele>229.427838</ele>
        <time>2021-07-10T20:43:07.456Z</time>
      </trkpt>
      <trkpt lat="45.80487" lon="4.82715">
        <ele>229.836522</ele>
        <time>2021-07-10T20:43:13.359Z</time>
      </trkpt>
      <trkpt lat="45.80532" lon="4.82694">
        <ele>231.028306</ele>
        <time>2021-07-10T20:43:27.609Z</time>
      </trkpt>
      <trkpt lat="45.80555" lon="4.82679">
        <ele>232.223763</ele>
        <time>2021-07-10T20:43:36.912Z</time>
      </trkpt>
      <trkpt lat="45.8056" lon="4.82677">
        <ele>232.441691</ele>
        <time>2021-07-10T20:43:38.290Z</time>
      </trkpt>
      <trkpt lat="45.80566" lon="4.82674">
        <ele>232.757115</ele>
        <time>2021-07-10T20:43:41.116Z</time>
      </trkpt>
      <trkpt lat="45.80642" lon="4.8266">
        <ele>236.29468</ele>
        <time>2021-07-10T20:44:10.581Z</time>
      </trkpt>
      <trkpt lat="45.80675" lon="4.82648">
        <ele>237.866024</ele>
        <time>2021-07-10T20:44:25.015Z</time>
      </trkpt>
      <trkpt lat="45.80701" lon="4.82637">
        <ele>239.106357</ele>
        <time>2021-07-10T20:44:36.101Z</time>
      </trkpt>
      <trkpt lat="45.80707" lon="4.82634">
        <ele>239.506131</ele>
        <time>2021-07-10T20:44:39.681Z</time>
      </trkpt>
      <trkpt lat="45.80744" lon="4.82618">
        <ele>242.034165</ele>
        <time>2021-07-10T20:44:55.714Z</time>
      </trkpt>
      <trkpt lat="45.80759" lon="4.82608">
        <ele>243.118763</ele>
        <time>2021-07-10T20:45:02.821Z</time>
      </trkpt>
      <trkpt lat="45.80801" lon="4.82582">
        <ele>246.16504</ele>
        <time>2021-07-10T20:45:24.334Z</time>
      </trkpt>
      <trkpt lat="45.80814" lon="4.82572">
        <ele>247.129656</ele>
        <time>2021-07-10T20:45:32.804Z</time>
      </trkpt>
      <trkpt lat="45.80844" lon="4.82524">
        <ele>250.15008</ele>
        <time>2021-07-10T20:45:54.909Z</time>
      </trkpt>
      <trkpt lat="45.80889" lon="4.82423">
        <ele>255.707843</ele>
        <time>2021-07-10T20:46:35.139Z</time>
      </trkpt>
      <trkpt lat="45.80899" lon="4.82402">
        <ele>256.91746</ele>
        <time>2021-07-10T20:46:45.289Z</time>
      </trkpt>
      <trkpt lat="45.80928" lon="4.8232">
        <ele>261.192518</ele>
        <time>2021-07-10T20:47:14.197Z</time>
      </trkpt>
      <trkpt lat="45.80944" lon="4.82274">
        <ele>263.472989</ele>
        <time>2021-07-10T20:47:30.105Z</time>
      </trkpt>
      <trkpt lat="45.80966" lon="4.8221">
        <ele>265.896346</ele>
        <time>2021-07-10T20:47:47.865Z</time>
      </trkpt>
      <trkpt lat="45.80984" lon="4.82159">
        <ele>267.871764</ele>
        <time>2021-07-10T20:48:01.047Z</time>
      </trkpt>
      <trkpt lat="45.80998" lon="4.82143">
        <ele>268.785339</ele>
        <time>2021-07-10T20:48:07.134Z</time>
      </trkpt>
      <trkpt lat="45.81033" lon="4.82127">
        <ele>270.577967</ele>
        <time>2021-07-10T20:48:19.645Z</time>
      </trkpt>
      <trkpt lat="45.8114" lon="4.82115">
        <ele>275.550873</ele>
        <time>2021-07-10T20:48:54.726Z</time>
      </trkpt>
      <trkpt lat="45.81162" lon="4.82104">
        <ele>276.585585</ele>
        <time>2021-07-10T20:49:02.363Z</time>
      </trkpt>
      <trkpt lat="45.81264" lon="4.82124">
        <ele>281.266161</ele>
        <time>2021-07-10T20:49:35.767Z</time>
      </trkpt>
      <trkpt lat="45.81257" lon="4.82082">
        <ele>282.708271</ele>
        <time>2021-07-10T20:49:45.900Z</time>
      </trkpt>
      <trkpt lat="45.81254" lon="4.82028">
        <ele>284.521586</ele>
        <time>2021-07-10T20:49:58.992Z</time>
      </trkpt>
      <trkpt lat="45.81265" lon="4.81956">
        <ele>286.971317</ele>
        <time>2021-07-10T20:50:16.839Z</time>
      </trkpt>
      <trkpt lat="45.81261" lon="4.81938">
        <ele>287.617155</ele>
        <time>2021-07-10T20:50:21.764Z</time>
      </trkpt>
      <trkpt lat="45.81242" lon="4.81905">
        <ele>289.070184</ele>
        <time>2021-07-10T20:50:31.670Z</time>
      </trkpt>
      <trkpt lat="45.81222" lon="4.81882">
        <ele>290.535677</ele>
        <time>2021-07-10T20:50:40.245Z</time>
      </trkpt>
      <trkpt lat="45.81231" lon="4.8187">
        <ele>291.196102</ele>
        <time>2021-07-10T20:50:44.125Z</time>
      </trkpt>
      <trkpt lat="45.81244" lon="4.81845">
        <ele>292.421093</ele>
        <time>2021-07-10T20:50:50.850Z</time>
      </trkpt>
      <trkpt lat="45.81254" lon="4.81825">
        <ele>293.360871</ele>
        <time>2021-07-10T20:50:57.616Z</time>
      </trkpt>
      <trkpt lat="45.81265" lon="4.81814">
        <ele>294.133057</ele>
        <time>2021-07-10T20:51:02.881Z</time>
      </trkpt>
      <trkpt lat="45.81282" lon="4.81802">
        <ele>295.193757</ele>
        <time>2021-07-10T20:51:10.168Z</time>
      </trkpt>
      <trkpt lat="45.81293" lon="4.81803">
        <ele>295.824427</ele>
        <time>2021-07-10T20:51:14.734Z</time>
      </trkpt>
      <trkpt lat="45.813" lon="4.81807">
        <ele>296.225549</ele>
        <time>2021-07-10T20:51:17.361Z</time>
      </trkpt>
      <trkpt lat="45.8131" lon="4.81816">
        <ele>296.936567</ele>
        <time>2021-07-10T20:51:22.176Z</time>
      </trkpt>
      <trkpt lat="45.81334" lon="4.81845">
        <ele>298.687252</ele>
        <time>2021-07-10T20:51:34.538Z</time>
      </trkpt>
      <trkpt lat="45.81353" lon="4.81869">
        <ele>300.39956</ele>
        <time>2021-07-10T20:51:46.099Z</time>
      </trkpt>
      <trkpt lat="45.81364" lon="4.81876">
        <ele>301.204273</ele>
        <time>2021-07-10T20:51:50.088Z</time>
      </trkpt>
      <trkpt lat="45.81388" lon="4.81879">
        <ele>302.854782</ele>
        <time>2021-07-10T20:52:01.277Z</time>
      </trkpt>
      <trkpt lat="45.81399" lon="4.81891">
        <ele>303.800052</ele>
        <time>2021-07-10T20:52:05.849Z</time>
      </trkpt>
      <trkpt lat="45.81415" lon="4.81942">
        <ele>306.463879</ele>
        <time>2021-07-10T20:52:22.053Z</time>
      </trkpt>
      <trkpt lat="45.8143" lon="4.81949">
        <ele>307.486795</ele>
        <time>2021-07-10T20:52:29.270Z</time>
      </trkpt>
      <trkpt lat="45.81443" lon="4.8194">
        <ele>308.502772</ele>
        <time>2021-07-10T20:52:35.008Z</time>
      </trkpt>
      <trkpt lat="45.81448" lon="4.81929">
        <ele>309.116346</ele>
        <time>2021-07-10T20:52:38.755Z</time>
      </trkpt>
      <trkpt lat="45.81455" lon="4.81905">
        <ele>310.326368</ele>
        <time>2021-07-10T20:52:48.557Z</time>
      </trkpt>
      <trkpt lat="45.8146" lon="4.81892">
        <ele>311.049257</ele>
        <time>2021-07-10T20:52:51.954Z</time>
      </trkpt>
      <trkpt lat="45.81465" lon="4.81887">
        <ele>311.368099</ele>
        <time>2021-07-10T20:52:54.650Z</time>
      </trkpt>
      <trkpt lat="45.81466" lon="4.81894">
        <ele>311.641281</ele>
        <time>2021-07-10T20:52:58.466Z</time>
      </trkpt>
      <trkpt lat="45.81454" lon="4.81949">
        <ele>313.674778</ele>
        <time>2021-07-10T20:53:15.037Z</time>
      </trkpt>
      <trkpt lat="45.81456" lon="4.81959">
        <ele>314.050245</ele>
        <time>2021-07-10T20:53:18.101Z</time>
      </trkpt>
      <trkpt lat="45.81461" lon="4.81966">
        <ele>314.39622</ele>
        <time>2021-07-10T20:53:20.170Z</time>
      </trkpt>
      <trkpt lat="45.81464" lon="4.81972">
        <ele>314.668577</ele>
        <time>2021-07-10T20:53:21.624Z</time>
      </trkpt>
      <trkpt lat="45.81494" lon="4.82006">
        <ele>316.62026</ele>
        <time>2021-07-10T20:53:35.619Z</time>
      </trkpt>
      <trkpt lat="45.815" lon="4.82009">
        <ele>316.960667</ele>
        <time>2021-07-10T20:53:38.029Z</time>
      </trkpt>
      <trkpt lat="45.81504" lon="4.82011">
        <ele>317.148879</ele>
        <time>2021-07-10T20:53:40.688Z</time>
      </trkpt>
      <trkpt lat="45.81539" lon="4.82011">
        <ele>318.936705</ele>
        <time>2021-07-10T20:53:52.259Z</time>
      </trkpt>
      <trkpt lat="45.8164" lon="4.82058">
        <ele>320.839014</ele>
        <time>2021-07-10T20:54:12.764Z</time>
      </trkpt>
      <trkpt lat="45.81654" lon="4.82062">
        <ele>320.950178</ele>
        <time>2021-07-10T20:54:14.870Z</time>
      </trkpt>
      <trkpt lat="45.81651" lon="4.82109">
        <ele>321.20649</ele>
        <time>2021-07-10T20:54:21.057Z</time>
      </trkpt>
      <trkpt lat="45.81649" lon="4.82147">
        <ele>321.417167</ele>
        <time>2021-07-10T20:54:26.371Z</time>
      </trkpt>
      <trkpt lat="45.81649" lon="4.82154">
        <ele>321.453928</ele>
        <time>2021-07-10T20:54:27.111Z</time>
      </trkpt>
      <trkpt lat="45.81649" lon="4.82193">
        <ele>321.932129</ele>
        <time>2021-07-10T20:54:32.929Z</time>
      </trkpt>
      <trkpt lat="45.81652" lon="4.82209">
        <ele>322.478006</ele>
        <time>2021-07-10T20:54:35.497Z</time>
      </trkpt>
      <trkpt lat="45.81656" lon="4.8222">
        <ele>322.835117</ele>
        <time>2021-07-10T20:54:38.335Z</time>
      </trkpt>
      <trkpt lat="45.81658" lon="4.82225">
        <ele>323.029974</ele>
        <time>2021-07-10T20:54:39.098Z</time>
      </trkpt>
      <trkpt lat="45.81676" lon="4.82251">
        <ele>324.200286</ele>
        <time>2021-07-10T20:54:44.648Z</time>
      </trkpt>
      <trkpt lat="45.8168" lon="4.82259">
        <ele>324.483746</ele>
        <time>2021-07-10T20:54:46.599Z</time>
      </trkpt>
      <trkpt lat="45.8171" lon="4.82266">
        <ele>325.88387</ele>
        <time>2021-07-10T20:54:55.482Z</time>
      </trkpt>
      <trkpt lat="45.8174" lon="4.82274">
        <ele>327.247396</ele>
        <time>2021-07-10T20:55:07.428Z</time>
      </trkpt>
      <trkpt lat="45.81777" lon="4.8227">
        <ele>328.900132</ele>
        <time>2021-07-10T20:55:28.062Z</time>
      </trkpt>
      <trkpt lat="45.81786" lon="4.82277">
        <ele>329.359556</ele>
        <time>2021-07-10T20:55:34.776Z</time>
      </trkpt>
      <trkpt lat="45.81802" lon="4.8232">
        <ele>332.448007</ele>
        <time>2021-07-10T20:55:56.401Z</time>
      </trkpt>
      <trkpt lat="45.81898" lon="4.82252">
        <ele>343.59634</ele>
        <time>2021-07-10T20:57:03.873Z</time>
      </trkpt>
      <trkpt lat="45.81887" lon="4.82221">
        <ele>346.130665</ele>
        <time>2021-07-10T20:57:19.703Z</time>
      </trkpt>
      <trkpt lat="45.81886" lon="4.82211">
        <ele>346.876748</ele>
        <time>2021-07-10T20:57:23.483Z</time>
      </trkpt>
      <trkpt lat="45.81893" lon="4.82217">
        <ele>347.753073</ele>
        <time>2021-07-10T20:57:28.888Z</time>
      </trkpt>
      <trkpt lat="45.81935" lon="4.82259">
        <ele>352.258952</ele>
        <time>2021-07-10T20:57:58.368Z</time>
      </trkpt>
      <trkpt lat="45.81976" lon="4.82309">
        <ele>356.811077</ele>
        <time>2021-07-10T20:58:22.695Z</time>
      </trkpt>
      <trkpt lat="45.81982" lon="4.82316">
        <ele>357.485302</ele>
        <time>2021-07-10T20:58:26.909Z</time>
      </trkpt>
      <trkpt lat="45.81989" lon="4.82321">
        <ele>358.136412</ele>
        <time>2021-07-10T20:58:31.550Z</time>
      </trkpt>
      <trkpt lat="45.82033" lon="4.82355">
        <ele>362.425083</ele>
        <time>2021-07-10T20:58:52.082Z</time>
      </trkpt>
      <trkpt lat="45.8207" lon="4.82396">
        <ele>366.03954</ele>
        <time>2021-07-10T20:59:12.588Z</time>
      </trkpt>
      <trkpt lat="45.82085" lon="4.82412">
        <ele>367.42412</ele>
        <time>2021-07-10T20:59:22.596Z</time>
      </trkpt>
      <trkpt lat="45.82098" lon="4.82426">
        <ele>368.678365</ele>
        <time>2021-07-10T20:59:29.174Z</time>
      </trkpt>
      <trkpt lat="45.82107" lon="4.82435">
        <ele>369.495442</ele>
        <time>2021-07-10T20:59:36.750Z</time>
      </trkpt>
      <trkpt lat="45.82139" lon="4.82459">
        <ele>372.1297</ele>
        <time>2021-07-10T20:59:52.106Z</time>
      </trkpt>
      <trkpt lat="45.82171" lon="4.82465">
        <ele>374.502624</ele>
        <time>2021-07-10T21:00:05.765Z</time>
      </trkpt>
      <trkpt lat="45.82196" lon="4.82457">
        <ele>376.419855</ele>
        <time>2021-07-10T21:00:16.408Z</time>
      </trkpt>
      <trkpt lat="45.82242" lon="4.82425">
        <ele>379.120272</ele>
        <time>2021-07-10T21:00:38.685Z</time>
      </trkpt>
      <trkpt lat="45.82278" lon="4.82423">
        <ele>380.862412</ele>
        <time>2021-07-10T21:00:50.502Z</time>
      </trkpt>
      <trkpt lat="45.82317" lon="4.82439">
        <ele>382.781071</ele>
        <time>2021-07-10T21:01:02.714Z</time>
      </trkpt>
      <trkpt lat="45.82369" lon="4.82481">
        <ele>385.615556</ele>
        <time>2021-07-10T21:01:20.370Z</time>
      </trkpt>
      <trkpt lat="45.82414" lon="4.825">
        <ele>387.872391</ele>
        <time>2021-07-10T21:01:34.704Z</time>
      </trkpt>
      <trkpt lat="45.8245" lon="4.82508">
        <ele>389.598151</ele>
        <time>2021-07-10T21:01:46.100Z</time>
      </trkpt>
      <trkpt lat="45.82495" lon="4.82532">
        <ele>391.867382</ele>
        <time>2021-07-10T21:02:01.895Z</time>
      </trkpt>
      <trkpt lat="45.8255" lon="4.82534">
        <ele>394.689302</ele>
        <time>2021-07-10T21:02:22.743Z</time>
      </trkpt>
      <trkpt lat="45.82615" lon="4.82503">
        <ele>400.121839</ele>
        <time>2021-07-10T21:02:51.966Z</time>
      </trkpt>
      <trkpt lat="45.8263" lon="4.82504">
        <ele>401.259249</ele>
        <time>2021-07-10T21:02:58.310Z</time>
      </trkpt>
      <trkpt lat="45.8276" lon="4.82559">
        <ele>412.250371</ele>
        <time>2021-07-10T21:04:08.959Z</time>
      </trkpt>
      <trkpt lat="45.82768" lon="4.82559">
        <ele>412.917697</ele>
        <time>2021-07-10T21:04:12.208Z</time>
      </trkpt>
      <trkpt lat="45.82773" lon="4.82554">
        <ele>413.432804</ele>
        <time>2021-07-10T21:04:14.691Z</time>
      </trkpt>
      <trkpt lat="45.82778" lon="4.82549">
        <ele>413.978783</ele>
        <time>2021-07-10T21:04:17.320Z</time>
      </trkpt>
      <trkpt lat="45.82781" lon="4.8254">
        <ele>414.514344</ele>
        <time>2021-07-10T21:04:21.837Z</time>
      </trkpt>
      <trkpt lat="45.82781" lon="4.82529">
        <ele>415.161937</ele>
        <time>2021-07-10T21:04:26.213Z</time>
      </trkpt>
      <trkpt lat="45.82771" lon="4.8251">
        <ele>416.592213</ele>
        <time>2021-07-10T21:04:32.926Z</time>
      </trkpt>
      <trkpt lat="45.82722" lon="4.82487">
        <ele>420.914324</ele>
        <time>2021-07-10T21:04:58.347Z</time>
      </trkpt>
      <trkpt lat="45.82674" lon="4.82439">
        <ele>425.72828</ele>
        <time>2021-07-10T21:05:25.332Z</time>
      </trkpt>
      <trkpt lat="45.82584" lon="4.8239">
        <ele>433.446506</ele>
        <time>2021-07-10T21:06:08.999Z</time>
      </trkpt>
      <trkpt lat="45.82563" lon="4.82377">
        <ele>435.279289</ele>
        <time>2021-07-10T21:06:20.164Z</time>
      </trkpt>
      <trkpt lat="45.82551" lon="4.8237">
        <ele>436.31843</ele>
        <time>2021-07-10T21:06:26.120Z</time>
      </trkpt>
      <trkpt lat="45.82529" lon="4.82353">
        <ele>438.306087</ele>
        <time>2021-07-10T21:06:38.403Z</time>
      </trkpt>
      <trkpt lat="45.82518" lon="4.82343">
        <ele>439.457373</ele>
        <time>2021-07-10T21:06:44.741Z</time>
      </trkpt>
      <trkpt lat="45.825" lon="4.82323">
        <ele>441.406366</ele>
        <time>2021-07-10T21:06:56.535Z</time>
      </trkpt>
      <trkpt lat="45.82487" lon="4.82305">
        <ele>442.940784</ele>
        <time>2021-07-10T21:07:05.159Z</time>
      </trkpt>
      <trkpt lat="45.82475" lon="4.8229">
        <ele>444.261721</ele>
        <time>2021-07-10T21:07:13.643Z</time>
      </trkpt>
      <trkpt lat="45.82439" lon="4.82239">
        <ele>448.589654</ele>
        <time>2021-07-10T21:07:39.716Z</time>
      </trkpt>
      <trkpt lat="45.82362" lon="4.82133">
        <ele>455.72907</ele>
        <time>2021-07-10T21:08:29.254Z</time>
      </trkpt>
      <trkpt lat="45.82354" lon="4.82122">
        <ele>456.244453</ele>
        <time>2021-07-10T21:08:33.549Z</time>
      </trkpt>
      <trkpt lat="45.82343" lon="4.8211">
        <ele>456.857768</ele>
        <time>2021-07-10T21:08:38.823Z</time>
      </trkpt>
      <trkpt lat="45.82323" lon="4.82096">
        <ele>457.870448</ele>
        <time>2021-07-10T21:08:46.339Z</time>
      </trkpt>
      <trkpt lat="45.82312" lon="4.82083">
        <ele>458.497588</ele>
        <time>2021-07-10T21:08:50.791Z</time>
      </trkpt>
      <trkpt lat="45.8228" lon="4.8204">
        <ele>460.503644</ele>
        <time>2021-07-10T21:09:02.636Z</time>
      </trkpt>
      <trkpt lat="45.82275" lon="4.82027">
        <ele>460.977952</ele>
        <time>2021-07-10T21:09:04.976Z</time>
      </trkpt>
      <trkpt lat="45.82276" lon="4.8201">
        <ele>461.534804</ele>
        <time>2021-07-10T21:09:07.456Z</time>
      </trkpt>
      <trkpt lat="45.82279" lon="4.81995">
        <ele>461.534489</ele>
        <time>2021-07-10T21:09:09.482Z</time>
      </trkpt>
      <trkpt lat="45.82279" lon="4.81995">
        <ele>461.534489</ele>
        <time>2021-07-10T21:09:09.531Z</time>
      </trkpt>
      <trkpt lat="45.82283" lon="4.81985">
        <ele>461.357682</ele>
        <time>2021-07-10T21:09:11.041Z</time>
      </trkpt>
      <trkpt lat="45.82288" lon="4.81976">
        <ele>461.18425</ele>
        <time>2021-07-10T21:09:12.126Z</time>
      </trkpt>
      <trkpt lat="45.82372" lon="4.81914">
        <ele>459.114864</ele>
        <time>2021-07-10T21:09:23.004Z</time>
      </trkpt>
      <trkpt lat="45.82491" lon="4.81814">
        <ele>453.449752</ele>
        <time>2021-07-10T21:09:35.976Z</time>
      </trkpt>
      <trkpt lat="45.82496" lon="4.81808">
        <ele>453.096793</ele>
        <time>2021-07-10T21:09:36.519Z</time>
      </trkpt>
      <trkpt lat="45.82504" lon="4.81798">
        <ele>452.49675</ele>
        <time>2021-07-10T21:09:37.510Z</time>
      </trkpt>
      <trkpt lat="45.8251" lon="4.81786">
        <ele>451.921488</ele>
        <time>2021-07-10T21:09:38.427Z</time>
      </trkpt>
      <trkpt lat="45.82522" lon="4.81746">
        <ele>450.185054</ele>
        <time>2021-07-10T21:09:41.254Z</time>
      </trkpt>
      <trkpt lat="45.82538" lon="4.81626">
        <ele>445.310241</ele>
        <time>2021-07-10T21:09:49.096Z</time>
      </trkpt>
      <trkpt lat="45.82542" lon="4.81596">
        <ele>444.111356</ele>
        <time>2021-07-10T21:09:50.976Z</time>
      </trkpt>
      <trkpt lat="45.82556" lon="4.81557">
        <ele>442.331475</ele>
        <time>2021-07-10T21:09:53.870Z</time>
      </trkpt>
      <trkpt lat="45.8259" lon="4.81517">
        <ele>439.801564</ele>
        <time>2021-07-10T21:09:58.054Z</time>
      </trkpt>
      <trkpt lat="45.82599" lon="4.81511">
        <ele>439.239185</ele>
        <time>2021-07-10T21:09:58.954Z</time>
      </trkpt>
      <trkpt lat="45.82607" lon="4.81507">
        <ele>438.734464</ele>
        <time>2021-07-10T21:09:59.774Z</time>
      </trkpt>
      <trkpt lat="45.8271" lon="4.81468">
        <ele>431.291158</ele>
        <time>2021-07-10T21:10:09.406Z</time>
      </trkpt>
      <trkpt lat="45.82733" lon="4.81449">
        <ele>429.308828</ele>
        <time>2021-07-10T21:10:11.766Z</time>
      </trkpt>
      <trkpt lat="45.82755" lon="4.81421">
        <ele>427.195473</ele>
        <time>2021-07-10T21:10:14.310Z</time>
      </trkpt>
      <trkpt lat="45.82772" lon="4.81382">
        <ele>424.80666</ele>
        <time>2021-07-10T21:10:17.182Z</time>
      </trkpt>
      <trkpt lat="45.82777" lon="4.81367">
        <ele>423.962329</ele>
        <time>2021-07-10T21:10:18.179Z</time>
      </trkpt>
      <trkpt lat="45.82784" lon="4.81328">
        <ele>422.150316</ele>
        <time>2021-07-10T21:10:20.695Z</time>
      </trkpt>
      <trkpt lat="45.82788" lon="4.8128">
        <ele>420.023131</ele>
        <time>2021-07-10T21:10:23.634Z</time>
      </trkpt>
      <trkpt lat="45.82797" lon="4.81233">
        <ele>417.833649</ele>
        <time>2021-07-10T21:10:26.681Z</time>
      </trkpt>
      <trkpt lat="45.82825" lon="4.8115">
        <ele>413.700017</ele>
        <time>2021-07-10T21:10:32.564Z</time>
      </trkpt>
      <trkpt lat="45.82836" lon="4.81132">
        <ele>412.625428</ele>
        <time>2021-07-10T21:10:34.173Z</time>
      </trkpt>
      <trkpt lat="45.82842" lon="4.81125">
        <ele>412.38814</ele>
        <time>2021-07-10T21:10:34.964Z</time>
      </trkpt>
      <trkpt lat="45.82865" lon="4.811">
        <ele>412.399496</ele>
        <time>2021-07-10T21:10:37.917Z</time>
      </trkpt>
      <trkpt lat="45.82963" lon="4.80998">
        <ele>412.447177</ele>
        <time>2021-07-10T21:10:58.114Z</time>
      </trkpt>
      <trkpt lat="45.83085" lon="4.8087">
        <ele>417.92184</ele>
        <time>2021-07-10T21:11:43.482Z</time>
      </trkpt>
      <trkpt lat="45.83118" lon="4.8083">
        <ele>419.825705</ele>
        <time>2021-07-10T21:12:00.617Z</time>
      </trkpt>
      <trkpt lat="45.8314" lon="4.80782">
        <ele>422.229079</ele>
        <time>2021-07-10T21:12:16.419Z</time>
      </trkpt>
      <trkpt lat="45.83148" lon="4.80729">
        <ele>424.76477</ele>
        <time>2021-07-10T21:12:31.587Z</time>
      </trkpt>
      <trkpt lat="45.83145" lon="4.80678">
        <ele>427.179128</ele>
        <time>2021-07-10T21:12:46.321Z</time>
      </trkpt>
      <trkpt lat="45.83143" lon="4.80667">
        <ele>427.723928</ele>
        <time>2021-07-10T21:12:49.817Z</time>
      </trkpt>
      <trkpt lat="45.8314" lon="4.80656">
        <ele>428.257397</ele>
        <time>2021-07-10T21:12:54.404Z</time>
      </trkpt>
      <trkpt lat="45.83124" lon="4.80593">
        <ele>431.382842</ele>
        <time>2021-07-10T21:13:13.451Z</time>
      </trkpt>
      <trkpt lat="45.83124" lon="4.80566">
        <ele>432.669074</ele>
        <time>2021-07-10T21:13:21.477Z</time>
      </trkpt>
      <trkpt lat="45.83127" lon="4.80542">
        <ele>433.974672</ele>
        <time>2021-07-10T21:13:29.536Z</time>
      </trkpt>
      <trkpt lat="45.83137" lon="4.80519">
        <ele>435.354285</ele>
        <time>2021-07-10T21:13:37.686Z</time>
      </trkpt>
      <trkpt lat="45.83151" lon="4.805">
        <ele>436.821784</ele>
        <time>2021-07-10T21:13:46.940Z</time>
      </trkpt>
      <trkpt lat="45.83208" lon="4.80446">
        <ele>441.942046</ele>
        <time>2021-07-10T21:14:17.693Z</time>
      </trkpt>
      <trkpt lat="45.83235" lon="4.80429">
        <ele>444.157666</ele>
        <time>2021-07-10T21:14:30.149Z</time>
      </trkpt>
      <trkpt lat="45.833" lon="4.80407">
        <ele>449.227797</ele>
        <time>2021-07-10T21:15:01.365Z</time>
      </trkpt>
      <trkpt lat="45.83318" lon="4.80393">
        <ele>450.793563</ele>
        <time>2021-07-10T21:15:10.638Z</time>
      </trkpt>
      <trkpt lat="45.83328" lon="4.80369">
        <ele>452.262367</ele>
        <time>2021-07-10T21:15:20.038Z</time>
      </trkpt>
      <trkpt lat="45.83326" lon="4.80347">
        <ele>453.471318</ele>
        <time>2021-07-10T21:15:26.958Z</time>
      </trkpt>
      <trkpt lat="45.83316" lon="4.80328">
        <ele>454.739272</ele>
        <time>2021-07-10T21:15:35.004Z</time>
      </trkpt>
      <trkpt lat="45.83296" lon="4.80314">
        <ele>456.452032</ele>
        <time>2021-07-10T21:15:44.626Z</time>
      </trkpt>
      <trkpt lat="45.83263" lon="4.80298">
        <ele>459.066</ele>
        <time>2021-07-10T21:15:59.804Z</time>
      </trkpt>
      <trkpt lat="45.8327" lon="4.80283">
        <ele>459.992394</ele>
        <time>2021-07-10T21:16:06.216Z</time>
      </trkpt>
      <trkpt lat="45.83286" lon="4.80263">
        <ele>461.754044</ele>
        <time>2021-07-10T21:16:16.332Z</time>
      </trkpt>
      <trkpt lat="45.8333" lon="4.80238">
        <ele>465.646654</ele>
        <time>2021-07-10T21:16:39.834Z</time>
      </trkpt>
      <trkpt lat="45.83451" lon="4.80175">
        <ele>476.531201</ele>
        <time>2021-07-10T21:17:50.198Z</time>
      </trkpt>
      <trkpt lat="45.83476" lon="4.80169">
        <ele>479.126016</ele>
        <time>2021-07-10T21:18:05.011Z</time>
      </trkpt>
      <trkpt lat="45.83517" lon="4.80146">
        <ele>483.553739</ele>
        <time>2021-07-10T21:18:31.271Z</time>
      </trkpt>
      <trkpt lat="45.83527" lon="4.8014">
        <ele>484.663568</ele>
        <time>2021-07-10T21:18:39.621Z</time>
      </trkpt>
      <trkpt lat="45.83561" lon="4.80086">
        <ele>489.779027</ele>
        <time>2021-07-10T21:19:10.420Z</time>
      </trkpt>
      <trkpt lat="45.8362" lon="4.80009">
        <ele>496.818931</ele>
        <time>2021-07-10T21:20:02.560Z</time>
      </trkpt>
      <trkpt lat="45.83754" lon="4.79927">
        <ele>507.246734</ele>
        <time>2021-07-10T21:21:15.621Z</time>
      </trkpt>
      <trkpt lat="45.83768" lon="4.79908">
        <ele>507.302171</ele>
        <time>2021-07-10T21:21:22.247Z</time>
      </trkpt>
      <trkpt lat="45.83771" lon="4.79918">
        <ele>507.32384</ele>
        <time>2021-07-10T21:21:23.640Z</time>
      </trkpt>
      <trkpt lat="45.83771" lon="4.79918">
        <ele>507.32384</ele>
        <time>2021-07-10T21:21:23.706Z</time>
      </trkpt>
      <trkpt lat="45.83771" lon="4.79918">
        <ele>507.32384</ele>
        <time>2021-07-10T21:21:23.711Z</time>
      </trkpt>
      <trkpt lat="45.83777" lon="4.79927">
        <ele>507.348942</ele>
        <time>2021-07-10T21:21:25.577Z</time>
      </trkpt>
      <trkpt lat="45.83798" lon="4.79943">
        <ele>507.416716</ele>
        <time>2021-07-10T21:21:30.434Z</time>
      </trkpt>
      <trkpt lat="45.83815" lon="4.79954">
        <ele>507.471675</ele>
        <time>2021-07-10T21:21:33.702Z</time>
      </trkpt>
      <trkpt lat="45.83825" lon="4.79964">
        <ele>507.506555</ele>
        <time>2021-07-10T21:21:35.192Z</time>
      </trkpt>
      <trkpt lat="45.83841" lon="4.8">
        <ele>507.591769</ele>
        <time>2021-07-10T21:21:38.619Z</time>
      </trkpt>
      <trkpt lat="45.83877" lon="4.80177">
        <ele>503.991105</ele>
        <time>2021-07-10T21:21:50.734Z</time>
      </trkpt>
      <trkpt lat="45.83917" lon="4.80297">
        <ele>500.094035</ele>
        <time>2021-07-10T21:21:59.741Z</time>
      </trkpt>
      <trkpt lat="45.83929" lon="4.80339">
        <ele>499.560381</ele>
        <time>2021-07-10T21:22:03.066Z</time>
      </trkpt>
      <trkpt lat="45.83935" lon="4.80359">
        <ele>499.30865</ele>
        <time>2021-07-10T21:22:04.728Z</time>
      </trkpt>
      <trkpt lat="45.83944" lon="4.80371">
        <ele>499.103239</ele>
        <time>2021-07-10T21:22:06.044Z</time>
      </trkpt>
      <trkpt lat="45.8395" lon="4.80377">
        <ele>498.98236</ele>
        <time>2021-07-10T21:22:06.885Z</time>
      </trkpt>
      <trkpt lat="45.83968" lon="4.80396">
        <ele>498.606088</ele>
        <time>2021-07-10T21:22:09.504Z</time>
      </trkpt>
      <trkpt lat="45.84023" lon="4.80426">
        <ele>497.626758</ele>
        <time>2021-07-10T21:22:16.819Z</time>
      </trkpt>
      <trkpt lat="45.84075" lon="4.80443">
        <ele>496.540986</ele>
        <time>2021-07-10T21:22:23.979Z</time>
      </trkpt>
      <trkpt lat="45.84123" lon="4.8044">
        <ele>495.279046</ele>
        <time>2021-07-10T21:22:29.397Z</time>
      </trkpt>
      <trkpt lat="45.8416" lon="4.80413">
        <ele>494.189273</ele>
        <time>2021-07-10T21:22:33.735Z</time>
      </trkpt>
      <trkpt lat="45.84172" lon="4.8041">
        <ele>493.873877</ele>
        <time>2021-07-10T21:22:34.949Z</time>
      </trkpt>
      <trkpt lat="45.84187" lon="4.80419">
        <ele>493.449287</ele>
        <time>2021-07-10T21:22:36.541Z</time>
      </trkpt>
      <trkpt lat="45.84194" lon="4.80432">
        <ele>493.146138</ele>
        <time>2021-07-10T21:22:37.664Z</time>
      </trkpt>
      <trkpt lat="45.84197" lon="4.80455">
        <ele>492.724421</ele>
        <time>2021-07-10T21:22:39.255Z</time>
      </trkpt>
      <trkpt lat="45.84198" lon="4.80484">
        <ele>492.073405</ele>
        <time>2021-07-10T21:22:41.245Z</time>
      </trkpt>
      <trkpt lat="45.84203" lon="4.80508">
        <ele>491.368246</ele>
        <time>2021-07-10T21:22:42.917Z</time>
      </trkpt>
      <trkpt lat="45.84248" lon="4.80568">
        <ele>488.824589</ele>
        <time>2021-07-10T21:22:48.754Z</time>
      </trkpt>
      <trkpt lat="45.8427" lon="4.80591">
        <ele>487.673978</ele>
        <time>2021-07-10T21:22:51.347Z</time>
      </trkpt>
      <trkpt lat="45.84274" lon="4.80595">
        <ele>487.479412</ele>
        <time>2021-07-10T21:22:51.770Z</time>
      </trkpt>
      <trkpt lat="45.84284" lon="4.80601">
        <ele>487.019829</ele>
        <time>2021-07-10T21:22:52.879Z</time>
      </trkpt>
      <trkpt lat="45.84332" lon="4.80621">
        <ele>484.972643</ele>
        <time>2021-07-10T21:22:57.746Z</time>
      </trkpt>
      <trkpt lat="45.84348" lon="4.80632">
        <ele>484.497857</ele>
        <time>2021-07-10T21:22:59.560Z</time>
      </trkpt>
      <trkpt lat="45.84382" lon="4.80659">
        <ele>483.520536</ele>
        <time>2021-07-10T21:23:05.727Z</time>
      </trkpt>
      <trkpt lat="45.84402" lon="4.80667">
        <ele>483.008664</ele>
        <time>2021-07-10T21:23:09.003Z</time>
      </trkpt>
      <trkpt lat="45.84408" lon="4.80668">
        <ele>482.855549</ele>
        <time>2021-07-10T21:23:09.856Z</time>
      </trkpt>
      <trkpt lat="45.84409" lon="4.80643">
        <ele>482.428047</ele>
        <time>2021-07-10T21:23:16.980Z</time>
      </trkpt>
      <trkpt lat="45.84408" lon="4.80668">
        <ele>482.000545</ele>
        <time>2021-07-10T21:23:22.209Z</time>
      </trkpt>
      <trkpt lat="45.84425" lon="4.80666">
        <ele>481.582173</ele>
        <time>2021-07-10T21:23:24.700Z</time>
      </trkpt>
      <trkpt lat="45.84466" lon="4.80655">
        <ele>480.528448</ele>
        <time>2021-07-10T21:23:30.959Z</time>
      </trkpt>
      <trkpt lat="45.8452" lon="4.80607">
        <ele>478.00665</ele>
        <time>2021-07-10T21:23:39.978Z</time>
      </trkpt>
      <trkpt lat="45.84537" lon="4.80598">
        <ele>477.252518</ele>
        <time>2021-07-10T21:23:42.716Z</time>
      </trkpt>
      <trkpt lat="45.84545" lon="4.806">
        <ele>476.901347</ele>
        <time>2021-07-10T21:23:44.145Z</time>
      </trkpt>
      <trkpt lat="45.84553" lon="4.80609">
        <ele>476.513208</ele>
        <time>2021-07-10T21:23:45.309Z</time>
      </trkpt>
      <trkpt lat="45.84571" lon="4.80742">
        <ele>472.534858</ele>
        <time>2021-07-10T21:23:58.391Z</time>
      </trkpt>
      <trkpt lat="45.84598" lon="4.8079">
        <ele>470.28726</ele>
        <time>2021-07-10T21:24:04.116Z</time>
      </trkpt>
      <trkpt lat="45.84623" lon="4.80822">
        <ele>468.576329</ele>
        <time>2021-07-10T21:24:08.469Z</time>
      </trkpt>
      <trkpt lat="45.8466" lon="4.80848">
        <ele>466.465589</ele>
        <time>2021-07-10T21:24:14.040Z</time>
      </trkpt>
      <trkpt lat="45.84687" lon="4.80848">
        <ele>465.048459</ele>
        <time>2021-07-10T21:24:17.777Z</time>
      </trkpt>
      <trkpt lat="45.84728" lon="4.80824">
        <ele>462.761365</ele>
        <time>2021-07-10T21:24:23.775Z</time>
      </trkpt>
      <trkpt lat="45.84749" lon="4.80821">
        <ele>461.661471</ele>
        <time>2021-07-10T21:24:26.607Z</time>
      </trkpt>
      <trkpt lat="45.84765" lon="4.80823">
        <ele>460.837482</ele>
        <time>2021-07-10T21:24:28.736Z</time>
      </trkpt>
      <trkpt lat="45.84788" lon="4.80846">
        <ele>459.365089</ele>
        <time>2021-07-10T21:24:32.522Z</time>
      </trkpt>
      <trkpt lat="45.84797" lon="4.8088">
        <ele>458.032284</ele>
        <time>2021-07-10T21:24:35.959Z</time>
      </trkpt>
      <trkpt lat="45.84803" lon="4.8096">
        <ele>455.112555</ele>
        <time>2021-07-10T21:24:43.429Z</time>
      </trkpt>
      <trkpt lat="45.84813" lon="4.81016">
        <ele>452.957919</ele>
        <time>2021-07-10T21:24:48.764Z</time>
      </trkpt>
      <trkpt lat="45.8483" lon="4.81054">
        <ele>451.307605</ele>
        <time>2021-07-10T21:24:52.871Z</time>
      </trkpt>
      <trkpt lat="45.8485" lon="4.8108">
        <ele>449.815789</ele>
        <time>2021-07-10T21:24:56.588Z</time>
      </trkpt>
      <trkpt lat="45.84861" lon="4.81088">
        <ele>449.15833</ele>
        <time>2021-07-10T21:24:58.208Z</time>
      </trkpt>
      <trkpt lat="45.84896" lon="4.81103">
        <ele>447.235763</ele>
        <time>2021-07-10T21:25:02.970Z</time>
      </trkpt>
      <trkpt lat="45.84902" lon="4.81108">
        <ele>446.824008</ele>
        <time>2021-07-10T21:25:03.929Z</time>
      </trkpt>
      <trkpt lat="45.84909" lon="4.81121">
        <ele>446.22608</ele>
        <time>2021-07-10T21:25:05.557Z</time>
      </trkpt>
      <trkpt lat="45.84946" lon="4.81263">
        <ele>441.439503</ele>
        <time>2021-07-10T21:25:20.106Z</time>
      </trkpt>
      <trkpt lat="45.84958" lon="4.81289">
        <ele>440.50718</ele>
        <time>2021-07-10T21:25:23.339Z</time>
      </trkpt>
      <trkpt lat="45.84965" lon="4.81299">
        <ele>440.09598</ele>
        <time>2021-07-10T21:25:24.649Z</time>
      </trkpt>
      <trkpt lat="45.84976" lon="4.81311">
        <ele>439.533191</ele>
        <time>2021-07-10T21:25:26.649Z</time>
      </trkpt>
      <trkpt lat="45.84998" lon="4.81319">
        <ele>438.553716</ele>
        <time>2021-07-10T21:25:30.118Z</time>
      </trkpt>
      <trkpt lat="45.85066" lon="4.81301">
        <ele>435.168942</ele>
        <time>2021-07-10T21:25:39.500Z</time>
      </trkpt>
      <trkpt lat="45.85105" lon="4.81303">
        <ele>432.960207</ele>
        <time>2021-07-10T21:25:44.700Z</time>
      </trkpt>
      <trkpt lat="45.85124" lon="4.81318">
        <ele>431.722974</ele>
        <time>2021-07-10T21:25:47.601Z</time>
      </trkpt>
      <trkpt lat="45.85128" lon="4.81337">
        <ele>430.943429</ele>
        <time>2021-07-10T21:25:49.473Z</time>
      </trkpt>
      <trkpt lat="45.85126" lon="4.81353">
        <ele>430.305566</ele>
        <time>2021-07-10T21:25:50.992Z</time>
      </trkpt>
      <trkpt lat="45.8512" lon="4.81368">
        <ele>429.614947</ele>
        <time>2021-07-10T21:25:52.556Z</time>
      </trkpt>
      <trkpt lat="45.85103" lon="4.81407">
        <ele>427.819614</ele>
        <time>2021-07-10T21:25:56.708Z</time>
      </trkpt>
      <trkpt lat="45.85091" lon="4.81449">
        <ele>426.321989</ele>
        <time>2021-07-10T21:26:00.780Z</time>
      </trkpt>
      <trkpt lat="45.85071" lon="4.81584">
        <ele>422.507391</ele>
        <time>2021-07-10T21:26:13.407Z</time>
      </trkpt>
      <trkpt lat="45.85074" lon="4.81683">
        <ele>419.813093</ele>
        <time>2021-07-10T21:26:25.926Z</time>
      </trkpt>
      <trkpt lat="45.85077" lon="4.81725">
        <ele>419.857097</ele>
        <time>2021-07-10T21:26:32.080Z</time>
      </trkpt>
      <trkpt lat="45.85078" lon="4.8173">
        <ele>419.862311</ele>
        <time>2021-07-10T21:26:32.772Z</time>
      </trkpt>
      <trkpt lat="45.8508" lon="4.81747">
        <ele>419.879746</ele>
        <time>2021-07-10T21:26:35.784Z</time>
      </trkpt>
      <trkpt lat="45.8509" lon="4.81773">
        <ele>419.910884</ele>
        <time>2021-07-10T21:26:40.144Z</time>
      </trkpt>
      <trkpt lat="45.85108" lon="4.81788">
        <ele>419.942182</ele>
        <time>2021-07-10T21:26:44.699Z</time>
      </trkpt>
      <trkpt lat="45.85117" lon="4.8179">
        <ele>419.95594</ele>
        <time>2021-07-10T21:26:47.615Z</time>
      </trkpt>
      <trkpt lat="45.85128" lon="4.8179">
        <ele>419.972101</ele>
        <time>2021-07-10T21:26:49.780Z</time>
      </trkpt>
      <trkpt lat="45.85157" lon="4.81774">
        <ele>420.018423</ele>
        <time>2021-07-10T21:26:56.934Z</time>
      </trkpt>
      <trkpt lat="45.85242" lon="4.81699">
        <ele>418.409248</ele>
        <time>2021-07-10T21:27:16.785Z</time>
      </trkpt>
      <trkpt lat="45.85279" lon="4.81686">
        <ele>417.359653</ele>
        <time>2021-07-10T21:27:21.822Z</time>
      </trkpt>
      <trkpt lat="45.85307" lon="4.81691">
        <ele>416.556264</ele>
        <time>2021-07-10T21:27:25.637Z</time>
      </trkpt>
      <trkpt lat="45.85378" lon="4.81732">
        <ele>415.332978</ele>
        <time>2021-07-10T21:27:36.341Z</time>
      </trkpt>
      <trkpt lat="45.85388" lon="4.81737">
        <ele>415.489117</ele>
        <time>2021-07-10T21:27:37.664Z</time>
      </trkpt>
      <trkpt lat="45.85411" lon="4.81747">
        <ele>415.834652</ele>
        <time>2021-07-10T21:27:45.132Z</time>
      </trkpt>
      <trkpt lat="45.85484" lon="4.81758">
        <ele>416.919408</ele>
        <time>2021-07-10T21:28:04.972Z</time>
      </trkpt>
      <trkpt lat="45.85495" lon="4.81767">
        <ele>417.115065</ele>
        <time>2021-07-10T21:28:07.029Z</time>
      </trkpt>
      <trkpt lat="45.85504" lon="4.81768">
        <ele>417.24285</ele>
        <time>2021-07-10T21:28:10.159Z</time>
      </trkpt>
      <trkpt lat="45.85512" lon="4.81768">
        <ele>417.364092</ele>
        <time>2021-07-10T21:28:14.362Z</time>
      </trkpt>
      <trkpt lat="45.85522" lon="4.81764">
        <ele>417.52074</ele>
        <time>2021-07-10T21:28:18.159Z</time>
      </trkpt>
      <trkpt lat="45.85529" lon="4.81759">
        <ele>417.639467</ele>
        <time>2021-07-10T21:28:19.133Z</time>
      </trkpt>
      <trkpt lat="45.85538" lon="4.81746">
        <ele>418.600483</ele>
        <time>2021-07-10T21:28:24.590Z</time>
      </trkpt>
      <trkpt lat="45.85541" lon="4.81735">
        <ele>419.357721</ele>
        <time>2021-07-10T21:28:30.612Z</time>
      </trkpt>
      <trkpt lat="45.85541" lon="4.81708">
        <ele>421.025154</ele>
        <time>2021-07-10T21:28:38.961Z</time>
      </trkpt>
      <trkpt lat="45.855" lon="4.81563">
        <ele>430.810882</ele>
        <time>2021-07-10T21:29:42.169Z</time>
      </trkpt>
      <trkpt lat="45.85472" lon="4.81457">
        <ele>436.906674</ele>
        <time>2021-07-10T21:30:20.254Z</time>
      </trkpt>
      <trkpt lat="45.85467" lon="4.81439">
        <ele>437.853532</ele>
        <time>2021-07-10T21:30:26.496Z</time>
      </trkpt>
      <trkpt lat="45.85465" lon="4.81413">
        <ele>439.071347</ele>
        <time>2021-07-10T21:30:33.904Z</time>
      </trkpt>
      <trkpt lat="45.85462" lon="4.81388">
        <ele>440.278997</ele>
        <time>2021-07-10T21:30:42.273Z</time>
      </trkpt>
      <trkpt lat="45.85467" lon="4.81338">
        <ele>442.688279</ele>
        <time>2021-07-10T21:30:57.212Z</time>
      </trkpt>
      <trkpt lat="45.85496" lon="4.81295">
        <ele>445.53204</ele>
        <time>2021-07-10T21:31:12.849Z</time>
      </trkpt>
      <trkpt lat="45.85501" lon="4.81287">
        <ele>446.064982</ele>
        <time>2021-07-10T21:31:15.169Z</time>
      </trkpt>
      <trkpt lat="45.85503" lon="4.81281">
        <ele>446.150553</ele>
        <time>2021-07-10T21:31:16.350Z</time>
      </trkpt>
      <trkpt lat="45.85503" lon="4.81277">
        <ele>446.212955</ele>
        <time>2021-07-10T21:31:17.152Z</time>
      </trkpt>
      <trkpt lat="45.85501" lon="4.81273">
        <ele>446.276026</ele>
        <time>2021-07-10T21:31:18.464Z</time>
      </trkpt>
      <trkpt lat="45.85497" lon="4.81267">
        <ele>446.396376</ele>
        <time>2021-07-10T21:31:20.053Z</time>
      </trkpt>
      <trkpt lat="45.85491" lon="4.81261">
        <ele>446.561852</ele>
        <time>2021-07-10T21:31:22.646Z</time>
      </trkpt>
      <trkpt lat="45.85458" lon="4.81225">
        <ele>447.411529</ele>
        <time>2021-07-10T21:31:33.401Z</time>
      </trkpt>
      <trkpt lat="45.85418" lon="4.81181">
        <ele>448.459362</ele>
        <time>2021-07-10T21:31:44.480Z</time>
      </trkpt>
      <trkpt lat="45.8534" lon="4.8107">
        <ele>447.716688</ele>
        <time>2021-07-10T21:32:04.168Z</time>
      </trkpt>
      <trkpt lat="45.85294" lon="4.80988">
        <ele>444.4325</ele>
        <time>2021-07-10T21:32:11.043Z</time>
      </trkpt>
      <trkpt lat="45.85258" lon="4.80903">
        <ele>440.766655</ele>
        <time>2021-07-10T21:32:17.269Z</time>
      </trkpt>
      <trkpt lat="45.85255" lon="4.80896">
        <ele>440.115033</ele>
        <time>2021-07-10T21:32:17.763Z</time>
      </trkpt>
      <trkpt lat="45.85228" lon="4.8084">
        <ele>434.958426</ele>
        <time>2021-07-10T21:32:21.806Z</time>
      </trkpt>
      <trkpt lat="45.85211" lon="4.80795">
        <ele>431.014339</ele>
        <time>2021-07-10T21:32:24.901Z</time>
      </trkpt>
      <trkpt lat="45.85193" lon="4.807">
        <ele>423.489467</ele>
        <time>2021-07-10T21:32:30.710Z</time>
      </trkpt>
      <trkpt lat="45.85179" lon="4.80639">
        <ele>417.715618</ele>
        <time>2021-07-10T21:32:34.457Z</time>
      </trkpt>
      <trkpt lat="45.85163" lon="4.80619">
        <ele>414.877439</ele>
        <time>2021-07-10T21:32:36.928Z</time>
      </trkpt>
      <trkpt lat="45.85157" lon="4.80607">
        <ele>413.421736</ele>
        <time>2021-07-10T21:32:38.180Z</time>
      </trkpt>
      <trkpt lat="45.85163" lon="4.80619">
        <ele>411.966033</ele>
        <time>2021-07-10T21:32:39.427Z</time>
      </trkpt>
      <trkpt lat="45.85179" lon="4.80639">
        <ele>409.127855</ele>
        <time>2021-07-10T21:32:41.897Z</time>
      </trkpt>
      <trkpt lat="45.8517" lon="4.80606">
        <ele>405.712114</ele>
        <time>2021-07-10T21:32:43.970Z</time>
      </trkpt>
      <trkpt lat="45.85167" lon="4.80571">
        <ele>402.383353</ele>
        <time>2021-07-10T21:32:45.959Z</time>
      </trkpt>
      <trkpt lat="45.85174" lon="4.8054">
        <ele>399.234598</ele>
        <time>2021-07-10T21:32:47.846Z</time>
      </trkpt>
      <trkpt lat="45.85226" lon="4.80457">
        <ele>389.132212</ele>
        <time>2021-07-10T21:32:54.362Z</time>
      </trkpt>
      <trkpt lat="45.85244" lon="4.80448">
        <ele>386.731915</ele>
        <time>2021-07-10T21:32:55.967Z</time>
      </trkpt>
      <trkpt lat="45.85248" lon="4.80451">
        <ele>386.201983</ele>
        <time>2021-07-10T21:32:56.309Z</time>
      </trkpt>
      <trkpt lat="45.85249" lon="4.80454">
        <ele>385.969033</ele>
        <time>2021-07-10T21:32:56.467Z</time>
      </trkpt>
      <trkpt lat="45.85254" lon="4.80463">
        <ele>384.963873</ele>
        <time>2021-07-10T21:32:57.131Z</time>
      </trkpt>
      <trkpt lat="45.85269" lon="4.805">
        <ele>381.105867</ele>
        <time>2021-07-10T21:32:59.718Z</time>
      </trkpt>
      <trkpt lat="45.85274" lon="4.80536">
        <ele>377.837014</ele>
        <time>2021-07-10T21:33:02.015Z</time>
      </trkpt>
      <trkpt lat="45.85279" lon="4.80557">
        <ele>375.869076</ele>
        <time>2021-07-10T21:33:03.287Z</time>
      </trkpt>
      <trkpt lat="45.85287" lon="4.80581">
        <ele>373.755973</ele>
        <time>2021-07-10T21:33:04.945Z</time>
      </trkpt>
      <trkpt lat="45.85313" lon="4.80663">
        <ele>368.359585</ele>
        <time>2021-07-10T21:33:10.321Z</time>
      </trkpt>
      <trkpt lat="45.85321" lon="4.80678">
        <ele>367.282124</ele>
        <time>2021-07-10T21:33:11.534Z</time>
      </trkpt>
      <trkpt lat="45.85348" lon="4.80722">
        <ele>363.745205</ele>
        <time>2021-07-10T21:33:15.265Z</time>
      </trkpt>
      <trkpt lat="45.85355" lon="4.80721">
        <ele>363.176106</ele>
        <time>2021-07-10T21:33:15.842Z</time>
      </trkpt>
      <trkpt lat="45.85354" lon="4.80713">
        <ele>362.696099</ele>
        <time>2021-07-10T21:33:16.312Z</time>
      </trkpt>
      <trkpt lat="45.8535" lon="4.80696">
        <ele>361.608591</ele>
        <time>2021-07-10T21:33:17.461Z</time>
      </trkpt>
      <trkpt lat="45.85351" lon="4.80678">
        <ele>360.569597</ele>
        <time>2021-07-10T21:33:18.568Z</time>
      </trkpt>
      <trkpt lat="45.8536" lon="4.8067">
        <ele>359.681466</ele>
        <time>2021-07-10T21:33:19.465Z</time>
      </trkpt>
      <trkpt lat="45.85367" lon="4.80672">
        <ele>359.104912</ele>
        <time>2021-07-10T21:33:20.074Z</time>
      </trkpt>
      <trkpt lat="45.854" lon="4.80707">
        <ele>356.003298</ele>
        <time>2021-07-10T21:33:23.808Z</time>
      </trkpt>
      <trkpt lat="45.85415" lon="4.80735">
        <ele>354.206334</ele>
        <time>2021-07-10T21:33:26.006Z</time>
      </trkpt>
      <trkpt lat="45.85425" lon="4.80752">
        <ele>353.064018</ele>
        <time>2021-07-10T21:33:27.417Z</time>
      </trkpt>
      <trkpt lat="45.85437" lon="4.80754">
        <ele>352.205835</ele>
        <time>2021-07-10T21:33:28.498Z</time>
      </trkpt>
      <trkpt lat="45.8545" lon="4.80759">
        <ele>351.224292</ele>
        <time>2021-07-10T21:33:29.664Z</time>
      </trkpt>
      <trkpt lat="45.85458" lon="4.80763">
        <ele>350.607712</ele>
        <time>2021-07-10T21:33:30.384Z</time>
      </trkpt>
      <trkpt lat="45.85463" lon="4.80769">
        <ele>350.103779</ele>
        <time>2021-07-10T21:33:30.962Z</time>
      </trkpt>
      <trkpt lat="45.85479" lon="4.80786">
        <ele>348.661577</ele>
        <time>2021-07-10T21:33:32.852Z</time>
      </trkpt>
      <trkpt lat="45.85482" lon="4.80792">
        <ele>348.294319</ele>
        <time>2021-07-10T21:33:33.279Z</time>
      </trkpt>
      <trkpt lat="45.85493" lon="4.80829">
        <ele>346.239591</ele>
        <time>2021-07-10T21:33:35.838Z</time>
      </trkpt>
      <trkpt lat="45.85501" lon="4.80848">
        <ele>345.202766</ele>
        <time>2021-07-10T21:33:37.195Z</time>
      </trkpt>
      <trkpt lat="45.85504" lon="4.80854">
        <ele>344.898673</ele>
        <time>2021-07-10T21:33:37.703Z</time>
      </trkpt>
      <trkpt lat="45.85509" lon="4.80863">
        <ele>344.468334</ele>
        <time>2021-07-10T21:33:38.467Z</time>
      </trkpt>
      <trkpt lat="45.85511" lon="4.80867">
        <ele>344.289877</ele>
        <time>2021-07-10T21:33:38.784Z</time>
      </trkpt>
      <trkpt lat="45.85526" lon="4.80892">
        <ele>342.997778</ele>
        <time>2021-07-10T21:33:40.782Z</time>
      </trkpt>
      <trkpt lat="45.85537" lon="4.80908">
        <ele>342.114374</ele>
        <time>2021-07-10T21:33:42.371Z</time>
      </trkpt>
      <trkpt lat="45.85541" lon="4.80909">
        <ele>341.857229</ele>
        <time>2021-07-10T21:33:42.790Z</time>
      </trkpt>
      <trkpt lat="45.85546" lon="4.80908">
        <ele>341.591107</ele>
        <time>2021-07-10T21:33:43.196Z</time>
      </trkpt>
      <trkpt lat="45.8555" lon="4.80906">
        <ele>341.312735</ele>
        <time>2021-07-10T21:33:43.655Z</time>
      </trkpt>
      <trkpt lat="45.85552" lon="4.80905">
        <ele>341.239428</ele>
        <time>2021-07-10T21:33:43.759Z</time>
      </trkpt>
      <trkpt lat="45.85561" lon="4.80889">
        <ele>340.415478</ele>
        <time>2021-07-10T21:33:45.289Z</time>
      </trkpt>
      <trkpt lat="45.85565" lon="4.80861">
        <ele>339.301514</ele>
        <time>2021-07-10T21:33:47.180Z</time>
      </trkpt>
      <trkpt lat="45.85543" lon="4.80797">
        <ele>336.476862</ele>
        <time>2021-07-10T21:33:51.939Z</time>
      </trkpt>
      <trkpt lat="45.85518" lon="4.8075">
        <ele>334.449044</ele>
        <time>2021-07-10T21:33:55.755Z</time>
      </trkpt>
      <trkpt lat="45.85514" lon="4.80732">
        <ele>333.831658</ele>
        <time>2021-07-10T21:33:57.078Z</time>
      </trkpt>
      <trkpt lat="45.85512" lon="4.80726">
        <ele>333.653133</ele>
        <time>2021-07-10T21:33:57.444Z</time>
      </trkpt>
      <trkpt lat="45.8551" lon="4.80718">
        <ele>333.396922</ele>
        <time>2021-07-10T21:33:57.937Z</time>
      </trkpt>
      <trkpt lat="45.85506" lon="4.80707">
        <ele>333.002547</ele>
        <time>2021-07-10T21:33:58.853Z</time>
      </trkpt>
      <trkpt lat="45.85496" lon="4.80676">
        <ele>331.919465</ele>
        <time>2021-07-10T21:34:01.235Z</time>
      </trkpt>
      <trkpt lat="45.85494" lon="4.8067">
        <ele>331.730673</ele>
        <time>2021-07-10T21:34:01.610Z</time>
      </trkpt>
      <trkpt lat="45.85489" lon="4.80646">
        <ele>330.959155</ele>
        <time>2021-07-10T21:34:03.329Z</time>
      </trkpt>
      <trkpt lat="45.85477" lon="4.80604">
        <ele>329.556639</ele>
        <time>2021-07-10T21:34:06.385Z</time>
      </trkpt>
      <trkpt lat="45.85475" lon="4.80578">
        <ele>328.731735</ele>
        <time>2021-07-10T21:34:08.161Z</time>
      </trkpt>
      <trkpt lat="45.85474" lon="4.80572">
        <ele>328.563481</ele>
        <time>2021-07-10T21:34:08.489Z</time>
      </trkpt>
      <trkpt lat="45.85473" lon="4.80504">
        <ele>327.167742</ele>
        <time>2021-07-10T21:34:13.233Z</time>
      </trkpt>
      <trkpt lat="45.85477" lon="4.80495">
        <ele>327.073215</ele>
        <time>2021-07-10T21:34:13.949Z</time>
      </trkpt>
      <trkpt lat="45.85484" lon="4.80493">
        <ele>326.990147</ele>
        <time>2021-07-10T21:34:14.669Z</time>
      </trkpt>
      <trkpt lat="45.85483" lon="4.80486">
        <ele>326.923671</ele>
        <time>2021-07-10T21:34:15.641Z</time>
      </trkpt>
      <trkpt lat="45.85478" lon="4.80437">
        <ele>326.498202</ele>
        <time>2021-07-10T21:34:19.501Z</time>
      </trkpt>
      <trkpt lat="45.85477" lon="4.80426">
        <ele>326.406264</ele>
        <time>2021-07-10T21:34:20.370Z</time>
      </trkpt>
      <trkpt lat="45.85474" lon="4.80396">
        <ele>326.139985</ele>
        <time>2021-07-10T21:34:22.897Z</time>
      </trkpt>
      <trkpt lat="45.85474" lon="4.80393">
        <ele>326.117502</ele>
        <time>2021-07-10T21:34:23.128Z</time>
      </trkpt>
      <trkpt lat="45.8547" lon="4.80359">
        <ele>325.821918</ele>
        <time>2021-07-10T21:34:26.427Z</time>
      </trkpt>
      <trkpt lat="45.85468" lon="4.80344">
        <ele>325.690104</ele>
        <time>2021-07-10T21:34:27.568Z</time>
      </trkpt>
      <trkpt lat="45.85464" lon="4.80327">
        <ele>325.535107</ele>
        <time>2021-07-10T21:34:30.321Z</time>
      </trkpt>
      <trkpt lat="45.85456" lon="4.80302">
        <ele>325.303575</ele>
        <time>2021-07-10T21:34:32.583Z</time>
      </trkpt>
      <trkpt lat="45.85452" lon="4.80289">
        <ele>325.41229</ele>
        <time>2021-07-10T21:34:34.390Z</time>
      </trkpt>
      <trkpt lat="45.8545" lon="4.80281">
        <ele>325.697544</ele>
        <time>2021-07-10T21:34:36.064Z</time>
      </trkpt>
      <trkpt lat="45.85441" lon="4.80257">
        <ele>326.634093</ele>
        <time>2021-07-10T21:34:40.228Z</time>
      </trkpt>
      <trkpt lat="45.85435" lon="4.80235">
        <ele>327.425146</ele>
        <time>2021-07-10T21:34:45.120Z</time>
      </trkpt>
      <trkpt lat="45.85434" lon="4.80226">
        <ele>327.744239</ele>
        <time>2021-07-10T21:34:47.293Z</time>
      </trkpt>
      <trkpt lat="45.85434" lon="4.80222">
        <ele>327.882377</ele>
        <time>2021-07-10T21:34:48.029Z</time>
      </trkpt>
      <trkpt lat="45.85438" lon="4.80206">
        <ele>328.455662</ele>
        <time>2021-07-10T21:34:51.069Z</time>
      </trkpt>
      <trkpt lat="45.85449" lon="4.80183">
        <ele>329.41503</ele>
        <time>2021-07-10T21:34:58.802Z</time>
      </trkpt>
      <trkpt lat="45.85457" lon="4.80173">
        <ele>329.952938</ele>
        <time>2021-07-10T21:35:02.407Z</time>
      </trkpt>
      <trkpt lat="45.8547" lon="4.80159">
        <ele>330.754641</ele>
        <time>2021-07-10T21:35:08.904Z</time>
      </trkpt>
      <trkpt lat="45.85488" lon="4.8014">
        <ele>331.831296</ele>
        <time>2021-07-10T21:35:18.228Z</time>
      </trkpt>
      <trkpt lat="45.85497" lon="4.80131">
        <ele>332.391804</ele>
        <time>2021-07-10T21:35:22.706Z</time>
      </trkpt>
      <trkpt lat="45.85515" lon="4.80113">
        <ele>333.446445</ele>
        <time>2021-07-10T21:35:33.272Z</time>
      </trkpt>
      <trkpt lat="45.85537" lon="4.80092">
        <ele>335.116779</ele>
        <time>2021-07-10T21:35:45.785Z</time>
      </trkpt>
      <trkpt lat="45.85569" lon="4.80079">
        <ele>337.46391</ele>
        <time>2021-07-10T21:35:59.523Z</time>
      </trkpt>
      <trkpt lat="45.85589" lon="4.8007">
        <ele>338.988956</ele>
        <time>2021-07-10T21:36:09.045Z</time>
      </trkpt>
      <trkpt lat="45.85609" lon="4.80059">
        <ele>340.529709</ele>
        <time>2021-07-10T21:36:18.713Z</time>
      </trkpt>
      <trkpt lat="45.85614" lon="4.80056">
        <ele>340.916308</ele>
        <time>2021-07-10T21:36:20.729Z</time>
      </trkpt>
      <trkpt lat="45.85619" lon="4.80053">
        <ele>341.3279</ele>
        <time>2021-07-10T21:36:24.031Z</time>
      </trkpt>
      <trkpt lat="45.85629" lon="4.80047">
        <ele>342.094799</ele>
        <time>2021-07-10T21:36:28.280Z</time>
      </trkpt>
      <trkpt lat="45.85636" lon="4.80039">
        <ele>342.715185</ele>
        <time>2021-07-10T21:36:32.613Z</time>
      </trkpt>
      <trkpt lat="45.8564" lon="4.80034">
        <ele>343.09857</ele>
        <time>2021-07-10T21:36:35.461Z</time>
      </trkpt>
      <trkpt lat="45.85643" lon="4.80028">
        <ele>343.457455</ele>
        <time>2021-07-10T21:36:37.384Z</time>
      </trkpt>
      <trkpt lat="45.85646" lon="4.8002">
        <ele>343.914377</ele>
        <time>2021-07-10T21:36:41.159Z</time>
      </trkpt>
      <trkpt lat="45.85647" lon="4.80011">
        <ele>344.388892</ele>
        <time>2021-07-10T21:36:44.113Z</time>
      </trkpt>
      <trkpt lat="45.85641" lon="4.79988">
        <ele>345.618568</ele>
        <time>2021-07-10T21:36:51.383Z</time>
      </trkpt>
      <trkpt lat="45.85628" lon="4.7998">
        <ele>346.645478</ele>
        <time>2021-07-10T21:36:57.706Z</time>
      </trkpt>
      <trkpt lat="45.85615" lon="4.79978">
        <ele>347.379316</ele>
        <time>2021-07-10T21:37:02.610Z</time>
      </trkpt>
      <trkpt lat="45.85592" lon="4.79977">
        <ele>348.411679</ele>
        <time>2021-07-10T21:37:11.368Z</time>
      </trkpt>
      <trkpt lat="45.85558" lon="4.79985">
        <ele>349.937367</ele>
        <time>2021-07-10T21:37:21.758Z</time>
      </trkpt>
      <trkpt lat="45.85548" lon="4.79986">
        <ele>350.376831</ele>
        <time>2021-07-10T21:37:24.017Z</time>
      </trkpt>
      <trkpt lat="45.85537" lon="4.79986">
        <ele>350.878042</ele>
        <time>2021-07-10T21:37:28.042Z</time>
      </trkpt>
      <trkpt lat="45.85528" lon="4.79984">
        <ele>351.275205</ele>
        <time>2021-07-10T21:37:30.200Z</time>
      </trkpt>
      <trkpt lat="45.85514" lon="4.79979">
        <ele>351.93302</ele>
        <time>2021-07-10T21:37:34.247Z</time>
      </trkpt>
      <trkpt lat="45.855" lon="4.79976">
        <ele>352.544894</ele>
        <time>2021-07-10T21:37:38.142Z</time>
      </trkpt>
      <trkpt lat="45.85483" lon="4.79977">
        <ele>353.296464</ele>
        <time>2021-07-10T21:37:42.283Z</time>
      </trkpt>
      <trkpt lat="45.85451" lon="4.79989">
        <ele>354.799988</ele>
        <time>2021-07-10T21:37:52.728Z</time>
      </trkpt>
      <trkpt lat="45.85442" lon="4.79991">
        <ele>355.307097</ele>
        <time>2021-07-10T21:37:55.702Z</time>
      </trkpt>
      <trkpt lat="45.85423" lon="4.79989">
        <ele>356.719968</ele>
        <time>2021-07-10T21:38:02.059Z</time>
      </trkpt>
      <trkpt lat="45.85416" lon="4.79984">
        <ele>357.29413</ele>
        <time>2021-07-10T21:38:04.197Z</time>
      </trkpt>
      <trkpt lat="45.85407" lon="4.79974">
        <ele>358.195059</ele>
        <time>2021-07-10T21:38:09.031Z</time>
      </trkpt>
      <trkpt lat="45.85401" lon="4.79965">
        <ele>358.841409</ele>
        <time>2021-07-10T21:38:12.964Z</time>
      </trkpt>
      <trkpt lat="45.85395" lon="4.79947">
        <ele>359.888513</ele>
        <time>2021-07-10T21:38:17.768Z</time>
      </trkpt>
      <trkpt lat="45.85387" lon="4.79921">
        <ele>361.40246</ele>
        <time>2021-07-10T21:38:27.779Z</time>
      </trkpt>
      <trkpt lat="45.85385" lon="4.79912">
        <ele>361.875799</ele>
        <time>2021-07-10T21:38:30.694Z</time>
      </trkpt>
      <trkpt lat="45.85382" lon="4.79898">
        <ele>362.647468</ele>
        <time>2021-07-10T21:38:34.683Z</time>
      </trkpt>
      <trkpt lat="45.85376" lon="4.79875">
        <ele>363.976684</ele>
        <time>2021-07-10T21:38:43.601Z</time>
      </trkpt>
      <trkpt lat="45.85359" lon="4.79816">
        <ele>367.318997</ele>
        <time>2021-07-10T21:39:06.986Z</time>
      </trkpt>
      <trkpt lat="45.85343" lon="4.79776">
        <ele>369.900847</ele>
        <time>2021-07-10T21:39:25.309Z</time>
      </trkpt>
      <trkpt lat="45.85329" lon="4.79741">
        <ele>372.332466</ele>
        <time>2021-07-10T21:39:39.847Z</time>
      </trkpt>
      <trkpt lat="45.85321" lon="4.7972">
        <ele>373.750962</ele>
        <time>2021-07-10T21:39:50.352Z</time>
      </trkpt>
      <trkpt lat="45.85294" lon="4.7965">
        <ele>378.552404</ele>
        <time>2021-07-10T21:40:20.700Z</time>
      </trkpt>
      <trkpt lat="45.8529" lon="4.79644">
        <ele>379.030957</ele>
        <time>2021-07-10T21:40:24.723Z</time>
      </trkpt>
      <trkpt lat="45.85287" lon="4.7964">
        <ele>379.388475</ele>
        <time>2021-07-10T21:40:26.804Z</time>
      </trkpt>
      <trkpt lat="45.85266" lon="4.79626">
        <ele>381.412748</ele>
        <time>2021-07-10T21:40:35.496Z</time>
      </trkpt>
      <trkpt lat="45.85258" lon="4.79621">
        <ele>382.201319</ele>
        <time>2021-07-10T21:40:40.748Z</time>
      </trkpt>
      <trkpt lat="45.8524" lon="4.79607">
        <ele>383.918469</ele>
        <time>2021-07-10T21:40:47.623Z</time>
      </trkpt>
      <trkpt lat="45.85242" lon="4.79604">
        <ele>384.172589</ele>
        <time>2021-07-10T21:40:48.654Z</time>
      </trkpt>
      <trkpt lat="45.85248" lon="4.796">
        <ele>384.430847</ele>
        <time>2021-07-10T21:40:50.523Z</time>
      </trkpt>
      <trkpt lat="45.85259" lon="4.79606">
        <ele>384.87009</ele>
        <time>2021-07-10T21:40:56.329Z</time>
      </trkpt>
      <trkpt lat="45.85262" lon="4.79607">
        <ele>384.982584</ele>
        <time>2021-07-10T21:40:57.394Z</time>
      </trkpt>
      <trkpt lat="45.8527" lon="4.79584">
        <ele>385.67482</ele>
        <time>2021-07-10T21:41:01.756Z</time>
      </trkpt>
      <trkpt lat="45.85282" lon="4.79558">
        <ele>386.501401</ele>
        <time>2021-07-10T21:41:13.912Z</time>
      </trkpt>
      <trkpt lat="45.8527" lon="4.79584">
        <ele>387.327983</ele>
        <time>2021-07-10T21:41:23.864Z</time>
      </trkpt>
      <trkpt lat="45.85262" lon="4.79607">
        <ele>388.020218</ele>
        <time>2021-07-10T21:41:29.690Z</time>
      </trkpt>
      <trkpt lat="45.85272" lon="4.79613">
        <ele>388.414949</ele>
        <time>2021-07-10T21:41:31.829Z</time>
      </trkpt>
      <trkpt lat="45.85283" lon="4.79619">
        <ele>388.879825</ele>
        <time>2021-07-10T21:41:35.566Z</time>
      </trkpt>
      <trkpt lat="45.85293" lon="4.79626">
        <ele>389.306502</ele>
        <time>2021-07-10T21:41:39.081Z</time>
      </trkpt>
      <trkpt lat="45.8532" lon="4.79646">
        <ele>390.433228</ele>
        <time>2021-07-10T21:41:48.063Z</time>
      </trkpt>
      <trkpt lat="45.85328" lon="4.79654">
        <ele>390.830231</ele>
        <time>2021-07-10T21:41:50.856Z</time>
      </trkpt>
      <trkpt lat="45.85363" lon="4.79693">
        <ele>393.222313</ele>
        <time>2021-07-10T21:42:03.449Z</time>
      </trkpt>
      <trkpt lat="45.85374" lon="4.79702">
        <ele>393.914452</ele>
        <time>2021-07-10T21:42:06.175Z</time>
      </trkpt>
      <trkpt lat="45.85385" lon="4.79705">
        <ele>394.514248</ele>
        <time>2021-07-10T21:42:09.092Z</time>
      </trkpt>
      <trkpt lat="45.8542" lon="4.79712">
        <ele>396.504913</ele>
        <time>2021-07-10T21:42:23.262Z</time>
      </trkpt>
      <trkpt lat="45.85431" lon="4.79715">
        <ele>397.087226</ele>
        <time>2021-07-10T21:42:28.435Z</time>
      </trkpt>
      <trkpt lat="45.85438" lon="4.79716">
        <ele>397.513698</ele>
        <time>2021-07-10T21:42:31.476Z</time>
      </trkpt>
      <trkpt lat="45.85444" lon="4.79717">
        <ele>397.800245</ele>
        <time>2021-07-10T21:42:33.440Z</time>
      </trkpt>
      <trkpt lat="45.85451" lon="4.79719">
        <ele>398.236585</ele>
        <time>2021-07-10T21:42:36.256Z</time>
      </trkpt>
      <trkpt lat="45.85478" lon="4.79724">
        <ele>399.701542</ele>
        <time>2021-07-10T21:42:47.920Z</time>
      </trkpt>
      <trkpt lat="45.8548" lon="4.79724">
        <ele>399.836006</ele>
        <time>2021-07-10T21:42:48.940Z</time>
      </trkpt>
      <trkpt lat="45.8549" lon="4.79725">
        <ele>400.385409</ele>
        <time>2021-07-10T21:42:52.798Z</time>
      </trkpt>
      <trkpt lat="45.85498" lon="4.79725">
        <ele>400.862245</ele>
        <time>2021-07-10T21:42:57.472Z</time>
      </trkpt>
      <trkpt lat="45.85523" lon="4.79715">
        <ele>402.489389</ele>
        <time>2021-07-10T21:43:08.429Z</time>
      </trkpt>
      <trkpt lat="45.85539" lon="4.79705">
        <ele>403.560472</ele>
        <time>2021-07-10T21:43:17.110Z</time>
      </trkpt>
      <trkpt lat="45.85544" lon="4.79701">
        <ele>403.911777</ele>
        <time>2021-07-10T21:43:19.623Z</time>
      </trkpt>
      <trkpt lat="45.85565" lon="4.79687">
        <ele>405.381519</ele>
        <time>2021-07-10T21:43:30.748Z</time>
      </trkpt>
      <trkpt lat="45.85569" lon="4.79684">
        <ele>405.662837</ele>
        <time>2021-07-10T21:43:32.549Z</time>
      </trkpt>
      <trkpt lat="45.85573" lon="4.79682">
        <ele>405.921092</ele>
        <time>2021-07-10T21:43:34.236Z</time>
      </trkpt>
      <trkpt lat="45.85584" lon="4.79675">
        <ele>406.679846</ele>
        <time>2021-07-10T21:43:38.914Z</time>
      </trkpt>
      <trkpt lat="45.85591" lon="4.79671">
        <ele>407.183616</ele>
        <time>2021-07-10T21:43:41.933Z</time>
      </trkpt>
      <trkpt lat="45.85613" lon="4.79663">
        <ele>408.584728</ele>
        <time>2021-07-10T21:43:50.787Z</time>
      </trkpt>
      <trkpt lat="45.85622" lon="4.79659">
        <ele>409.209967</ele>
        <time>2021-07-10T21:43:54.133Z</time>
      </trkpt>
      <trkpt lat="45.85639" lon="4.79654">
        <ele>410.271487</ele>
        <time>2021-07-10T21:44:00.707Z</time>
      </trkpt>
      <trkpt lat="45.85646" lon="4.79653">
        <ele>410.744104</ele>
        <time>2021-07-10T21:44:03.188Z</time>
      </trkpt>
      <trkpt lat="45.85661" lon="4.79652">
        <ele>411.718123</ele>
        <time>2021-07-10T21:44:08.207Z</time>
      </trkpt>
      <trkpt lat="45.85683" lon="4.79648">
        <ele>412.850972</ele>
        <time>2021-07-10T21:44:15.494Z</time>
      </trkpt>
      <trkpt lat="45.85693" lon="4.79645">
        <ele>413.273782</ele>
        <time>2021-07-10T21:44:18.962Z</time>
      </trkpt>
      <trkpt lat="45.85707" lon="4.79641">
        <ele>413.901277</ele>
        <time>2021-07-10T21:44:23.048Z</time>
      </trkpt>
      <trkpt lat="45.85717" lon="4.79638">
        <ele>414.340061</ele>
        <time>2021-07-10T21:44:25.860Z</time>
      </trkpt>
      <trkpt lat="45.85744" lon="4.79636">
        <ele>415.542904</ele>
        <time>2021-07-10T21:44:34.425Z</time>
      </trkpt>
      <trkpt lat="45.85764" lon="4.79637">
        <ele>416.421639</ele>
        <time>2021-07-10T21:44:41.183Z</time>
      </trkpt>
      <trkpt lat="45.85769" lon="4.79638">
        <ele>416.627399</ele>
        <time>2021-07-10T21:44:42.585Z</time>
      </trkpt>
      <trkpt lat="45.85784" lon="4.7964">
        <ele>417.306578</ele>
        <time>2021-07-10T21:44:47.160Z</time>
      </trkpt>
      <trkpt lat="45.8582" lon="4.79645">
        <ele>418.874818</ele>
        <time>2021-07-10T21:44:58.770Z</time>
      </trkpt>
      <trkpt lat="45.85848" lon="4.79652">
        <ele>420.108839</ele>
        <time>2021-07-10T21:45:07.893Z</time>
      </trkpt>
      <trkpt lat="45.85874" lon="4.79662">
        <ele>421.82844</ele>
        <time>2021-07-10T21:45:16.317Z</time>
      </trkpt>
      <trkpt lat="45.85898" lon="4.79673">
        <ele>423.39702</ele>
        <time>2021-07-10T21:45:25.062Z</time>
      </trkpt>
      <trkpt lat="45.85906" lon="4.79678">
        <ele>423.953923</ele>
        <time>2021-07-10T21:45:28.189Z</time>
      </trkpt>
      <trkpt lat="45.85914" lon="4.79686">
        <ele>424.566937</ele>
        <time>2021-07-10T21:45:32.052Z</time>
      </trkpt>
      <trkpt lat="45.85922" lon="4.79699">
        <ele>425.380146</ele>
        <time>2021-07-10T21:45:37.809Z</time>
      </trkpt>
      <trkpt lat="45.85926" lon="4.79707">
        <ele>425.777075</ele>
        <time>2021-07-10T21:45:40.369Z</time>
      </trkpt>
      <trkpt lat="45.85933" lon="4.79722">
        <ele>426.595602</ele>
        <time>2021-07-10T21:45:45.581Z</time>
      </trkpt>
      <trkpt lat="45.85945" lon="4.79739">
        <ele>427.636158</ele>
        <time>2021-07-10T21:45:53.651Z</time>
      </trkpt>
      <trkpt lat="45.85973" lon="4.79779">
        <ele>430.164029</ele>
        <time>2021-07-10T21:46:11.077Z</time>
      </trkpt>
      <trkpt lat="45.85983" lon="4.79793">
        <ele>431.085415</ele>
        <time>2021-07-10T21:46:16.475Z</time>
      </trkpt>
      <trkpt lat="45.85993" lon="4.79804">
        <ele>431.947853</ele>
        <time>2021-07-10T21:46:22.791Z</time>
      </trkpt>
      <trkpt lat="45.86014" lon="4.79825">
        <ele>434.15231</ele>
        <time>2021-07-10T21:46:33.797Z</time>
      </trkpt>
      <trkpt lat="45.86024" lon="4.79834">
        <ele>435.167672</ele>
        <time>2021-07-10T21:46:40.103Z</time>
      </trkpt>
      <trkpt lat="45.86031" lon="4.79838">
        <ele>435.77446</ele>
        <time>2021-07-10T21:46:43.692Z</time>
      </trkpt>
      <trkpt lat="45.86042" lon="4.79842">
        <ele>436.748839</ele>
        <time>2021-07-10T21:46:47.714Z</time>
      </trkpt>
      <trkpt lat="45.86049" lon="4.79844">
        <ele>437.401932</ele>
        <time>2021-07-10T21:46:51.806Z</time>
      </trkpt>
      <trkpt lat="45.86107" lon="4.79856">
        <ele>442.400201</ele>
        <time>2021-07-10T21:47:22.794Z</time>
      </trkpt>
      <trkpt lat="45.86111" lon="4.79857">
        <ele>442.745379</ele>
        <time>2021-07-10T21:47:24.621Z</time>
      </trkpt>
      <trkpt lat="45.86122" lon="4.79857">
        <ele>443.694556</ele>
        <time>2021-07-10T21:47:31.267Z</time>
      </trkpt>
      <trkpt lat="45.86132" lon="4.79855">
        <ele>444.549035</ele>
        <time>2021-07-10T21:47:37.085Z</time>
      </trkpt>
      <trkpt lat="45.86162" lon="4.79845">
        <ele>447.081866</ele>
        <time>2021-07-10T21:47:52.010Z</time>
      </trkpt>
      <trkpt lat="45.8617" lon="4.79839">
        <ele>447.675344</ele>
        <time>2021-07-10T21:47:57.295Z</time>
      </trkpt>
      <trkpt lat="45.8618" lon="4.79833">
        <ele>448.359976</ele>
        <time>2021-07-10T21:48:01.594Z</time>
      </trkpt>
      <trkpt lat="45.86189" lon="4.79825">
        <ele>448.987463</ele>
        <time>2021-07-10T21:48:06.424Z</time>
      </trkpt>
      <trkpt lat="45.86188" lon="4.79816">
        <ele>449.374727</ele>
        <time>2021-07-10T21:48:09.446Z</time>
      </trkpt>
      <trkpt lat="45.86186" lon="4.798">
        <ele>450.059115</ele>
        <time>2021-07-10T21:48:13.987Z</time>
      </trkpt>
      <trkpt lat="45.86187" lon="4.7979">
        <ele>450.532452</ele>
        <time>2021-07-10T21:48:17.021Z</time>
      </trkpt>
      <trkpt lat="45.86227" lon="4.79763">
        <ele>453.236227</ele>
        <time>2021-07-10T21:48:33.036Z</time>
      </trkpt>
      <trkpt lat="45.86229" lon="4.79757">
        <ele>453.509138</ele>
        <time>2021-07-10T21:48:35.505Z</time>
      </trkpt>
      <trkpt lat="45.86226" lon="4.79749">
        <ele>453.921896</ele>
        <time>2021-07-10T21:48:38.378Z</time>
      </trkpt>
      <trkpt lat="45.86195" lon="4.79731">
        <ele>455.971844</ele>
        <time>2021-07-10T21:48:49.562Z</time>
      </trkpt>
      <trkpt lat="45.86184" lon="4.79725">
        <ele>456.680033</ele>
        <time>2021-07-10T21:48:53.436Z</time>
      </trkpt>
      <trkpt lat="45.86165" lon="4.79713">
        <ele>457.979221</ele>
        <time>2021-07-10T21:49:00.890Z</time>
      </trkpt>
      <trkpt lat="45.86157" lon="4.79708">
        <ele>458.492436</ele>
        <time>2021-07-10T21:49:03.982Z</time>
      </trkpt>
      <trkpt lat="45.86145" lon="4.79702">
        <ele>459.163394</ele>
        <time>2021-07-10T21:49:07.828Z</time>
      </trkpt>
      <trkpt lat="45.86136" lon="4.79697">
        <ele>459.677579</ele>
        <time>2021-07-10T21:49:10.713Z</time>
      </trkpt>
      <trkpt lat="45.86119" lon="4.79687">
        <ele>460.617663</ele>
        <time>2021-07-10T21:49:16.394Z</time>
      </trkpt>
      <trkpt lat="45.86102" lon="4.79674">
        <ele>461.635574</ele>
        <time>2021-07-10T21:49:21.453Z</time>
      </trkpt>
      <trkpt lat="45.86094" lon="4.79665">
        <ele>462.17651</ele>
        <time>2021-07-10T21:49:25.538Z</time>
      </trkpt>
      <trkpt lat="45.86087" lon="4.79655">
        <ele>462.716463</ele>
        <time>2021-07-10T21:49:28.023Z</time>
      </trkpt>
      <trkpt lat="45.86085" lon="4.79651">
        <ele>462.88319</ele>
        <time>2021-07-10T21:49:28.849Z</time>
      </trkpt>
      <trkpt lat="45.86083" lon="4.79648">
        <ele>463.052931</ele>
        <time>2021-07-10T21:49:29.641Z</time>
      </trkpt>
      <trkpt lat="45.86076" lon="4.79633">
        <ele>463.71488</ele>
        <time>2021-07-10T21:49:33.637Z</time>
      </trkpt>
      <trkpt lat="45.86075" lon="4.79628">
        <ele>463.885827</ele>
        <time>2021-07-10T21:49:34.483Z</time>
      </trkpt>
      <trkpt lat="45.86069" lon="4.79614">
        <ele>464.482352</ele>
        <time>2021-07-10T21:49:38.103Z</time>
      </trkpt>
      <trkpt lat="45.86065" lon="4.79602">
        <ele>464.99375</ele>
        <time>2021-07-10T21:49:41.157Z</time>
      </trkpt>
      <trkpt lat="45.86058" lon="4.79585">
        <ele>465.739895</ele>
        <time>2021-07-10T21:49:46.679Z</time>
      </trkpt>
      <trkpt lat="45.86046" lon="4.79557">
        <ele>466.94653</ele>
        <time>2021-07-10T21:49:55.561Z</time>
      </trkpt>
      <trkpt lat="45.8604" lon="4.79545">
        <ele>467.464812</ele>
        <time>2021-07-10T21:50:00.921Z</time>
      </trkpt>
      <trkpt lat="45.86029" lon="4.79522">
        <ele>469.469323</ele>
        <time>2021-07-10T21:50:10.086Z</time>
      </trkpt>
      <trkpt lat="45.86011" lon="4.79496">
        <ele>472.401391</ele>
        <time>2021-07-10T21:50:24.091Z</time>
      </trkpt>
      <trkpt lat="45.86003" lon="4.79486">
        <ele>473.567139</ele>
        <time>2021-07-10T21:50:29.704Z</time>
      </trkpt>
      <trkpt lat="45.85988" lon="4.79466">
        <ele>475.90261</ele>
        <time>2021-07-10T21:50:44.056Z</time>
      </trkpt>
      <trkpt lat="45.85985" lon="4.79462">
        <ele>476.414394</ele>
        <time>2021-07-10T21:50:46.571Z</time>
      </trkpt>
      <trkpt lat="45.85971" lon="4.79437">
        <ele>478.910456</ele>
        <time>2021-07-10T21:51:01.927Z</time>
      </trkpt>
      <trkpt lat="45.85959" lon="4.79413">
        <ele>481.196786</ele>
        <time>2021-07-10T21:51:14.853Z</time>
      </trkpt>
      <trkpt lat="45.85949" lon="4.79398">
        <ele>482.863268</ele>
        <time>2021-07-10T21:51:24.782Z</time>
      </trkpt>
      <trkpt lat="45.85953" lon="4.79392">
        <ele>483.462188</ele>
        <time>2021-07-10T21:51:29.761Z</time>
      </trkpt>
      <trkpt lat="45.85955" lon="4.79382">
        <ele>484.302667</ele>
        <time>2021-07-10T21:51:33.601Z</time>
      </trkpt>
      <trkpt lat="45.85953" lon="4.79374">
        <ele>484.97368</ele>
        <time>2021-07-10T21:51:37.592Z</time>
      </trkpt>
      <trkpt lat="45.85941" lon="4.79348">
        <ele>487.461238</ele>
        <time>2021-07-10T21:51:53.657Z</time>
      </trkpt>
      <trkpt lat="45.85931" lon="4.79315">
        <ele>489.938478</ele>
        <time>2021-07-10T21:52:09.453Z</time>
      </trkpt>
      <trkpt lat="45.85928" lon="4.79301">
        <ele>490.938816</ele>
        <time>2021-07-10T21:52:17.965Z</time>
      </trkpt>
      <trkpt lat="45.85925" lon="4.79292">
        <ele>491.625928</ele>
        <time>2021-07-10T21:52:22.831Z</time>
      </trkpt>
      <trkpt lat="45.85921" lon="4.79279">
        <ele>492.585968</ele>
        <time>2021-07-10T21:52:28.943Z</time>
      </trkpt>
      <trkpt lat="45.85918" lon="4.79271">
        <ele>493.187649</ele>
        <time>2021-07-10T21:52:32.665Z</time>
      </trkpt>
      <trkpt lat="45.85913" lon="4.7926">
        <ele>494.076291</ele>
        <time>2021-07-10T21:52:38.679Z</time>
      </trkpt>
      <trkpt lat="45.85907" lon="4.79252">
        <ele>494.870065</ele>
        <time>2021-07-10T21:52:45.540Z</time>
      </trkpt>
      <trkpt lat="45.859" lon="4.79241">
        <ele>495.918778</ele>
        <time>2021-07-10T21:52:51.810Z</time>
      </trkpt>
      <trkpt lat="45.85882" lon="4.79215">
        <ele>498.409667</ele>
        <time>2021-07-10T21:53:08.140Z</time>
      </trkpt>
      <trkpt lat="45.85873" lon="4.79202">
        <ele>499.570799</ele>
        <time>2021-07-10T21:53:14.178Z</time>
      </trkpt>
      <trkpt lat="45.8587" lon="4.79196">
        <ele>500.098976</ele>
        <time>2021-07-10T21:53:16.730Z</time>
      </trkpt>
      <trkpt lat="45.85863" lon="4.79185">
        <ele>501.126322</ele>
        <time>2021-07-10T21:53:22.248Z</time>
      </trkpt>
      <trkpt lat="45.85862" lon="4.7917">
        <ele>502.196402</ele>
        <time>2021-07-10T21:53:28.493Z</time>
      </trkpt>
      <trkpt lat="45.85795" lon="4.78935">
        <ele>514.262884</ele>
        <time>2021-07-10T21:54:35.764Z</time>
      </trkpt>
      <trkpt lat="45.8578" lon="4.78888">
        <ele>516.475273</ele>
        <time>2021-07-10T21:54:49.885Z</time>
      </trkpt>
      <trkpt lat="45.8577" lon="4.78866">
        <ele>517.714443</ele>
        <time>2021-07-10T21:54:57.702Z</time>
      </trkpt>
      <trkpt lat="45.85758" lon="4.78844">
        <ele>519.101192</ele>
        <time>2021-07-10T21:55:05.532Z</time>
      </trkpt>
      <trkpt lat="45.8571" lon="4.78787">
        <ele>523.490375</ele>
        <time>2021-07-10T21:55:32.424Z</time>
      </trkpt>
      <trkpt lat="45.85687" lon="4.78759">
        <ele>525.598502</ele>
        <time>2021-07-10T21:55:46.124Z</time>
      </trkpt>
      <trkpt lat="45.85638" lon="4.78697">
        <ele>530.177569</ele>
        <time>2021-07-10T21:56:14.851Z</time>
      </trkpt>
      <trkpt lat="45.85609" lon="4.78664">
        <ele>532.765647</ele>
        <time>2021-07-10T21:56:31.451Z</time>
      </trkpt>
      <trkpt lat="45.85531" lon="4.78589">
        <ele>539.233257</ele>
        <time>2021-07-10T21:57:13.216Z</time>
      </trkpt>
      <trkpt lat="45.8551" lon="4.78571">
        <ele>540.905036</ele>
        <time>2021-07-10T21:57:22.441Z</time>
      </trkpt>
      <trkpt lat="45.85494" lon="4.7856">
        <ele>542.014907</ele>
        <time>2021-07-10T21:57:28.913Z</time>
      </trkpt>
      <trkpt lat="45.85459" lon="4.78533">
        <ele>544.174842</ele>
        <time>2021-07-10T21:57:42.976Z</time>
      </trkpt>
      <trkpt lat="45.85435" lon="4.78516">
        <ele>545.596536</ele>
        <time>2021-07-10T21:57:52.336Z</time>
      </trkpt>
      <trkpt lat="45.85393" lon="4.78497">
        <ele>547.967361</ele>
        <time>2021-07-10T21:58:07.783Z</time>
      </trkpt>
      <trkpt lat="45.85343" lon="4.78487">
        <ele>550.728421</ele>
        <time>2021-07-10T21:58:25.438Z</time>
      </trkpt>
      <trkpt lat="45.85319" lon="4.78466">
        <ele>552.594296</ele>
        <time>2021-07-10T21:58:35.656Z</time>
      </trkpt>
      <trkpt lat="45.85308" lon="4.78445">
        <ele>553.914178</ele>
        <time>2021-07-10T21:58:42.930Z</time>
      </trkpt>
      <trkpt lat="45.85274" lon="4.7838">
        <ele>558.04397</ele>
        <time>2021-07-10T21:59:07.414Z</time>
      </trkpt>
      <trkpt lat="45.85253" lon="4.78345">
        <ele>560.457359</ele>
        <time>2021-07-10T21:59:22.537Z</time>
      </trkpt>
      <trkpt lat="45.85225" lon="4.78309">
        <ele>563.216603</ele>
        <time>2021-07-10T21:59:40.880Z</time>
      </trkpt>
      <trkpt lat="45.85217" lon="4.78299">
        <ele>564.008901</ele>
        <time>2021-07-10T21:59:47.816Z</time>
      </trkpt>
      <trkpt lat="45.85199" lon="4.7828">
        <ele>565.507369</ele>
        <time>2021-07-10T21:59:56.657Z</time>
      </trkpt>
      <trkpt lat="45.85195" lon="4.78275">
        <ele>565.899227</ele>
        <time>2021-07-10T22:00:00.181Z</time>
      </trkpt>
      <trkpt lat="45.85183" lon="4.78266">
        <ele>566.779986</ele>
        <time>2021-07-10T22:00:07.870Z</time>
      </trkpt>
      <trkpt lat="45.85146" lon="4.78251">
        <ele>569.320452</ele>
        <time>2021-07-10T22:00:25.059Z</time>
      </trkpt>
      <trkpt lat="45.85111" lon="4.78254">
        <ele>571.618064</ele>
        <time>2021-07-10T22:00:40.307Z</time>
      </trkpt>
      <trkpt lat="45.85" lon="4.78326">
        <ele>578.432116</ele>
        <time>2021-07-10T22:01:21.279Z</time>
      </trkpt>
      <trkpt lat="45.84976" lon="4.7833">
        <ele>579.372334</ele>
        <time>2021-07-10T22:01:28.157Z</time>
      </trkpt>
      <trkpt lat="45.84953" lon="4.78319">
        <ele>580.346454</ele>
        <time>2021-07-10T22:01:35.941Z</time>
      </trkpt>
      <trkpt lat="45.84933" lon="4.78294">
        <ele>581.423326</ele>
        <time>2021-07-10T22:01:43.781Z</time>
      </trkpt>
      <trkpt lat="45.84925" lon="4.78278">
        <ele>581.979973</ele>
        <time>2021-07-10T22:01:47.536Z</time>
      </trkpt>
      <trkpt lat="45.84919" lon="4.78255">
        <ele>582.668935</ele>
        <time>2021-07-10T22:01:52.470Z</time>
      </trkpt>
      <trkpt lat="45.84922" lon="4.78222">
        <ele>583.595001</ele>
        <time>2021-07-10T22:01:59.157Z</time>
      </trkpt>
      <trkpt lat="45.84931" lon="4.78212">
        <ele>583.933112</ele>
        <time>2021-07-10T22:02:02.582Z</time>
      </trkpt>
      <trkpt lat="45.84938" lon="4.78209">
        <ele>584.141064</ele>
        <time>2021-07-10T22:02:05.780Z</time>
      </trkpt>
      <trkpt lat="45.84946" lon="4.78212">
        <ele>584.350993</ele>
        <time>2021-07-10T22:02:08.197Z</time>
      </trkpt>
      <trkpt lat="45.84972" lon="4.78262">
        <ele>585.478629</ele>
        <time>2021-07-10T22:02:19.859Z</time>
      </trkpt>
      <trkpt lat="45.8499" lon="4.78277">
        <ele>586.035356</ele>
        <time>2021-07-10T22:02:26.219Z</time>
      </trkpt>
      <trkpt lat="45.85006" lon="4.78268">
        <ele>586.47678</ele>
        <time>2021-07-10T22:02:30.002Z</time>
      </trkpt>
      <trkpt lat="45.85011" lon="4.78254">
        <ele>586.760688</ele>
        <time>2021-07-10T22:02:32.635Z</time>
      </trkpt>
      <trkpt lat="45.85001" lon="4.78225">
        <ele>587.352824</ele>
        <time>2021-07-10T22:02:38.049Z</time>
      </trkpt>
      <trkpt lat="45.84984" lon="4.78197">
        <ele>588.026911</ele>
        <time>2021-07-10T22:02:44.606Z</time>
      </trkpt>
      <trkpt lat="45.84974" lon="4.78182">
        <ele>588.3975</ele>
        <time>2021-07-10T22:02:46.757Z</time>
      </trkpt>
      <trkpt lat="45.84961" lon="4.78166">
        <ele>588.555627</ele>
        <time>2021-07-10T22:02:50.067Z</time>
      </trkpt>
      <trkpt lat="45.84959" lon="4.78163">
        <ele>588.583825</ele>
        <time>2021-07-10T22:02:50.737Z</time>
      </trkpt>
      <trkpt lat="45.84931" lon="4.78113">
        <ele>588.980956</ele>
        <time>2021-07-10T22:02:58.277Z</time>
      </trkpt>
      <trkpt lat="45.84922" lon="4.78101">
        <ele>589.089119</ele>
        <time>2021-07-10T22:03:00.127Z</time>
      </trkpt>
      <trkpt lat="45.84902" lon="4.78085">
        <ele>589.295854</ele>
        <time>2021-07-10T22:03:04.580Z</time>
      </trkpt>
      <trkpt lat="45.84899" lon="4.78083">
        <ele>589.32243</ele>
        <time>2021-07-10T22:03:04.889Z</time>
      </trkpt>
      <trkpt lat="45.84851" lon="4.78043">
        <ele>589.819634</ele>
        <time>2021-07-10T22:03:15.485Z</time>
      </trkpt>
      <trkpt lat="45.84807" lon="4.78021">
        <ele>589.70105</ele>
        <time>2021-07-10T22:03:24.638Z</time>
      </trkpt>
      <trkpt lat="45.84773" lon="4.78019">
        <ele>589.3015</ele>
        <time>2021-07-10T22:03:29.829Z</time>
      </trkpt>
      <trkpt lat="45.84689" lon="4.78029">
        <ele>588.311102</ele>
        <time>2021-07-10T22:03:39.917Z</time>
      </trkpt>
      <trkpt lat="45.84689" lon="4.78025">
        <ele>588.278202</ele>
        <time>2021-07-10T22:03:40.206Z</time>
      </trkpt>
      <trkpt lat="45.84689" lon="4.78022">
        <ele>588.244849</ele>
        <time>2021-07-10T22:03:40.498Z</time>
      </trkpt>
      <trkpt lat="45.84686" lon="4.78018">
        <ele>588.203679</ele>
        <time>2021-07-10T22:03:40.836Z</time>
      </trkpt>
      <trkpt lat="45.84684" lon="4.78016">
        <ele>588.170365</ele>
        <time>2021-07-10T22:03:41.126Z</time>
      </trkpt>
      <trkpt lat="45.8468" lon="4.78015">
        <ele>588.121967</ele>
        <time>2021-07-10T22:03:41.587Z</time>
      </trkpt>
      <trkpt lat="45.8468" lon="4.78003">
        <ele>588.022639</ele>
        <time>2021-07-10T22:03:42.445Z</time>
      </trkpt>
      <trkpt lat="45.8468" lon="4.77991">
        <ele>587.925771</ele>
        <time>2021-07-10T22:03:43.315Z</time>
      </trkpt>
      <trkpt lat="45.84682" lon="4.7798">
        <ele>587.601389</ele>
        <time>2021-07-10T22:03:44.119Z</time>
      </trkpt>
      <trkpt lat="45.84684" lon="4.77971">
        <ele>587.164585</ele>
        <time>2021-07-10T22:03:44.783Z</time>
      </trkpt>
      <trkpt lat="45.84693" lon="4.77948">
        <ele>586.06143</ele>
        <time>2021-07-10T22:03:46.543Z</time>
      </trkpt>
      <trkpt lat="45.84729" lon="4.77876">
        <ele>582.223357</ele>
        <time>2021-07-10T22:03:52.280Z</time>
      </trkpt>
      <trkpt lat="45.84735" lon="4.77856">
        <ele>581.298736</ele>
        <time>2021-07-10T22:03:53.634Z</time>
      </trkpt>
      <trkpt lat="45.84734" lon="4.77841">
        <ele>580.650947</ele>
        <time>2021-07-10T22:03:54.551Z</time>
      </trkpt>
      <trkpt lat="45.84729" lon="4.77832">
        <ele>580.161407</ele>
        <time>2021-07-10T22:03:55.251Z</time>
      </trkpt>
      <trkpt lat="45.84717" lon="4.77829">
        <ele>579.448919</ele>
        <time>2021-07-10T22:03:56.268Z</time>
      </trkpt>
      <trkpt lat="45.8471" lon="4.77833">
        <ele>578.95861</ele>
        <time>2021-07-10T22:03:56.964Z</time>
      </trkpt>
      <trkpt lat="45.84682" lon="4.77897">
        <ele>575.428335</ele>
        <time>2021-07-10T22:04:01.559Z</time>
      </trkpt>
      <trkpt lat="45.84666" lon="4.77922">
        <ele>573.497046</ele>
        <time>2021-07-10T22:04:03.710Z</time>
      </trkpt>
      <trkpt lat="45.84649" lon="4.77923">
        <ele>572.155957</ele>
        <time>2021-07-10T22:04:05.194Z</time>
      </trkpt>
      <trkpt lat="45.8464" lon="4.77904">
        <ele>570.88416</ele>
        <time>2021-07-10T22:04:06.623Z</time>
      </trkpt>
      <trkpt lat="45.84645" lon="4.77884">
        <ele>569.709522</ele>
        <time>2021-07-10T22:04:07.926Z</time>
      </trkpt>
      <trkpt lat="45.84682" lon="4.77833">
        <ele>565.641423</ele>
        <time>2021-07-10T22:04:12.463Z</time>
      </trkpt>
      <trkpt lat="45.84726" lon="4.77702">
        <ele>557.389237</ele>
        <time>2021-07-10T22:04:21.408Z</time>
      </trkpt>
      <trkpt lat="45.84724" lon="4.77659">
        <ele>554.902585</ele>
        <time>2021-07-10T22:04:24.078Z</time>
      </trkpt>
      <trkpt lat="45.84694" lon="4.7758">
        <ele>549.74708</ele>
        <time>2021-07-10T22:04:29.608Z</time>
      </trkpt>
      <trkpt lat="45.84686" lon="4.77568">
        <ele>548.758837</ele>
        <time>2021-07-10T22:04:30.665Z</time>
      </trkpt>
      <trkpt lat="45.84679" lon="4.77564">
        <ele>548.15381</ele>
        <time>2021-07-10T22:04:31.281Z</time>
      </trkpt>
      <trkpt lat="45.84666" lon="4.7756">
        <ele>547.022294</ele>
        <time>2021-07-10T22:04:32.457Z</time>
      </trkpt>
      <trkpt lat="45.84624" lon="4.77564">
        <ele>543.556056</ele>
        <time>2021-07-10T22:04:36.121Z</time>
      </trkpt>
      <trkpt lat="45.84542" lon="4.77599">
        <ele>536.5274</ele>
        <time>2021-07-10T22:04:43.586Z</time>
      </trkpt>
      <trkpt lat="45.84534" lon="4.77607">
        <ele>535.712934</ele>
        <time>2021-07-10T22:04:44.421Z</time>
      </trkpt>
      <trkpt lat="45.84528" lon="4.77616">
        <ele>534.973916</ele>
        <time>2021-07-10T22:04:45.211Z</time>
      </trkpt>
      <trkpt lat="45.84524" lon="4.77695">
        <ele>530.943805</ele>
        <time>2021-07-10T22:04:50.223Z</time>
      </trkpt>
      <trkpt lat="45.84518" lon="4.77729">
        <ele>529.38683</ele>
        <time>2021-07-10T22:04:52.391Z</time>
      </trkpt>
      <trkpt lat="45.84508" lon="4.77752">
        <ele>528.184411</ele>
        <time>2021-07-10T22:04:54.077Z</time>
      </trkpt>
      <trkpt lat="45.84415" lon="4.77833">
        <ele>521.22285</ele>
        <time>2021-07-10T22:05:04.087Z</time>
      </trkpt>
      <trkpt lat="45.84362" lon="4.77886">
        <ele>517.53295</ele>
        <time>2021-07-10T22:05:10.161Z</time>
      </trkpt>
      <trkpt lat="45.84347" lon="4.77883">
        <ele>516.703094</ele>
        <time>2021-07-10T22:05:11.517Z</time>
      </trkpt>
      <trkpt lat="45.8434" lon="4.77872">
        <ele>516.116387</ele>
        <time>2021-07-10T22:05:12.483Z</time>
      </trkpt>
      <trkpt lat="45.84337" lon="4.77853">
        <ele>515.320041</ele>
        <time>2021-07-10T22:05:13.784Z</time>
      </trkpt>
      <trkpt lat="45.84343" lon="4.77833">
        <ele>514.467532</ele>
        <time>2021-07-10T22:05:15.170Z</time>
      </trkpt>
      <trkpt lat="45.84378" lon="4.77799">
        <ele>512.065037</ele>
        <time>2021-07-10T22:05:19.057Z</time>
      </trkpt>
      <trkpt lat="45.84391" lon="4.77772">
        <ele>510.761104</ele>
        <time>2021-07-10T22:05:21.176Z</time>
      </trkpt>
      <trkpt lat="45.84387" lon="4.7774">
        <ele>509.47773</ele>
        <time>2021-07-10T22:05:23.277Z</time>
      </trkpt>
      <trkpt lat="45.84368" lon="4.77715">
        <ele>508.017882</ele>
        <time>2021-07-10T22:05:25.664Z</time>
      </trkpt>
      <trkpt lat="45.84352" lon="4.777">
        <ele>506.921179</ele>
        <time>2021-07-10T22:05:27.447Z</time>
      </trkpt>
      <trkpt lat="45.84321" lon="4.7768">
        <ele>505.029067</ele>
        <time>2021-07-10T22:05:30.534Z</time>
      </trkpt>
      <trkpt lat="45.84287" lon="4.77671">
        <ele>503.025481</ele>
        <time>2021-07-10T22:05:33.818Z</time>
      </trkpt>
      <trkpt lat="45.84224" lon="4.77679">
        <ele>499.684517</ele>
        <time>2021-07-10T22:05:39.675Z</time>
      </trkpt>
      <trkpt lat="45.84177" lon="4.77653">
        <ele>497.288098</ele>
        <time>2021-07-10T22:05:44.387Z</time>
      </trkpt>
      <trkpt lat="45.84166" lon="4.77655">
        <ele>496.786735</ele>
        <time>2021-07-10T22:05:45.391Z</time>
      </trkpt>
      <trkpt lat="45.84158" lon="4.77684">
        <ele>495.75705</ele>
        <time>2021-07-10T22:05:47.464Z</time>
      </trkpt>
      <trkpt lat="45.84163" lon="4.77698">
        <ele>495.229385</ele>
        <time>2021-07-10T22:05:48.556Z</time>
      </trkpt>
      <trkpt lat="45.84163" lon="4.77698">
        <ele>495.229385</ele>
        <time>2021-07-10T22:05:48.559Z</time>
      </trkpt>
      <trkpt lat="45.84172" lon="4.77706">
        <ele>494.744931</ele>
        <time>2021-07-10T22:05:49.514Z</time>
      </trkpt>
      <trkpt lat="45.84213" lon="4.77721">
        <ele>492.728351</ele>
        <time>2021-07-10T22:05:53.618Z</time>
      </trkpt>
      <trkpt lat="45.84225" lon="4.77737">
        <ele>491.944529</ele>
        <time>2021-07-10T22:05:55.359Z</time>
      </trkpt>
      <trkpt lat="45.8423" lon="4.77748">
        <ele>491.542177</ele>
        <time>2021-07-10T22:05:56.199Z</time>
      </trkpt>
      <trkpt lat="45.84232" lon="4.77759">
        <ele>491.153918</ele>
        <time>2021-07-10T22:05:57.007Z</time>
      </trkpt>
      <trkpt lat="45.84226" lon="4.77791">
        <ele>490.101788</ele>
        <time>2021-07-10T22:05:59.392Z</time>
      </trkpt>
      <trkpt lat="45.8418" lon="4.77847">
        <ele>487.349849</ele>
        <time>2021-07-10T22:06:05.177Z</time>
      </trkpt>
      <trkpt lat="45.84132" lon="4.77932">
        <ele>483.836024</ele>
        <time>2021-07-10T22:06:12.340Z</time>
      </trkpt>
      <trkpt lat="45.84122" lon="4.77941">
        <ele>483.163367</ele>
        <time>2021-07-10T22:06:13.406Z</time>
      </trkpt>
      <trkpt lat="45.8411" lon="4.77942">
        <ele>482.496418</ele>
        <time>2021-07-10T22:06:14.604Z</time>
      </trkpt>
      <trkpt lat="45.84102" lon="4.77937">
        <ele>481.981285</ele>
        <time>2021-07-10T22:06:15.488Z</time>
      </trkpt>
      <trkpt lat="45.84096" lon="4.77927">
        <ele>481.451869</ele>
        <time>2021-07-10T22:06:16.288Z</time>
      </trkpt>
      <trkpt lat="45.84092" lon="4.77914">
        <ele>480.869608</ele>
        <time>2021-07-10T22:06:17.326Z</time>
      </trkpt>
      <trkpt lat="45.84094" lon="4.77898">
        <ele>480.22824</ele>
        <time>2021-07-10T22:06:18.438Z</time>
      </trkpt>
      <trkpt lat="45.84114" lon="4.77858">
        <ele>478.286908</ele>
        <time>2021-07-10T22:06:21.586Z</time>
      </trkpt>
      <trkpt lat="45.84124" lon="4.77796">
        <ele>475.767611</ele>
        <time>2021-07-10T22:06:25.657Z</time>
      </trkpt>
      <trkpt lat="45.84123" lon="4.7778">
        <ele>475.153155</ele>
        <time>2021-07-10T22:06:26.597Z</time>
      </trkpt>
      <trkpt lat="45.84119" lon="4.77763">
        <ele>474.412185</ele>
        <time>2021-07-10T22:06:27.942Z</time>
      </trkpt>
      <trkpt lat="45.84103" lon="4.77749">
        <ele>473.289041</ele>
        <time>2021-07-10T22:06:29.585Z</time>
      </trkpt>
      <trkpt lat="45.84084" lon="4.77756">
        <ele>472.009587</ele>
        <time>2021-07-10T22:06:31.461Z</time>
      </trkpt>
      <trkpt lat="45.84076" lon="4.77775">
        <ele>470.993528</ele>
        <time>2021-07-10T22:06:32.871Z</time>
      </trkpt>
      <trkpt lat="45.84054" lon="4.77873">
        <ele>466.353187</ele>
        <time>2021-07-10T22:06:39.444Z</time>
      </trkpt>
      <trkpt lat="45.84044" lon="4.77901">
        <ele>464.85987</ele>
        <time>2021-07-10T22:06:41.549Z</time>
      </trkpt>
      <trkpt lat="45.84036" lon="4.77908">
        <ele>464.303148</ele>
        <time>2021-07-10T22:06:42.309Z</time>
      </trkpt>
      <trkpt lat="45.84021" lon="4.77907">
        <ele>463.291498</ele>
        <time>2021-07-10T22:06:43.694Z</time>
      </trkpt>
      <trkpt lat="45.84015" lon="4.77902">
        <ele>462.819208</ele>
        <time>2021-07-10T22:06:44.357Z</time>
      </trkpt>
      <trkpt lat="45.84012" lon="4.77897">
        <ele>462.514018</ele>
        <time>2021-07-10T22:06:44.777Z</time>
      </trkpt>
      <trkpt lat="45.84009" lon="4.77891">
        <ele>462.200617</ele>
        <time>2021-07-10T22:06:45.205Z</time>
      </trkpt>
      <trkpt lat="45.84008" lon="4.77882">
        <ele>461.681586</ele>
        <time>2021-07-10T22:06:45.750Z</time>
      </trkpt>
      <trkpt lat="45.84008" lon="4.77873">
        <ele>461.115446</ele>
        <time>2021-07-10T22:06:46.287Z</time>
      </trkpt>
      <trkpt lat="45.84026" lon="4.77821">
        <ele>457.441783</ele>
        <time>2021-07-10T22:06:49.895Z</time>
      </trkpt>
      <trkpt lat="45.84019" lon="4.77799">
        <ele>455.874468</ele>
        <time>2021-07-10T22:06:51.431Z</time>
      </trkpt>
      <trkpt lat="45.8401" lon="4.77795">
        <ele>455.028967</ele>
        <time>2021-07-10T22:06:52.235Z</time>
      </trkpt>
      <trkpt lat="45.8395" lon="4.77797">
        <ele>449.603297</ele>
        <time>2021-07-10T22:06:57.425Z</time>
      </trkpt>
      <trkpt lat="45.83872" lon="4.77803">
        <ele>442.778902</ele>
        <time>2021-07-10T22:07:04.154Z</time>
      </trkpt>
      <trkpt lat="45.83852" lon="4.77798">
        <ele>441.09191</ele>
        <time>2021-07-10T22:07:05.876Z</time>
      </trkpt>
      <trkpt lat="45.83823" lon="4.77757">
        <ele>437.639011</ele>
        <time>2021-07-10T22:07:09.430Z</time>
      </trkpt>
      <trkpt lat="45.83776" lon="4.77576">
        <ele>430.135321</ele>
        <time>2021-07-10T22:07:21.528Z</time>
      </trkpt>
      <trkpt lat="45.8377" lon="4.77514">
        <ele>429.682463</ele>
        <time>2021-07-10T22:07:26.354Z</time>
      </trkpt>
      <trkpt lat="45.83765" lon="4.77496">
        <ele>429.538686</ele>
        <time>2021-07-10T22:07:28.205Z</time>
      </trkpt>
      <trkpt lat="45.83755" lon="4.77485">
        <ele>429.403432</ele>
        <time>2021-07-10T22:07:29.675Z</time>
      </trkpt>
      <trkpt lat="45.8376" lon="4.77519">
        <ele>429.15093</ele>
        <time>2021-07-10T22:07:34.924Z</time>
      </trkpt>
      <trkpt lat="45.83765" lon="4.77712">
        <ele>435.832323</ele>
        <time>2021-07-10T22:08:28.568Z</time>
      </trkpt>
      <trkpt lat="45.83789" lon="4.77832">
        <ele>441.794083</ele>
        <time>2021-07-10T22:09:11.520Z</time>
      </trkpt>
      <trkpt lat="45.83789" lon="4.77838">
        <ele>441.994024</ele>
        <time>2021-07-10T22:09:15.505Z</time>
      </trkpt>
      <trkpt lat="45.83787" lon="4.77842">
        <ele>442.183988</ele>
        <time>2021-07-10T22:09:17.746Z</time>
      </trkpt>
      <trkpt lat="45.83773" lon="4.77853">
        <ele>443.064368</ele>
        <time>2021-07-10T22:09:22.959Z</time>
      </trkpt>
      <trkpt lat="45.83762" lon="4.77853">
        <ele>443.614866</ele>
        <time>2021-07-10T22:09:26.419Z</time>
      </trkpt>
      <trkpt lat="45.83702" lon="4.77831">
        <ele>446.954663</ele>
        <time>2021-07-10T22:09:53.898Z</time>
      </trkpt>
      <trkpt lat="45.83661" lon="4.77823">
        <ele>449.200477</ele>
        <time>2021-07-10T22:10:06.472Z</time>
      </trkpt>
      <trkpt lat="45.83648" lon="4.77824">
        <ele>449.886735</ele>
        <time>2021-07-10T22:10:13.501Z</time>
      </trkpt>
      <trkpt lat="45.83635" lon="4.77831">
        <ele>450.681759</ele>
        <time>2021-07-10T22:10:15.230Z</time>
      </trkpt>
      <trkpt lat="45.83613" lon="4.77843">
        <ele>450.814484</ele>
        <time>2021-07-10T22:10:18.382Z</time>
      </trkpt>
      <trkpt lat="45.83582" lon="4.77861">
        <ele>450.231869</ele>
        <time>2021-07-10T22:10:22.335Z</time>
      </trkpt>
      <trkpt lat="45.83548" lon="4.77865">
        <ele>449.646909</ele>
        <time>2021-07-10T22:10:25.943Z</time>
      </trkpt>
      <trkpt lat="45.83525" lon="4.77868">
        <ele>449.250053</ele>
        <time>2021-07-10T22:10:28.256Z</time>
      </trkpt>
      <trkpt lat="45.83463" lon="4.77873">
        <ele>448.18612</ele>
        <time>2021-07-10T22:10:35.055Z</time>
      </trkpt>
      <trkpt lat="45.83435" lon="4.77905">
        <ele>447.325056</ele>
        <time>2021-07-10T22:10:38.634Z</time>
      </trkpt>
      <trkpt lat="45.83427" lon="4.77925">
        <ele>446.878305</ele>
        <time>2021-07-10T22:10:40.145Z</time>
      </trkpt>
      <trkpt lat="45.83423" lon="4.77943">
        <ele>446.515611</ele>
        <time>2021-07-10T22:10:41.702Z</time>
      </trkpt>
      <trkpt lat="45.83408" lon="4.78009">
        <ele>445.202917</ele>
        <time>2021-07-10T22:10:46.478Z</time>
      </trkpt>
      <trkpt lat="45.83398" lon="4.78028">
        <ele>444.738981</ele>
        <time>2021-07-10T22:10:48.205Z</time>
      </trkpt>
      <trkpt lat="45.83343" lon="4.78056">
        <ele>443.145666</ele>
        <time>2021-07-10T22:10:54.419Z</time>
      </trkpt>
      <trkpt lat="45.83307" lon="4.78075">
        <ele>443.228131</ele>
        <time>2021-07-10T22:10:58.892Z</time>
      </trkpt>
      <trkpt lat="45.83249" lon="4.78133">
        <ele>443.582232</ele>
        <time>2021-07-10T22:11:09.843Z</time>
      </trkpt>
      <trkpt lat="45.8324" lon="4.78157">
        <ele>443.680798</ele>
        <time>2021-07-10T22:11:13.921Z</time>
      </trkpt>
      <trkpt lat="45.83253" lon="4.7823">
        <ele>443.948107</ele>
        <time>2021-07-10T22:11:25.961Z</time>
      </trkpt>
      <trkpt lat="45.83262" lon="4.78294">
        <ele>445.195193</ele>
        <time>2021-07-10T22:11:37.615Z</time>
      </trkpt>
      <trkpt lat="45.83267" lon="4.78325">
        <ele>445.816164</ele>
        <time>2021-07-10T22:11:43.802Z</time>
      </trkpt>
      <trkpt lat="45.83261" lon="4.78359">
        <ele>446.503625</ele>
        <time>2021-07-10T22:11:50.385Z</time>
      </trkpt>
      <trkpt lat="45.83232" lon="4.78443">
        <ele>448.388318</ele>
        <time>2021-07-10T22:12:09.457Z</time>
      </trkpt>
      <trkpt lat="45.83198" lon="4.78474">
        <ele>449.366313</ele>
        <time>2021-07-10T22:12:19.926Z</time>
      </trkpt>
      <trkpt lat="45.83168" lon="4.78516">
        <ele>450.075387</ele>
        <time>2021-07-10T22:12:28.520Z</time>
      </trkpt>
      <trkpt lat="45.83129" lon="4.78539">
        <ele>450.791653</ele>
        <time>2021-07-10T22:12:36.462Z</time>
      </trkpt>
      <trkpt lat="45.83099" lon="4.78571">
        <ele>451.415058</ele>
        <time>2021-07-10T22:12:44.307Z</time>
      </trkpt>
      <trkpt lat="45.83089" lon="4.78587">
        <ele>451.677949</ele>
        <time>2021-07-10T22:12:47.037Z</time>
      </trkpt>
      <trkpt lat="45.83072" lon="4.78618">
        <ele>452.13747</ele>
        <time>2021-07-10T22:12:53.220Z</time>
      </trkpt>
      <trkpt lat="45.83054" lon="4.78654">
        <ele>452.45135</ele>
        <time>2021-07-10T22:13:00.367Z</time>
      </trkpt>
      <trkpt lat="45.83047" lon="4.78668">
        <ele>452.570314</ele>
        <time>2021-07-10T22:13:02.539Z</time>
      </trkpt>
      <trkpt lat="45.83014" lon="4.78739">
        <ele>453.176105</ele>
        <time>2021-07-10T22:13:15.564Z</time>
      </trkpt>
      <trkpt lat="45.82978" lon="4.78792">
        <ele>453.694605</ele>
        <time>2021-07-10T22:13:23.837Z</time>
      </trkpt>
      <trkpt lat="45.82938" lon="4.7883">
        <ele>453.439645</ele>
        <time>2021-07-10T22:13:31.896Z</time>
      </trkpt>
      <trkpt lat="45.82933" lon="4.78836">
        <ele>453.27468</ele>
        <time>2021-07-10T22:13:32.938Z</time>
      </trkpt>
      <trkpt lat="45.82924" lon="4.78842">
        <ele>453.030444</ele>
        <time>2021-07-10T22:13:34.151Z</time>
      </trkpt>
      <trkpt lat="45.82883" lon="4.78862">
        <ele>451.952355</ele>
        <time>2021-07-10T22:13:39.109Z</time>
      </trkpt>
      <trkpt lat="45.82732" lon="4.78975">
        <ele>446.228547</ele>
        <time>2021-07-10T22:13:55.692Z</time>
      </trkpt>
      <trkpt lat="45.8272" lon="4.78996">
        <ele>445.378473</ele>
        <time>2021-07-10T22:13:57.494Z</time>
      </trkpt>
      <trkpt lat="45.82692" lon="4.79081">
        <ele>442.35974</ele>
        <time>2021-07-10T22:14:03.823Z</time>
      </trkpt>
      <trkpt lat="45.82689" lon="4.791">
        <ele>441.760061</ele>
        <time>2021-07-10T22:14:05.043Z</time>
      </trkpt>
      <trkpt lat="45.82681" lon="4.79101">
        <ele>441.404067</ele>
        <time>2021-07-10T22:14:05.750Z</time>
      </trkpt>
      <trkpt lat="45.82619" lon="4.79122">
        <ele>437.934801</ele>
        <time>2021-07-10T22:14:11.689Z</time>
      </trkpt>
      <trkpt lat="45.82546" lon="4.79137">
        <ele>433.927125</ele>
        <time>2021-07-10T22:14:18.505Z</time>
      </trkpt>
      <trkpt lat="45.82533" lon="4.79144">
        <ele>433.156415</ele>
        <time>2021-07-10T22:14:19.810Z</time>
      </trkpt>
      <trkpt lat="45.82525" lon="4.79147">
        <ele>432.733416</ele>
        <time>2021-07-10T22:14:20.506Z</time>
      </trkpt>
      <trkpt lat="45.82457" lon="4.79163">
        <ele>428.951285</ele>
        <time>2021-07-10T22:14:26.978Z</time>
      </trkpt>
      <trkpt lat="45.82422" lon="4.7918">
        <ele>426.901065</ele>
        <time>2021-07-10T22:14:30.424Z</time>
      </trkpt>
      <trkpt lat="45.8239" lon="4.79197">
        <ele>425.002123</ele>
        <time>2021-07-10T22:14:33.607Z</time>
      </trkpt>
      <trkpt lat="45.82383" lon="4.79201">
        <ele>424.567114</ele>
        <time>2021-07-10T22:14:34.323Z</time>
      </trkpt>
      <trkpt lat="45.82306" lon="4.79239">
        <ele>419.820157</ele>
        <time>2021-07-10T22:14:41.859Z</time>
      </trkpt>
      <trkpt lat="45.82249" lon="4.79259">
        <ele>415.930918</ele>
        <time>2021-07-10T22:14:47.221Z</time>
      </trkpt>
      <trkpt lat="45.82192" lon="4.79273">
        <ele>412.145352</ele>
        <time>2021-07-10T22:14:52.408Z</time>
      </trkpt>
      <trkpt lat="45.82132" lon="4.79308">
        <ele>407.742741</ele>
        <time>2021-07-10T22:14:58.213Z</time>
      </trkpt>
      <trkpt lat="45.82078" lon="4.79334">
        <ele>403.671227</ele>
        <time>2021-07-10T22:15:03.227Z</time>
      </trkpt>
      <trkpt lat="45.82024" lon="4.79366">
        <ele>399.469787</ele>
        <time>2021-07-10T22:15:08.481Z</time>
      </trkpt>
      <trkpt lat="45.82013" lon="4.79379">
        <ele>398.428677</ele>
        <time>2021-07-10T22:15:09.775Z</time>
      </trkpt>
      <trkpt lat="45.82009" lon="4.79386">
        <ele>397.958639</ele>
        <time>2021-07-10T22:15:10.343Z</time>
      </trkpt>
      <trkpt lat="45.82007" lon="4.79385">
        <ele>397.783675</ele>
        <time>2021-07-10T22:15:10.576Z</time>
      </trkpt>
      <trkpt lat="45.82004" lon="4.79384">
        <ele>397.604025</ele>
        <time>2021-07-10T22:15:10.807Z</time>
      </trkpt>
      <trkpt lat="45.82001" lon="4.79386">
        <ele>397.39419</ele>
        <time>2021-07-10T22:15:11.076Z</time>
      </trkpt>
      <trkpt lat="45.81999" lon="4.79393">
        <ele>396.983787</ele>
        <time>2021-07-10T22:15:11.630Z</time>
      </trkpt>
      <trkpt lat="45.81999" lon="4.79397">
        <ele>396.774061</ele>
        <time>2021-07-10T22:15:11.901Z</time>
      </trkpt>
      <trkpt lat="45.81994" lon="4.79401">
        <ele>396.40152</ele>
        <time>2021-07-10T22:15:12.410Z</time>
      </trkpt>
      <trkpt lat="45.81861" lon="4.79456">
        <ele>387.793878</ele>
        <time>2021-07-10T22:15:24.946Z</time>
      </trkpt>
      <trkpt lat="45.81825" lon="4.79467">
        <ele>385.502345</ele>
        <time>2021-07-10T22:15:28.374Z</time>
      </trkpt>
      <trkpt lat="45.81815" lon="4.79473">
        <ele>384.942803</ele>
        <time>2021-07-10T22:15:29.387Z</time>
      </trkpt>
      <trkpt lat="45.81811" lon="4.79475">
        <ele>384.717656</ele>
        <time>2021-07-10T22:15:29.816Z</time>
      </trkpt>
      <trkpt lat="45.81797" lon="4.79482">
        <ele>383.98156</ele>
        <time>2021-07-10T22:15:31.186Z</time>
      </trkpt>
      <trkpt lat="45.81758" lon="4.79501">
        <ele>381.84543</ele>
        <time>2021-07-10T22:15:35.207Z</time>
      </trkpt>
      <trkpt lat="45.8175" lon="4.79508">
        <ele>381.342032</ele>
        <time>2021-07-10T22:15:36.120Z</time>
      </trkpt>
      <trkpt lat="45.81733" lon="4.79539">
        <ele>379.945395</ele>
        <time>2021-07-10T22:15:38.703Z</time>
      </trkpt>
      <trkpt lat="45.81712" lon="4.79563">
        <ele>378.576165</ele>
        <time>2021-07-10T22:15:41.127Z</time>
      </trkpt>
      <trkpt lat="45.81681" lon="4.79586">
        <ele>376.776097</ele>
        <time>2021-07-10T22:15:44.388Z</time>
      </trkpt>
      <trkpt lat="45.81623" lon="4.79628">
        <ele>373.471972</ele>
        <time>2021-07-10T22:15:50.564Z</time>
      </trkpt>
      <trkpt lat="45.8162" lon="4.79631">
        <ele>373.277493</ele>
        <time>2021-07-10T22:15:50.898Z</time>
      </trkpt>
      <trkpt lat="45.81601" lon="4.79649">
        <ele>372.104124</ele>
        <time>2021-07-10T22:15:53.145Z</time>
      </trkpt>
      <trkpt lat="45.81589" lon="4.7966">
        <ele>371.402519</ele>
        <time>2021-07-10T22:15:54.401Z</time>
      </trkpt>
      <trkpt lat="45.81462" lon="4.79716">
        <ele>364.634822</ele>
        <time>2021-07-10T22:16:06.888Z</time>
      </trkpt>
      <trkpt lat="45.81427" lon="4.79739">
        <ele>362.667133</ele>
        <time>2021-07-10T22:16:10.584Z</time>
      </trkpt>
      <trkpt lat="45.81292" lon="4.79763">
        <ele>355.408197</ele>
        <time>2021-07-10T22:16:23.372Z</time>
      </trkpt>
      <trkpt lat="45.81272" lon="4.79773">
        <ele>354.193657</ele>
        <time>2021-07-10T22:16:25.254Z</time>
      </trkpt>
      <trkpt lat="45.81242" lon="4.79791">
        <ele>352.298396</ele>
        <time>2021-07-10T22:16:28.281Z</time>
      </trkpt>
      <trkpt lat="45.81179" lon="4.79822">
        <ele>348.444723</ele>
        <time>2021-07-10T22:16:34.382Z</time>
      </trkpt>
      <trkpt lat="45.81171" lon="4.79825">
        <ele>347.961738</ele>
        <time>2021-07-10T22:16:35.114Z</time>
      </trkpt>
      <trkpt lat="45.81152" lon="4.79826">
        <ele>346.842489</ele>
        <time>2021-07-10T22:16:36.916Z</time>
      </trkpt>
      <trkpt lat="45.81136" lon="4.79826">
        <ele>345.988398</ele>
        <time>2021-07-10T22:16:38.281Z</time>
      </trkpt>
      <trkpt lat="45.81128" lon="4.79826">
        <ele>345.535918</ele>
        <time>2021-07-10T22:16:39.015Z</time>
      </trkpt>
      <trkpt lat="45.81088" lon="4.79828">
        <ele>343.233851</ele>
        <time>2021-07-10T22:16:42.767Z</time>
      </trkpt>
      <trkpt lat="45.81084" lon="4.79828">
        <ele>343.007379</ele>
        <time>2021-07-10T22:16:43.143Z</time>
      </trkpt>
      <trkpt lat="45.81077" lon="4.7983">
        <ele>342.608293</ele>
        <time>2021-07-10T22:16:43.805Z</time>
      </trkpt>
      <trkpt lat="45.8102" lon="4.79841">
        <ele>339.384466</ele>
        <time>2021-07-10T22:16:49.103Z</time>
      </trkpt>
      <trkpt lat="45.81012" lon="4.79838">
        <ele>338.895397</ele>
        <time>2021-07-10T22:16:49.885Z</time>
      </trkpt>
      <trkpt lat="45.81012" lon="4.79834">
        <ele>338.737348</ele>
        <time>2021-07-10T22:16:50.145Z</time>
      </trkpt>
      <trkpt lat="45.81006" lon="4.79826">
        <ele>338.268559</ele>
        <time>2021-07-10T22:16:50.955Z</time>
      </trkpt>
      <trkpt lat="45.81005" lon="4.79826">
        <ele>338.195056</ele>
        <time>2021-07-10T22:16:51.075Z</time>
      </trkpt>
      <trkpt lat="45.81002" lon="4.79827">
        <ele>338.030914</ele>
        <time>2021-07-10T22:16:51.354Z</time>
      </trkpt>
      <trkpt lat="45.80999" lon="4.79833">
        <ele>337.73224</ele>
        <time>2021-07-10T22:16:51.872Z</time>
      </trkpt>
      <trkpt lat="45.80999" lon="4.79834">
        <ele>337.692425</ele>
        <time>2021-07-10T22:16:51.940Z</time>
      </trkpt>
      <trkpt lat="45.80991" lon="4.79832">
        <ele>337.265167</ele>
        <time>2021-07-10T22:16:52.659Z</time>
      </trkpt>
      <trkpt lat="45.80979" lon="4.79831">
        <ele>336.672294</ele>
        <time>2021-07-10T22:16:53.767Z</time>
      </trkpt>
      <trkpt lat="45.80969" lon="4.79834">
        <ele>336.176793</ele>
        <time>2021-07-10T22:16:54.778Z</time>
      </trkpt>
      <trkpt lat="45.8096" lon="4.79837">
        <ele>335.765575</ele>
        <time>2021-07-10T22:16:55.613Z</time>
      </trkpt>
      <trkpt lat="45.80935" lon="4.79845">
        <ele>334.529521</ele>
        <time>2021-07-10T22:16:57.987Z</time>
      </trkpt>
      <trkpt lat="45.80887" lon="4.79861">
        <ele>332.097553</ele>
        <time>2021-07-10T22:17:02.870Z</time>
      </trkpt>
      <trkpt lat="45.80884" lon="4.79862">
        <ele>331.988108</ele>
        <time>2021-07-10T22:17:03.063Z</time>
      </trkpt>
      <trkpt lat="45.80867" lon="4.79896">
        <ele>330.548937</ele>
        <time>2021-07-10T22:17:05.907Z</time>
      </trkpt>
      <trkpt lat="45.80864" lon="4.79901">
        <ele>330.329421</ele>
        <time>2021-07-10T22:17:06.334Z</time>
      </trkpt>
      <trkpt lat="45.8086" lon="4.7991">
        <ele>329.960028</ele>
        <time>2021-07-10T22:17:07.031Z</time>
      </trkpt>
      <trkpt lat="45.80796" lon="4.80041">
        <ele>323.825009</ele>
        <time>2021-07-10T22:17:17.569Z</time>
      </trkpt>
      <trkpt lat="45.80784" lon="4.80059">
        <ele>322.855199</ele>
        <time>2021-07-10T22:17:19.153Z</time>
      </trkpt>
      <trkpt lat="45.80775" lon="4.80069">
        <ele>322.178439</ele>
        <time>2021-07-10T22:17:20.241Z</time>
      </trkpt>
      <trkpt lat="45.80707" lon="4.80111">
        <ele>317.851214</ele>
        <time>2021-07-10T22:17:26.992Z</time>
      </trkpt>
      <trkpt lat="45.80663" lon="4.80134">
        <ele>314.577344</ele>
        <time>2021-07-10T22:17:31.155Z</time>
      </trkpt>
      <trkpt lat="45.80611" lon="4.80148">
        <ele>310.842575</ele>
        <time>2021-07-10T22:17:35.893Z</time>
      </trkpt>
      <trkpt lat="45.80556" lon="4.80162">
        <ele>306.975818</ele>
        <time>2021-07-10T22:17:40.827Z</time>
      </trkpt>
      <trkpt lat="45.80439" lon="4.80213">
        <ele>299.127994</ele>
        <time>2021-07-10T22:17:51.957Z</time>
      </trkpt>
      <trkpt lat="45.80365" lon="4.80214">
        <ele>294.455721</ele>
        <time>2021-07-10T22:17:58.771Z</time>
      </trkpt>
      <trkpt lat="45.8027" lon="4.80254">
        <ele>289.541943</ele>
        <time>2021-07-10T22:18:07.936Z</time>
      </trkpt>
      <trkpt lat="45.80246" lon="4.80265">
        <ele>288.299849</ele>
        <time>2021-07-10T22:18:10.305Z</time>
      </trkpt>
      <trkpt lat="45.80236" lon="4.80269">
        <ele>287.763838</ele>
        <time>2021-07-10T22:18:11.373Z</time>
      </trkpt>
      <trkpt lat="45.80201" lon="4.8028">
        <ele>285.980572</ele>
        <time>2021-07-10T22:18:14.797Z</time>
      </trkpt>
      <trkpt lat="45.80183" lon="4.80286">
        <ele>285.170387</ele>
        <time>2021-07-10T22:18:16.595Z</time>
      </trkpt>
      <trkpt lat="45.80083" lon="4.80311">
        <ele>281.419628</ele>
        <time>2021-07-10T22:18:26.648Z</time>
      </trkpt>
      <trkpt lat="45.8007" lon="4.80314">
        <ele>280.92774</ele>
        <time>2021-07-10T22:18:28.011Z</time>
      </trkpt>
      <trkpt lat="45.8006" lon="4.80316">
        <ele>280.583303</ele>
        <time>2021-07-10T22:18:28.900Z</time>
      </trkpt>
      <trkpt lat="45.79974" lon="4.80346">
        <ele>277.391794</ele>
        <time>2021-07-10T22:18:37.913Z</time>
      </trkpt>
      <trkpt lat="45.7993" lon="4.80374">
        <ele>275.693721</ele>
        <time>2021-07-10T22:18:42.646Z</time>
      </trkpt>
      <trkpt lat="45.79914" lon="4.8038">
        <ele>275.131498</ele>
        <time>2021-07-10T22:18:44.227Z</time>
      </trkpt>
      <trkpt lat="45.79851" lon="4.80391">
        <ele>272.883683</ele>
        <time>2021-07-10T22:18:50.693Z</time>
      </trkpt>
      <trkpt lat="45.79838" lon="4.80383">
        <ele>272.399279</ele>
        <time>2021-07-10T22:18:52.122Z</time>
      </trkpt>
      <trkpt lat="45.79833" lon="4.80376">
        <ele>272.176348</ele>
        <time>2021-07-10T22:18:52.750Z</time>
      </trkpt>
      <trkpt lat="45.79835" lon="4.80369">
        <ele>272.008342</ele>
        <time>2021-07-10T22:18:53.277Z</time>
      </trkpt>
      <trkpt lat="45.79834" lon="4.80359">
        <ele>271.759431</ele>
        <time>2021-07-10T22:18:54.032Z</time>
      </trkpt>
      <trkpt lat="45.79826" lon="4.8035">
        <ele>271.403986</ele>
        <time>2021-07-10T22:18:55.061Z</time>
      </trkpt>
      <trkpt lat="45.79823" lon="4.8035">
        <ele>271.309492</ele>
        <time>2021-07-10T22:18:55.350Z</time>
      </trkpt>
      <trkpt lat="45.79818" lon="4.80351">
        <ele>271.147954</ele>
        <time>2021-07-10T22:18:55.827Z</time>
      </trkpt>
      <trkpt lat="45.79815" lon="4.80354">
        <ele>271.029977</ele>
        <time>2021-07-10T22:18:56.162Z</time>
      </trkpt>
      <trkpt lat="45.79813" lon="4.80358">
        <ele>270.890883</ele>
        <time>2021-07-10T22:18:56.584Z</time>
      </trkpt>
      <trkpt lat="45.79807" lon="4.80354">
        <ele>270.674703</ele>
        <time>2021-07-10T22:18:57.255Z</time>
      </trkpt>
      <trkpt lat="45.79773" lon="4.80342">
        <ele>269.495755</ele>
        <time>2021-07-10T22:19:00.851Z</time>
      </trkpt>
      <trkpt lat="45.79759" lon="4.80343">
        <ele>269.009096</ele>
        <time>2021-07-10T22:19:02.414Z</time>
      </trkpt>
      <trkpt lat="45.79748" lon="4.80337">
        <ele>268.629334</ele>
        <time>2021-07-10T22:19:04.049Z</time>
      </trkpt>
      <trkpt lat="45.79729" lon="4.80345">
        <ele>267.931837</ele>
        <time>2021-07-10T22:19:07.200Z</time>
      </trkpt>
      <trkpt lat="45.79723" lon="4.80344">
        <ele>267.74575</ele>
        <time>2021-07-10T22:19:07.981Z</time>
      </trkpt>
      <trkpt lat="45.79699" lon="4.80334">
        <ele>266.891881</ele>
        <time>2021-07-10T22:19:11.644Z</time>
      </trkpt>
      <trkpt lat="45.79682" lon="4.80335">
        <ele>266.176721</ele>
        <time>2021-07-10T22:19:13.915Z</time>
      </trkpt>
      <trkpt lat="45.7962" lon="4.8036">
        <ele>261.810585</ele>
        <time>2021-07-10T22:19:22.589Z</time>
      </trkpt>
      <trkpt lat="45.79599" lon="4.80363">
        <ele>260.35203</ele>
        <time>2021-07-10T22:19:25.430Z</time>
      </trkpt>
      <trkpt lat="45.79565" lon="4.80366">
        <ele>258.012227</ele>
        <time>2021-07-10T22:19:29.844Z</time>
      </trkpt>
      <trkpt lat="45.79556" lon="4.80366">
        <ele>257.407843</ele>
        <time>2021-07-10T22:19:30.976Z</time>
      </trkpt>
      <trkpt lat="45.79514" lon="4.80364">
        <ele>254.569246</ele>
        <time>2021-07-10T22:19:36.144Z</time>
      </trkpt>
      <trkpt lat="45.79494" lon="4.80361">
        <ele>252.232213</ele>
        <time>2021-07-10T22:19:38.626Z</time>
      </trkpt>
      <trkpt lat="45.79431" lon="4.80384">
        <ele>243.909949</ele>
        <time>2021-07-10T22:19:46.381Z</time>
      </trkpt>
      <trkpt lat="45.794" lon="4.80371">
        <ele>239.784199</ele>
        <time>2021-07-10T22:19:50.185Z</time>
      </trkpt>
      <trkpt lat="45.7937" lon="4.80348">
        <ele>235.509645</ele>
        <time>2021-07-10T22:19:54.082Z</time>
      </trkpt>
      <trkpt lat="45.79278" lon="4.80234">
        <ele>220.775055</ele>
        <time>2021-07-10T22:20:08.341Z</time>
      </trkpt>
      <trkpt lat="45.79261" lon="4.80224">
        <ele>218.578406</ele>
        <time>2021-07-10T22:20:10.665Z</time>
      </trkpt>
      <trkpt lat="45.7925" lon="4.80226">
        <ele>217.328466</ele>
        <time>2021-07-10T22:20:11.878Z</time>
      </trkpt>
      <trkpt lat="45.79243" lon="4.80245">
        <ele>215.56768</ele>
        <time>2021-07-10T22:20:13.790Z</time>
      </trkpt>
      <trkpt lat="45.79223" lon="4.80266">
        <ele>212.604143</ele>
        <time>2021-07-10T22:20:16.836Z</time>
      </trkpt>
      <trkpt lat="45.79165" lon="4.80285">
        <ele>208.546387</ele>
        <time>2021-07-10T22:20:24.531Z</time>
      </trkpt>
      <trkpt lat="45.79136" lon="4.80309">
        <ele>207.201887</ele>
        <time>2021-07-10T22:20:29.161Z</time>
      </trkpt>
      <trkpt lat="45.79095" lon="4.80395">
        <ele>204.343197</ele>
        <time>2021-07-10T22:20:40.340Z</time>
      </trkpt>
      <trkpt lat="45.79036" lon="4.80455">
        <ele>201.083668</ele>
        <time>2021-07-10T22:20:51.670Z</time>
      </trkpt>
      <trkpt lat="45.79016" lon="4.80481">
        <ele>199.698842</ele>
        <time>2021-07-10T22:20:55.539Z</time>
      </trkpt>
      <trkpt lat="45.78981" lon="4.80548">
        <ele>196.728522</ele>
        <time>2021-07-10T22:21:03.445Z</time>
      </trkpt>
      <trkpt lat="45.78949" lon="4.80641">
        <ele>192.689476</ele>
        <time>2021-07-10T22:21:12.628Z</time>
      </trkpt>
      <trkpt lat="45.78923" lon="4.80681">
        <ele>189.794158</ele>
        <time>2021-07-10T22:21:17.409Z</time>
      </trkpt>
      <trkpt lat="45.78891" lon="4.80713">
        <ele>186.835454</ele>
        <time>2021-07-10T22:21:22.321Z</time>
      </trkpt>
      <trkpt lat="45.78888" lon="4.8072">
        <ele>186.422104</ele>
        <time>2021-07-10T22:21:22.956Z</time>
      </trkpt>
      <trkpt lat="45.78888" lon="4.80763">
        <ele>184.150591</ele>
        <time>2021-07-10T22:21:26.882Z</time>
      </trkpt>
      <trkpt lat="45.78888" lon="4.80778">
        <ele>183.342359</ele>
        <time>2021-07-10T22:21:28.168Z</time>
      </trkpt>
      <trkpt lat="45.78883" lon="4.80779">
        <ele>182.914179</ele>
        <time>2021-07-10T22:21:28.673Z</time>
      </trkpt>
      <trkpt lat="45.78858" lon="4.8079">
        <ele>180.937311</ele>
        <time>2021-07-10T22:21:31.034Z</time>
      </trkpt>
      <trkpt lat="45.78843" lon="4.80805">
        <ele>179.81295</ele>
        <time>2021-07-10T22:21:32.732Z</time>
      </trkpt>
      <trkpt lat="45.78824" lon="4.80836">
        <ele>178.727983</ele>
        <time>2021-07-10T22:21:35.365Z</time>
      </trkpt>
      <trkpt lat="45.78811" lon="4.8086">
        <ele>177.938204</ele>
        <time>2021-07-10T22:21:37.423Z</time>
      </trkpt>
      <trkpt lat="45.78798" lon="4.80877">
        <ele>177.287204</ele>
        <time>2021-07-10T22:21:38.993Z</time>
      </trkpt>
      <trkpt lat="45.78786" lon="4.80874">
        <ele>176.811903</ele>
        <time>2021-07-10T22:21:40.371Z</time>
      </trkpt>
      <trkpt lat="45.78767" lon="4.80869">
        <ele>176.077111</ele>
        <time>2021-07-10T22:21:42.278Z</time>
      </trkpt>
      <trkpt lat="45.78747" lon="4.8086">
        <ele>175.307844</ele>
        <time>2021-07-10T22:21:44.517Z</time>
      </trkpt>
      <trkpt lat="45.78727" lon="4.80851">
        <ele>174.519053</ele>
        <time>2021-07-10T22:21:46.704Z</time>
      </trkpt>
      <trkpt lat="45.78721" lon="4.80849">
        <ele>174.282416</ele>
        <time>2021-07-10T22:21:47.404Z</time>
      </trkpt>
      <trkpt lat="45.78611" lon="4.80799">
        <ele>172.60114</ele>
        <time>2021-07-10T22:22:00.971Z</time>
      </trkpt>
      <trkpt lat="45.78586" lon="4.80787">
        <ele>172.394593</ele>
        <time>2021-07-10T22:22:04.559Z</time>
      </trkpt>
      <trkpt lat="45.7856" lon="4.80776">
        <ele>172.184836</ele>
        <time>2021-07-10T22:22:08.333Z</time>
      </trkpt>
      <trkpt lat="45.78556" lon="4.80775">
        <ele>172.159077</ele>
        <time>2021-07-10T22:22:08.743Z</time>
      </trkpt>
      <trkpt lat="45.78546" lon="4.80772">
        <ele>172.080191</ele>
        <time>2021-07-10T22:22:10.175Z</time>
      </trkpt>
      <trkpt lat="45.78539" lon="4.8077">
        <ele>172.019183</ele>
        <time>2021-07-10T22:22:11.332Z</time>
      </trkpt>
      <trkpt lat="45.7853" lon="4.80767">
        <ele>171.954954</ele>
        <time>2021-07-10T22:22:12.662Z</time>
      </trkpt>
      <trkpt lat="45.78521" lon="4.80774">
        <ele>171.907487</ele>
        <time>2021-07-10T22:22:14.162Z</time>
      </trkpt>
      <trkpt lat="45.78517" lon="4.80777">
        <ele>171.919706</ele>
        <time>2021-07-10T22:22:14.843Z</time>
      </trkpt>
      <trkpt lat="45.78484" lon="4.80801">
        <ele>172.013644</ele>
        <time>2021-07-10T22:22:20.717Z</time>
      </trkpt>
      <trkpt lat="45.78468" lon="4.80813">
        <ele>172.059167</ele>
        <time>2021-07-10T22:22:23.880Z</time>
      </trkpt>
      <trkpt lat="45.78454" lon="4.80818">
        <ele>172.09794</ele>
        <time>2021-07-10T22:22:26.514Z</time>
      </trkpt>
      <trkpt lat="45.78449" lon="4.80819">
        <ele>172.111392</ele>
        <time>2021-07-10T22:22:27.398Z</time>
      </trkpt>
      <trkpt lat="45.78447" lon="4.80819">
        <ele>172.114752</ele>
        <time>2021-07-10T22:22:27.694Z</time>
      </trkpt>
      <trkpt lat="45.78439" lon="4.80821">
        <ele>172.136038</ele>
        <time>2021-07-10T22:22:29.149Z</time>
      </trkpt>
      <trkpt lat="45.78424" lon="4.8082">
        <ele>172.174626</ele>
        <time>2021-07-10T22:22:31.761Z</time>
      </trkpt>
      <trkpt lat="45.78415" lon="4.80816">
        <ele>172.197643</ele>
        <time>2021-07-10T22:22:33.207Z</time>
      </trkpt>
      <trkpt lat="45.78406" lon="4.80812">
        <ele>172.22308</ele>
        <time>2021-07-10T22:22:34.982Z</time>
      </trkpt>
      <trkpt lat="45.78394" lon="4.80807">
        <ele>172.255432</ele>
        <time>2021-07-10T22:22:37.179Z</time>
      </trkpt>
      <trkpt lat="45.78387" lon="4.80803">
        <ele>172.275335</ele>
        <time>2021-07-10T22:22:38.356Z</time>
      </trkpt>
      <trkpt lat="45.7837" lon="4.80794">
        <ele>172.322581</ele>
        <time>2021-07-10T22:22:41.045Z</time>
      </trkpt>
      <trkpt lat="45.78361" lon="4.80789">
        <ele>172.347138</ele>
        <time>2021-07-10T22:22:42.543Z</time>
      </trkpt>
      <trkpt lat="45.78339" lon="4.80777">
        <ele>172.311037</ele>
        <time>2021-07-10T22:22:45.715Z</time>
      </trkpt>
      <trkpt lat="45.78326" lon="4.80769">
        <ele>172.270039</ele>
        <time>2021-07-10T22:22:47.727Z</time>
      </trkpt>
      <trkpt lat="45.78311" lon="4.8076">
        <ele>172.222419</ele>
        <time>2021-07-10T22:22:49.882Z</time>
      </trkpt>
      <trkpt lat="45.78308" lon="4.80759">
        <ele>172.214466</ele>
        <time>2021-07-10T22:22:50.224Z</time>
      </trkpt>
      <trkpt lat="45.78284" lon="4.80746">
        <ele>172.141817</ele>
        <time>2021-07-10T22:22:53.593Z</time>
      </trkpt>
      <trkpt lat="45.78258" lon="4.80734">
        <ele>172.063208</ele>
        <time>2021-07-10T22:22:57.272Z</time>
      </trkpt>
      <trkpt lat="45.78242" lon="4.80727">
        <ele>172.015202</ele>
        <time>2021-07-10T22:22:59.520Z</time>
      </trkpt>
      <trkpt lat="45.78235" lon="4.80724">
        <ele>171.99477</ele>
        <time>2021-07-10T22:23:00.355Z</time>
      </trkpt>
      <trkpt lat="45.7819" lon="4.80694">
        <ele>171.852326</ele>
        <time>2021-07-10T22:23:07.506Z</time>
      </trkpt>
      <trkpt lat="45.78169" lon="4.80676">
        <ele>171.93862</ele>
        <time>2021-07-10T22:23:10.751Z</time>
      </trkpt>
      <trkpt lat="45.78159" lon="4.80665">
        <ele>171.994648</ele>
        <time>2021-07-10T22:23:12.909Z</time>
      </trkpt>
      <trkpt lat="45.78152" lon="4.80668">
        <ele>172.021659</ele>
        <time>2021-07-10T22:23:14.011Z</time>
      </trkpt>
      <trkpt lat="45.7814" lon="4.80684">
        <ele>172.091639</ele>
        <time>2021-07-10T22:23:16.270Z</time>
      </trkpt>
      <trkpt lat="45.78135" lon="4.80697">
        <ele>172.135188</ele>
        <time>2021-07-10T22:23:18.231Z</time>
      </trkpt>
      <trkpt lat="45.78123" lon="4.80722">
        <ele>172.223938</ele>
        <time>2021-07-10T22:23:21.468Z</time>
      </trkpt>
      <trkpt lat="45.78089" lon="4.80721">
        <ele>172.3656</ele>
        <time>2021-07-10T22:23:27.706Z</time>
      </trkpt>
      <trkpt lat="45.78033" lon="4.80719">
        <ele>172.600264</ele>
        <time>2021-07-10T22:23:38.373Z</time>
      </trkpt>
      <trkpt lat="45.78024" lon="4.80717">
        <ele>172.55378</ele>
        <time>2021-07-10T22:23:40.226Z</time>
      </trkpt>
      <trkpt lat="45.77979" lon="4.80717">
        <ele>172.313678</ele>
        <time>2021-07-10T22:23:47.253Z</time>
      </trkpt>
      <trkpt lat="45.77964" lon="4.80716">
        <ele>172.232043</ele>
        <time>2021-07-10T22:23:49.112Z</time>
      </trkpt>
      <trkpt lat="45.77951" lon="4.80716">
        <ele>172.164814</ele>
        <time>2021-07-10T22:23:51.195Z</time>
      </trkpt>
      <trkpt lat="45.77874" lon="4.80721">
        <ele>171.751501</ele>
        <time>2021-07-10T22:24:01.027Z</time>
      </trkpt>
      <trkpt lat="45.77867" lon="4.80721">
        <ele>171.716723</ele>
        <time>2021-07-10T22:24:01.785Z</time>
      </trkpt>
      <trkpt lat="45.77857" lon="4.80723">
        <ele>171.660738</ele>
        <time>2021-07-10T22:24:02.839Z</time>
      </trkpt>
      <trkpt lat="45.77782" lon="4.8073">
        <ele>170.543617</ele>
        <time>2021-07-10T22:24:11.019Z</time>
      </trkpt>
      <trkpt lat="45.77735" lon="4.80744">
        <ele>169.794151</ele>
        <time>2021-07-10T22:24:16.474Z</time>
      </trkpt>
      <trkpt lat="45.77716" lon="4.8075">
        <ele>169.494718</ele>
        <time>2021-07-10T22:24:18.547Z</time>
      </trkpt>
      <trkpt lat="45.77722" lon="4.80757">
        <ele>169.378212</ele>
        <time>2021-07-10T22:24:19.426Z</time>
      </trkpt>
      <trkpt lat="45.77719" lon="4.80768">
        <ele>169.250371</ele>
        <time>2021-07-10T22:24:20.431Z</time>
      </trkpt>
      <trkpt lat="45.77717" lon="4.80778">
        <ele>169.139781</ele>
        <time>2021-07-10T22:24:21.232Z</time>
      </trkpt>
      <trkpt lat="45.77695" lon="4.8078">
        <ele>168.900751</ele>
        <time>2021-07-10T22:24:23.929Z</time>
      </trkpt>
      <trkpt lat="45.77678" lon="4.80783">
        <ele>169.023969</ele>
        <time>2021-07-10T22:24:26.060Z</time>
      </trkpt>
      <trkpt lat="45.77542" lon="4.80836">
        <ele>170.019451</ele>
        <time>2021-07-10T22:24:51.605Z</time>
      </trkpt>
      <trkpt lat="45.77521" lon="4.80847">
        <ele>170.276409</ele>
        <time>2021-07-10T22:24:56.705Z</time>
      </trkpt>
      <trkpt lat="45.77514" lon="4.8085">
        <ele>170.50089</ele>
        <time>2021-07-10T22:24:58.497Z</time>
      </trkpt>
      <trkpt lat="45.77509" lon="4.80853">
        <ele>170.662566</ele>
        <time>2021-07-10T22:24:59.726Z</time>
      </trkpt>
      <trkpt lat="45.77507" lon="4.80858">
        <ele>170.784296</ele>
        <time>2021-07-10T22:25:00.810Z</time>
      </trkpt>
      <trkpt lat="45.77504" lon="4.80865">
        <ele>170.9344</ele>
        <time>2021-07-10T22:25:01.780Z</time>
      </trkpt>
      <trkpt lat="45.775" lon="4.80865">
        <ele>171.059249</ele>
        <time>2021-07-10T22:25:03.071Z</time>
      </trkpt>
      <trkpt lat="45.77492" lon="4.80864">
        <ele>171.311072</ele>
        <time>2021-07-10T22:25:05.358Z</time>
      </trkpt>
      <trkpt lat="45.77484" lon="4.8086">
        <ele>171.53865</ele>
        <time>2021-07-10T22:25:07.380Z</time>
      </trkpt>
      <trkpt lat="45.77485" lon="4.80846">
        <ele>171.835342</ele>
        <time>2021-07-10T22:25:10.397Z</time>
      </trkpt>
      <trkpt lat="45.77485" lon="4.80836">
        <ele>172.022752</ele>
        <time>2021-07-10T22:25:11.708Z</time>
      </trkpt>
      <trkpt lat="45.77483" lon="4.80831">
        <ele>172.143581</ele>
        <time>2021-07-10T22:25:13.032Z</time>
      </trkpt>
      <trkpt lat="45.77448" lon="4.80858">
        <ele>173.322326</ele>
        <time>2021-07-10T22:25:23.810Z</time>
      </trkpt>
      <trkpt lat="45.77425" lon="4.80876">
        <ele>174.096035</ele>
        <time>2021-07-10T22:25:30.965Z</time>
      </trkpt>
      <trkpt lat="45.77402" lon="4.80894">
        <ele>174.866562</ele>
        <time>2021-07-10T22:25:38.467Z</time>
      </trkpt>
      <trkpt lat="45.77397" lon="4.80895">
        <ele>175.009246</ele>
        <time>2021-07-10T22:25:40.006Z</time>
      </trkpt>
      <trkpt lat="45.77392" lon="4.80893">
        <ele>175.180692</ele>
        <time>2021-07-10T22:25:41.169Z</time>
      </trkpt>
      <trkpt lat="45.77385" lon="4.80884">
        <ele>175.436129</ele>
        <time>2021-07-10T22:25:44.008Z</time>
      </trkpt>
      <trkpt lat="45.77384" lon="4.80883">
        <ele>175.501077</ele>
        <time>2021-07-10T22:25:44.535Z</time>
      </trkpt>
      <trkpt lat="45.77381" lon="4.80878">
        <ele>175.788238</ele>
        <time>2021-07-10T22:25:46.069Z</time>
      </trkpt>
      <trkpt lat="45.77375" lon="4.80873">
        <ele>176.13443</ele>
        <time>2021-07-10T22:25:48.761Z</time>
      </trkpt>
      <trkpt lat="45.77371" lon="4.80861">
        <ele>176.648805</ele>
        <time>2021-07-10T22:25:51.792Z</time>
      </trkpt>
      <trkpt lat="45.77341" lon="4.80802">
        <ele>179.481052</ele>
        <time>2021-07-10T22:26:08.405Z</time>
      </trkpt>
      <trkpt lat="45.77335" lon="4.80791">
        <ele>179.969778</ele>
        <time>2021-07-10T22:26:12.313Z</time>
      </trkpt>
      <trkpt lat="45.7732" lon="4.80761">
        <ele>181.413946</ele>
        <time>2021-07-10T22:26:21.894Z</time>
      </trkpt>
      <trkpt lat="45.77317" lon="4.80754">
        <ele>181.735585</ele>
        <time>2021-07-10T22:26:24.226Z</time>
      </trkpt>
      <trkpt lat="45.7731" lon="4.8076">
        <ele>182.172585</ele>
        <time>2021-07-10T22:26:28.066Z</time>
      </trkpt>
      <trkpt lat="45.77265" lon="4.80783">
        <ele>184.794011</ele>
        <time>2021-07-10T22:26:47.925Z</time>
      </trkpt>
      <trkpt lat="45.77259" lon="4.80793">
        <ele>185.292418</ele>
        <time>2021-07-10T22:26:51.228Z</time>
      </trkpt>
      <trkpt lat="45.77251" lon="4.80809">
        <ele>186.085594</ele>
        <time>2021-07-10T22:26:57.920Z</time>
      </trkpt>
      <trkpt lat="45.77242" lon="4.80825">
        <ele>186.859542</ele>
        <time>2021-07-10T22:27:04.878Z</time>
      </trkpt>
      <trkpt lat="45.77237" lon="4.80835">
        <ele>187.312653</ele>
        <time>2021-07-10T22:27:07.186Z</time>
      </trkpt>
      <trkpt lat="45.77231" lon="4.80847">
        <ele>187.888435</ele>
        <time>2021-07-10T22:27:12.119Z</time>
      </trkpt>
      <trkpt lat="45.77201" lon="4.80858">
        <ele>189.626417</ele>
        <time>2021-07-10T22:27:24.675Z</time>
      </trkpt>
      <trkpt lat="45.77119" lon="4.80882">
        <ele>194.204798</ele>
        <time>2021-07-10T22:27:55.645Z</time>
      </trkpt>
      <trkpt lat="45.77113" lon="4.80889">
        <ele>194.638253</ele>
        <time>2021-07-10T22:27:59.529Z</time>
      </trkpt>
      <trkpt lat="45.7711" lon="4.80901">
        <ele>195.121512</ele>
        <time>2021-07-10T22:28:00.746Z</time>
      </trkpt>
      <trkpt lat="45.77121" lon="4.80918">
        <ele>195.531055</ele>
        <time>2021-07-10T22:28:04.756Z</time>
      </trkpt>
      <trkpt lat="45.77173" lon="4.8093">
        <ele>196.622965</ele>
        <time>2021-07-10T22:28:15.751Z</time>
      </trkpt>
      <trkpt lat="45.772" lon="4.80924">
        <ele>197.19609</ele>
        <time>2021-07-10T22:28:20.440Z</time>
      </trkpt>
      <trkpt lat="45.77248" lon="4.80913">
        <ele>198.191961</ele>
        <time>2021-07-10T22:28:29.751Z</time>
      </trkpt>
      <trkpt lat="45.77263" lon="4.80922">
        <ele>198.522955</ele>
        <time>2021-07-10T22:28:32.721Z</time>
      </trkpt>
      <trkpt lat="45.77265" lon="4.80935">
        <ele>198.718148</ele>
        <time>2021-07-10T22:28:34.906Z</time>
      </trkpt>
      <trkpt lat="45.77262" lon="4.80947">
        <ele>198.907769</ele>
        <time>2021-07-10T22:28:37.154Z</time>
      </trkpt>
      <trkpt lat="45.77251" lon="4.80958">
        <ele>199.535681</ele>
        <time>2021-07-10T22:28:40.386Z</time>
      </trkpt>
      <trkpt lat="45.77215" lon="4.8097">
        <ele>201.605621</ele>
        <time>2021-07-10T22:28:51.487Z</time>
      </trkpt>
      <trkpt lat="45.77208" lon="4.80969">
        <ele>201.971012</ele>
        <time>2021-07-10T22:28:53.757Z</time>
      </trkpt>
      <trkpt lat="45.77071" lon="4.80944">
        <ele>209.856169</ele>
        <time>2021-07-10T22:29:52.821Z</time>
      </trkpt>
      <trkpt lat="45.7705" lon="4.8094">
        <ele>211.264115</ele>
        <time>2021-07-10T22:30:01.751Z</time>
      </trkpt>
      <trkpt lat="45.77034" lon="4.80932">
        <ele>212.387228</ele>
        <time>2021-07-10T22:30:07.436Z</time>
      </trkpt>
      <trkpt lat="45.77026" lon="4.80927">
        <ele>212.98548</ele>
        <time>2021-07-10T22:30:11.345Z</time>
      </trkpt>
      <trkpt lat="45.77001" lon="4.80914">
        <ele>214.788219</ele>
        <time>2021-07-10T22:30:20.609Z</time>
      </trkpt>
      <trkpt lat="45.76991" lon="4.8092">
        <ele>215.520503</ele>
        <time>2021-07-10T22:30:26.522Z</time>
      </trkpt>
      <trkpt lat="45.76988" lon="4.80926">
        <ele>215.892997</ele>
        <time>2021-07-10T22:30:29.978Z</time>
      </trkpt>
      <trkpt lat="45.76987" lon="4.80933">
        <ele>216.236901</ele>
        <time>2021-07-10T22:30:30.536Z</time>
      </trkpt>
      <trkpt lat="45.77006" lon="4.8098">
        <ele>218.802145</ele>
        <time>2021-07-10T22:30:46.897Z</time>
      </trkpt>
      <trkpt lat="45.77002" lon="4.80994">
        <ele>219.494038</ele>
        <time>2021-07-10T22:30:51.275Z</time>
      </trkpt>
      <trkpt lat="45.76994" lon="4.81">
        <ele>220.070341</ele>
        <time>2021-07-10T22:30:56.894Z</time>
      </trkpt>
      <trkpt lat="45.76957" lon="4.81006">
        <ele>223.103535</ele>
        <time>2021-07-10T22:31:13.140Z</time>
      </trkpt>
      <trkpt lat="45.76945" lon="4.81007">
        <ele>224.149921</ele>
        <time>2021-07-10T22:31:17.239Z</time>
      </trkpt>
      <trkpt lat="45.76936" lon="4.81005">
        <ele>224.981055</ele>
        <time>2021-07-10T22:31:19.647Z</time>
      </trkpt>
      <trkpt lat="45.76929" lon="4.81002">
        <ele>225.661321</ele>
        <time>2021-07-10T22:31:23.114Z</time>
      </trkpt>
      <trkpt lat="45.76921" lon="4.80995">
        <ele>226.487828</ele>
        <time>2021-07-10T22:31:27.890Z</time>
      </trkpt>
      <trkpt lat="45.7691" lon="4.8098">
        <ele>227.924693</ele>
        <time>2021-07-10T22:31:32.965Z</time>
      </trkpt>
      <trkpt lat="45.769" lon="4.8097">
        <ele>228.951524</ele>
        <time>2021-07-10T22:31:38.231Z</time>
      </trkpt>
      <trkpt lat="45.76862" lon="4.80963">
        <ele>232.500696</ele>
        <time>2021-07-10T22:31:57.367Z</time>
      </trkpt>
      <trkpt lat="45.7686" lon="4.80963">
        <ele>232.673839</ele>
        <time>2021-07-10T22:31:59.457Z</time>
      </trkpt>
      <trkpt lat="45.7685" lon="4.80962">
        <ele>233.538369</ele>
        <time>2021-07-10T22:32:04.111Z</time>
      </trkpt>
      <trkpt lat="45.76845" lon="4.80962">
        <ele>233.993492</ele>
        <time>2021-07-10T22:32:06.928Z</time>
      </trkpt>
      <trkpt lat="45.76841" lon="4.80961">
        <ele>234.366598</ele>
        <time>2021-07-10T22:32:10.251Z</time>
      </trkpt>
      <trkpt lat="45.7683" lon="4.8096">
        <ele>235.422747</ele>
        <time>2021-07-10T22:32:18.163Z</time>
      </trkpt>
      <trkpt lat="45.76815" lon="4.80958">
        <ele>236.793771</ele>
        <time>2021-07-10T22:32:27.778Z</time>
      </trkpt>
      <trkpt lat="45.76801" lon="4.80956">
        <ele>238.159629</ele>
        <time>2021-07-10T22:32:38.177Z</time>
      </trkpt>
      <trkpt lat="45.76733" lon="4.80946">
        <ele>246.279028</ele>
        <time>2021-07-10T22:33:22.642Z</time>
      </trkpt>
      <trkpt lat="45.76703" lon="4.80941">
        <ele>249.890082</ele>
        <time>2021-07-10T22:33:42.038Z</time>
      </trkpt>
      <trkpt lat="45.76695" lon="4.80941">
        <ele>250.889169</ele>
        <time>2021-07-10T22:33:48.870Z</time>
      </trkpt>
      <trkpt lat="45.76672" lon="4.80947">
        <ele>253.633216</ele>
        <time>2021-07-10T22:34:01.936Z</time>
      </trkpt>
      <trkpt lat="45.7659" lon="4.81">
        <ele>262.601585</ele>
        <time>2021-07-10T22:34:53.297Z</time>
      </trkpt>
      <trkpt lat="45.76587" lon="4.81003">
        <ele>262.929749</ele>
        <time>2021-07-10T22:34:57.130Z</time>
      </trkpt>
      <trkpt lat="45.7657" lon="4.8102">
        <ele>264.627263</ele>
        <time>2021-07-10T22:35:05.781Z</time>
      </trkpt>
      <trkpt lat="45.7652" lon="4.81069">
        <ele>269.587343</ele>
        <time>2021-07-10T22:35:33.666Z</time>
      </trkpt>
      <trkpt lat="45.76511" lon="4.81094">
        <ele>271.198099</ele>
        <time>2021-07-10T22:35:40.635Z</time>
      </trkpt>
      <trkpt lat="45.76508" lon="4.81102">
        <ele>271.697198</ele>
        <time>2021-07-10T22:35:44.815Z</time>
      </trkpt>
      <trkpt lat="45.76483" lon="4.81172">
        <ele>275.353487</ele>
        <time>2021-07-10T22:36:04.375Z</time>
      </trkpt>
      <trkpt lat="45.76475" lon="4.81195">
        <ele>276.360616</ele>
        <time>2021-07-10T22:36:11.894Z</time>
      </trkpt>
      <trkpt lat="45.76419" lon="4.81273">
        <ele>280.729239</ele>
        <time>2021-07-10T22:36:39.774Z</time>
      </trkpt>
      <trkpt lat="45.76393" lon="4.81293">
        <ele>282.401342</ele>
        <time>2021-07-10T22:36:51.635Z</time>
      </trkpt>
      <trkpt lat="45.76379" lon="4.81316">
        <ele>283.579063</ele>
        <time>2021-07-10T22:36:58.072Z</time>
      </trkpt>
      <trkpt lat="45.76371" lon="4.81326">
        <ele>283.969893</ele>
        <time>2021-07-10T22:37:03.599Z</time>
      </trkpt>
      <trkpt lat="45.76331" lon="4.81314">
        <ele>285.410472</ele>
        <time>2021-07-10T22:37:18.004Z</time>
      </trkpt>
      <trkpt lat="45.76309" lon="4.81308">
        <ele>286.204251</ele>
        <time>2021-07-10T22:37:24.483Z</time>
      </trkpt>
      <trkpt lat="45.76287" lon="4.81303">
        <ele>286.996387</ele>
        <time>2021-07-10T22:37:32.232Z</time>
      </trkpt>
      <trkpt lat="45.76273" lon="4.81304">
        <ele>287.486618</ele>
        <time>2021-07-10T22:37:35.441Z</time>
      </trkpt>
      <trkpt lat="45.76261" lon="4.81287">
        <ele>288.096145</ele>
        <time>2021-07-10T22:37:40.707Z</time>
      </trkpt>
      <trkpt lat="45.76177" lon="4.81297">
        <ele>290.006825</ele>
        <time>2021-07-10T22:37:58.755Z</time>
      </trkpt>
      <trkpt lat="45.76164" lon="4.81291">
        <ele>290.008894</ele>
        <time>2021-07-10T22:38:00.877Z</time>
      </trkpt>
      <trkpt lat="45.76153" lon="4.81266">
        <ele>290.011898</ele>
        <time>2021-07-10T22:38:04.399Z</time>
      </trkpt>
      <trkpt lat="45.76149" lon="4.81256">
        <ele>290.013126</ele>
        <time>2021-07-10T22:38:05.392Z</time>
      </trkpt>
      <trkpt lat="45.76143" lon="4.81242">
        <ele>290.014869</ele>
        <time>2021-07-10T22:38:06.969Z</time>
      </trkpt>
      <trkpt lat="45.76141" lon="4.81238">
        <ele>290.015323</ele>
        <time>2021-07-10T22:38:07.294Z</time>
      </trkpt>
      <trkpt lat="45.76125" lon="4.81229">
        <ele>290.017926</ele>
        <time>2021-07-10T22:38:09.662Z</time>
      </trkpt>
      <trkpt lat="45.7612" lon="4.81231">
        <ele>290.01883</ele>
        <time>2021-07-10T22:38:10.318Z</time>
      </trkpt>
      <trkpt lat="45.76118" lon="4.81232">
        <ele>290.019091</ele>
        <time>2021-07-10T22:38:10.557Z</time>
      </trkpt>
      <trkpt lat="45.7605" lon="4.81271">
        <ele>290.080274</ele>
        <time>2021-07-10T22:38:19.545Z</time>
      </trkpt>
      <trkpt lat="45.76048" lon="4.81272">
        <ele>290.099988</ele>
        <time>2021-07-10T22:38:19.805Z</time>
      </trkpt>
      <trkpt lat="45.76048" lon="4.81272">
        <ele>290.108524</ele>
        <time>2021-07-10T22:38:19.934Z</time>
      </trkpt>
      <trkpt lat="45.76042" lon="4.81276">
        <ele>290.173691</ele>
        <time>2021-07-10T22:38:20.673Z</time>
      </trkpt>
      <trkpt lat="45.76034" lon="4.81281">
        <ele>290.253398</ele>
        <time>2021-07-10T22:38:22.124Z</time>
      </trkpt>
      <trkpt lat="45.75992" lon="4.81309">
        <ele>290.726443</ele>
        <time>2021-07-10T22:38:32.318Z</time>
      </trkpt>
      <trkpt lat="45.75937" lon="4.81424">
        <ele>291.704163</ele>
        <time>2021-07-10T22:38:59.366Z</time>
      </trkpt>
      <trkpt lat="45.75935" lon="4.81428">
        <ele>291.73935</ele>
        <time>2021-07-10T22:38:59.966Z</time>
      </trkpt>
      <trkpt lat="45.75939" lon="4.81443">
        <ele>291.834931</ele>
        <time>2021-07-10T22:39:02.507Z</time>
      </trkpt>
      <trkpt lat="45.75942" lon="4.8145">
        <ele>291.800289</ele>
        <time>2021-07-10T22:39:04.716Z</time>
      </trkpt>
      <trkpt lat="45.7596" lon="4.81516">
        <ele>291.48805</ele>
        <time>2021-07-10T22:39:14.859Z</time>
      </trkpt>
      <trkpt lat="45.75961" lon="4.81528">
        <ele>291.436628</ele>
        <time>2021-07-10T22:39:15.857Z</time>
      </trkpt>
      <trkpt lat="45.75954" lon="4.81559">
        <ele>291.293703</ele>
        <time>2021-07-10T22:39:19.832Z</time>
      </trkpt>
      <trkpt lat="45.75967" lon="4.81609">
        <ele>291.062767</ele>
        <time>2021-07-10T22:39:24.637Z</time>
      </trkpt>
      <trkpt lat="45.75968" lon="4.81615">
        <ele>291.033973</ele>
        <time>2021-07-10T22:39:25.438Z</time>
      </trkpt>
      <trkpt lat="45.75974" lon="4.81625">
        <ele>290.978893</ele>
        <time>2021-07-10T22:39:26.321Z</time>
      </trkpt>
      <trkpt lat="45.75976" lon="4.81642">
        <ele>290.904928</ele>
        <time>2021-07-10T22:39:28.085Z</time>
      </trkpt>
      <trkpt lat="45.75982" lon="4.81662">
        <ele>290.810927</ele>
        <time>2021-07-10T22:39:29.726Z</time>
      </trkpt>
      <trkpt lat="45.76035" lon="4.81863">
        <ele>283.3891</ele>
        <time>2021-07-10T22:39:43.834Z</time>
      </trkpt>
      <trkpt lat="45.7604" lon="4.81885">
        <ele>282.498297</ele>
        <time>2021-07-10T22:39:45.295Z</time>
      </trkpt>
      <trkpt lat="45.76065" lon="4.81971">
        <ele>278.113318</ele>
        <time>2021-07-10T22:39:51.126Z</time>
      </trkpt>
      <trkpt lat="45.76067" lon="4.81978">
        <ele>277.715695</ele>
        <time>2021-07-10T22:39:51.598Z</time>
      </trkpt>
      <trkpt lat="45.7606" lon="4.82012">
        <ele>275.772529</ele>
        <time>2021-07-10T22:39:53.791Z</time>
      </trkpt>
      <trkpt lat="45.76045" lon="4.82097">
        <ele>270.972661</ele>
        <time>2021-07-10T22:39:59.190Z</time>
      </trkpt>
      <trkpt lat="45.76036" lon="4.82179">
        <ele>266.342755</ele>
        <time>2021-07-10T22:40:04.348Z</time>
      </trkpt>
      <trkpt lat="45.76035" lon="4.82189">
        <ele>265.707023</ele>
        <time>2021-07-10T22:40:04.943Z</time>
      </trkpt>
      <trkpt lat="45.76028" lon="4.82254">
        <ele>261.517781</ele>
        <time>2021-07-10T22:40:08.958Z</time>
      </trkpt>
      <trkpt lat="45.76027" lon="4.82259">
        <ele>261.154913</ele>
        <time>2021-07-10T22:40:09.282Z</time>
      </trkpt>
      <trkpt lat="45.76007" lon="4.82255">
        <ele>259.254732</ele>
        <time>2021-07-10T22:40:11.158Z</time>
      </trkpt>
      <trkpt lat="45.75999" lon="4.82254">
        <ele>258.541355</ele>
        <time>2021-07-10T22:40:11.871Z</time>
      </trkpt>
      <trkpt lat="45.75996" lon="4.82253">
        <ele>258.264758</ele>
        <time>2021-07-10T22:40:12.128Z</time>
      </trkpt>
      <trkpt lat="45.75993" lon="4.82253">
        <ele>257.985726</ele>
        <time>2021-07-10T22:40:12.377Z</time>
      </trkpt>
      <trkpt lat="45.75989" lon="4.82252">
        <ele>257.595871</ele>
        <time>2021-07-10T22:40:12.753Z</time>
      </trkpt>
      <trkpt lat="45.75984" lon="4.82248">
        <ele>257.06281</ele>
        <time>2021-07-10T22:40:13.310Z</time>
      </trkpt>
      <trkpt lat="45.75982" lon="4.82246">
        <ele>256.838582</ele>
        <time>2021-07-10T22:40:13.532Z</time>
      </trkpt>
      <trkpt lat="45.75979" lon="4.8224">
        <ele>256.334297</ele>
        <time>2021-07-10T22:40:14.041Z</time>
      </trkpt>
      <trkpt lat="45.75962" lon="4.82172">
        <ele>251.732133</ele>
        <time>2021-07-10T22:40:18.359Z</time>
      </trkpt>
      <trkpt lat="45.7596" lon="4.82167">
        <ele>251.369257</ele>
        <time>2021-07-10T22:40:18.681Z</time>
      </trkpt>
      <trkpt lat="45.75957" lon="4.82163">
        <ele>250.98621</ele>
        <time>2021-07-10T22:40:19.029Z</time>
      </trkpt>
      <trkpt lat="45.75929" lon="4.82142">
        <ele>248.438064</ele>
        <time>2021-07-10T22:40:21.707Z</time>
      </trkpt>
      <trkpt lat="45.75928" lon="4.8215">
        <ele>247.995782</ele>
        <time>2021-07-10T22:40:22.184Z</time>
      </trkpt>
      <trkpt lat="45.75927" lon="4.82161">
        <ele>247.426171</ele>
        <time>2021-07-10T22:40:22.822Z</time>
      </trkpt>
      <trkpt lat="45.7592" lon="4.82227">
        <ele>243.789676</ele>
        <time>2021-07-10T22:40:26.962Z</time>
      </trkpt>
      <trkpt lat="45.75921" lon="4.82234">
        <ele>243.34938</ele>
        <time>2021-07-10T22:40:27.475Z</time>
      </trkpt>
      <trkpt lat="45.75911" lon="4.82325">
        <ele>238.332518</ele>
        <time>2021-07-10T22:40:33.483Z</time>
      </trkpt>
      <trkpt lat="45.7588" lon="4.82318">
        <ele>235.878599</ele>
        <time>2021-07-10T22:40:36.386Z</time>
      </trkpt>
      <trkpt lat="45.75877" lon="4.82317">
        <ele>235.628461</ele>
        <time>2021-07-10T22:40:36.729Z</time>
      </trkpt>
      <trkpt lat="45.75866" lon="4.82305">
        <ele>234.58695</ele>
        <time>2021-07-10T22:40:37.947Z</time>
      </trkpt>
      <trkpt lat="45.75863" lon="4.82295">
        <ele>234.004798</ele>
        <time>2021-07-10T22:40:38.653Z</time>
      </trkpt>
      <trkpt lat="45.75839" lon="4.82214">
        <ele>229.342746</ele>
        <time>2021-07-10T22:40:43.957Z</time>
      </trkpt>
      <trkpt lat="45.75837" lon="4.82204">
        <ele>228.799321</ele>
        <time>2021-07-10T22:40:44.628Z</time>
      </trkpt>
      <trkpt lat="45.7583" lon="4.82192">
        <ele>227.945674</ele>
        <time>2021-07-10T22:40:45.657Z</time>
      </trkpt>
      <trkpt lat="45.75826" lon="4.8219">
        <ele>227.658441</ele>
        <time>2021-07-10T22:40:46.015Z</time>
      </trkpt>
      <trkpt lat="45.75823" lon="4.82193">
        <ele>227.360376</ele>
        <time>2021-07-10T22:40:46.393Z</time>
      </trkpt>
      <trkpt lat="45.75821" lon="4.82197">
        <ele>227.124995</ele>
        <time>2021-07-10T22:40:46.648Z</time>
      </trkpt>
      <trkpt lat="45.75817" lon="4.82206">
        <ele>226.556317</ele>
        <time>2021-07-10T22:40:47.332Z</time>
      </trkpt>
      <trkpt lat="45.7582" lon="4.82208">
        <ele>226.357124</ele>
        <time>2021-07-10T22:40:47.668Z</time>
      </trkpt>
      <trkpt lat="45.75824" lon="4.82216">
        <ele>225.822111</ele>
        <time>2021-07-10T22:40:48.766Z</time>
      </trkpt>
      <trkpt lat="45.75825" lon="4.8222">
        <ele>225.634206</ele>
        <time>2021-07-10T22:40:49.098Z</time>
      </trkpt>
      <trkpt lat="45.75843" lon="4.82288">
        <ele>221.508619</ele>
        <time>2021-07-10T22:40:55.811Z</time>
      </trkpt>
      <trkpt lat="45.75843" lon="4.8229">
        <ele>221.313773</ele>
        <time>2021-07-10T22:40:56.043Z</time>
      </trkpt>
      <trkpt lat="45.75861" lon="4.82357">
        <ele>216.328031</ele>
        <time>2021-07-10T22:41:02.237Z</time>
      </trkpt>
      <trkpt lat="45.75872" lon="4.82374">
        <ele>214.664283</ele>
        <time>2021-07-10T22:41:04.272Z</time>
      </trkpt>
      <trkpt lat="45.7591" lon="4.82406">
        <ele>210.304423</ele>
        <time>2021-07-10T22:41:09.397Z</time>
      </trkpt>
      <trkpt lat="45.75983" lon="4.82441">
        <ele>202.992616</ele>
        <time>2021-07-10T22:41:18.851Z</time>
      </trkpt>
      <trkpt lat="45.76012" lon="4.82461">
        <ele>200.476996</ele>
        <time>2021-07-10T22:41:22.841Z</time>
      </trkpt>
      <trkpt lat="45.76119" lon="4.82509">
        <ele>191.647256</ele>
        <time>2021-07-10T22:41:37.064Z</time>
      </trkpt>
      <trkpt lat="45.76159" lon="4.82536">
        <ele>189.159957</ele>
        <time>2021-07-10T22:41:42.795Z</time>
      </trkpt>
      <trkpt lat="45.76202" lon="4.82586">
        <ele>186.616488</ele>
        <time>2021-07-10T22:41:50.289Z</time>
      </trkpt>
      <trkpt lat="45.76201" lon="4.8261">
        <ele>185.857849</ele>
        <time>2021-07-10T22:41:52.675Z</time>
      </trkpt>
      <trkpt lat="45.76198" lon="4.82617">
        <ele>185.614113</ele>
        <time>2021-07-10T22:41:53.394Z</time>
      </trkpt>
      <trkpt lat="45.76189" lon="4.82613">
        <ele>185.172781</ele>
        <time>2021-07-10T22:41:54.337Z</time>
      </trkpt>
      <trkpt lat="45.76101" lon="4.82575">
        <ele>181.268761</ele>
        <time>2021-07-10T22:42:03.837Z</time>
      </trkpt>
      <trkpt lat="45.76042" lon="4.82555">
        <ele>179.070704</ele>
        <time>2021-07-10T22:42:09.785Z</time>
      </trkpt>
      <trkpt lat="45.76028" lon="4.82555">
        <ele>178.544571</ele>
        <time>2021-07-10T22:42:11.167Z</time>
      </trkpt>
      <trkpt lat="45.76028" lon="4.82559">
        <ele>178.445872</ele>
        <time>2021-07-10T22:42:11.409Z</time>
      </trkpt>
      <trkpt lat="45.76027" lon="4.82648">
        <ele>176.196046</ele>
        <time>2021-07-10T22:42:17.496Z</time>
      </trkpt>
      <trkpt lat="45.76027" lon="4.82656">
        <ele>175.993555</ele>
        <time>2021-07-10T22:42:18.006Z</time>
      </trkpt>
      <trkpt lat="45.76014" lon="4.82664">
        <ele>175.646484</ele>
        <time>2021-07-10T22:42:19.381Z</time>
      </trkpt>
      <trkpt lat="45.76001" lon="4.82658">
        <ele>175.427294</ele>
        <time>2021-07-10T22:42:21.202Z</time>
      </trkpt>
      <trkpt lat="45.75998" lon="4.82669">
        <ele>175.302029</ele>
        <time>2021-07-10T22:42:21.970Z</time>
      </trkpt>
      <trkpt lat="45.7598" lon="4.8273">
        <ele>174.559034</ele>
        <time>2021-07-10T22:42:27.112Z</time>
      </trkpt>
      <trkpt lat="45.75971" lon="4.82765">
        <ele>174.151666</ele>
        <time>2021-07-10T22:42:30.366Z</time>
      </trkpt>
      <trkpt lat="45.7597" lon="4.82771">
        <ele>174.080027</ele>
        <time>2021-07-10T22:42:30.834Z</time>
      </trkpt>
      <trkpt lat="45.75966" lon="4.82787">
        <ele>173.895436</ele>
        <time>2021-07-10T22:42:32.329Z</time>
      </trkpt>
      <trkpt lat="45.75964" lon="4.82794">
        <ele>173.811763</ele>
        <time>2021-07-10T22:42:33.139Z</time>
      </trkpt>
      <trkpt lat="45.75963" lon="4.82797">
        <ele>173.77202</ele>
        <time>2021-07-10T22:42:33.681Z</time>
      </trkpt>
      <trkpt lat="45.75963" lon="4.82798">
        <ele>173.75828</ele>
        <time>2021-07-10T22:42:33.896Z</time>
      </trkpt>
      <trkpt lat="45.75962" lon="4.828">
        <ele>173.736821</ele>
        <time>2021-07-10T22:42:34.173Z</time>
      </trkpt>
      <trkpt lat="45.75955" lon="4.82827">
        <ele>173.420331</ele>
        <time>2021-07-10T22:42:36.245Z</time>
      </trkpt>
      <trkpt lat="45.75935" lon="4.82899">
        <ele>173.189655</ele>
        <time>2021-07-10T22:42:43.686Z</time>
      </trkpt>
      <trkpt lat="45.75926" lon="4.82927">
        <ele>173.45111</ele>
        <time>2021-07-10T22:42:46.908Z</time>
      </trkpt>
      <trkpt lat="45.75924" lon="4.82938">
        <ele>173.548164</ele>
        <time>2021-07-10T22:42:48.536Z</time>
      </trkpt>
      <trkpt lat="45.75923" lon="4.82943">
        <ele>173.593125</ele>
        <time>2021-07-10T22:42:49.520Z</time>
      </trkpt>
      <trkpt lat="45.75918" lon="4.82955">
        <ele>173.713699</ele>
        <time>2021-07-10T22:42:52.116Z</time>
      </trkpt>
      <trkpt lat="45.75915" lon="4.82963">
        <ele>173.78743</ele>
        <time>2021-07-10T22:42:52.826Z</time>
      </trkpt>
      <trkpt lat="45.75913" lon="4.8297">
        <ele>173.853397</ele>
        <time>2021-07-10T22:42:54.002Z</time>
      </trkpt>
      <trkpt lat="45.75905" lon="4.82995">
        <ele>174.085426</ele>
        <time>2021-07-10T22:42:59.207Z</time>
      </trkpt>
      <trkpt lat="45.75904" lon="4.82997">
        <ele>174.110071</ele>
        <time>2021-07-10T22:42:59.777Z</time>
      </trkpt>
      <trkpt lat="45.75902" lon="4.83004">
        <ele>174.172733</ele>
        <time>2021-07-10T22:43:01.277Z</time>
      </trkpt>
      <trkpt lat="45.759" lon="4.83008">
        <ele>174.212527</ele>
        <time>2021-07-10T22:43:01.878Z</time>
      </trkpt>
      <trkpt lat="45.75883" lon="4.83068">
        <ele>174.763167</ele>
        <time>2021-07-10T22:43:12.990Z</time>
      </trkpt>
      <trkpt lat="45.75883" lon="4.83071">
        <ele>174.785545</ele>
        <time>2021-07-10T22:43:13.371Z</time>
      </trkpt>
      <trkpt lat="45.75886" lon="4.83076">
        <ele>174.8379</ele>
        <time>2021-07-10T22:43:14.333Z</time>
      </trkpt>
      <trkpt lat="45.75882" lon="4.83092">
        <ele>174.983492</ele>
        <time>2021-07-10T22:43:16.940Z</time>
      </trkpt>
      <trkpt lat="45.75879" lon="4.83101">
        <ele>175.064514</ele>
        <time>2021-07-10T22:43:17.946Z</time>
      </trkpt>
      <trkpt lat="45.75878" lon="4.83106">
        <ele>175.108331</ele>
        <time>2021-07-10T22:43:18.421Z</time>
      </trkpt>
      <trkpt lat="45.75869" lon="4.83139">
        <ele>175.293167</ele>
        <time>2021-07-10T22:43:22.718Z</time>
      </trkpt>
      <trkpt lat="45.75842" lon="4.83238">
        <ele>175.845951</ele>
        <time>2021-07-10T22:43:35.802Z</time>
      </trkpt>
      <trkpt lat="45.75842" lon="4.8324">
        <ele>175.859988</ele>
        <time>2021-07-10T22:43:36.116Z</time>
      </trkpt>
      <trkpt lat="45.75842" lon="4.83241">
        <ele>175.865408</ele>
        <time>2021-07-10T22:43:36.221Z</time>
      </trkpt>
      <trkpt lat="45.75839" lon="4.83249">
        <ele>175.910215</ele>
        <time>2021-07-10T22:43:37.166Z</time>
      </trkpt>
      <trkpt lat="45.75838" lon="4.83253">
        <ele>175.931377</ele>
        <time>2021-07-10T22:43:37.660Z</time>
      </trkpt>
      <trkpt lat="45.75837" lon="4.83257">
        <ele>175.956479</ele>
        <time>2021-07-10T22:43:38.254Z</time>
      </trkpt>
      <trkpt lat="45.75836" lon="4.83262">
        <ele>175.979855</ele>
        <time>2021-07-10T22:43:38.770Z</time>
      </trkpt>
      <trkpt lat="45.75823" lon="4.83309">
        <ele>176.242482</ele>
        <time>2021-07-10T22:43:45.940Z</time>
      </trkpt>
      <trkpt lat="45.75821" lon="4.83317">
        <ele>176.289722</ele>
        <time>2021-07-10T22:43:46.985Z</time>
      </trkpt>
      <trkpt lat="45.7582" lon="4.83323">
        <ele>176.324657</ele>
        <time>2021-07-10T22:43:47.886Z</time>
      </trkpt>
      <trkpt lat="45.75816" lon="4.83334">
        <ele>176.386473</ele>
        <time>2021-07-10T22:43:50.242Z</time>
      </trkpt>
      <trkpt lat="45.75806" lon="4.83373">
        <ele>176.015842</ele>
        <time>2021-07-10T22:43:54.250Z</time>
      </trkpt>
      <trkpt lat="45.75804" lon="4.83381">
        <ele>175.901387</ele>
        <time>2021-07-10T22:43:55.716Z</time>
      </trkpt>
      <trkpt lat="45.75795" lon="4.83412">
        <ele>175.406197</ele>
        <time>2021-07-10T22:43:58.402Z</time>
      </trkpt>
      <trkpt lat="45.7579" lon="4.83429">
        <ele>175.135846</ele>
        <time>2021-07-10T22:44:00.387Z</time>
      </trkpt>
      <trkpt lat="45.75786" lon="4.83438">
        <ele>174.979635</ele>
        <time>2021-07-10T22:44:01.064Z</time>
      </trkpt>
      <trkpt lat="45.75771" lon="4.8349">
        <ele>174.160593</ele>
        <time>2021-07-10T22:44:04.987Z</time>
      </trkpt>
      <trkpt lat="45.75762" lon="4.83523">
        <ele>173.642901</ele>
        <time>2021-07-10T22:44:07.767Z</time>
      </trkpt>
      <trkpt lat="45.7576" lon="4.83529">
        <ele>173.540841</ele>
        <time>2021-07-10T22:44:08.228Z</time>
      </trkpt>
      <trkpt lat="45.75758" lon="4.83536">
        <ele>173.438781</ele>
        <time>2021-07-10T22:44:08.664Z</time>
      </trkpt>
      <trkpt lat="45.75756" lon="4.83542">
        <ele>173.335363</ele>
        <time>2021-07-10T22:44:09.178Z</time>
      </trkpt>
      <trkpt lat="45.75734" lon="4.83623">
        <ele>172.249873</ele>
        <time>2021-07-10T22:44:15.502Z</time>
      </trkpt>
      <trkpt lat="45.75731" lon="4.83632">
        <ele>172.144324</ele>
        <time>2021-07-10T22:44:16.130Z</time>
      </trkpt>
      <trkpt lat="45.75723" lon="4.83642">
        <ele>171.977879</ele>
        <time>2021-07-10T22:44:17.307Z</time>
      </trkpt>
      <trkpt lat="45.75719" lon="4.83653">
        <ele>171.847921</ele>
        <time>2021-07-10T22:44:18.243Z</time>
      </trkpt>
      <trkpt lat="45.7571" lon="4.83684">
        <ele>171.493367</ele>
        <time>2021-07-10T22:44:20.607Z</time>
      </trkpt>
      <trkpt lat="45.7571" lon="4.83712">
        <ele>171.201402</ele>
        <time>2021-07-10T22:44:22.807Z</time>
      </trkpt>
      <trkpt lat="45.75668" lon="4.83861">
        <ele>170.878282</ele>
        <time>2021-07-10T22:44:38.717Z</time>
      </trkpt>
      <trkpt lat="45.7564" lon="4.83955">
        <ele>172.88504</ele>
        <time>2021-07-10T22:45:02.172Z</time>
      </trkpt>
      <trkpt lat="45.75623" lon="4.84005">
        <ele>173.954235</ele>
        <time>2021-07-10T22:45:13.310Z</time>
      </trkpt>
      <trkpt lat="45.75622" lon="4.8401">
        <ele>174.067925</ele>
        <time>2021-07-10T22:45:14.239Z</time>
      </trkpt>
      <trkpt lat="45.7562" lon="4.84015">
        <ele>174.173366</ele>
        <time>2021-07-10T22:45:15.929Z</time>
      </trkpt>
      <trkpt lat="45.75616" lon="4.84029">
        <ele>174.472885</ele>
        <time>2021-07-10T22:45:18.719Z</time>
      </trkpt>
      <trkpt lat="45.75612" lon="4.84043">
        <ele>174.774205</ele>
        <time>2021-07-10T22:45:21.507Z</time>
      </trkpt>
      <trkpt lat="45.75598" lon="4.84083">
        <ele>175.339615</ele>
        <time>2021-07-10T22:45:28.931Z</time>
      </trkpt>
      <trkpt lat="45.75596" lon="4.8409">
        <ele>175.418944</ele>
        <time>2021-07-10T22:45:30.236Z</time>
      </trkpt>
      <trkpt lat="45.75566" lon="4.84175">
        <ele>176.389359</ele>
        <time>2021-07-10T22:45:45.833Z</time>
      </trkpt>
      <trkpt lat="45.7554" lon="4.84248">
        <ele>177.224389</ele>
        <time>2021-07-10T22:45:57.170Z</time>
      </trkpt>
      <trkpt lat="45.75538" lon="4.84253">
        <ele>177.278234</ele>
        <time>2021-07-10T22:45:57.735Z</time>
      </trkpt>
      <trkpt lat="45.75537" lon="4.84257">
        <ele>177.322196</ele>
        <time>2021-07-10T22:45:58.063Z</time>
      </trkpt>
      <trkpt lat="45.75533" lon="4.84267">
        <ele>177.443407</ele>
        <time>2021-07-10T22:45:59.376Z</time>
      </trkpt>
      <trkpt lat="45.75531" lon="4.84275">
        <ele>177.522229</ele>
        <time>2021-07-10T22:46:00.268Z</time>
      </trkpt>
      <trkpt lat="45.75529" lon="4.84285">
        <ele>177.633737</ele>
        <time>2021-07-10T22:46:01.377Z</time>
      </trkpt>
      <trkpt lat="45.75531" lon="4.84298">
        <ele>177.610691</ele>
        <time>2021-07-10T22:46:02.464Z</time>
      </trkpt>
      <trkpt lat="45.7552" lon="4.84328">
        <ele>177.50868</ele>
        <time>2021-07-10T22:46:05.413Z</time>
      </trkpt>
      <trkpt lat="45.7552" lon="4.8433">
        <ele>177.50191</ele>
        <time>2021-07-10T22:46:05.800Z</time>
      </trkpt>
      <trkpt lat="45.7551" lon="4.84358">
        <ele>177.408525</ele>
        <time>2021-07-10T22:46:08.370Z</time>
      </trkpt>
      <trkpt lat="45.75504" lon="4.84376">
        <ele>177.347326</ele>
        <time>2021-07-10T22:46:10.294Z</time>
      </trkpt>
      <trkpt lat="45.75455" lon="4.84517">
        <ele>176.87201</ele>
        <time>2021-07-10T22:46:25.037Z</time>
      </trkpt>
      <trkpt lat="45.75452" lon="4.84525">
        <ele>176.827589</ele>
        <time>2021-07-10T22:46:25.951Z</time>
      </trkpt>
      <trkpt lat="45.75447" lon="4.8454">
        <ele>176.746177</ele>
        <time>2021-07-10T22:46:27.394Z</time>
      </trkpt>
      <trkpt lat="45.75443" lon="4.8455">
        <ele>176.685087</ele>
        <time>2021-07-10T22:46:28.602Z</time>
      </trkpt>
      <trkpt lat="45.7544" lon="4.8456">
        <ele>176.632197</ele>
        <time>2021-07-10T22:46:29.537Z</time>
      </trkpt>
      <trkpt lat="45.75417" lon="4.84624">
        <ele>176.273375</ele>
        <time>2021-07-10T22:46:35.947Z</time>
      </trkpt>
      <trkpt lat="45.75412" lon="4.84637">
        <ele>176.1976</ele>
        <time>2021-07-10T22:46:37.278Z</time>
      </trkpt>
      <trkpt lat="45.75409" lon="4.84647">
        <ele>176.144843</ele>
        <time>2021-07-10T22:46:38.273Z</time>
      </trkpt>
      <trkpt lat="45.75399" lon="4.84673">
        <ele>175.994577</ele>
        <time>2021-07-10T22:46:41.024Z</time>
      </trkpt>
      <trkpt lat="45.75397" lon="4.8468">
        <ele>175.955923</ele>
        <time>2021-07-10T22:46:41.761Z</time>
      </trkpt>
      <trkpt lat="45.75391" lon="4.84699">
        <ele>175.849851</ele>
        <time>2021-07-10T22:46:43.680Z</time>
      </trkpt>
      <trkpt lat="45.75381" lon="4.84728">
        <ele>175.691319</ele>
        <time>2021-07-10T22:46:46.540Z</time>
      </trkpt>
      <trkpt lat="45.75378" lon="4.84736">
        <ele>175.645997</ele>
        <time>2021-07-10T22:46:47.347Z</time>
      </trkpt>
      <trkpt lat="45.75377" lon="4.84741">
        <ele>175.617206</ele>
        <time>2021-07-10T22:46:47.820Z</time>
      </trkpt>
      <trkpt lat="45.75371" lon="4.84758">
        <ele>175.486794</ele>
        <time>2021-07-10T22:46:49.350Z</time>
      </trkpt>
      <trkpt lat="45.75368" lon="4.84766">
        <ele>175.40956</ele>
        <time>2021-07-10T22:46:50.113Z</time>
      </trkpt>
      <trkpt lat="45.75365" lon="4.84776">
        <ele>175.319906</ele>
        <time>2021-07-10T22:46:51.007Z</time>
      </trkpt>
      <trkpt lat="45.75364" lon="4.84778">
        <ele>175.303195</ele>
        <time>2021-07-10T22:46:51.186Z</time>
      </trkpt>
      <trkpt lat="45.75359" lon="4.84794">
        <ele>175.151513</ele>
        <time>2021-07-10T22:46:52.644Z</time>
      </trkpt>
      <trkpt lat="45.75352" lon="4.84812">
        <ele>174.98613</ele>
        <time>2021-07-10T22:46:54.287Z</time>
      </trkpt>
      <trkpt lat="45.75351" lon="4.84816">
        <ele>174.949163</ele>
        <time>2021-07-10T22:46:54.680Z</time>
      </trkpt>
      <trkpt lat="45.75327" lon="4.84885">
        <ele>174.296295</ele>
        <time>2021-07-10T22:47:01.039Z</time>
      </trkpt>
      <trkpt lat="45.75325" lon="4.8489">
        <ele>174.249161</ele>
        <time>2021-07-10T22:47:01.535Z</time>
      </trkpt>
      <trkpt lat="45.75323" lon="4.84894">
        <ele>174.214034</ele>
        <time>2021-07-10T22:47:01.904Z</time>
      </trkpt>
      <trkpt lat="45.75321" lon="4.84901">
        <ele>174.147417</ele>
        <time>2021-07-10T22:47:02.553Z</time>
      </trkpt>
      <trkpt lat="45.75313" lon="4.84926">
        <ele>173.914717</ele>
        <time>2021-07-10T22:47:04.972Z</time>
      </trkpt>
      <trkpt lat="45.75312" lon="4.84929">
        <ele>173.886325</ele>
        <time>2021-07-10T22:47:05.188Z</time>
      </trkpt>
      <trkpt lat="45.7531" lon="4.84935">
        <ele>173.836189</ele>
        <time>2021-07-10T22:47:05.727Z</time>
      </trkpt>
      <trkpt lat="45.75291" lon="4.8499">
        <ele>173.357295</ele>
        <time>2021-07-10T22:47:10.835Z</time>
      </trkpt>
      <trkpt lat="45.75291" lon="4.8499">
        <ele>173.355004</ele>
        <time>2021-07-10T22:47:10.863Z</time>
      </trkpt>
      <trkpt lat="45.75284" lon="4.85011">
        <ele>173.227876</ele>
        <time>2021-07-10T22:47:12.997Z</time>
      </trkpt>
      <trkpt lat="45.75279" lon="4.85026">
        <ele>173.137757</ele>
        <time>2021-07-10T22:47:14.300Z</time>
      </trkpt>
      <trkpt lat="45.75276" lon="4.85034">
        <ele>173.089356</ele>
        <time>2021-07-10T22:47:15.067Z</time>
      </trkpt>
      <trkpt lat="45.75273" lon="4.85044">
        <ele>173.031308</ele>
        <time>2021-07-10T22:47:15.965Z</time>
      </trkpt>
      <trkpt lat="45.7527" lon="4.85052">
        <ele>172.984012</ele>
        <time>2021-07-10T22:47:16.715Z</time>
      </trkpt>
      <trkpt lat="45.75264" lon="4.8507">
        <ele>172.874951</ele>
        <time>2021-07-10T22:47:18.289Z</time>
      </trkpt>
      <trkpt lat="45.75259" lon="4.85085">
        <ele>172.784776</ele>
        <time>2021-07-10T22:47:19.674Z</time>
      </trkpt>
      <trkpt lat="45.7525" lon="4.8511">
        <ele>172.632006</ele>
        <time>2021-07-10T22:47:22.034Z</time>
      </trkpt>
      <trkpt lat="45.75247" lon="4.85117">
        <ele>172.590918</ele>
        <time>2021-07-10T22:47:22.579Z</time>
      </trkpt>
      <trkpt lat="45.75233" lon="4.85157">
        <ele>172.34477</ele>
        <time>2021-07-10T22:47:26.642Z</time>
      </trkpt>
      <trkpt lat="45.75209" lon="4.85224">
        <ele>172.192494</ele>
        <time>2021-07-10T22:47:34.657Z</time>
      </trkpt>
      <trkpt lat="45.75189" lon="4.85282">
        <ele>172.89291</ele>
        <time>2021-07-10T22:47:43.190Z</time>
      </trkpt>
      <trkpt lat="45.75188" lon="4.85286">
        <ele>172.938972</ele>
        <time>2021-07-10T22:47:43.639Z</time>
      </trkpt>
      <trkpt lat="45.75173" lon="4.85328">
        <ele>173.457198</ele>
        <time>2021-07-10T22:47:50.587Z</time>
      </trkpt>
      <trkpt lat="45.75169" lon="4.85342">
        <ele>173.620356</ele>
        <time>2021-07-10T22:47:52.750Z</time>
      </trkpt>
      <trkpt lat="45.75163" lon="4.85359">
        <ele>173.82798</ele>
        <time>2021-07-10T22:47:55.841Z</time>
      </trkpt>
      <trkpt lat="45.75156" lon="4.85381">
        <ele>174.093794</ele>
        <time>2021-07-10T22:47:59.761Z</time>
      </trkpt>
      <trkpt lat="45.75153" lon="4.85389">
        <ele>174.195797</ele>
        <time>2021-07-10T22:48:01.459Z</time>
      </trkpt>
      <trkpt lat="45.7515" lon="4.85396">
        <ele>174.280009</ele>
        <time>2021-07-10T22:48:02.852Z</time>
      </trkpt>
      <trkpt lat="45.75109" lon="4.85519">
        <ele>175.766812</ele>
        <time>2021-07-10T22:48:27.184Z</time>
      </trkpt>
      <trkpt lat="45.75104" lon="4.85532">
        <ele>175.927891</ele>
        <time>2021-07-10T22:48:29.463Z</time>
      </trkpt>
      <trkpt lat="45.75098" lon="4.85549">
        <ele>176.131354</ele>
        <time>2021-07-10T22:48:32.371Z</time>
      </trkpt>
      <trkpt lat="45.75088" lon="4.85576">
        <ele>176.471429</ele>
        <time>2021-07-10T22:48:36.956Z</time>
      </trkpt>
      <trkpt lat="45.75061" lon="4.85651">
        <ele>177.391134</ele>
        <time>2021-07-10T22:48:48.511Z</time>
      </trkpt>
      <trkpt lat="45.75045" lon="4.85696">
        <ele>177.561712</ele>
        <time>2021-07-10T22:48:54.346Z</time>
      </trkpt>
      <trkpt lat="45.75038" lon="4.85716">
        <ele>177.489753</ele>
        <time>2021-07-10T22:48:56.221Z</time>
      </trkpt>
      <trkpt lat="45.75025" lon="4.85756">
        <ele>177.347574</ele>
        <time>2021-07-10T22:48:59.996Z</time>
      </trkpt>
      <trkpt lat="45.75001" lon="4.85827">
        <ele>177.094928</ele>
        <time>2021-07-10T22:49:06.686Z</time>
      </trkpt>
      <trkpt lat="45.74997" lon="4.85839">
        <ele>177.0535</ele>
        <time>2021-07-10T22:49:08.074Z</time>
      </trkpt>
      <trkpt lat="45.74981" lon="4.85887">
        <ele>176.87894</ele>
        <time>2021-07-10T22:49:12.933Z</time>
      </trkpt>
      <trkpt lat="45.74979" lon="4.85893">
        <ele>176.858859</ele>
        <time>2021-07-10T22:49:13.514Z</time>
      </trkpt>
      <trkpt lat="45.74964" lon="4.85932">
        <ele>176.797893</ele>
        <time>2021-07-10T22:49:20.625Z</time>
      </trkpt>
      <trkpt lat="45.7496" lon="4.85941">
        <ele>176.790816</ele>
        <time>2021-07-10T22:49:21.787Z</time>
      </trkpt>
      <trkpt lat="45.74957" lon="4.8595">
        <ele>176.783917</ele>
        <time>2021-07-10T22:49:23.047Z</time>
      </trkpt>
      <trkpt lat="45.74953" lon="4.85961">
        <ele>176.776152</ele>
        <time>2021-07-10T22:49:24.602Z</time>
      </trkpt>
      <trkpt lat="45.74951" lon="4.85969">
        <ele>176.770265</ele>
        <time>2021-07-10T22:49:25.756Z</time>
      </trkpt>
      <trkpt lat="45.74949" lon="4.85973">
        <ele>176.767024</ele>
        <time>2021-07-10T22:49:26.393Z</time>
      </trkpt>
      <trkpt lat="45.74933" lon="4.86019">
        <ele>176.732246</ele>
        <time>2021-07-10T22:49:31.883Z</time>
      </trkpt>
      <trkpt lat="45.7493" lon="4.86026">
        <ele>176.726605</ele>
        <time>2021-07-10T22:49:32.676Z</time>
      </trkpt>
      <trkpt lat="45.74928" lon="4.8603">
        <ele>176.723453</ele>
        <time>2021-07-10T22:49:33.001Z</time>
      </trkpt>
      <trkpt lat="45.74928" lon="4.86032">
        <ele>176.722271</ele>
        <time>2021-07-10T22:49:33.212Z</time>
      </trkpt>
      <trkpt lat="45.74926" lon="4.86036">
        <ele>176.719031</ele>
        <time>2021-07-10T22:49:33.630Z</time>
      </trkpt>
      <trkpt lat="45.74924" lon="4.86041">
        <ele>176.715462</ele>
        <time>2021-07-10T22:49:34.168Z</time>
      </trkpt>
      <trkpt lat="45.74923" lon="4.86044">
        <ele>176.712549</ele>
        <time>2021-07-10T22:49:34.910Z</time>
      </trkpt>
      <trkpt lat="45.74904" lon="4.86103">
        <ele>176.669319</ele>
        <time>2021-07-10T22:49:40.951Z</time>
      </trkpt>
      <trkpt lat="45.749" lon="4.86125">
        <ele>176.653801</ele>
        <time>2021-07-10T22:49:43.338Z</time>
      </trkpt>
      <trkpt lat="45.74886" lon="4.86163">
        <ele>176.428777</ele>
        <time>2021-07-10T22:49:48.423Z</time>
      </trkpt>
      <trkpt lat="45.74882" lon="4.86177">
        <ele>176.327844</ele>
        <time>2021-07-10T22:49:50.072Z</time>
      </trkpt>
      <trkpt lat="45.74881" lon="4.8618">
        <ele>176.305373</ele>
        <time>2021-07-10T22:49:50.480Z</time>
      </trkpt>
      <trkpt lat="45.74871" lon="4.86208">
        <ele>176.091843</ele>
        <time>2021-07-10T22:49:54.101Z</time>
      </trkpt>
      <trkpt lat="45.74854" lon="4.86258">
        <ele>175.718959</ele>
        <time>2021-07-10T22:49:58.898Z</time>
      </trkpt>
      <trkpt lat="45.74851" lon="4.86267">
        <ele>175.648876</ele>
        <time>2021-07-10T22:49:59.709Z</time>
      </trkpt>
      <trkpt lat="45.74841" lon="4.86294">
        <ele>175.447183</ele>
        <time>2021-07-10T22:50:01.983Z</time>
      </trkpt>
      <trkpt lat="45.74822" lon="4.86351">
        <ele>175.016055</ele>
        <time>2021-07-10T22:50:06.899Z</time>
      </trkpt>
      <trkpt lat="45.74817" lon="4.86364">
        <ele>174.912443</ele>
        <time>2021-07-10T22:50:08.079Z</time>
      </trkpt>
      <trkpt lat="45.748" lon="4.86413">
        <ele>174.647304</ele>
        <time>2021-07-10T22:50:12.400Z</time>
      </trkpt>
      <trkpt lat="45.74797" lon="4.86421">
        <ele>174.604368</ele>
        <time>2021-07-10T22:50:13.042Z</time>
      </trkpt>
      <trkpt lat="45.74762" lon="4.86522">
        <ele>174.058225</ele>
        <time>2021-07-10T22:50:23.108Z</time>
      </trkpt>
      <trkpt lat="45.7476" lon="4.8653">
        <ele>174.018066</ele>
        <time>2021-07-10T22:50:24.107Z</time>
      </trkpt>
      <trkpt lat="45.74716" lon="4.8666">
        <ele>174.026859</ele>
        <time>2021-07-10T22:50:40.040Z</time>
      </trkpt>
      <trkpt lat="45.74712" lon="4.8667">
        <ele>174.084259</ele>
        <time>2021-07-10T22:50:41.532Z</time>
      </trkpt>
      <trkpt lat="45.74698" lon="4.86713">
        <ele>174.334117</ele>
        <time>2021-07-10T22:50:47.253Z</time>
      </trkpt>
      <trkpt lat="45.74695" lon="4.86721">
        <ele>174.382213</ele>
        <time>2021-07-10T22:50:48.866Z</time>
      </trkpt>
      <trkpt lat="45.74662" lon="4.86814">
        <ele>174.924714</ele>
        <time>2021-07-10T22:51:02.415Z</time>
      </trkpt>
      <trkpt lat="45.7466" lon="4.86821">
        <ele>174.963779</ele>
        <time>2021-07-10T22:51:03.100Z</time>
      </trkpt>
      <trkpt lat="45.74609" lon="4.86969">
        <ele>176.753581</ele>
        <time>2021-07-10T22:51:26.073Z</time>
      </trkpt>
      <trkpt lat="45.74607" lon="4.86974">
        <ele>176.821002</ele>
        <time>2021-07-10T22:51:26.620Z</time>
      </trkpt>
      <trkpt lat="45.74603" lon="4.86988">
        <ele>176.998608</ele>
        <time>2021-07-10T22:51:29.692Z</time>
      </trkpt>
      <trkpt lat="45.74559" lon="4.87115">
        <ele>178.670871</ele>
        <time>2021-07-10T22:51:53.160Z</time>
      </trkpt>
      <trkpt lat="45.74556" lon="4.87124">
        <ele>178.801094</ele>
        <time>2021-07-10T22:51:55.403Z</time>
      </trkpt>
      <trkpt lat="45.74549" lon="4.87143">
        <ele>179.067901</ele>
        <time>2021-07-10T22:51:58.725Z</time>
      </trkpt>
      <trkpt lat="45.74535" lon="4.87183">
        <ele>179.640254</ele>
        <time>2021-07-10T22:52:06.332Z</time>
      </trkpt>
      <trkpt lat="45.7453" lon="4.87198">
        <ele>179.863037</ele>
        <time>2021-07-10T22:52:08.555Z</time>
      </trkpt>
      <trkpt lat="45.74528" lon="4.87204">
        <ele>179.935886</ele>
        <time>2021-07-10T22:52:09.358Z</time>
      </trkpt>
      <trkpt lat="45.74527" lon="4.87205">
        <ele>179.952837</ele>
        <time>2021-07-10T22:52:09.964Z</time>
      </trkpt>
      <trkpt lat="45.74487" lon="4.87322">
        <ele>181.195021</ele>
        <time>2021-07-10T22:52:28.079Z</time>
      </trkpt>
      <trkpt lat="45.74484" lon="4.87333">
        <ele>181.204884</ele>
        <time>2021-07-10T22:52:29.371Z</time>
      </trkpt>
      <trkpt lat="45.74444" lon="4.87446">
        <ele>181.307243</ele>
        <time>2021-07-10T22:52:44.361Z</time>
      </trkpt>
      <trkpt lat="45.7444" lon="4.87457">
        <ele>181.316621</ele>
        <time>2021-07-10T22:52:45.236Z</time>
      </trkpt>
      <trkpt lat="45.74435" lon="4.87473">
        <ele>181.33135</ele>
        <time>2021-07-10T22:52:46.885Z</time>
      </trkpt>
      <trkpt lat="45.74432" lon="4.8748">
        <ele>181.337788</ele>
        <time>2021-07-10T22:52:47.820Z</time>
      </trkpt>
      <trkpt lat="45.74424" lon="4.87505">
        <ele>181.360278</ele>
        <time>2021-07-10T22:52:50.163Z</time>
      </trkpt>
      <trkpt lat="45.74423" lon="4.87507">
        <ele>181.361893</ele>
        <time>2021-07-10T22:52:50.618Z</time>
      </trkpt>
      <trkpt lat="45.74406" lon="4.87555">
        <ele>181.205447</ele>
        <time>2021-07-10T22:52:54.890Z</time>
      </trkpt>
      <trkpt lat="45.74401" lon="4.87571">
        <ele>181.12785</ele>
        <time>2021-07-10T22:52:56.443Z</time>
      </trkpt>
      <trkpt lat="45.74397" lon="4.87584">
        <ele>181.062549</ele>
        <time>2021-07-10T22:52:57.576Z</time>
      </trkpt>
      <trkpt lat="45.74375" lon="4.87646">
        <ele>180.752801</ele>
        <time>2021-07-10T22:53:03.588Z</time>
      </trkpt>
      <trkpt lat="45.74362" lon="4.87686">
        <ele>180.553523</ele>
        <time>2021-07-10T22:53:08.180Z</time>
      </trkpt>
      <trkpt lat="45.74357" lon="4.87699">
        <ele>180.487015</ele>
        <time>2021-07-10T22:53:09.799Z</time>
      </trkpt>
      <trkpt lat="45.74347" lon="4.87698">
        <ele>180.422741</ele>
        <time>2021-07-10T22:53:11.377Z</time>
      </trkpt>
      <trkpt lat="45.7434" lon="4.87697">
        <ele>180.374962</ele>
        <time>2021-07-10T22:53:12.221Z</time>
      </trkpt>
      <trkpt lat="45.74311" lon="4.87691">
        <ele>180.25124</ele>
        <time>2021-07-10T22:53:16.502Z</time>
      </trkpt>
      <trkpt lat="45.74303" lon="4.87688">
        <ele>180.299242</ele>
        <time>2021-07-10T22:53:17.461Z</time>
      </trkpt>
      <trkpt lat="45.74301" lon="4.87698">
        <ele>180.337818</ele>
        <time>2021-07-10T22:53:19.216Z</time>
      </trkpt>
      <trkpt lat="45.743" lon="4.87707">
        <ele>180.373473</ele>
        <time>2021-07-10T22:53:20.326Z</time>
      </trkpt>
      <trkpt lat="45.74289" lon="4.87775">
        <ele>180.644911</ele>
        <time>2021-07-10T22:53:29.863Z</time>
      </trkpt>
      <trkpt lat="45.74288" lon="4.87784">
        <ele>180.683104</ele>
        <time>2021-07-10T22:53:31.068Z</time>
      </trkpt>
      <trkpt lat="45.74286" lon="4.87795">
        <ele>180.727919</ele>
        <time>2021-07-10T22:53:32.942Z</time>
      </trkpt>
      <trkpt lat="45.74283" lon="4.87813">
        <ele>180.801249</ele>
        <time>2021-07-10T22:53:35.575Z</time>
      </trkpt>
      <trkpt lat="45.74278" lon="4.87833">
        <ele>180.884923</ele>
        <time>2021-07-10T22:53:37.739Z</time>
      </trkpt>
      <trkpt lat="45.74274" lon="4.87852">
        <ele>180.961977</ele>
        <time>2021-07-10T22:53:40.490Z</time>
      </trkpt>
      <trkpt lat="45.74272" lon="4.87858">
        <ele>180.988376</ele>
        <time>2021-07-10T22:53:41.476Z</time>
      </trkpt>
      <trkpt lat="45.74266" lon="4.87886">
        <ele>181.100489</ele>
        <time>2021-07-10T22:53:45.340Z</time>
      </trkpt>
      <trkpt lat="45.74265" lon="4.87893">
        <ele>181.130031</ele>
        <time>2021-07-10T22:53:46.733Z</time>
      </trkpt>
      <trkpt lat="45.74265" lon="4.87898">
        <ele>181.150156</ele>
        <time>2021-07-10T22:53:47.564Z</time>
      </trkpt>
      <trkpt lat="45.74266" lon="4.87906">
        <ele>181.180975</ele>
        <time>2021-07-10T22:53:48.761Z</time>
      </trkpt>
      <trkpt lat="45.74262" lon="4.87917">
        <ele>181.230822</ele>
        <time>2021-07-10T22:53:50.734Z</time>
      </trkpt>
      <trkpt lat="45.74262" lon="4.87922">
        <ele>181.311179</ele>
        <time>2021-07-10T22:53:51.473Z</time>
      </trkpt>
      <trkpt lat="45.7426" lon="4.87931">
        <ele>181.481356</ele>
        <time>2021-07-10T22:53:53.057Z</time>
      </trkpt>
      <trkpt lat="45.74251" lon="4.87984">
        <ele>182.525369</ele>
        <time>2021-07-10T22:54:02.366Z</time>
      </trkpt>
      <trkpt lat="45.7425" lon="4.87989">
        <ele>182.620159</ele>
        <time>2021-07-10T22:54:03.322Z</time>
      </trkpt>
      <trkpt lat="45.74247" lon="4.88002">
        <ele>182.870951</ele>
        <time>2021-07-10T22:54:05.742Z</time>
      </trkpt>
      <trkpt lat="45.74246" lon="4.88017">
        <ele>183.142585</ele>
        <time>2021-07-10T22:54:08.282Z</time>
      </trkpt>
      <trkpt lat="45.74247" lon="4.88026">
        <ele>183.316403</ele>
        <time>2021-07-10T22:54:09.880Z</time>
      </trkpt>
      <trkpt lat="45.74247" lon="4.88033">
        <ele>183.450575</ele>
        <time>2021-07-10T22:54:11.120Z</time>
      </trkpt>
      <trkpt lat="45.74221" lon="4.88194">
        <ele>186.68903</ele>
        <time>2021-07-10T22:54:42.485Z</time>
      </trkpt>
      <trkpt lat="45.74219" lon="4.88205">
        <ele>186.974674</ele>
        <time>2021-07-10T22:54:44.850Z</time>
      </trkpt>
      <trkpt lat="45.74218" lon="4.88215">
        <ele>187.204407</ele>
        <time>2021-07-10T22:54:46.628Z</time>
      </trkpt>
      <trkpt lat="45.74217" lon="4.88223">
        <ele>187.396081</ele>
        <time>2021-07-10T22:54:48.097Z</time>
      </trkpt>
      <trkpt lat="45.7421" lon="4.88267">
        <ele>188.473164</ele>
        <time>2021-07-10T22:54:56.838Z</time>
      </trkpt>
      <trkpt lat="45.74206" lon="4.88288">
        <ele>188.996322</ele>
        <time>2021-07-10T22:55:00.999Z</time>
      </trkpt>
      <trkpt lat="45.74203" lon="4.88296">
        <ele>189.225059</ele>
        <time>2021-07-10T22:55:02.926Z</time>
      </trkpt>
      <trkpt lat="45.74188" lon="4.88345">
        <ele>190.505109</ele>
        <time>2021-07-10T22:55:13.833Z</time>
      </trkpt>
      <trkpt lat="45.74164" lon="4.88414">
        <ele>192.331242</ele>
        <time>2021-07-10T22:55:30.251Z</time>
      </trkpt>
      <trkpt lat="45.74136" lon="4.88494">
        <ele>194.478373</ele>
        <time>2021-07-10T22:55:48.326Z</time>
      </trkpt>
      <trkpt lat="45.74133" lon="4.88501">
        <ele>194.660738</ele>
        <time>2021-07-10T22:55:50.627Z</time>
      </trkpt>
      <trkpt lat="45.74126" lon="4.88518">
        <ele>195.128559</ele>
        <time>2021-07-10T22:55:54.208Z</time>
      </trkpt>
      <trkpt lat="45.74123" lon="4.88529">
        <ele>195.415571</ele>
        <time>2021-07-10T22:55:56.392Z</time>
      </trkpt>
      <trkpt lat="45.74121" lon="4.88536">
        <ele>195.602544</ele>
        <time>2021-07-10T22:55:57.895Z</time>
      </trkpt>
      <trkpt lat="45.74116" lon="4.88555">
        <ele>196.069728</ele>
        <time>2021-07-10T22:56:02.330Z</time>
      </trkpt>
      <trkpt lat="45.74094" lon="4.88621">
        <ele>197.816761</ele>
        <time>2021-07-10T22:56:16.083Z</time>
      </trkpt>
      <trkpt lat="45.74075" lon="4.8868">
        <ele>199.050257</ele>
        <time>2021-07-10T22:56:28.133Z</time>
      </trkpt>
      <trkpt lat="45.74072" lon="4.88688">
        <ele>199.191495</ele>
        <time>2021-07-10T22:56:30.650Z</time>
      </trkpt>
      <trkpt lat="45.74068" lon="4.88699">
        <ele>199.393333</ele>
        <time>2021-07-10T22:56:32.836Z</time>
      </trkpt>
      <trkpt lat="45.74044" lon="4.88773">
        <ele>200.708954</ele>
        <time>2021-07-10T22:56:46.501Z</time>
      </trkpt>
      <trkpt lat="45.74029" lon="4.88821">
        <ele>201.572512</ele>
        <time>2021-07-10T22:56:55.025Z</time>
      </trkpt>
      <trkpt lat="45.74027" lon="4.88826">
        <ele>201.659991</ele>
        <time>2021-07-10T22:56:56.201Z</time>
      </trkpt>
      <trkpt lat="45.74022" lon="4.88842">
        <ele>201.944058</ele>
        <time>2021-07-10T22:56:58.812Z</time>
      </trkpt>
      <trkpt lat="45.74017" lon="4.88855">
        <ele>202.180163</ele>
        <time>2021-07-10T22:57:00.733Z</time>
      </trkpt>
      <trkpt lat="45.74005" lon="4.88891">
        <ele>202.643813</ele>
        <time>2021-07-10T22:57:07.056Z</time>
      </trkpt>
      <trkpt lat="45.73942" lon="4.89084">
        <ele>203.853346</ele>
        <time>2021-07-10T22:57:35.299Z</time>
      </trkpt>
      <trkpt lat="45.73914" lon="4.89165">
        <ele>203.524995</ele>
        <time>2021-07-10T22:57:43.477Z</time>
      </trkpt>
      <trkpt lat="45.73907" lon="4.8918">
        <ele>203.384781</ele>
        <time>2021-07-10T22:57:44.926Z</time>
      </trkpt>
      <trkpt lat="45.73906" lon="4.89183">
        <ele>203.360429</ele>
        <time>2021-07-10T22:57:45.188Z</time>
      </trkpt>
      <trkpt lat="45.73904" lon="4.8919">
        <ele>203.300238</ele>
        <time>2021-07-10T22:57:45.815Z</time>
      </trkpt>
      <trkpt lat="45.739" lon="4.892">
        <ele>203.213121</ele>
        <time>2021-07-10T22:57:46.774Z</time>
      </trkpt>
      <trkpt lat="45.73898" lon="4.89207">
        <ele>203.156698</ele>
        <time>2021-07-10T22:57:47.359Z</time>
      </trkpt>
      <trkpt lat="45.73895" lon="4.89215">
        <ele>203.079686</ele>
        <time>2021-07-10T22:57:48.172Z</time>
      </trkpt>
      <trkpt lat="45.73893" lon="4.89221">
        <ele>203.031247</ele>
        <time>2021-07-10T22:57:48.654Z</time>
      </trkpt>
      <trkpt lat="45.73885" lon="4.89251">
        <ele>202.785287</ele>
        <time>2021-07-10T22:57:51.190Z</time>
      </trkpt>
      <trkpt lat="45.73878" lon="4.89274">
        <ele>202.588707</ele>
        <time>2021-07-10T22:57:53.162Z</time>
      </trkpt>
      <trkpt lat="45.73864" lon="4.89333">
        <ele>202.107196</ele>
        <time>2021-07-10T22:57:58.235Z</time>
      </trkpt>
      <trkpt lat="45.73858" lon="4.89354">
        <ele>201.978423</ele>
        <time>2021-07-10T22:58:00.227Z</time>
      </trkpt>
      <trkpt lat="45.73855" lon="4.89361">
        <ele>201.954583</ele>
        <time>2021-07-10T22:58:00.779Z</time>
      </trkpt>
      <trkpt lat="45.73852" lon="4.8937">
        <ele>201.920312</ele>
        <time>2021-07-10T22:58:01.595Z</time>
      </trkpt>
      <trkpt lat="45.73849" lon="4.89381">
        <ele>201.880877</ele>
        <time>2021-07-10T22:58:02.580Z</time>
      </trkpt>
      <trkpt lat="45.7384" lon="4.89408">
        <ele>201.782639</ele>
        <time>2021-07-10T22:58:05.038Z</time>
      </trkpt>
      <trkpt lat="45.73829" lon="4.89441">
        <ele>201.664035</ele>
        <time>2021-07-10T22:58:08.063Z</time>
      </trkpt>
      <trkpt lat="45.73828" lon="4.89445">
        <ele>201.647644</ele>
        <time>2021-07-10T22:58:08.458Z</time>
      </trkpt>
      <trkpt lat="45.73824" lon="4.89458">
        <ele>201.603241</ele>
        <time>2021-07-10T22:58:09.536Z</time>
      </trkpt>
      <trkpt lat="45.7382" lon="4.8947">
        <ele>201.557733</ele>
        <time>2021-07-10T22:58:10.762Z</time>
      </trkpt>
      <trkpt lat="45.73816" lon="4.8948">
        <ele>201.522266</ele>
        <time>2021-07-10T22:58:11.795Z</time>
      </trkpt>
      <trkpt lat="45.73814" lon="4.89485">
        <ele>201.502096</ele>
        <time>2021-07-10T22:58:12.552Z</time>
      </trkpt>
      <trkpt lat="45.73801" lon="4.89525">
        <ele>201.355355</ele>
        <time>2021-07-10T22:58:16.823Z</time>
      </trkpt>
      <trkpt lat="45.73765" lon="4.89637">
        <ele>201.887298</ele>
        <time>2021-07-10T22:58:32.675Z</time>
      </trkpt>
      <trkpt lat="45.73743" lon="4.89703">
        <ele>202.688502</ele>
        <time>2021-07-10T22:58:44.477Z</time>
      </trkpt>
      <trkpt lat="45.73716" lon="4.89784">
        <ele>203.660456</ele>
        <time>2021-07-10T22:58:58.341Z</time>
      </trkpt>
      <trkpt lat="45.73714" lon="4.8979">
        <ele>203.740904</ele>
        <time>2021-07-10T22:58:59.625Z</time>
      </trkpt>
      <trkpt lat="45.7371" lon="4.89802">
        <ele>203.88691</ele>
        <time>2021-07-10T22:59:01.498Z</time>
      </trkpt>
      <trkpt lat="45.73705" lon="4.8982">
        <ele>204.055081</ele>
        <time>2021-07-10T22:59:04.251Z</time>
      </trkpt>
      <trkpt lat="45.73703" lon="4.89827">
        <ele>204.113291</ele>
        <time>2021-07-10T22:59:05.942Z</time>
      </trkpt>
      <trkpt lat="45.73655" lon="4.8997">
        <ele>205.258076</ele>
        <time>2021-07-10T22:59:28.975Z</time>
      </trkpt>
      <trkpt lat="45.73637" lon="4.90011">
        <ele>205.610232</ele>
        <time>2021-07-10T22:59:35.142Z</time>
      </trkpt>
      <trkpt lat="45.73622" lon="4.90042">
        <ele>205.779327</ele>
        <time>2021-07-10T22:59:38.783Z</time>
      </trkpt>
      <trkpt lat="45.736" lon="4.90098">
        <ele>205.025341</ele>
        <time>2021-07-10T22:59:44.302Z</time>
      </trkpt>
      <trkpt lat="45.73597" lon="4.90106">
        <ele>204.909949</ele>
        <time>2021-07-10T22:59:45.062Z</time>
      </trkpt>
      <trkpt lat="45.73587" lon="4.9014">
        <ele>204.473437</ele>
        <time>2021-07-10T22:59:47.953Z</time>
      </trkpt>
      <trkpt lat="45.73581" lon="4.90159">
        <ele>204.239818</ele>
        <time>2021-07-10T22:59:49.451Z</time>
      </trkpt>
      <trkpt lat="45.73549" lon="4.90253">
        <ele>203.001149</ele>
        <time>2021-07-10T22:59:57.196Z</time>
      </trkpt>
      <trkpt lat="45.73544" lon="4.90261">
        <ele>202.876909</ele>
        <time>2021-07-10T22:59:57.951Z</time>
      </trkpt>
      <trkpt lat="45.73529" lon="4.90305">
        <ele>202.466781</ele>
        <time>2021-07-10T23:00:01.638Z</time>
      </trkpt>
      <trkpt lat="45.73517" lon="4.90344">
        <ele>202.133752</ele>
        <time>2021-07-10T23:00:05.009Z</time>
      </trkpt>
      <trkpt lat="45.73498" lon="4.90407">
        <ele>201.599415</ele>
        <time>2021-07-10T23:00:10.514Z</time>
      </trkpt>
      <trkpt lat="45.73496" lon="4.90411">
        <ele>201.567034</ele>
        <time>2021-07-10T23:00:10.906Z</time>
      </trkpt>
      <trkpt lat="45.73495" lon="4.90415">
        <ele>201.529017</ele>
        <time>2021-07-10T23:00:11.266Z</time>
      </trkpt>
      <trkpt lat="45.7348" lon="4.90462">
        <ele>201.129674</ele>
        <time>2021-07-10T23:00:15.968Z</time>
      </trkpt>
      <trkpt lat="45.73477" lon="4.9047">
        <ele>201.057403</ele>
        <time>2021-07-10T23:00:16.945Z</time>
      </trkpt>
      <trkpt lat="45.73472" lon="4.90487">
        <ele>200.915216</ele>
        <time>2021-07-10T23:00:19.125Z</time>
      </trkpt>
      <trkpt lat="45.73465" lon="4.9049">
        <ele>200.841006</ele>
        <time>2021-07-10T23:00:20.260Z</time>
      </trkpt>
      <trkpt lat="45.7346" lon="4.90495">
        <ele>200.840989</ele>
        <time>2021-07-10T23:00:21.395Z</time>
      </trkpt>
      <trkpt lat="45.73458" lon="4.90503">
        <ele>200.94816</ele>
        <time>2021-07-10T23:00:22.216Z</time>
      </trkpt>
      <trkpt lat="45.73457" lon="4.90514">
        <ele>201.08281</ele>
        <time>2021-07-10T23:00:23.601Z</time>
      </trkpt>
      <trkpt lat="45.73461" lon="4.90523">
        <ele>201.215243</ele>
        <time>2021-07-10T23:00:25.057Z</time>
      </trkpt>
      <trkpt lat="45.73458" lon="4.90538">
        <ele>201.399558</ele>
        <time>2021-07-10T23:00:27.702Z</time>
      </trkpt>
      <trkpt lat="45.73455" lon="4.90547">
        <ele>201.517266</ele>
        <time>2021-07-10T23:00:29.360Z</time>
      </trkpt>
      <trkpt lat="45.73445" lon="4.90579">
        <ele>201.951171</ele>
        <time>2021-07-10T23:00:35.825Z</time>
      </trkpt>
      <trkpt lat="45.7341" lon="4.90686">
        <ele>203.413561</ele>
        <time>2021-07-10T23:01:00.392Z</time>
      </trkpt>
      <trkpt lat="45.73358" lon="4.90835">
        <ele>205.349779</ele>
        <time>2021-07-10T23:01:35.424Z</time>
      </trkpt>
      <trkpt lat="45.73356" lon="4.9084">
        <ele>205.40679</ele>
        <time>2021-07-10T23:01:36.825Z</time>
      </trkpt>
      <trkpt lat="45.73351" lon="4.90854">
        <ele>205.590088</ele>
        <time>2021-07-10T23:01:39.740Z</time>
      </trkpt>
      <trkpt lat="45.73345" lon="4.90872">
        <ele>205.814923</ele>
        <time>2021-07-10T23:01:43.275Z</time>
      </trkpt>
      <trkpt lat="45.73324" lon="4.90937">
        <ele>206.617761</ele>
        <time>2021-07-10T23:01:55.383Z</time>
      </trkpt>
      <trkpt lat="45.73316" lon="4.90968">
        <ele>206.84186</ele>
        <time>2021-07-10T23:02:00.125Z</time>
      </trkpt>
      <trkpt lat="45.73314" lon="4.90977">
        <ele>206.79363</ele>
        <time>2021-07-10T23:02:01.484Z</time>
      </trkpt>
      <trkpt lat="45.73303" lon="4.91009">
        <ele>206.615145</ele>
        <time>2021-07-10T23:02:06.408Z</time>
      </trkpt>
      <trkpt lat="45.73301" lon="4.91014">
        <ele>206.58381</ele>
        <time>2021-07-10T23:02:07.186Z</time>
      </trkpt>
      <trkpt lat="45.73298" lon="4.91025">
        <ele>206.522663</ele>
        <time>2021-07-10T23:02:08.896Z</time>
      </trkpt>
      <trkpt lat="45.73294" lon="4.91037">
        <ele>206.456904</ele>
        <time>2021-07-10T23:02:10.656Z</time>
      </trkpt>
      <trkpt lat="45.73285" lon="4.91064">
        <ele>206.305144</ele>
        <time>2021-07-10T23:02:14.351Z</time>
      </trkpt>
      <trkpt lat="45.73236" lon="4.91209">
        <ele>205.495307</ele>
        <time>2021-07-10T23:02:33.415Z</time>
      </trkpt>
      <trkpt lat="45.73233" lon="4.91219">
        <ele>205.445727</ele>
        <time>2021-07-10T23:02:34.704Z</time>
      </trkpt>
      <trkpt lat="45.73216" lon="4.91272">
        <ele>205.180247</ele>
        <time>2021-07-10T23:02:41.590Z</time>
      </trkpt>
      <trkpt lat="45.73215" lon="4.91276">
        <ele>205.162933</ele>
        <time>2021-07-10T23:02:42.008Z</time>
      </trkpt>
      <trkpt lat="45.73208" lon="4.91296">
        <ele>205.061016</ele>
        <time>2021-07-10T23:02:44.729Z</time>
      </trkpt>
      <trkpt lat="45.73203" lon="4.9131">
        <ele>204.987537</ele>
        <time>2021-07-10T23:02:46.733Z</time>
      </trkpt>
      <trkpt lat="45.73169" lon="4.91414">
        <ele>204.465219</ele>
        <time>2021-07-10T23:03:02.139Z</time>
      </trkpt>
      <trkpt lat="45.73162" lon="4.91429">
        <ele>204.43112</ele>
        <time>2021-07-10T23:03:04.726Z</time>
      </trkpt>
      <trkpt lat="45.73159" lon="4.91436">
        <ele>204.47259</ele>
        <time>2021-07-10T23:03:05.983Z</time>
      </trkpt>
      <trkpt lat="45.73156" lon="4.91443">
        <ele>204.511042</ele>
        <time>2021-07-10T23:03:07.130Z</time>
      </trkpt>
      <trkpt lat="45.7314" lon="4.91492">
        <ele>204.76488</ele>
        <time>2021-07-10T23:03:15.146Z</time>
      </trkpt>
      <trkpt lat="45.73139" lon="4.91496">
        <ele>204.789172</ele>
        <time>2021-07-10T23:03:16.004Z</time>
      </trkpt>
      <trkpt lat="45.73136" lon="4.91505">
        <ele>204.834173</ele>
        <time>2021-07-10T23:03:17.455Z</time>
      </trkpt>
      <trkpt lat="45.73131" lon="4.91531">
        <ele>204.960191</ele>
        <time>2021-07-10T23:03:21.582Z</time>
      </trkpt>
      <trkpt lat="45.73073" lon="4.91702">
        <ele>206.369391</ele>
        <time>2021-07-10T23:03:53.660Z</time>
      </trkpt>
      <trkpt lat="45.7307" lon="4.91712">
        <ele>206.530417</ele>
        <time>2021-07-10T23:03:55.743Z</time>
      </trkpt>
      <trkpt lat="45.73068" lon="4.91717">
        <ele>206.613479</ele>
        <time>2021-07-10T23:03:56.807Z</time>
      </trkpt>
      <trkpt lat="45.73066" lon="4.91724">
        <ele>206.720631</ele>
        <time>2021-07-10T23:03:58.148Z</time>
      </trkpt>
      <trkpt lat="45.73066" lon="4.91727">
        <ele>206.768384</ele>
        <time>2021-07-10T23:03:58.771Z</time>
      </trkpt>
      <trkpt lat="45.73065" lon="4.91731">
        <ele>206.842089</ele>
        <time>2021-07-10T23:03:59.661Z</time>
      </trkpt>
      <trkpt lat="45.73064" lon="4.91736">
        <ele>206.912236</ele>
        <time>2021-07-10T23:04:00.552Z</time>
      </trkpt>
      <trkpt lat="45.73063" lon="4.91738">
        <ele>206.942939</ele>
        <time>2021-07-10T23:04:00.854Z</time>
      </trkpt>
      <trkpt lat="45.73063" lon="4.91753">
        <ele>207.166581</ele>
        <time>2021-07-10T23:04:03.187Z</time>
      </trkpt>
      <trkpt lat="45.73062" lon="4.91758">
        <ele>207.246046</ele>
        <time>2021-07-10T23:04:04.083Z</time>
      </trkpt>
      <trkpt lat="45.73061" lon="4.91761">
        <ele>207.304231</ele>
        <time>2021-07-10T23:04:04.740Z</time>
      </trkpt>
      <trkpt lat="45.73049" lon="4.91791">
        <ele>207.824223</ele>
        <time>2021-07-10T23:04:10.574Z</time>
      </trkpt>
      <trkpt lat="45.73015" lon="4.91894">
        <ele>209.526615</ele>
        <time>2021-07-10T23:04:31.564Z</time>
      </trkpt>
      <trkpt lat="45.73013" lon="4.91901">
        <ele>209.622943</ele>
        <time>2021-07-10T23:04:33.222Z</time>
      </trkpt>
      <trkpt lat="45.73011" lon="4.91906">
        <ele>209.691905</ele>
        <time>2021-07-10T23:04:34.394Z</time>
      </trkpt>
      <trkpt lat="45.73009" lon="4.91912">
        <ele>209.771659</ele>
        <time>2021-07-10T23:04:35.528Z</time>
      </trkpt>
      <trkpt lat="45.73007" lon="4.9192">
        <ele>209.88185</ele>
        <time>2021-07-10T23:04:37.036Z</time>
      </trkpt>
      <trkpt lat="45.73006" lon="4.91923">
        <ele>209.936945</ele>
        <time>2021-07-10T23:04:37.794Z</time>
      </trkpt>
      <trkpt lat="45.73003" lon="4.9193">
        <ele>210.034422</ele>
        <time>2021-07-10T23:04:39.144Z</time>
      </trkpt>
      <trkpt lat="45.72985" lon="4.91987">
        <ele>210.832305</ele>
        <time>2021-07-10T23:04:50.520Z</time>
      </trkpt>
      <trkpt lat="45.72979" lon="4.91998">
        <ele>211.011276</ele>
        <time>2021-07-10T23:04:53.346Z</time>
      </trkpt>
      <trkpt lat="45.72966" lon="4.92026">
        <ele>211.445179</ele>
        <time>2021-07-10T23:04:58.630Z</time>
      </trkpt>
      <trkpt lat="45.72953" lon="4.92062">
        <ele>211.948645</ele>
        <time>2021-07-10T23:05:04.671Z</time>
      </trkpt>
      <trkpt lat="45.72944" lon="4.92087">
        <ele>212.317153</ele>
        <time>2021-07-10T23:05:08.778Z</time>
      </trkpt>
      <trkpt lat="45.72908" lon="4.92195">
        <ele>211.845582</ele>
        <time>2021-07-10T23:05:19.924Z</time>
      </trkpt>
      <trkpt lat="45.72855" lon="4.92355">
        <ele>209.822613</ele>
        <time>2021-07-10T23:05:33.278Z</time>
      </trkpt>
      <trkpt lat="45.72829" lon="4.92431">
        <ele>208.583965</ele>
        <time>2021-07-10T23:05:39.400Z</time>
      </trkpt>
      <trkpt lat="45.72823" lon="4.92449">
        <ele>208.295013</ele>
        <time>2021-07-10T23:05:40.830Z</time>
      </trkpt>
      <trkpt lat="45.72817" lon="4.9247">
        <ele>207.956644</ele>
        <time>2021-07-10T23:05:42.572Z</time>
      </trkpt>
      <trkpt lat="45.72811" lon="4.9249">
        <ele>207.629839</ele>
        <time>2021-07-10T23:05:44.238Z</time>
      </trkpt>
      <trkpt lat="45.72792" lon="4.92546">
        <ele>206.711344</ele>
        <time>2021-07-10T23:05:49.158Z</time>
      </trkpt>
      <trkpt lat="45.72776" lon="4.92595">
        <ele>205.943511</ele>
        <time>2021-07-10T23:05:53.563Z</time>
      </trkpt>
      <trkpt lat="45.72758" lon="4.92642">
        <ele>205.284531</ele>
        <time>2021-07-10T23:05:57.902Z</time>
      </trkpt>
      <trkpt lat="45.72733" lon="4.92716">
        <ele>204.280933</ele>
        <time>2021-07-10T23:06:04.332Z</time>
      </trkpt>
      <trkpt lat="45.72731" lon="4.9272">
        <ele>204.220062</ele>
        <time>2021-07-10T23:06:04.715Z</time>
      </trkpt>
      <trkpt lat="45.72728" lon="4.92728">
        <ele>204.110248</ele>
        <time>2021-07-10T23:06:05.403Z</time>
      </trkpt>
      <trkpt lat="45.72725" lon="4.92734">
        <ele>204.021507</ele>
        <time>2021-07-10T23:06:05.936Z</time>
      </trkpt>
      <trkpt lat="45.72708" lon="4.92786">
        <ele>203.309483</ele>
        <time>2021-07-10T23:06:10.394Z</time>
      </trkpt>
      <trkpt lat="45.72691" lon="4.92842">
        <ele>202.605455</ele>
        <time>2021-07-10T23:06:15.074Z</time>
      </trkpt>
      <trkpt lat="45.72679" lon="4.9288">
        <ele>202.139107</ele>
        <time>2021-07-10T23:06:18.383Z</time>
      </trkpt>
      <trkpt lat="45.72664" lon="4.92934">
        <ele>201.503294</ele>
        <time>2021-07-10T23:06:22.928Z</time>
      </trkpt>
      <trkpt lat="45.72654" lon="4.92964">
        <ele>201.138445</ele>
        <time>2021-07-10T23:06:25.574Z</time>
      </trkpt>
      <trkpt lat="45.72648" lon="4.92984">
        <ele>200.902278</ele>
        <time>2021-07-10T23:06:27.303Z</time>
      </trkpt>
      <trkpt lat="45.72641" lon="4.93006">
        <ele>200.634277</ele>
        <time>2021-07-10T23:06:29.266Z</time>
      </trkpt>
      <trkpt lat="45.7262" lon="4.93066">
        <ele>199.999911</ele>
        <time>2021-07-10T23:06:34.878Z</time>
      </trkpt>
      <trkpt lat="45.72557" lon="4.93252">
        <ele>198.994893</ele>
        <time>2021-07-10T23:06:53.675Z</time>
      </trkpt>
      <trkpt lat="45.72534" lon="4.9332">
        <ele>198.910516</ele>
        <time>2021-07-10T23:07:00.471Z</time>
      </trkpt>
      <trkpt lat="45.72508" lon="4.93396">
        <ele>199.072387</ele>
        <time>2021-07-10T23:07:09.466Z</time>
      </trkpt>
      <trkpt lat="45.72507" lon="4.934">
        <ele>199.080534</ele>
        <time>2021-07-10T23:07:09.762Z</time>
      </trkpt>
      <trkpt lat="45.72504" lon="4.93409">
        <ele>199.099735</ele>
        <time>2021-07-10T23:07:11.059Z</time>
      </trkpt>
      <trkpt lat="45.72503" lon="4.93414">
        <ele>199.110149</ele>
        <time>2021-07-10T23:07:11.796Z</time>
      </trkpt>
      <trkpt lat="45.72496" lon="4.93432">
        <ele>199.149137</ele>
        <time>2021-07-10T23:07:14.577Z</time>
      </trkpt>
      <trkpt lat="45.7248" lon="4.93459">
        <ele>199.21659</ele>
        <time>2021-07-10T23:07:18.761Z</time>
      </trkpt>
      <trkpt lat="45.72458" lon="4.93486">
        <ele>199.298616</ele>
        <time>2021-07-10T23:07:24.205Z</time>
      </trkpt>
      <trkpt lat="45.72451" lon="4.93495">
        <ele>199.32271</ele>
        <time>2021-07-10T23:07:26.013Z</time>
      </trkpt>
      <trkpt lat="45.72444" lon="4.93506">
        <ele>199.402449</ele>
        <time>2021-07-10T23:07:28.078Z</time>
      </trkpt>
      <trkpt lat="45.72439" lon="4.93538">
        <ele>199.58628</ele>
        <time>2021-07-10T23:07:31.795Z</time>
      </trkpt>
      <trkpt lat="45.72438" lon="4.93542">
        <ele>199.60853</ele>
        <time>2021-07-10T23:07:32.462Z</time>
      </trkpt>
      <trkpt lat="45.72437" lon="4.9355">
        <ele>199.654482</ele>
        <time>2021-07-10T23:07:33.591Z</time>
      </trkpt>
      <trkpt lat="45.72432" lon="4.93573">
        <ele>199.792563</ele>
        <time>2021-07-10T23:07:36.216Z</time>
      </trkpt>
      <trkpt lat="45.7243" lon="4.93582">
        <ele>199.846111</ele>
        <time>2021-07-10T23:07:37.502Z</time>
      </trkpt>
      <trkpt lat="45.72428" lon="4.93596">
        <ele>199.925301</ele>
        <time>2021-07-10T23:07:39.572Z</time>
      </trkpt>
      <trkpt lat="45.72412" lon="4.93668">
        <ele>200.356139</ele>
        <time>2021-07-10T23:07:49.980Z</time>
      </trkpt>
      <trkpt lat="45.72398" lon="4.93728">
        <ele>200.710313</ele>
        <time>2021-07-10T23:07:57.960Z</time>
      </trkpt>
      <trkpt lat="45.7238" lon="4.93775">
        <ele>200.636678</ele>
        <time>2021-07-10T23:08:06.081Z</time>
      </trkpt>
      <trkpt lat="45.72357" lon="4.93825">
        <ele>200.415948</ele>
        <time>2021-07-10T23:08:13.981Z</time>
      </trkpt>
      <trkpt lat="45.72318" lon="4.93888">
        <ele>200.108844</ele>
        <time>2021-07-10T23:08:24.195Z</time>
      </trkpt>
      <trkpt lat="45.72271" lon="4.93948">
        <ele>199.772666</ele>
        <time>2021-07-10T23:08:35.115Z</time>
      </trkpt>
      <trkpt lat="45.72234" lon="4.93987">
        <ele>199.503971</ele>
        <time>2021-07-10T23:08:43.413Z</time>
      </trkpt>
      <trkpt lat="45.72184" lon="4.94026">
        <ele>199.172404</ele>
        <time>2021-07-10T23:08:53.803Z</time>
      </trkpt>
      <trkpt lat="45.7201" lon="4.94132">
        <ele>198.637149</ele>
        <time>2021-07-10T23:09:29.773Z</time>
      </trkpt>
      <trkpt lat="45.71957" lon="4.94176">
        <ele>198.585817</ele>
        <time>2021-07-10T23:09:42.719Z</time>
      </trkpt>
      <trkpt lat="45.71939" lon="4.94195">
        <ele>198.681973</ele>
        <time>2021-07-10T23:09:47.445Z</time>
      </trkpt>
      <trkpt lat="45.71931" lon="4.94203">
        <ele>198.721785</ele>
        <time>2021-07-10T23:09:49.833Z</time>
      </trkpt>
      <trkpt lat="45.7187" lon="4.94286">
        <ele>199.07005</ele>
        <time>2021-07-10T23:10:08.379Z</time>
      </trkpt>
      <trkpt lat="45.71818" lon="4.94388">
        <ele>199.404986</ele>
        <time>2021-07-10T23:10:28.087Z</time>
      </trkpt>
      <trkpt lat="45.7179" lon="4.94469">
        <ele>199.603857</ele>
        <time>2021-07-10T23:10:41.389Z</time>
      </trkpt>
      <trkpt lat="45.71764" lon="4.94597">
        <ele>199.889717</ele>
        <time>2021-07-10T23:11:01.191Z</time>
      </trkpt>
      <trkpt lat="45.7176" lon="4.94644">
        <ele>199.948255</ele>
        <time>2021-07-10T23:11:08.214Z</time>
      </trkpt>
      <trkpt lat="45.71754" lon="4.94702">
        <ele>200.020029</ele>
        <time>2021-07-10T23:11:16.860Z</time>
      </trkpt>
      <trkpt lat="45.71758" lon="4.94799">
        <ele>200.14082</ele>
        <time>2021-07-10T23:11:31.062Z</time>
      </trkpt>
      <trkpt lat="45.71761" lon="4.94829">
        <ele>200.178499</ele>
        <time>2021-07-10T23:11:35.385Z</time>
      </trkpt>
      <trkpt lat="45.71762" lon="4.9484">
        <ele>200.191638</ele>
        <time>2021-07-10T23:11:36.991Z</time>
      </trkpt>
      <trkpt lat="45.71777" lon="4.94922">
        <ele>200.333591</ele>
        <time>2021-07-10T23:11:49.422Z</time>
      </trkpt>
      <trkpt lat="45.71779" lon="4.94941">
        <ele>200.365657</ele>
        <time>2021-07-10T23:11:52.221Z</time>
      </trkpt>
      <trkpt lat="45.71779" lon="4.94951">
        <ele>200.382404</ele>
        <time>2021-07-10T23:11:53.577Z</time>
      </trkpt>
      <trkpt lat="45.71778" lon="4.94956">
        <ele>200.391857</ele>
        <time>2021-07-10T23:11:54.452Z</time>
      </trkpt>
      <trkpt lat="45.71775" lon="4.94961">
        <ele>200.403301</ele>
        <time>2021-07-10T23:11:55.158Z</time>
      </trkpt>
      <trkpt lat="45.71772" lon="4.94967">
        <ele>200.414557</ele>
        <time>2021-07-10T23:11:55.863Z</time>
      </trkpt>
      <trkpt lat="45.71771" lon="4.94973">
        <ele>200.42599</ele>
        <time>2021-07-10T23:11:56.597Z</time>
      </trkpt>
      <trkpt lat="45.71771" lon="4.9498">
        <ele>200.43716</ele>
        <time>2021-07-10T23:11:57.246Z</time>
      </trkpt>
      <trkpt lat="45.71772" lon="4.94986">
        <ele>200.44825</ele>
        <time>2021-07-10T23:11:58.066Z</time>
      </trkpt>
      <trkpt lat="45.71774" lon="4.94992">
        <ele>200.459448</ele>
        <time>2021-07-10T23:11:58.765Z</time>
      </trkpt>
      <trkpt lat="45.71777" lon="4.94997">
        <ele>200.47031</ele>
        <time>2021-07-10T23:11:59.400Z</time>
      </trkpt>
      <trkpt lat="45.7178" lon="4.95001">
        <ele>200.481239</ele>
        <time>2021-07-10T23:12:00.171Z</time>
      </trkpt>
      <trkpt lat="45.71784" lon="4.95003">
        <ele>200.491903</ele>
        <time>2021-07-10T23:12:00.827Z</time>
      </trkpt>
      <trkpt lat="45.71787" lon="4.95008">
        <ele>200.503277</ele>
        <time>2021-07-10T23:12:01.557Z</time>
      </trkpt>
      <trkpt lat="45.7179" lon="4.95017">
        <ele>200.520355</ele>
        <time>2021-07-10T23:12:02.659Z</time>
      </trkpt>
      <trkpt lat="45.71793" lon="4.95029">
        <ele>200.541114</ele>
        <time>2021-07-10T23:12:04.267Z</time>
      </trkpt>
      <trkpt lat="45.71812" lon="4.95143">
        <ele>200.814099</ele>
        <time>2021-07-10T23:12:17.883Z</time>
      </trkpt>
      <trkpt lat="45.71818" lon="4.95213">
        <ele>201.016506</ele>
        <time>2021-07-10T23:12:25.944Z</time>
      </trkpt>
      <trkpt lat="45.71819" lon="4.95243">
        <ele>201.100578</ele>
        <time>2021-07-10T23:12:29.501Z</time>
      </trkpt>
      <trkpt lat="45.7182" lon="4.95266">
        <ele>201.166527</ele>
        <time>2021-07-10T23:12:32.308Z</time>
      </trkpt>
      <trkpt lat="45.71819" lon="4.95298">
        <ele>201.259693</ele>
        <time>2021-07-10T23:12:35.927Z</time>
      </trkpt>
      <trkpt lat="45.71819" lon="4.9532">
        <ele>201.32195</ele>
        <time>2021-07-10T23:12:38.536Z</time>
      </trkpt>
      <trkpt lat="45.71818" lon="4.95326">
        <ele>201.338593</ele>
        <time>2021-07-10T23:12:39.254Z</time>
      </trkpt>
      <trkpt lat="45.71815" lon="4.95334">
        <ele>201.367278</ele>
        <time>2021-07-10T23:12:40.599Z</time>
      </trkpt>
      <trkpt lat="45.71813" lon="4.95428">
        <ele>201.719949</ele>
        <time>2021-07-10T23:12:54.773Z</time>
      </trkpt>
      <trkpt lat="45.71812" lon="4.95433">
        <ele>201.739398</ele>
        <time>2021-07-10T23:12:55.426Z</time>
      </trkpt>
      <trkpt lat="45.71811" lon="4.95438">
        <ele>201.758495</ele>
        <time>2021-07-10T23:12:56.111Z</time>
      </trkpt>
      <trkpt lat="45.718" lon="4.95461">
        <ele>201.861991</ele>
        <time>2021-07-10T23:13:00.297Z</time>
      </trkpt>
      <trkpt lat="45.71802" lon="4.9549">
        <ele>201.973605</ele>
        <time>2021-07-10T23:13:04.625Z</time>
      </trkpt>
      <trkpt lat="45.71801" lon="4.95495">
        <ele>201.991413</ele>
        <time>2021-07-10T23:13:05.283Z</time>
      </trkpt>
      <trkpt lat="45.718" lon="4.955">
        <ele>202.011406</ele>
        <time>2021-07-10T23:13:06.127Z</time>
      </trkpt>
      <trkpt lat="45.71779" lon="4.95546">
        <ele>202.219057</ele>
        <time>2021-07-10T23:13:15.104Z</time>
      </trkpt>
      <trkpt lat="45.71751" lon="4.95629">
        <ele>203.014259</ele>
        <time>2021-07-10T23:13:30.993Z</time>
      </trkpt>
      <trkpt lat="45.71748" lon="4.95647">
        <ele>203.216988</ele>
        <time>2021-07-10T23:13:34.482Z</time>
      </trkpt>
      <trkpt lat="45.71748" lon="4.95649">
        <ele>203.242764</ele>
        <time>2021-07-10T23:13:34.802Z</time>
      </trkpt>
      <trkpt lat="45.71725" lon="4.95712">
        <ele>204.04571</ele>
        <time>2021-07-10T23:13:45.509Z</time>
      </trkpt>
      <trkpt lat="45.71717" lon="4.95735">
        <ele>204.325535</ele>
        <time>2021-07-10T23:13:49.671Z</time>
      </trkpt>
      <trkpt lat="45.7171" lon="4.95759">
        <ele>204.613541</ele>
        <time>2021-07-10T23:13:53.474Z</time>
      </trkpt>
      <trkpt lat="45.71703" lon="4.9578">
        <ele>204.882507</ele>
        <time>2021-07-10T23:13:57.565Z</time>
      </trkpt>
      <trkpt lat="45.71701" lon="4.95784">
        <ele>204.927615</ele>
        <time>2021-07-10T23:13:58.210Z</time>
      </trkpt>
      <trkpt lat="45.717" lon="4.95786">
        <ele>204.959845</ele>
        <time>2021-07-10T23:13:58.653Z</time>
      </trkpt>
      <trkpt lat="45.71697" lon="4.9579">
        <ele>205.020146</ele>
        <time>2021-07-10T23:13:59.453Z</time>
      </trkpt>
      <trkpt lat="45.71694" lon="4.95795">
        <ele>205.102393</ele>
        <time>2021-07-10T23:14:00.583Z</time>
      </trkpt>
      <trkpt lat="45.71689" lon="4.95796">
        <ele>205.171843</ele>
        <time>2021-07-10T23:14:01.508Z</time>
      </trkpt>
      <trkpt lat="45.71685" lon="4.95798">
        <ele>205.235084</ele>
        <time>2021-07-10T23:14:02.501Z</time>
      </trkpt>
      <trkpt lat="45.71682" lon="4.95802">
        <ele>205.288485</ele>
        <time>2021-07-10T23:14:03.543Z</time>
      </trkpt>
      <trkpt lat="45.7168" lon="4.95808">
        <ele>205.339345</ele>
        <time>2021-07-10T23:14:04.606Z</time>
      </trkpt>
      <trkpt lat="45.71679" lon="4.95813">
        <ele>205.390664</ele>
        <time>2021-07-10T23:14:05.633Z</time>
      </trkpt>
      <trkpt lat="45.71679" lon="4.95819">
        <ele>205.442263</ele>
        <time>2021-07-10T23:14:06.621Z</time>
      </trkpt>
      <trkpt lat="45.7168" lon="4.95824">
        <ele>205.487294</ele>
        <time>2021-07-10T23:14:07.428Z</time>
      </trkpt>
      <trkpt lat="45.71682" lon="4.95829">
        <ele>205.532394</ele>
        <time>2021-07-10T23:14:08.229Z</time>
      </trkpt>
      <trkpt lat="45.7168" lon="4.95842">
        <ele>205.653519</ele>
        <time>2021-07-10T23:14:10.342Z</time>
      </trkpt>
      <trkpt lat="45.71679" lon="4.95846">
        <ele>205.688802</ele>
        <time>2021-07-10T23:14:11.019Z</time>
      </trkpt>
      <trkpt lat="45.71666" lon="4.95882">
        <ele>206.028245</ele>
        <time>2021-07-10T23:14:17.031Z</time>
      </trkpt>
      <trkpt lat="45.71666" lon="4.95884">
        <ele>206.051646</ele>
        <time>2021-07-10T23:14:17.375Z</time>
      </trkpt>
      <trkpt lat="45.71652" lon="4.95925">
        <ele>206.444927</ele>
        <time>2021-07-10T23:14:23.793Z</time>
      </trkpt>
      <trkpt lat="45.71636" lon="4.95975">
        <ele>206.918435</ele>
        <time>2021-07-10T23:14:30.936Z</time>
      </trkpt>
      <trkpt lat="45.71622" lon="4.96013">
        <ele>207.282479</ele>
        <time>2021-07-10T23:14:36.043Z</time>
      </trkpt>
      <trkpt lat="45.71603" lon="4.96068">
        <ele>207.53101</ele>
        <time>2021-07-10T23:14:43.161Z</time>
      </trkpt>
      <trkpt lat="45.71597" lon="4.96087">
        <ele>207.580735</ele>
        <time>2021-07-10T23:14:45.505Z</time>
      </trkpt>
      <trkpt lat="45.71581" lon="4.96133">
        <ele>207.697417</ele>
        <time>2021-07-10T23:14:51.117Z</time>
      </trkpt>
      <trkpt lat="45.71572" lon="4.9616">
        <ele>207.766523</ele>
        <time>2021-07-10T23:14:54.540Z</time>
      </trkpt>
      <trkpt lat="45.71567" lon="4.96172">
        <ele>207.797667</ele>
        <time>2021-07-10T23:14:55.987Z</time>
      </trkpt>
      <trkpt lat="45.71561" lon="4.9619">
        <ele>207.842925</ele>
        <time>2021-07-10T23:14:58.188Z</time>
      </trkpt>
      <trkpt lat="45.71556" lon="4.96204">
        <ele>207.88098</ele>
        <time>2021-07-10T23:15:00.049Z</time>
      </trkpt>
      <trkpt lat="45.71544" lon="4.96235">
        <ele>207.962131</ele>
        <time>2021-07-10T23:15:03.930Z</time>
      </trkpt>
      <trkpt lat="45.71529" lon="4.96278">
        <ele>208.061274</ele>
        <time>2021-07-10T23:15:09.268Z</time>
      </trkpt>
      <trkpt lat="45.71521" lon="4.96303">
        <ele>208.11053</ele>
        <time>2021-07-10T23:15:12.391Z</time>
      </trkpt>
      <trkpt lat="45.71518" lon="4.9631">
        <ele>208.126112</ele>
        <time>2021-07-10T23:15:13.345Z</time>
      </trkpt>
      <trkpt lat="45.71489" lon="4.96398">
        <ele>208.30151</ele>
        <time>2021-07-10T23:15:24.110Z</time>
      </trkpt>
      <trkpt lat="45.71483" lon="4.96414">
        <ele>208.333548</ele>
        <time>2021-07-10T23:15:25.992Z</time>
      </trkpt>
      <trkpt lat="45.71481" lon="4.96421">
        <ele>208.348369</ele>
        <time>2021-07-10T23:15:26.889Z</time>
      </trkpt>
      <trkpt lat="45.71457" lon="4.9649">
        <ele>208.487008</ele>
        <time>2021-07-10T23:15:35.469Z</time>
      </trkpt>
      <trkpt lat="45.71407" lon="4.96635">
        <ele>208.826643</ele>
        <time>2021-07-10T23:15:53.449Z</time>
      </trkpt>
      <trkpt lat="45.71405" lon="4.96643">
        <ele>208.844894</ele>
        <time>2021-07-10T23:15:54.315Z</time>
      </trkpt>
      <trkpt lat="45.71398" lon="4.96663">
        <ele>208.891094</ele>
        <time>2021-07-10T23:15:56.741Z</time>
      </trkpt>
      <trkpt lat="45.71392" lon="4.9667">
        <ele>208.912743</ele>
        <time>2021-07-10T23:15:58.385Z</time>
      </trkpt>
      <trkpt lat="45.71375" lon="4.96734">
        <ele>209.053682</ele>
        <time>2021-07-10T23:16:08.870Z</time>
      </trkpt>
      <trkpt lat="45.71373" lon="4.96747">
        <ele>209.075215</ele>
        <time>2021-07-10T23:16:10.966Z</time>
      </trkpt>
      <trkpt lat="45.71371" lon="4.96752">
        <ele>209.084678</ele>
        <time>2021-07-10T23:16:11.749Z</time>
      </trkpt>
      <trkpt lat="45.71369" lon="4.96756">
        <ele>209.093693</ele>
        <time>2021-07-10T23:16:12.506Z</time>
      </trkpt>
      <trkpt lat="45.7136" lon="4.96765">
        <ele>209.120789</ele>
        <time>2021-07-10T23:16:15.025Z</time>
      </trkpt>
      <trkpt lat="45.71353" lon="4.96786">
        <ele>209.160526</ele>
        <time>2021-07-10T23:16:18.598Z</time>
      </trkpt>
      <trkpt lat="45.71352" lon="4.96792">
        <ele>209.171614</ele>
        <time>2021-07-10T23:16:19.501Z</time>
      </trkpt>
      <trkpt lat="45.71351" lon="4.96799">
        <ele>209.184431</ele>
        <time>2021-07-10T23:16:20.614Z</time>
      </trkpt>
      <trkpt lat="45.71349" lon="4.96809">
        <ele>209.202397</ele>
        <time>2021-07-10T23:16:22.272Z</time>
      </trkpt>
      <trkpt lat="45.71351" lon="4.96815">
        <ele>209.21476</ele>
        <time>2021-07-10T23:16:23.004Z</time>
      </trkpt>
      <trkpt lat="45.71353" lon="4.96826">
        <ele>209.233928</ele>
        <time>2021-07-10T23:16:24.181Z</time>
      </trkpt>
      <trkpt lat="45.71354" lon="4.96833">
        <ele>209.246049</ele>
        <time>2021-07-10T23:16:25.057Z</time>
      </trkpt>
      <trkpt lat="45.71318" lon="4.96934">
        <ele>209.443008</ele>
        <time>2021-07-10T23:16:37.048Z</time>
      </trkpt>
      <trkpt lat="45.71316" lon="4.96938">
        <ele>209.451503</ele>
        <time>2021-07-10T23:16:37.541Z</time>
      </trkpt>
      <trkpt lat="45.71312" lon="4.96946">
        <ele>209.46823</ele>
        <time>2021-07-10T23:16:38.573Z</time>
      </trkpt>
      <trkpt lat="45.71306" lon="4.96947">
        <ele>209.484737</ele>
        <time>2021-07-10T23:16:39.416Z</time>
      </trkpt>
      <trkpt lat="45.71301" lon="4.96951">
        <ele>209.501954</ele>
        <time>2021-07-10T23:16:40.279Z</time>
      </trkpt>
      <trkpt lat="45.71296" lon="4.96959">
        <ele>209.524496</ele>
        <time>2021-07-10T23:16:41.479Z</time>
      </trkpt>
      <trkpt lat="45.71295" lon="4.96964">
        <ele>209.535135</ele>
        <time>2021-07-10T23:16:41.981Z</time>
      </trkpt>
      <trkpt lat="45.71295" lon="4.96971">
        <ele>209.550785</ele>
        <time>2021-07-10T23:16:42.833Z</time>
      </trkpt>
      <trkpt lat="45.71295" lon="4.96978">
        <ele>209.566321</ele>
        <time>2021-07-10T23:16:43.654Z</time>
      </trkpt>
      <trkpt lat="45.71293" lon="4.97">
        <ele>209.614182</ele>
        <time>2021-07-10T23:16:46.192Z</time>
      </trkpt>
      <trkpt lat="45.71282" lon="4.97031">
        <ele>209.686998</ele>
        <time>2021-07-10T23:16:50.375Z</time>
      </trkpt>
      <trkpt lat="45.71271" lon="4.97043">
        <ele>209.728126</ele>
        <time>2021-07-10T23:16:52.599Z</time>
      </trkpt>
      <trkpt lat="45.71252" lon="4.97092">
        <ele>209.84847</ele>
        <time>2021-07-10T23:16:59.127Z</time>
      </trkpt>
      <trkpt lat="45.71247" lon="4.97102">
        <ele>209.873652</ele>
        <time>2021-07-10T23:17:00.485Z</time>
      </trkpt>
      <trkpt lat="45.71236" lon="4.97133">
        <ele>209.946752</ele>
        <time>2021-07-10T23:17:04.289Z</time>
      </trkpt>
      <trkpt lat="45.71239" lon="4.97144">
        <ele>209.971956</ele>
        <time>2021-07-10T23:17:05.575Z</time>
      </trkpt>
      <trkpt lat="45.7123" lon="4.97167">
        <ele>210.022589</ele>
        <time>2021-07-10T23:17:08.456Z</time>
      </trkpt>
      <trkpt lat="45.71225" lon="4.97182">
        <ele>210.03722</ele>
        <time>2021-07-10T23:17:10.107Z</time>
      </trkpt>
      <trkpt lat="45.71218" lon="4.972">
        <ele>210.055494</ele>
        <time>2021-07-10T23:17:12.452Z</time>
      </trkpt>
      <trkpt lat="45.71211" lon="4.97216">
        <ele>210.072117</ele>
        <time>2021-07-10T23:17:14.625Z</time>
      </trkpt>
      <trkpt lat="45.71207" lon="4.97223">
        <ele>210.080578</ele>
        <time>2021-07-10T23:17:15.548Z</time>
      </trkpt>
      <trkpt lat="45.71201" lon="4.97225">
        <ele>210.087377</ele>
        <time>2021-07-10T23:17:16.358Z</time>
      </trkpt>
      <trkpt lat="45.71196" lon="4.97229">
        <ele>210.095198</ele>
        <time>2021-07-10T23:17:17.421Z</time>
      </trkpt>
      <trkpt lat="45.71191" lon="4.97235">
        <ele>210.103824</ele>
        <time>2021-07-10T23:17:18.599Z</time>
      </trkpt>
      <trkpt lat="45.71188" lon="4.97242">
        <ele>210.110427</ele>
        <time>2021-07-10T23:17:19.463Z</time>
      </trkpt>
      <trkpt lat="45.71188" lon="4.97249">
        <ele>210.116839</ele>
        <time>2021-07-10T23:17:20.382Z</time>
      </trkpt>
      <trkpt lat="45.71194" lon="4.97268">
        <ele>210.135585</ele>
        <time>2021-07-10T23:17:22.567Z</time>
      </trkpt>
      <trkpt lat="45.71199" lon="4.97272">
        <ele>210.141893</ele>
        <time>2021-07-10T23:17:23.425Z</time>
      </trkpt>
      <trkpt lat="45.71204" lon="4.97273">
        <ele>210.149038</ele>
        <time>2021-07-10T23:17:24.351Z</time>
      </trkpt>
      <trkpt lat="45.71215" lon="4.97269">
        <ele>210.163189</ele>
        <time>2021-07-10T23:17:26.196Z</time>
      </trkpt>
      <trkpt lat="45.71219" lon="4.97264">
        <ele>210.170244</ele>
        <time>2021-07-10T23:17:26.970Z</time>
      </trkpt>
      <trkpt lat="45.71222" lon="4.97257">
        <ele>210.177455</ele>
        <time>2021-07-10T23:17:27.749Z</time>
      </trkpt>
      <trkpt lat="45.71222" lon="4.97241">
        <ele>210.191522</ele>
        <time>2021-07-10T23:17:29.524Z</time>
      </trkpt>
      <trkpt lat="45.7122" lon="4.97234">
        <ele>210.198712</ele>
        <time>2021-07-10T23:17:30.388Z</time>
      </trkpt>
      <trkpt lat="45.7122" lon="4.97221">
        <ele>210.209591</ele>
        <time>2021-07-10T23:17:31.782Z</time>
      </trkpt>
      <trkpt lat="45.71223" lon="4.97209">
        <ele>210.220948</ele>
        <time>2021-07-10T23:17:32.931Z</time>
      </trkpt>
      <trkpt lat="45.71246" lon="4.9715">
        <ele>210.172163</ele>
        <time>2021-07-10T23:17:39.675Z</time>
      </trkpt>
      <trkpt lat="45.71279" lon="4.97071">
        <ele>209.988479</ele>
        <time>2021-07-10T23:17:48.605Z</time>
      </trkpt>
      <trkpt lat="45.71304" lon="4.97009">
        <ele>209.843945</ele>
        <time>2021-07-10T23:17:55.223Z</time>
      </trkpt>
      <trkpt lat="45.71312" lon="4.96995">
        <ele>209.806989</ele>
        <time>2021-07-10T23:17:57.030Z</time>
      </trkpt>
      <trkpt lat="45.71316" lon="4.96994">
        <ele>209.797462</ele>
        <time>2021-07-10T23:17:57.476Z</time>
      </trkpt>
      <trkpt lat="45.71319" lon="4.96992">
        <ele>209.787687</ele>
        <time>2021-07-10T23:17:57.916Z</time>
      </trkpt>
      <trkpt lat="45.71321" lon="4.9699">
        <ele>209.779632</ele>
        <time>2021-07-10T23:17:58.301Z</time>
      </trkpt>
      <trkpt lat="45.71322" lon="4.96989">
        <ele>209.776139</ele>
        <time>2021-07-10T23:17:58.470Z</time>
      </trkpt>
      <trkpt lat="45.71325" lon="4.96985">
        <ele>209.76467</ele>
        <time>2021-07-10T23:17:58.991Z</time>
      </trkpt>
      <trkpt lat="45.71327" lon="4.96978">
        <ele>209.748768</ele>
        <time>2021-07-10T23:17:59.760Z</time>
      </trkpt>
      <trkpt lat="45.71327" lon="4.96962">
        <ele>209.739295</ele>
        <time>2021-07-10T23:18:01.265Z</time>
      </trkpt>
      <trkpt lat="45.71325" lon="4.96955">
        <ele>209.746698</ele>
        <time>2021-07-10T23:18:02.124Z</time>
      </trkpt>
      <trkpt lat="45.71321" lon="4.96951">
        <ele>209.753227</ele>
        <time>2021-07-10T23:18:02.777Z</time>
      </trkpt>
      <trkpt lat="45.71317" lon="4.96948">
        <ele>209.759561</ele>
        <time>2021-07-10T23:18:03.456Z</time>
      </trkpt>
      <trkpt lat="45.71312" lon="4.96946">
        <ele>209.766109</ele>
        <time>2021-07-10T23:18:04.097Z</time>
      </trkpt>
      <trkpt lat="45.71306" lon="4.96947">
        <ele>209.773818</ele>
        <time>2021-07-10T23:18:04.911Z</time>
      </trkpt>
      <trkpt lat="45.71301" lon="4.96951">
        <ele>209.781405</ele>
        <time>2021-07-10T23:18:05.715Z</time>
      </trkpt>
      <trkpt lat="45.71296" lon="4.96959">
        <ele>209.791338</ele>
        <time>2021-07-10T23:18:06.893Z</time>
      </trkpt>
      <trkpt lat="45.71295" lon="4.96964">
        <ele>209.796027</ele>
        <time>2021-07-10T23:18:07.447Z</time>
      </trkpt>
      <trkpt lat="45.71295" lon="4.96971">
        <ele>209.802923</ele>
        <time>2021-07-10T23:18:08.190Z</time>
      </trkpt>
      <trkpt lat="45.71295" lon="4.96978">
        <ele>209.809769</ele>
        <time>2021-07-10T23:18:08.946Z</time>
      </trkpt>
      <trkpt lat="45.71293" lon="4.97">
        <ele>209.83086</ele>
        <time>2021-07-10T23:18:11.328Z</time>
      </trkpt>
      <trkpt lat="45.71282" lon="4.97031">
        <ele>209.862947</ele>
        <time>2021-07-10T23:18:15.296Z</time>
      </trkpt>
      <trkpt lat="45.71271" lon="4.97043">
        <ele>209.881071</ele>
        <time>2021-07-10T23:18:17.485Z</time>
      </trkpt>
      <trkpt lat="45.71252" lon="4.97092">
        <ele>209.934102</ele>
        <time>2021-07-10T23:18:24.000Z</time>
      </trkpt>
      <trkpt lat="45.71247" lon="4.97102">
        <ele>209.945199</ele>
        <time>2021-07-10T23:18:25.331Z</time>
      </trkpt>
      <trkpt lat="45.71236" lon="4.97133">
        <ele>209.987967</ele>
        <time>2021-07-10T23:18:29.029Z</time>
      </trkpt>
      <trkpt lat="45.71239" lon="4.97144">
        <ele>210.028268</ele>
        <time>2021-07-10T23:18:30.322Z</time>
      </trkpt>
      <trkpt lat="45.7123" lon="4.97167">
        <ele>210.115855</ele>
        <time>2021-07-10T23:18:33.179Z</time>
      </trkpt>
      <trkpt lat="45.71225" lon="4.97182">
        <ele>210.172042</ele>
        <time>2021-07-10T23:18:35.019Z</time>
      </trkpt>
      <trkpt lat="45.71218" lon="4.972">
        <ele>210.242219</ele>
        <time>2021-07-10T23:18:37.408Z</time>
      </trkpt>
      <trkpt lat="45.71211" lon="4.97216">
        <ele>210.306057</ele>
        <time>2021-07-10T23:18:39.597Z</time>
      </trkpt>
      <trkpt lat="45.71207" lon="4.97223">
        <ele>210.338553</ele>
        <time>2021-07-10T23:18:40.668Z</time>
      </trkpt>
      <trkpt lat="45.71201" lon="4.97225">
        <ele>210.364664</ele>
        <time>2021-07-10T23:18:41.576Z</time>
      </trkpt>
      <trkpt lat="45.71196" lon="4.97229">
        <ele>210.394696</ele>
        <time>2021-07-10T23:18:42.657Z</time>
      </trkpt>
      <trkpt lat="45.71191" lon="4.97235">
        <ele>210.427825</ele>
        <time>2021-07-10T23:18:43.836Z</time>
      </trkpt>
      <trkpt lat="45.71188" lon="4.97242">
        <ele>210.453181</ele>
        <time>2021-07-10T23:18:44.716Z</time>
      </trkpt>
      <trkpt lat="45.71188" lon="4.97249">
        <ele>210.477808</ele>
        <time>2021-07-10T23:18:45.655Z</time>
      </trkpt>
      <trkpt lat="45.71194" lon="4.97268">
        <ele>210.549796</ele>
        <time>2021-07-10T23:18:48.145Z</time>
      </trkpt>
      <trkpt lat="45.71199" lon="4.97272">
        <ele>210.574023</ele>
        <time>2021-07-10T23:18:49.092Z</time>
      </trkpt>
      <trkpt lat="45.71196" lon="4.97282">
        <ele>210.613183</ele>
        <time>2021-07-10T23:18:50.955Z</time>
      </trkpt>
      <trkpt lat="45.71139" lon="4.97449">
        <ele>211.19002</ele>
        <time>2021-07-10T23:19:20.211Z</time>
      </trkpt>
      <trkpt lat="45.7113" lon="4.97475">
        <ele>211.274876</ele>
        <time>2021-07-10T23:19:24.527Z</time>
      </trkpt>
      <trkpt lat="45.71124" lon="4.97494">
        <ele>211.335395</ele>
        <time>2021-07-10T23:19:27.499Z</time>
      </trkpt>
      <trkpt lat="45.71118" lon="4.97511">
        <ele>211.39174</ele>
        <time>2021-07-10T23:19:30.327Z</time>
      </trkpt>
      <trkpt lat="45.71085" lon="4.97609">
        <ele>211.660416</ele>
        <time>2021-07-10T23:19:46.832Z</time>
      </trkpt>
      <trkpt lat="45.71081" lon="4.97623">
        <ele>211.683657</ele>
        <time>2021-07-10T23:19:49.164Z</time>
      </trkpt>
      <trkpt lat="45.71072" lon="4.97648">
        <ele>211.724637</ele>
        <time>2021-07-10T23:19:53.377Z</time>
      </trkpt>
      <trkpt lat="45.7106" lon="4.97683">
        <ele>211.783762</ele>
        <time>2021-07-10T23:19:59.325Z</time>
      </trkpt>
      <trkpt lat="45.71054" lon="4.97702">
        <ele>211.814967</ele>
        <time>2021-07-10T23:20:02.341Z</time>
      </trkpt>
      <trkpt lat="45.71053" lon="4.97705">
        <ele>211.81997</ele>
        <time>2021-07-10T23:20:02.810Z</time>
      </trkpt>
      <trkpt lat="45.71046" lon="4.97726">
        <ele>211.856042</ele>
        <time>2021-07-10T23:20:06.179Z</time>
      </trkpt>
      <trkpt lat="45.71037" lon="4.97751">
        <ele>211.897712</ele>
        <time>2021-07-10T23:20:10.098Z</time>
      </trkpt>
      <trkpt lat="45.71028" lon="4.97777">
        <ele>211.9416</ele>
        <time>2021-07-10T23:20:14.218Z</time>
      </trkpt>
      <trkpt lat="45.70927" lon="4.98077">
        <ele>212.649582</ele>
        <time>2021-07-10T23:21:03.685Z</time>
      </trkpt>
      <trkpt lat="45.70915" lon="4.98114">
        <ele>212.829519</ele>
        <time>2021-07-10T23:21:10.377Z</time>
      </trkpt>
      <trkpt lat="45.70868" lon="4.98252">
        <ele>213.492702</ele>
        <time>2021-07-10T23:21:35.054Z</time>
      </trkpt>
      <trkpt lat="45.70855" lon="4.98292">
        <ele>213.663549</ele>
        <time>2021-07-10T23:21:42.317Z</time>
      </trkpt>
      <trkpt lat="45.70822" lon="4.98387">
        <ele>214.009824</ele>
        <time>2021-07-10T23:21:58.933Z</time>
      </trkpt>
      <trkpt lat="45.70812" lon="4.98404">
        <ele>214.085839</ele>
        <time>2021-07-10T23:22:01.615Z</time>
      </trkpt>
      <trkpt lat="45.70802" lon="4.98433">
        <ele>214.19181</ele>
        <time>2021-07-10T23:22:05.335Z</time>
      </trkpt>
      <trkpt lat="45.70771" lon="4.98522">
        <ele>214.452575</ele>
        <time>2021-07-10T23:22:16.438Z</time>
      </trkpt>
      <trkpt lat="45.70764" lon="4.98557">
        <ele>214.474102</ele>
        <time>2021-07-10T23:22:20.429Z</time>
      </trkpt>
      <trkpt lat="45.70741" lon="4.98628">
        <ele>214.519942</ele>
        <time>2021-07-10T23:22:28.696Z</time>
      </trkpt>
      <trkpt lat="45.70735" lon="4.98657">
        <ele>214.53734</ele>
        <time>2021-07-10T23:22:31.781Z</time>
      </trkpt>
      <trkpt lat="45.70741" lon="4.98675">
        <ele>214.548554</ele>
        <time>2021-07-10T23:22:33.839Z</time>
      </trkpt>
      <trkpt lat="45.70745" lon="4.98687">
        <ele>214.556223</ele>
        <time>2021-07-10T23:22:35.212Z</time>
      </trkpt>
      <trkpt lat="45.70749" lon="4.98699">
        <ele>214.564386</ele>
        <time>2021-07-10T23:22:36.615Z</time>
      </trkpt>
      <trkpt lat="45.70763" lon="4.98757">
        <ele>214.576035</ele>
        <time>2021-07-10T23:22:42.927Z</time>
      </trkpt>
      <trkpt lat="45.70767" lon="4.98773">
        <ele>214.565521</ele>
        <time>2021-07-10T23:22:44.618Z</time>
      </trkpt>
      <trkpt lat="45.70775" lon="4.98792">
        <ele>214.551348</ele>
        <time>2021-07-10T23:22:46.786Z</time>
      </trkpt>
      <trkpt lat="45.70863" lon="4.98908">
        <ele>214.441156</ele>
        <time>2021-07-10T23:23:03.834Z</time>
      </trkpt>
      <trkpt lat="45.70947" lon="4.98999">
        <ele>214.680283</ele>
        <time>2021-07-10T23:23:19.688Z</time>
      </trkpt>
      <trkpt lat="45.70971" lon="4.99018">
        <ele>214.762509</ele>
        <time>2021-07-10T23:23:24.053Z</time>
      </trkpt>
      <trkpt lat="45.7098" lon="4.99024">
        <ele>214.793186</ele>
        <time>2021-07-10T23:23:25.760Z</time>
      </trkpt>
      <trkpt lat="45.70998" lon="4.99034">
        <ele>214.849039</ele>
        <time>2021-07-10T23:23:28.958Z</time>
      </trkpt>
      <trkpt lat="45.71003" lon="4.99036">
        <ele>214.865391</ele>
        <time>2021-07-10T23:23:29.900Z</time>
      </trkpt>
      <trkpt lat="45.71051" lon="4.99063">
        <ele>215.116821</ele>
        <time>2021-07-10T23:23:39.176Z</time>
      </trkpt>
      <trkpt lat="45.7112" lon="4.99108">
        <ele>215.711621</ele>
        <time>2021-07-10T23:23:52.987Z</time>
      </trkpt>
      <trkpt lat="45.71138" lon="4.99125">
        <ele>215.88044</ele>
        <time>2021-07-10T23:23:57.052Z</time>
      </trkpt>
      <trkpt lat="45.71179" lon="4.99181">
        <ele>216.319444</ele>
        <time>2021-07-10T23:24:07.137Z</time>
      </trkpt>
      <trkpt lat="45.71241" lon="4.99273">
        <ele>216.722191</ele>
        <time>2021-07-10T23:24:22.689Z</time>
      </trkpt>
      <trkpt lat="45.71247" lon="4.99281">
        <ele>216.75662</ele>
        <time>2021-07-10T23:24:23.941Z</time>
      </trkpt>
      <trkpt lat="45.71285" lon="4.99343">
        <ele>217.000479</ele>
        <time>2021-07-10T23:24:33.271Z</time>
      </trkpt>
      <trkpt lat="45.71281" lon="4.99351">
        <ele>217.027173</ele>
        <time>2021-07-10T23:24:34.314Z</time>
      </trkpt>
      <trkpt lat="45.71281" lon="4.99368">
        <ele>217.079602</ele>
        <time>2021-07-10T23:24:36.246Z</time>
      </trkpt>
      <trkpt lat="45.71288" lon="4.99383">
        <ele>217.13198</ele>
        <time>2021-07-10T23:24:38.105Z</time>
      </trkpt>
      <trkpt lat="45.71293" lon="4.99386">
        <ele>217.126891</ele>
        <time>2021-07-10T23:24:38.996Z</time>
      </trkpt>
      <trkpt lat="45.71299" lon="4.99387">
        <ele>217.120634</ele>
        <time>2021-07-10T23:24:40.042Z</time>
      </trkpt>
      <trkpt lat="45.71314" lon="4.99376">
        <ele>217.104693</ele>
        <time>2021-07-10T23:24:42.514Z</time>
      </trkpt>
      <trkpt lat="45.71316" lon="4.99368">
        <ele>217.099254</ele>
        <time>2021-07-10T23:24:43.333Z</time>
      </trkpt>
      <trkpt lat="45.71324" lon="4.99372">
        <ele>217.091814</ele>
        <time>2021-07-10T23:24:44.554Z</time>
      </trkpt>
      <trkpt lat="45.71356" lon="4.99393">
        <ele>217.058266</ele>
        <time>2021-07-10T23:24:49.603Z</time>
      </trkpt>
      <trkpt lat="45.71369" lon="4.99403">
        <ele>217.043408</ele>
        <time>2021-07-10T23:24:51.818Z</time>
      </trkpt>
      <trkpt lat="45.71405" lon="4.9943">
        <ele>217.004787</ele>
        <time>2021-07-10T23:24:57.561Z</time>
      </trkpt>
      <trkpt lat="45.71425" lon="4.99447">
        <ele>216.982548</ele>
        <time>2021-07-10T23:25:00.825Z</time>
      </trkpt>
      <trkpt lat="45.71447" lon="4.99473">
        <ele>216.953457</ele>
        <time>2021-07-10T23:25:04.777Z</time>
      </trkpt>
      <trkpt lat="45.71457" lon="4.99486">
        <ele>216.934796</ele>
        <time>2021-07-10T23:25:06.706Z</time>
      </trkpt>
      <trkpt lat="45.7151" lon="4.99554">
        <ele>216.838288</ele>
        <time>2021-07-10T23:25:16.445Z</time>
      </trkpt>
      <trkpt lat="45.71527" lon="4.99567">
        <ele>216.812203</ele>
        <time>2021-07-10T23:25:19.030Z</time>
      </trkpt>
      <trkpt lat="45.71542" lon="4.9958">
        <ele>216.787774</ele>
        <time>2021-07-10T23:25:21.473Z</time>
      </trkpt>
      <trkpt lat="45.71684" lon="4.99671">
        <ele>217.02616</ele>
        <time>2021-07-10T23:25:45.605Z</time>
      </trkpt>
      <trkpt lat="45.71696" lon="4.99681">
        <ele>217.068395</ele>
        <time>2021-07-10T23:25:48.108Z</time>
      </trkpt>
      <trkpt lat="45.71703" lon="4.99689">
        <ele>217.096522</ele>
        <time>2021-07-10T23:25:49.581Z</time>
      </trkpt>
      <trkpt lat="45.71706" lon="4.99698">
        <ele>217.118275</ele>
        <time>2021-07-10T23:25:50.749Z</time>
      </trkpt>
      <trkpt lat="45.71707" lon="4.99705">
        <ele>217.132059</ele>
        <time>2021-07-10T23:25:51.617Z</time>
      </trkpt>
      <trkpt lat="45.71713" lon="4.99714">
        <ele>217.159286</ele>
        <time>2021-07-10T23:25:53.392Z</time>
      </trkpt>
      <trkpt lat="45.71727" lon="4.99714">
        <ele>217.199544</ele>
        <time>2021-07-10T23:25:55.390Z</time>
      </trkpt>
      <trkpt lat="45.7173" lon="4.9971">
        <ele>217.21344</ele>
        <time>2021-07-10T23:25:56.178Z</time>
      </trkpt>
      <trkpt lat="45.71736" lon="4.99707">
        <ele>217.231267</ele>
        <time>2021-07-10T23:25:57.146Z</time>
      </trkpt>
      <trkpt lat="45.71743" lon="4.99708">
        <ele>217.252033</ele>
        <time>2021-07-10T23:25:58.360Z</time>
      </trkpt>
      <trkpt lat="45.71745" lon="4.99713">
        <ele>217.264789</ele>
        <time>2021-07-10T23:25:59.443Z</time>
      </trkpt>
      <trkpt lat="45.71927" lon="4.99786">
        <ele>217.452379</ele>
        <time>2021-07-10T23:26:28.252Z</time>
      </trkpt>
      <trkpt lat="45.71942" lon="4.99798">
        <ele>217.389449</ele>
        <time>2021-07-10T23:26:30.634Z</time>
      </trkpt>
      <trkpt lat="45.71958" lon="4.99822">
        <ele>217.305693</ele>
        <time>2021-07-10T23:26:33.532Z</time>
      </trkpt>
      <trkpt lat="45.71962" lon="4.99838">
        <ele>217.261556</ele>
        <time>2021-07-10T23:26:35.224Z</time>
      </trkpt>
      <trkpt lat="45.71964" lon="4.99846">
        <ele>217.2406</ele>
        <time>2021-07-10T23:26:35.878Z</time>
      </trkpt>
      <trkpt lat="45.71968" lon="4.99849">
        <ele>217.225412</ele>
        <time>2021-07-10T23:26:36.347Z</time>
      </trkpt>
      <trkpt lat="45.71993" lon="4.99845">
        <ele>217.132397</ele>
        <time>2021-07-10T23:26:40.078Z</time>
      </trkpt>
      <trkpt lat="45.72018" lon="4.99849">
        <ele>217.038746</ele>
        <time>2021-07-10T23:26:43.375Z</time>
      </trkpt>
      <trkpt lat="45.72074" lon="4.9989">
        <ele>216.850378</ele>
        <time>2021-07-10T23:26:51.865Z</time>
      </trkpt>
      <trkpt lat="45.72109" lon="4.99919">
        <ele>216.988171</ele>
        <time>2021-07-10T23:26:57.408Z</time>
      </trkpt>
      <trkpt lat="45.72118" lon="4.99927">
        <ele>217.025531</ele>
        <time>2021-07-10T23:26:59.320Z</time>
      </trkpt>
      <trkpt lat="45.72175" lon="4.99977">
        <ele>217.256263</ele>
        <time>2021-07-10T23:27:10.310Z</time>
      </trkpt>
      <trkpt lat="45.7218" lon="4.99981">
        <ele>217.274589</ele>
        <time>2021-07-10T23:27:11.387Z</time>
      </trkpt>
      <trkpt lat="45.72188" lon="4.99986">
        <ele>217.306643</ele>
        <time>2021-07-10T23:27:12.745Z</time>
      </trkpt>
      <trkpt lat="45.72236" lon="5.00019">
        <ele>217.585374</ele>
        <time>2021-07-10T23:27:22.301Z</time>
      </trkpt>
      <trkpt lat="45.72254" lon="5.00032">
        <ele>217.814743</ele>
        <time>2021-07-10T23:27:25.756Z</time>
      </trkpt>
      <trkpt lat="45.72263" lon="5.00038">
        <ele>217.928913</ele>
        <time>2021-07-10T23:27:27.750Z</time>
      </trkpt>
      <trkpt lat="45.72423" lon="5.00137">
        <ele>220.427985</ele>
        <time>2021-07-10T23:28:02.299Z</time>
      </trkpt>
      <trkpt lat="45.72428" lon="5.00134">
        <ele>220.569148</ele>
        <time>2021-07-10T23:28:03.765Z</time>
      </trkpt>
      <trkpt lat="45.72434" lon="5.00138">
        <ele>220.726731</ele>
        <time>2021-07-10T23:28:05.394Z</time>
      </trkpt>
      <trkpt lat="45.72455" lon="5.0015">
        <ele>221.278806</ele>
        <time>2021-07-10T23:28:10.608Z</time>
      </trkpt>
      <trkpt lat="45.72472" lon="5.00163">
        <ele>221.761503</ele>
        <time>2021-07-10T23:28:15.501Z</time>
      </trkpt>
      <trkpt lat="45.72484" lon="5.00172">
        <ele>222.099195</ele>
        <time>2021-07-10T23:28:18.782Z</time>
      </trkpt>
      <trkpt lat="45.72485" lon="5.00173">
        <ele>222.11787</ele>
        <time>2021-07-10T23:28:19.065Z</time>
      </trkpt>
      <trkpt lat="45.72489" lon="5.00176">
        <ele>222.244583</ele>
        <time>2021-07-10T23:28:20.232Z</time>
      </trkpt>
      <trkpt lat="45.72497" lon="5.00182">
        <ele>222.455284</ele>
        <time>2021-07-10T23:28:22.606Z</time>
      </trkpt>
      <trkpt lat="45.72507" lon="5.0019">
        <ele>222.736091</ele>
        <time>2021-07-10T23:28:25.428Z</time>
      </trkpt>
      <trkpt lat="45.72518" lon="5.00199">
        <ele>223.073661</ele>
        <time>2021-07-10T23:28:28.871Z</time>
      </trkpt>
      <trkpt lat="45.72524" lon="5.00203">
        <ele>223.216771</ele>
        <time>2021-07-10T23:28:30.284Z</time>
      </trkpt>
      <trkpt lat="45.72525" lon="5.00203">
        <ele>223.24435</ele>
        <time>2021-07-10T23:28:30.754Z</time>
      </trkpt>
      <trkpt lat="45.72563" lon="5.0023">
        <ele>224.339043</ele>
        <time>2021-07-10T23:28:43.203Z</time>
      </trkpt>
      <trkpt lat="45.72589" lon="5.00251">
        <ele>225.220088</ele>
        <time>2021-07-10T23:28:52.094Z</time>
      </trkpt>
      <trkpt lat="45.72602" lon="5.00269">
        <ele>225.756552</ele>
        <time>2021-07-10T23:28:56.995Z</time>
      </trkpt>
      <trkpt lat="45.72619" lon="5.00308">
        <ele>226.688902</ele>
        <time>2021-07-10T23:29:06.608Z</time>
      </trkpt>
      <trkpt lat="45.7263" lon="5.00364">
        <ele>227.880611</ele>
        <time>2021-07-10T23:29:17.151Z</time>
      </trkpt>
      <trkpt lat="45.72634" lon="5.00375">
        <ele>228.140786</ele>
        <time>2021-07-10T23:29:19.944Z</time>
      </trkpt>
      <trkpt lat="45.72643" lon="5.00388">
        <ele>228.497253</ele>
        <time>2021-07-10T23:29:22.785Z</time>
      </trkpt>
      <trkpt lat="45.72676" lon="5.00423">
        <ele>229.267492</ele>
        <time>2021-07-10T23:29:31.783Z</time>
      </trkpt>
      <trkpt lat="45.72703" lon="5.0046">
        <ele>229.267492</ele>
        <time>2021-07-10T23:29:39.700Z</time>
      </trkpt>
      <trkpt lat="45.72713" lon="5.00475">
        <ele>229.267492</ele>
        <time>2021-07-10T23:29:42.677Z</time>
      </trkpt>
      <trkpt lat="45.72728" lon="5.00494">
        <ele>229.267492</ele>
        <time>2021-07-10T23:29:46.586Z</time>
      </trkpt>
      <trkpt lat="45.72738" lon="5.00506">
        <ele>229.267492</ele>
        <time>2021-07-10T23:29:48.936Z</time>
      </trkpt>
      <trkpt lat="45.72745" lon="5.00516">
        <ele>229.267492</ele>
        <time>2021-07-10T23:29:51.215Z</time>
      </trkpt>
      <trkpt lat="45.72756" lon="5.00528">
        <ele>229.267492</ele>
        <time>2021-07-10T23:29:53.570Z</time>
      </trkpt>
      <trkpt lat="45.72767" lon="5.00543">
        <ele>229.267492</ele>
        <time>2021-07-10T23:29:55.698Z</time>
      </trkpt>
      <trkpt lat="45.72763" lon="5.0055">
        <ele>229.267492</ele>
        <time>2021-07-10T23:30:03.391Z</time>
      </trkpt>
      <trkpt lat="45.72803" lon="5.00599">
        <ele>229.267492</ele>
        <time>2021-07-10T23:30:14.024Z</time>
      </trkpt>
    </trkseg>
  </trk>
</gpx>